<?xml version="1.0" encoding="UTF-8" standalone="no" ?>
<gpx xmlns="http://www.topografix.com/GPX/1/1" xmlns:xsi="http://www.w3.org/2001/XMLSchema-instance" xsi:schemaLocation="http://www.topografix.com/GPX/1/1 http://www.topografix.com/GPX/1/1/gpx.xsd" version="1.1" creator="VisuGPX - https://www.visugpx.com">
  <metadata>
    <name>TET_F-29_20211201</name>
    <desc><![CDATA[

]]></desc>
  </metadata>
  <trk>
    <name><![CDATA[TET_F-29_20211201]]></name>
    <trkseg>
      <trkpt lat="44.88429" lon="0.52509">
        <ele>51.5</ele>
        <time>2018-04-21T06:58:03Z</time>
      </trkpt>
      <trkpt lat="44.88429" lon="0.5251">
        <ele>51.1</ele>
        <time>2018-04-21T06:58:03Z</time>
      </trkpt>
      <trkpt lat="44.88451" lon="0.5252">
        <ele>51.2</ele>
        <time>2018-04-21T06:58:09Z</time>
      </trkpt>
      <trkpt lat="44.88635" lon="0.52682">
        <ele>58.7</ele>
        <time>2018-04-21T06:59:02Z</time>
      </trkpt>
      <trkpt lat="44.88635" lon="0.52682">
        <ele>58.7</ele>
        <time>2018-04-21T06:59:02Z</time>
      </trkpt>
      <trkpt lat="44.88657" lon="0.52701">
        <ele>60.6</ele>
        <time>2018-04-21T06:59:09Z</time>
      </trkpt>
      <trkpt lat="44.88793" lon="0.5276">
        <ele>62.9</ele>
        <time>2018-04-21T06:59:44Z</time>
      </trkpt>
      <trkpt lat="44.88819" lon="0.52761">
        <ele>63.5</ele>
        <time>2018-04-21T06:59:51Z</time>
      </trkpt>
      <trkpt lat="44.88904" lon="0.52769">
        <ele>65.1</ele>
        <time>2018-04-21T07:00:12Z</time>
      </trkpt>
      <trkpt lat="44.88968" lon="0.52792">
        <ele>69.8</ele>
        <time>2018-04-21T07:00:28Z</time>
      </trkpt>
      <trkpt lat="44.89113" lon="0.52938">
        <ele>75.9</ele>
        <time>2018-04-21T07:01:12Z</time>
      </trkpt>
      <trkpt lat="44.89255" lon="0.53087">
        <ele>85.7</ele>
        <time>2018-04-21T07:01:56Z</time>
      </trkpt>
      <trkpt lat="44.89363" lon="0.53217">
        <ele>89.1</ele>
        <time>2018-04-21T07:02:31Z</time>
      </trkpt>
      <trkpt lat="44.89462" lon="0.53357">
        <ele>93</ele>
        <time>2018-04-21T07:03:06Z</time>
      </trkpt>
      <trkpt lat="44.89479" lon="0.53361">
        <ele>93.2</ele>
        <time>2018-04-21T07:03:10Z</time>
      </trkpt>
      <trkpt lat="44.89627" lon="0.53292">
        <ele>96.4</ele>
        <time>2018-04-21T07:03:49Z</time>
      </trkpt>
      <trkpt lat="44.89688" lon="0.53215">
        <ele>102.2</ele>
        <time>2018-04-21T07:04:09Z</time>
      </trkpt>
      <trkpt lat="44.89703" lon="0.53198">
        <ele>106.2</ele>
        <time>2018-04-21T07:04:14Z</time>
      </trkpt>
      <trkpt lat="44.89719" lon="0.53189">
        <ele>106.1</ele>
        <time>2018-04-21T07:04:18Z</time>
      </trkpt>
      <trkpt lat="44.8979" lon="0.5315">
        <ele>110.6</ele>
        <time>2018-04-21T07:04:37Z</time>
      </trkpt>
      <trkpt lat="44.89835" lon="0.53014">
        <ele>118.3</ele>
        <time>2018-04-21T07:05:03Z</time>
      </trkpt>
      <trkpt lat="44.89885" lon="0.52963">
        <ele>121.8</ele>
        <time>2018-04-21T07:05:19Z</time>
      </trkpt>
      <trkpt lat="44.89926" lon="0.52946">
        <ele>122.6</ele>
        <time>2018-04-21T07:05:29Z</time>
      </trkpt>
      <trkpt lat="44.89996" lon="0.53056">
        <ele>125.1</ele>
        <time>2018-04-21T07:05:59Z</time>
      </trkpt>
      <trkpt lat="44.90069" lon="0.53142">
        <ele>128.5</ele>
        <time>2018-04-21T07:06:24Z</time>
      </trkpt>
      <trkpt lat="44.90128" lon="0.53158">
        <ele>131.8</ele>
        <time>2018-04-21T07:06:38Z</time>
      </trkpt>
      <trkpt lat="44.90249" lon="0.53162">
        <ele>138.4</ele>
        <time>2018-04-21T07:07:08Z</time>
      </trkpt>
      <trkpt lat="44.90276" lon="0.5311">
        <ele>138.3</ele>
        <time>2018-04-21T07:07:20Z</time>
      </trkpt>
      <trkpt lat="44.90276" lon="0.5311">
        <ele>138.3</ele>
        <time>2018-04-21T07:07:20Z</time>
      </trkpt>
      <trkpt lat="44.90332" lon="0.52997">
        <ele>138.1</ele>
        <time>2018-04-21T07:07:44Z</time>
      </trkpt>
      <trkpt lat="44.90388" lon="0.52768">
        <ele>138.6</ele>
        <time>2018-04-21T07:08:27Z</time>
      </trkpt>
      <trkpt lat="44.90506" lon="0.5239">
        <ele>142</ele>
        <time>2018-04-21T07:09:39Z</time>
      </trkpt>
      <trkpt lat="44.90503" lon="0.52282">
        <ele>144</ele>
        <time>2018-04-21T07:09:58Z</time>
      </trkpt>
      <trkpt lat="44.90496" lon="0.52183">
        <ele>144.6</ele>
        <time>2018-04-21T07:10:15Z</time>
      </trkpt>
      <trkpt lat="44.90578" lon="0.51921">
        <ele>142.1</ele>
        <time>2018-04-21T07:11:05Z</time>
      </trkpt>
      <trkpt lat="44.90578" lon="0.51921">
        <ele>142.1</ele>
        <time>2018-04-21T07:11:05Z</time>
      </trkpt>
      <trkpt lat="44.90757" lon="0.51792">
        <ele>139.9</ele>
        <time>2018-04-21T07:12:06Z</time>
      </trkpt>
      <trkpt lat="44.90842" lon="0.51809">
        <ele>136.8</ele>
        <time>2018-04-21T07:12:27Z</time>
      </trkpt>
      <trkpt lat="44.90923" lon="0.51842">
        <ele>131.8</ele>
        <time>2018-04-21T07:12:48Z</time>
      </trkpt>
      <trkpt lat="44.90991" lon="0.5186">
        <ele>128.5</ele>
        <time>2018-04-21T07:13:05Z</time>
      </trkpt>
      <trkpt lat="44.91118" lon="0.51886">
        <ele>127.7</ele>
        <time>2018-04-21T07:13:36Z</time>
      </trkpt>
      <trkpt lat="44.91255" lon="0.51885">
        <ele>131.1</ele>
        <time>2018-04-21T07:14:11Z</time>
      </trkpt>
      <trkpt lat="44.91422" lon="0.51957">
        <ele>130.3</ele>
        <time>2018-04-21T07:14:54Z</time>
      </trkpt>
      <trkpt lat="44.91593" lon="0.5198">
        <ele>126.2</ele>
        <time>2018-04-21T07:15:36Z</time>
      </trkpt>
      <trkpt lat="44.91634" lon="0.51992">
        <ele>121.4</ele>
        <time>2018-04-21T07:15:47Z</time>
      </trkpt>
      <trkpt lat="44.91634" lon="0.51992">
        <ele>121.4</ele>
        <time>2018-04-21T07:15:47Z</time>
      </trkpt>
      <trkpt lat="44.91614" lon="0.52083">
        <ele>118</ele>
        <time>2018-04-21T07:16:03Z</time>
      </trkpt>
      <trkpt lat="44.91588" lon="0.52133">
        <ele>117.7</ele>
        <time>2018-04-21T07:16:14Z</time>
      </trkpt>
      <trkpt lat="44.91514" lon="0.52292">
        <ele>115.6</ele>
        <time>2018-04-21T07:16:49Z</time>
      </trkpt>
      <trkpt lat="44.91452" lon="0.52341">
        <ele>114</ele>
        <time>2018-04-21T07:17:07Z</time>
      </trkpt>
      <trkpt lat="44.91382" lon="0.52469">
        <ele>112.8</ele>
        <time>2018-04-21T07:17:37Z</time>
      </trkpt>
      <trkpt lat="44.91381" lon="0.52588">
        <ele>117.7</ele>
        <time>2018-04-21T07:17:58Z</time>
      </trkpt>
      <trkpt lat="44.91372" lon="0.52713">
        <ele>118</ele>
        <time>2018-04-21T07:18:20Z</time>
      </trkpt>
      <trkpt lat="44.91365" lon="0.52831">
        <ele>115</ele>
        <time>2018-04-21T07:18:42Z</time>
      </trkpt>
      <trkpt lat="44.91304" lon="0.52907">
        <ele>109</ele>
        <time>2018-04-21T07:19:02Z</time>
      </trkpt>
      <trkpt lat="44.91307" lon="0.52918">
        <ele>98</ele>
        <time>2018-04-21T07:19:04Z</time>
      </trkpt>
      <trkpt lat="44.91308" lon="0.52933">
        <ele>98</ele>
        <time>2018-04-21T07:19:07Z</time>
      </trkpt>
      <trkpt lat="44.91309" lon="0.53022">
        <ele>96.7</ele>
        <time>2018-04-21T07:19:22Z</time>
      </trkpt>
      <trkpt lat="44.91307" lon="0.53082">
        <ele>94.8</ele>
        <time>2018-04-21T07:19:33Z</time>
      </trkpt>
      <trkpt lat="44.91316" lon="0.53189">
        <ele>91.4</ele>
        <time>2018-04-21T07:19:53Z</time>
      </trkpt>
      <trkpt lat="44.91316" lon="0.53189">
        <ele>91.4</ele>
        <time>2018-04-21T07:19:53Z</time>
      </trkpt>
      <trkpt lat="44.91274" lon="0.5324">
        <ele>82.4</ele>
        <time>2018-04-21T07:20:08Z</time>
      </trkpt>
      <trkpt lat="44.91336" lon="0.53328">
        <ele>81.8</ele>
        <time>2018-04-21T07:20:30Z</time>
      </trkpt>
      <trkpt lat="44.91315" lon="0.53431">
        <ele>82.8</ele>
        <time>2018-04-21T07:20:50Z</time>
      </trkpt>
      <trkpt lat="44.91347" lon="0.53416">
        <ele>85.7</ele>
        <time>2018-04-21T07:21:21Z</time>
      </trkpt>
      <trkpt lat="44.91429" lon="0.53318">
        <ele>102.8</ele>
        <time>2018-04-21T07:21:48Z</time>
      </trkpt>
      <trkpt lat="44.91468" lon="0.53299">
        <ele>108.7</ele>
        <time>2018-04-21T07:21:58Z</time>
      </trkpt>
      <trkpt lat="44.9156" lon="0.53294">
        <ele>112.9</ele>
        <time>2018-04-21T07:22:21Z</time>
      </trkpt>
      <trkpt lat="44.91593" lon="0.53271">
        <ele>115.9</ele>
        <time>2018-04-21T07:22:30Z</time>
      </trkpt>
      <trkpt lat="44.91684" lon="0.53265">
        <ele>122.1</ele>
        <time>2018-04-21T07:22:52Z</time>
      </trkpt>
      <trkpt lat="44.91684" lon="0.53265">
        <ele>120</ele>
        <time>2018-04-21T07:22:52Z</time>
      </trkpt>
      <trkpt lat="44.91713" lon="0.53253">
        <ele>123</ele>
        <time>2018-04-21T07:23:00Z</time>
      </trkpt>
      <trkpt lat="44.91738" lon="0.53236">
        <ele>130.5</ele>
        <time>2018-04-21T07:23:07Z</time>
      </trkpt>
      <trkpt lat="44.91736" lon="0.53233">
        <ele>127.6</ele>
        <time>2018-04-21T07:23:07Z</time>
      </trkpt>
      <trkpt lat="44.91756" lon="0.53207">
        <ele>132.7</ele>
        <time>2018-04-21T07:23:14Z</time>
      </trkpt>
      <trkpt lat="44.91777" lon="0.53181">
        <ele>136.6</ele>
        <time>2018-04-21T07:23:21Z</time>
      </trkpt>
      <trkpt lat="44.91799" lon="0.53179">
        <ele>138.8</ele>
        <time>2018-04-21T07:23:26Z</time>
      </trkpt>
      <trkpt lat="44.91821" lon="0.53177">
        <ele>137.3</ele>
        <time>2018-04-21T07:23:32Z</time>
      </trkpt>
      <trkpt lat="44.91885" lon="0.53179">
        <ele>137.1</ele>
        <time>2018-04-21T07:23:48Z</time>
      </trkpt>
      <trkpt lat="44.91978" lon="0.5325">
        <ele>138.9</ele>
        <time>2018-04-21T07:24:17Z</time>
      </trkpt>
      <trkpt lat="44.92012" lon="0.53259">
        <ele>140.3</ele>
        <time>2018-04-21T07:24:26Z</time>
      </trkpt>
      <trkpt lat="44.92189" lon="0.53291">
        <ele>142.3</ele>
        <time>2018-04-21T07:25:10Z</time>
      </trkpt>
      <trkpt lat="44.92229" lon="0.53308">
        <ele>142.4</ele>
        <time>2018-04-21T07:25:20Z</time>
      </trkpt>
      <trkpt lat="44.92338" lon="0.53295">
        <ele>146.1</ele>
        <time>2018-04-21T07:25:47Z</time>
      </trkpt>
      <trkpt lat="44.92521" lon="0.53199">
        <ele>151.2</ele>
        <time>2018-04-21T07:26:35Z</time>
      </trkpt>
      <trkpt lat="44.92731" lon="0.53149">
        <ele>152.5</ele>
        <time>2018-04-21T07:27:28Z</time>
      </trkpt>
      <trkpt lat="44.92841" lon="0.53094">
        <ele>151.6</ele>
        <time>2018-04-21T07:27:58Z</time>
      </trkpt>
      <trkpt lat="44.92963" lon="0.53189">
        <ele>151.5</ele>
        <time>2018-04-21T07:28:33Z</time>
      </trkpt>
      <trkpt lat="44.93018" lon="0.5324">
        <ele>155.3</ele>
        <time>2018-04-21T07:28:49Z</time>
      </trkpt>
      <trkpt lat="44.93116" lon="0.53309">
        <ele>158.1</ele>
        <time>2018-04-21T07:29:16Z</time>
      </trkpt>
      <trkpt lat="44.93256" lon="0.53317">
        <ele>159.9</ele>
        <time>2018-04-21T07:29:51Z</time>
      </trkpt>
      <trkpt lat="44.93354" lon="0.53299">
        <ele>157.2</ele>
        <time>2018-04-21T07:30:15Z</time>
      </trkpt>
      <trkpt lat="44.93345" lon="0.53147">
        <ele>155.8</ele>
        <time>2018-04-21T07:30:43Z</time>
      </trkpt>
      <trkpt lat="44.93495" lon="0.52985">
        <ele>153.2</ele>
        <time>2018-04-21T07:31:36Z</time>
      </trkpt>
      <trkpt lat="44.93755" lon="0.52915">
        <ele>150.8</ele>
        <time>2018-04-21T07:32:42Z</time>
      </trkpt>
      <trkpt lat="44.93755" lon="0.52915">
        <ele>150.8</ele>
        <time>2018-04-21T07:32:42Z</time>
      </trkpt>
      <trkpt lat="44.93959" lon="0.52803">
        <ele>145.7</ele>
        <time>2018-04-21T07:33:36Z</time>
      </trkpt>
      <trkpt lat="44.93981" lon="0.52774">
        <ele>144.1</ele>
        <time>2018-04-21T07:33:44Z</time>
      </trkpt>
      <trkpt lat="44.94002" lon="0.52745">
        <ele>142.6</ele>
        <time>2018-04-21T07:33:51Z</time>
      </trkpt>
      <trkpt lat="44.93955" lon="0.52665">
        <ele>145.6</ele>
        <time>2018-04-21T07:34:09Z</time>
      </trkpt>
      <trkpt lat="44.93932" lon="0.52635">
        <ele>145.9</ele>
        <time>2018-04-21T07:34:17Z</time>
      </trkpt>
      <trkpt lat="44.93879" lon="0.52442">
        <ele>147.1</ele>
        <time>2018-04-21T07:34:53Z</time>
      </trkpt>
      <trkpt lat="44.93829" lon="0.52393">
        <ele>148.6</ele>
        <time>2018-04-21T07:35:08Z</time>
      </trkpt>
      <trkpt lat="44.93779" lon="0.52237">
        <ele>151</ele>
        <time>2018-04-21T07:35:39Z</time>
      </trkpt>
      <trkpt lat="44.93732" lon="0.52055">
        <ele>160.8</ele>
        <time>2018-04-21T07:36:13Z</time>
      </trkpt>
      <trkpt lat="44.9367" lon="0.51978">
        <ele>165.3</ele>
        <time>2018-04-21T07:36:34Z</time>
      </trkpt>
      <trkpt lat="44.936" lon="0.51954">
        <ele>170.7</ele>
        <time>2018-04-21T07:36:51Z</time>
      </trkpt>
      <trkpt lat="44.936" lon="0.51954">
        <ele>168.3</ele>
        <time>2018-04-21T07:36:51Z</time>
      </trkpt>
      <trkpt lat="44.9364" lon="0.51865">
        <ele>174.7</ele>
        <time>2018-04-21T07:37:10Z</time>
      </trkpt>
      <trkpt lat="44.93691" lon="0.51647">
        <ele>178.6</ele>
        <time>2018-04-21T07:37:50Z</time>
      </trkpt>
      <trkpt lat="44.93746" lon="0.51485">
        <ele>182.2</ele>
        <time>2018-04-21T07:38:21Z</time>
      </trkpt>
      <trkpt lat="44.93761" lon="0.51444">
        <ele>182.3</ele>
        <time>2018-04-21T07:38:29Z</time>
      </trkpt>
      <trkpt lat="44.93781" lon="0.51356">
        <ele>182.1</ele>
        <time>2018-04-21T07:38:46Z</time>
      </trkpt>
      <trkpt lat="44.93782" lon="0.51235">
        <ele>181.5</ele>
        <time>2018-04-21T07:39:07Z</time>
      </trkpt>
      <trkpt lat="44.93702" lon="0.51335">
        <ele>177.5</ele>
        <time>2018-04-21T07:39:34Z</time>
      </trkpt>
      <trkpt lat="44.93688" lon="0.5134">
        <ele>177.2</ele>
        <time>2018-04-21T07:39:37Z</time>
      </trkpt>
      <trkpt lat="44.93616" lon="0.51294">
        <ele>174.7</ele>
        <time>2018-04-21T07:39:57Z</time>
      </trkpt>
      <trkpt lat="44.93499" lon="0.51162">
        <ele>161.3</ele>
        <time>2018-04-21T07:40:34Z</time>
      </trkpt>
      <trkpt lat="44.9346" lon="0.51117">
        <ele>153.6</ele>
        <time>2018-04-21T07:40:47Z</time>
      </trkpt>
      <trkpt lat="44.93258" lon="0.51026">
        <ele>156.3</ele>
        <time>2018-04-21T07:41:40Z</time>
      </trkpt>
      <trkpt lat="44.93287" lon="0.50864">
        <ele>146.9</ele>
        <time>2018-04-21T07:42:52Z</time>
      </trkpt>
      <trkpt lat="44.93365" lon="0.50779">
        <ele>143.3</ele>
        <time>2018-04-21T07:43:16Z</time>
      </trkpt>
      <trkpt lat="44.93381" lon="0.50751">
        <ele>141.1</ele>
        <time>2018-04-21T07:43:23Z</time>
      </trkpt>
      <trkpt lat="44.93401" lon="0.50531">
        <ele>132.6</ele>
        <time>2018-04-21T07:44:02Z</time>
      </trkpt>
      <trkpt lat="44.9341" lon="0.50472">
        <ele>133.2</ele>
        <time>2018-04-21T07:44:12Z</time>
      </trkpt>
      <trkpt lat="44.93429" lon="0.50393">
        <ele>138.2</ele>
        <time>2018-04-21T07:44:27Z</time>
      </trkpt>
      <trkpt lat="44.93433" lon="0.50371">
        <ele>138.2</ele>
        <time>2018-04-21T07:44:31Z</time>
      </trkpt>
      <trkpt lat="44.93429" lon="0.50218">
        <ele>142.1</ele>
        <time>2018-04-21T07:44:58Z</time>
      </trkpt>
      <trkpt lat="44.93429" lon="0.50218">
        <ele>142.1</ele>
        <time>2018-04-21T07:44:58Z</time>
      </trkpt>
      <trkpt lat="44.93425" lon="0.50142">
        <ele>141.6</ele>
        <time>2018-04-21T07:45:11Z</time>
      </trkpt>
      <trkpt lat="44.93562" lon="0.50298">
        <ele>147.3</ele>
        <time>2018-04-21T07:45:54Z</time>
      </trkpt>
      <trkpt lat="44.93576" lon="0.50322">
        <ele>147.4</ele>
        <time>2018-04-21T07:46:00Z</time>
      </trkpt>
      <trkpt lat="44.93626" lon="0.50454">
        <ele>149.5</ele>
        <time>2018-04-21T07:46:26Z</time>
      </trkpt>
      <trkpt lat="44.93622" lon="0.5053">
        <ele>152.8</ele>
        <time>2018-04-21T07:46:39Z</time>
      </trkpt>
      <trkpt lat="44.93646" lon="0.5062">
        <ele>160.2</ele>
        <time>2018-04-21T07:46:56Z</time>
      </trkpt>
      <trkpt lat="44.93671" lon="0.50619">
        <ele>155.3</ele>
        <time>2018-04-21T07:47:02Z</time>
      </trkpt>
      <trkpt lat="44.93694" lon="0.50463">
        <ele>154.5</ele>
        <time>2018-04-21T07:47:41Z</time>
      </trkpt>
      <trkpt lat="44.93711" lon="0.50448">
        <ele>152.8</ele>
        <time>2018-04-21T07:47:47Z</time>
      </trkpt>
      <trkpt lat="44.93787" lon="0.50495">
        <ele>149.3</ele>
        <time>2018-04-21T07:48:08Z</time>
      </trkpt>
      <trkpt lat="44.93848" lon="0.50524">
        <ele>145.8</ele>
        <time>2018-04-21T07:48:23Z</time>
      </trkpt>
      <trkpt lat="44.9387" lon="0.50529">
        <ele>145.6</ele>
        <time>2018-04-21T07:48:29Z</time>
      </trkpt>
      <trkpt lat="44.93941" lon="0.50411">
        <ele>142.8</ele>
        <time>2018-04-21T07:48:57Z</time>
      </trkpt>
      <trkpt lat="44.94002" lon="0.5034">
        <ele>141.8</ele>
        <time>2018-04-21T07:49:17Z</time>
      </trkpt>
      <trkpt lat="44.94006" lon="0.50335">
        <ele>141.1</ele>
        <time>2018-04-21T07:49:18Z</time>
      </trkpt>
      <trkpt lat="44.94007" lon="0.5026">
        <ele>138.5</ele>
        <time>2018-04-21T07:49:31Z</time>
      </trkpt>
      <trkpt lat="44.9401" lon="0.5015">
        <ele>139.2</ele>
        <time>2018-04-21T07:49:51Z</time>
      </trkpt>
      <trkpt lat="44.94027" lon="0.50158">
        <ele>140.5</ele>
        <time>2018-04-21T07:49:59Z</time>
      </trkpt>
      <trkpt lat="44.94141" lon="0.50184">
        <ele>140.9</ele>
        <time>2018-04-21T07:50:30Z</time>
      </trkpt>
      <trkpt lat="44.94163" lon="0.50216">
        <ele>131.9</ele>
        <time>2018-04-21T07:50:39Z</time>
      </trkpt>
      <trkpt lat="44.94204" lon="0.50224">
        <ele>131.7</ele>
        <time>2018-04-21T07:50:49Z</time>
      </trkpt>
      <trkpt lat="44.94223" lon="0.50213">
        <ele>131.5</ele>
        <time>2018-04-21T07:50:54Z</time>
      </trkpt>
      <trkpt lat="44.94234" lon="0.50202">
        <ele>131.2</ele>
        <time>2018-04-21T07:50:58Z</time>
      </trkpt>
      <trkpt lat="44.94281" lon="0.50121">
        <ele>129.2</ele>
        <time>2018-04-21T07:51:17Z</time>
      </trkpt>
      <trkpt lat="44.94319" lon="0.50051">
        <ele>122.3</ele>
        <time>2018-04-21T07:51:32Z</time>
      </trkpt>
      <trkpt lat="44.94323" lon="0.50051">
        <ele>128.6</ele>
        <time>2018-04-21T07:51:33Z</time>
      </trkpt>
      <trkpt lat="44.94323" lon="0.50051">
        <ele>128.6</ele>
        <time>2018-04-21T07:51:33Z</time>
      </trkpt>
      <trkpt lat="44.94437" lon="0.50044">
        <ele>134.9</ele>
        <time>2018-04-21T07:52:01Z</time>
      </trkpt>
      <trkpt lat="44.94442" lon="0.50047">
        <ele>134.8</ele>
        <time>2018-04-21T07:52:03Z</time>
      </trkpt>
      <trkpt lat="44.94476" lon="0.5008">
        <ele>136.6</ele>
        <time>2018-04-21T07:52:13Z</time>
      </trkpt>
      <trkpt lat="44.94542" lon="0.50097">
        <ele>142.5</ele>
        <time>2018-04-21T07:52:30Z</time>
      </trkpt>
      <trkpt lat="44.94595" lon="0.50125">
        <ele>146.3</ele>
        <time>2018-04-21T07:52:44Z</time>
      </trkpt>
      <trkpt lat="44.94705" lon="0.50164">
        <ele>152</ele>
        <time>2018-04-21T07:53:12Z</time>
      </trkpt>
      <trkpt lat="44.94751" lon="0.50182">
        <ele>153.7</ele>
        <time>2018-04-21T07:53:24Z</time>
      </trkpt>
      <trkpt lat="44.94842" lon="0.50126">
        <ele>157.2</ele>
        <time>2018-04-21T07:53:49Z</time>
      </trkpt>
      <trkpt lat="44.94901" lon="0.50088">
        <ele>159</ele>
        <time>2018-04-21T07:54:05Z</time>
      </trkpt>
      <trkpt lat="44.94976" lon="0.50071">
        <ele>159.6</ele>
        <time>2018-04-21T07:54:23Z</time>
      </trkpt>
      <trkpt lat="44.95181" lon="0.50024">
        <ele>139.1</ele>
        <time>2018-04-21T07:55:15Z</time>
      </trkpt>
      <trkpt lat="44.95249" lon="0.50006">
        <ele>139.7</ele>
        <time>2018-04-21T07:55:32Z</time>
      </trkpt>
      <trkpt lat="44.9536" lon="0.50018">
        <ele>141</ele>
        <time>2018-04-21T07:56:01Z</time>
      </trkpt>
      <trkpt lat="44.95535" lon="0.49908">
        <ele>144.8</ele>
        <time>2018-04-21T07:56:48Z</time>
      </trkpt>
      <trkpt lat="44.95566" lon="0.49882">
        <ele>147.2</ele>
        <time>2018-04-21T07:56:57Z</time>
      </trkpt>
      <trkpt lat="44.95649" lon="0.49808">
        <ele>150.7</ele>
        <time>2018-04-21T07:57:23Z</time>
      </trkpt>
      <trkpt lat="44.95787" lon="0.49721">
        <ele>164.3</ele>
        <time>2018-04-21T07:58:00Z</time>
      </trkpt>
      <trkpt lat="44.95898" lon="0.49668">
        <ele>172.1</ele>
        <time>2018-04-21T07:58:29Z</time>
      </trkpt>
      <trkpt lat="44.95928" lon="0.4965">
        <ele>174.6</ele>
        <time>2018-04-21T07:58:37Z</time>
      </trkpt>
      <trkpt lat="44.95928" lon="0.4965">
        <ele>174.6</ele>
        <time>2018-04-21T07:58:37Z</time>
      </trkpt>
      <trkpt lat="44.95984" lon="0.49582">
        <ele>178.6</ele>
        <time>2018-04-21T07:58:55Z</time>
      </trkpt>
      <trkpt lat="44.96034" lon="0.49379">
        <ele>175.6</ele>
        <time>2018-04-21T07:59:35Z</time>
      </trkpt>
      <trkpt lat="44.96053" lon="0.49155">
        <ele>171.1</ele>
        <time>2018-04-21T08:00:15Z</time>
      </trkpt>
      <trkpt lat="44.9609" lon="0.48952">
        <ele>163.9</ele>
        <time>2018-04-21T08:00:52Z</time>
      </trkpt>
      <trkpt lat="44.96105" lon="0.4891">
        <ele>163</ele>
        <time>2018-04-21T08:01:00Z</time>
      </trkpt>
      <trkpt lat="44.96142" lon="0.48755">
        <ele>160.1</ele>
        <time>2018-04-21T08:01:30Z</time>
      </trkpt>
      <trkpt lat="44.96154" lon="0.48734">
        <ele>159.8</ele>
        <time>2018-04-21T08:01:35Z</time>
      </trkpt>
      <trkpt lat="44.96194" lon="0.48602">
        <ele>157.5</ele>
        <time>2018-04-21T08:02:07Z</time>
      </trkpt>
      <trkpt lat="44.96115" lon="0.48531">
        <ele>159.6</ele>
        <time>2018-04-21T08:02:33Z</time>
      </trkpt>
      <trkpt lat="44.96109" lon="0.48523">
        <ele>159.8</ele>
        <time>2018-04-21T08:02:35Z</time>
      </trkpt>
      <trkpt lat="44.96105" lon="0.48494">
        <ele>160.3</ele>
        <time>2018-04-21T08:02:40Z</time>
      </trkpt>
      <trkpt lat="44.96014" lon="0.48195">
        <ele>150.8</ele>
        <time>2018-04-21T08:03:37Z</time>
      </trkpt>
      <trkpt lat="44.96009" lon="0.48165">
        <ele>150</ele>
        <time>2018-04-21T08:03:43Z</time>
      </trkpt>
      <trkpt lat="44.96008" lon="0.48139">
        <ele>149.8</ele>
        <time>2018-04-21T08:03:47Z</time>
      </trkpt>
      <trkpt lat="44.96039" lon="0.4804">
        <ele>146.2</ele>
        <time>2018-04-21T08:04:06Z</time>
      </trkpt>
      <trkpt lat="44.96073" lon="0.47965">
        <ele>143.8</ele>
        <time>2018-04-21T08:04:22Z</time>
      </trkpt>
      <trkpt lat="44.96074" lon="0.47948">
        <ele>142.1</ele>
        <time>2018-04-21T08:04:25Z</time>
      </trkpt>
      <trkpt lat="44.96092" lon="0.47786">
        <ele>141.9</ele>
        <time>2018-04-21T08:04:55Z</time>
      </trkpt>
      <trkpt lat="44.96101" lon="0.47745">
        <ele>140.8</ele>
        <time>2018-04-21T08:05:02Z</time>
      </trkpt>
      <trkpt lat="44.96168" lon="0.47624">
        <ele>136.2</ele>
        <time>2018-04-21T08:05:29Z</time>
      </trkpt>
      <trkpt lat="44.96217" lon="0.47542">
        <ele>132.8</ele>
        <time>2018-04-21T08:05:48Z</time>
      </trkpt>
      <trkpt lat="44.96226" lon="0.47519">
        <ele>132.7</ele>
        <time>2018-04-21T08:05:52Z</time>
      </trkpt>
      <trkpt lat="44.9627" lon="0.47357">
        <ele>131.5</ele>
        <time>2018-04-21T08:06:23Z</time>
      </trkpt>
      <trkpt lat="44.96288" lon="0.4728">
        <ele>128.5</ele>
        <time>2018-04-21T08:06:37Z</time>
      </trkpt>
      <trkpt lat="44.96334" lon="0.47115">
        <ele>125</ele>
        <time>2018-04-21T08:07:08Z</time>
      </trkpt>
      <trkpt lat="44.96341" lon="0.47055">
        <ele>124</ele>
        <time>2018-04-21T08:07:18Z</time>
      </trkpt>
      <trkpt lat="44.96327" lon="0.46972">
        <ele>122.2</ele>
        <time>2018-04-21T08:07:33Z</time>
      </trkpt>
      <trkpt lat="44.96321" lon="0.46939">
        <ele>120.3</ele>
        <time>2018-04-21T08:07:39Z</time>
      </trkpt>
      <trkpt lat="44.96314" lon="0.46821">
        <ele>115</ele>
        <time>2018-04-21T08:08:00Z</time>
      </trkpt>
      <trkpt lat="44.96309" lon="0.4681">
        <ele>114.9</ele>
        <time>2018-04-21T08:08:02Z</time>
      </trkpt>
      <trkpt lat="44.96165" lon="0.46691">
        <ele>112.7</ele>
        <time>2018-04-21T08:08:44Z</time>
      </trkpt>
      <trkpt lat="44.96154" lon="0.4667">
        <ele>112.6</ele>
        <time>2018-04-21T08:08:48Z</time>
      </trkpt>
      <trkpt lat="44.96069" lon="0.46502">
        <ele>109.4</ele>
        <time>2018-04-21T08:09:24Z</time>
      </trkpt>
      <trkpt lat="44.95961" lon="0.4627">
        <ele>107.7</ele>
        <time>2018-04-21T08:10:13Z</time>
      </trkpt>
      <trkpt lat="44.95931" lon="0.46229">
        <ele>107.4</ele>
        <time>2018-04-21T08:10:24Z</time>
      </trkpt>
      <trkpt lat="44.95834" lon="0.46159">
        <ele>108.9</ele>
        <time>2018-04-21T08:10:50Z</time>
      </trkpt>
      <trkpt lat="44.95759" lon="0.45982">
        <ele>106.6</ele>
        <time>2018-04-21T08:11:28Z</time>
      </trkpt>
      <trkpt lat="44.95744" lon="0.45907">
        <ele>104.3</ele>
        <time>2018-04-21T08:11:41Z</time>
      </trkpt>
      <trkpt lat="44.95732" lon="0.45882">
        <ele>102.1</ele>
        <time>2018-04-21T08:11:46Z</time>
      </trkpt>
      <trkpt lat="44.95785" lon="0.45797">
        <ele>103.4</ele>
        <time>2018-04-21T08:12:06Z</time>
      </trkpt>
      <trkpt lat="44.95799" lon="0.45779">
        <ele>108.7</ele>
        <time>2018-04-21T08:12:11Z</time>
      </trkpt>
      <trkpt lat="44.95909" lon="0.45687">
        <ele>113.6</ele>
        <time>2018-04-21T08:12:43Z</time>
      </trkpt>
      <trkpt lat="44.95985" lon="0.4566">
        <ele>124.5</ele>
        <time>2018-04-21T08:13:02Z</time>
      </trkpt>
      <trkpt lat="44.96014" lon="0.45639">
        <ele>124.6</ele>
        <time>2018-04-21T08:13:10Z</time>
      </trkpt>
      <trkpt lat="44.96041" lon="0.45617">
        <ele>127.7</ele>
        <time>2018-04-21T08:13:18Z</time>
      </trkpt>
      <trkpt lat="44.96047" lon="0.45613">
        <ele>127.9</ele>
        <time>2018-04-21T08:13:19Z</time>
      </trkpt>
      <trkpt lat="44.96066" lon="0.45627">
        <ele>127.5</ele>
        <time>2018-04-21T08:13:25Z</time>
      </trkpt>
      <trkpt lat="44.96143" lon="0.45744">
        <ele>127.6</ele>
        <time>2018-04-21T08:13:53Z</time>
      </trkpt>
      <trkpt lat="44.96153" lon="0.45758">
        <ele>128</ele>
        <time>2018-04-21T08:13:56Z</time>
      </trkpt>
      <trkpt lat="44.96163" lon="0.45784">
        <ele>128.2</ele>
        <time>2018-04-21T08:14:01Z</time>
      </trkpt>
      <trkpt lat="44.96174" lon="0.45809">
        <ele>128.2</ele>
        <time>2018-04-21T08:14:06Z</time>
      </trkpt>
      <trkpt lat="44.96194" lon="0.45933">
        <ele>123.2</ele>
        <time>2018-04-21T08:14:28Z</time>
      </trkpt>
      <trkpt lat="44.96197" lon="0.45955">
        <ele>123.2</ele>
        <time>2018-04-21T08:14:32Z</time>
      </trkpt>
      <trkpt lat="44.96216" lon="0.46016">
        <ele>125.2</ele>
        <time>2018-04-21T08:14:44Z</time>
      </trkpt>
      <trkpt lat="44.96232" lon="0.46027">
        <ele>126.7</ele>
        <time>2018-04-21T08:14:48Z</time>
      </trkpt>
      <trkpt lat="44.96247" lon="0.46021">
        <ele>127.5</ele>
        <time>2018-04-21T08:14:52Z</time>
      </trkpt>
      <trkpt lat="44.96357" lon="0.45966">
        <ele>132.9</ele>
        <time>2018-04-21T08:15:21Z</time>
      </trkpt>
      <trkpt lat="44.9648" lon="0.45828">
        <ele>135.9</ele>
        <time>2018-04-21T08:16:00Z</time>
      </trkpt>
      <trkpt lat="44.96614" lon="0.45719">
        <ele>131.2</ele>
        <time>2018-04-21T08:16:39Z</time>
      </trkpt>
      <trkpt lat="44.96606" lon="0.4575">
        <ele>132.1</ele>
        <time>2018-04-21T08:16:44Z</time>
      </trkpt>
      <trkpt lat="44.96602" lon="0.45838">
        <ele>133.3</ele>
        <time>2018-04-21T08:17:00Z</time>
      </trkpt>
      <trkpt lat="44.96598" lon="0.46068">
        <ele>136.5</ele>
        <time>2018-04-21T08:17:40Z</time>
      </trkpt>
      <trkpt lat="44.96602" lon="0.4611">
        <ele>139.2</ele>
        <time>2018-04-21T08:17:48Z</time>
      </trkpt>
      <trkpt lat="44.96679" lon="0.46145">
        <ele>139.8</ele>
        <time>2018-04-21T08:18:10Z</time>
      </trkpt>
      <trkpt lat="44.96914" lon="0.46194">
        <ele>147.4</ele>
        <time>2018-04-21T08:19:08Z</time>
      </trkpt>
      <trkpt lat="44.97002" lon="0.46236">
        <ele>148.8</ele>
        <time>2018-04-21T08:19:31Z</time>
      </trkpt>
      <trkpt lat="44.97009" lon="0.4624">
        <ele>148.7</ele>
        <time>2018-04-21T08:19:33Z</time>
      </trkpt>
      <trkpt lat="44.97031" lon="0.46252">
        <ele>148.7</ele>
        <time>2018-04-21T08:19:39Z</time>
      </trkpt>
      <trkpt lat="44.97205" lon="0.46386">
        <ele>156.1</ele>
        <time>2018-04-21T08:20:28Z</time>
      </trkpt>
      <trkpt lat="44.97222" lon="0.46386">
        <ele>156.3</ele>
        <time>2018-04-21T08:20:32Z</time>
      </trkpt>
      <trkpt lat="44.97381" lon="0.4618">
        <ele>155.1</ele>
        <time>2018-04-21T08:21:27Z</time>
      </trkpt>
      <trkpt lat="44.97453" lon="0.46038">
        <ele>154.5</ele>
        <time>2018-04-21T08:21:58Z</time>
      </trkpt>
      <trkpt lat="44.97517" lon="0.45853">
        <ele>155.7</ele>
        <time>2018-04-21T08:22:34Z</time>
      </trkpt>
      <trkpt lat="44.97566" lon="0.45701">
        <ele>157.5</ele>
        <time>2018-04-21T08:23:08Z</time>
      </trkpt>
      <trkpt lat="44.97585" lon="0.45505">
        <ele>158.9</ele>
        <time>2018-04-21T08:23:43Z</time>
      </trkpt>
      <trkpt lat="44.97642" lon="0.45252">
        <ele>161.5</ele>
        <time>2018-04-21T08:24:36Z</time>
      </trkpt>
      <trkpt lat="44.97622" lon="0.45213">
        <ele>162.5</ele>
        <time>2018-04-21T08:24:44Z</time>
      </trkpt>
      <trkpt lat="44.97592" lon="0.45156">
        <ele>163.6</ele>
        <time>2018-04-21T08:24:56Z</time>
      </trkpt>
      <trkpt lat="44.97544" lon="0.45105">
        <ele>168.6</ele>
        <time>2018-04-21T08:25:11Z</time>
      </trkpt>
      <trkpt lat="44.97534" lon="0.45088">
        <ele>168.7</ele>
        <time>2018-04-21T08:25:15Z</time>
      </trkpt>
      <trkpt lat="44.97358" lon="0.44872">
        <ele>165.9</ele>
        <time>2018-04-21T08:26:15Z</time>
      </trkpt>
      <trkpt lat="44.97348" lon="0.44864">
        <ele>165.9</ele>
        <time>2018-04-21T08:26:18Z</time>
      </trkpt>
      <trkpt lat="44.97291" lon="0.44771">
        <ele>164.3</ele>
        <time>2018-04-21T08:26:39Z</time>
      </trkpt>
      <trkpt lat="44.97282" lon="0.44763">
        <ele>163.1</ele>
        <time>2018-04-21T08:26:42Z</time>
      </trkpt>
      <trkpt lat="44.97277" lon="0.44758">
        <ele>161.9</ele>
        <time>2018-04-21T08:26:44Z</time>
      </trkpt>
      <trkpt lat="44.9729" lon="0.44752">
        <ele>165.2</ele>
        <time>2018-04-21T08:26:47Z</time>
      </trkpt>
      <trkpt lat="44.97318" lon="0.44735">
        <ele>165.5</ele>
        <time>2018-04-21T08:26:55Z</time>
      </trkpt>
      <trkpt lat="44.97428" lon="0.4466">
        <ele>166.8</ele>
        <time>2018-04-21T08:27:28Z</time>
      </trkpt>
      <trkpt lat="44.9748" lon="0.44627">
        <ele>167.2</ele>
        <time>2018-04-21T08:27:43Z</time>
      </trkpt>
      <trkpt lat="44.97578" lon="0.44601">
        <ele>167.8</ele>
        <time>2018-04-21T08:28:08Z</time>
      </trkpt>
      <trkpt lat="44.97707" lon="0.4455">
        <ele>170.7</ele>
        <time>2018-04-21T08:28:41Z</time>
      </trkpt>
      <trkpt lat="44.97801" lon="0.44588">
        <ele>170</ele>
        <time>2018-04-21T08:29:05Z</time>
      </trkpt>
      <trkpt lat="44.97806" lon="0.4459">
        <ele>169.7</ele>
        <time>2018-04-21T08:29:07Z</time>
      </trkpt>
      <trkpt lat="44.97907" lon="0.44599">
        <ele>165.4</ele>
        <time>2018-04-21T08:29:33Z</time>
      </trkpt>
      <trkpt lat="44.97999" lon="0.44567">
        <ele>157</ele>
        <time>2018-04-21T08:29:56Z</time>
      </trkpt>
      <trkpt lat="44.97999" lon="0.44565">
        <ele>157.4</ele>
        <time>2018-04-21T08:29:57Z</time>
      </trkpt>
      <trkpt lat="44.98008" lon="0.44562">
        <ele>154.4</ele>
        <time>2018-04-21T08:29:59Z</time>
      </trkpt>
      <trkpt lat="44.9823" lon="0.44489">
        <ele>151.4</ele>
        <time>2018-04-21T08:30:56Z</time>
      </trkpt>
      <trkpt lat="44.98301" lon="0.44331">
        <ele>151.2</ele>
        <time>2018-04-21T08:31:30Z</time>
      </trkpt>
      <trkpt lat="44.98315" lon="0.44211">
        <ele>150.6</ele>
        <time>2018-04-21T08:31:53Z</time>
      </trkpt>
      <trkpt lat="44.9828" lon="0.44127">
        <ele>150.3</ele>
        <time>2018-04-21T08:32:12Z</time>
      </trkpt>
      <trkpt lat="44.9821" lon="0.44056">
        <ele>145.3</ele>
        <time>2018-04-21T08:32:33Z</time>
      </trkpt>
      <trkpt lat="44.98191" lon="0.44026">
        <ele>145.1</ele>
        <time>2018-04-21T08:32:40Z</time>
      </trkpt>
      <trkpt lat="44.98131" lon="0.43807">
        <ele>146.1</ele>
        <time>2018-04-21T08:33:22Z</time>
      </trkpt>
      <trkpt lat="44.98118" lon="0.43695">
        <ele>146</ele>
        <time>2018-04-21T08:33:41Z</time>
      </trkpt>
      <trkpt lat="44.98128" lon="0.43657">
        <ele>149.2</ele>
        <time>2018-04-21T08:33:51Z</time>
      </trkpt>
      <trkpt lat="44.9817" lon="0.43668">
        <ele>149.4</ele>
        <time>2018-04-21T08:34:01Z</time>
      </trkpt>
      <trkpt lat="44.98199" lon="0.43685">
        <ele>154.5</ele>
        <time>2018-04-21T08:34:09Z</time>
      </trkpt>
      <trkpt lat="44.9821" lon="0.43621">
        <ele>153</ele>
        <time>2018-04-21T08:34:21Z</time>
      </trkpt>
      <trkpt lat="44.98235" lon="0.43455">
        <ele>149.7</ele>
        <time>2018-04-21T08:34:50Z</time>
      </trkpt>
      <trkpt lat="44.98247" lon="0.43318">
        <ele>146.1</ele>
        <time>2018-04-21T08:35:15Z</time>
      </trkpt>
      <trkpt lat="44.98246" lon="0.43294">
        <ele>146.2</ele>
        <time>2018-04-21T08:35:19Z</time>
      </trkpt>
      <trkpt lat="44.98232" lon="0.43215">
        <ele>140</ele>
        <time>2018-04-21T08:35:33Z</time>
      </trkpt>
      <trkpt lat="44.98232" lon="0.43203">
        <ele>139.9</ele>
        <time>2018-04-21T08:35:35Z</time>
      </trkpt>
      <trkpt lat="44.98198" lon="0.42964">
        <ele>146</ele>
        <time>2018-04-21T08:36:23Z</time>
      </trkpt>
      <trkpt lat="44.98239" lon="0.42994">
        <ele>148.5</ele>
        <time>2018-04-21T08:36:34Z</time>
      </trkpt>
      <trkpt lat="44.98289" lon="0.43027">
        <ele>149.8</ele>
        <time>2018-04-21T08:36:48Z</time>
      </trkpt>
      <trkpt lat="44.98337" lon="0.43041">
        <ele>152.8</ele>
        <time>2018-04-21T08:37:00Z</time>
      </trkpt>
      <trkpt lat="44.98372" lon="0.43027">
        <ele>156.9</ele>
        <time>2018-04-21T08:37:09Z</time>
      </trkpt>
      <trkpt lat="44.98372" lon="0.43027">
        <ele>156.9</ele>
        <time>2018-04-21T08:37:09Z</time>
      </trkpt>
      <trkpt lat="44.98429" lon="0.42994">
        <ele>161.8</ele>
        <time>2018-04-21T08:37:24Z</time>
      </trkpt>
      <trkpt lat="44.98493" lon="0.4299">
        <ele>165.7</ele>
        <time>2018-04-21T08:37:40Z</time>
      </trkpt>
      <trkpt lat="44.9855" lon="0.43074">
        <ele>168.9</ele>
        <time>2018-04-21T08:38:02Z</time>
      </trkpt>
      <trkpt lat="44.98664" lon="0.43101">
        <ele>175.8</ele>
        <time>2018-04-21T08:38:31Z</time>
      </trkpt>
      <trkpt lat="44.98697" lon="0.43107">
        <ele>178</ele>
        <time>2018-04-21T08:38:39Z</time>
      </trkpt>
      <trkpt lat="44.98756" lon="0.43098">
        <ele>181.1</ele>
        <time>2018-04-21T08:38:53Z</time>
      </trkpt>
      <trkpt lat="44.98912" lon="0.43111">
        <ele>178</ele>
        <time>2018-04-21T08:39:32Z</time>
      </trkpt>
      <trkpt lat="44.98969" lon="0.43095">
        <ele>174.4</ele>
        <time>2018-04-21T08:39:47Z</time>
      </trkpt>
      <trkpt lat="44.98969" lon="0.43095">
        <ele>174.4</ele>
        <time>2018-04-21T08:39:47Z</time>
      </trkpt>
      <trkpt lat="44.99069" lon="0.43061">
        <ele>172.8</ele>
        <time>2018-04-21T08:40:12Z</time>
      </trkpt>
      <trkpt lat="44.99127" lon="0.42972">
        <ele>173.3</ele>
        <time>2018-04-21T08:40:39Z</time>
      </trkpt>
      <trkpt lat="44.99184" lon="0.42854">
        <ele>173.8</ele>
        <time>2018-04-21T08:41:05Z</time>
      </trkpt>
      <trkpt lat="44.99197" lon="0.42628">
        <ele>170.6</ele>
        <time>2018-04-21T08:41:45Z</time>
      </trkpt>
      <trkpt lat="44.99133" lon="0.42444">
        <ele>167.6</ele>
        <time>2018-04-21T08:42:23Z</time>
      </trkpt>
      <trkpt lat="44.99132" lon="0.42277">
        <ele>162.9</ele>
        <time>2018-04-21T08:42:53Z</time>
      </trkpt>
      <trkpt lat="44.99174" lon="0.42177">
        <ele>156</ele>
        <time>2018-04-21T08:43:13Z</time>
      </trkpt>
      <trkpt lat="44.99195" lon="0.421">
        <ele>151.8</ele>
        <time>2018-04-21T08:43:28Z</time>
      </trkpt>
      <trkpt lat="44.99224" lon="0.42074">
        <ele>148.1</ele>
        <time>2018-04-21T08:43:36Z</time>
      </trkpt>
      <trkpt lat="44.99325" lon="0.41995">
        <ele>142.8</ele>
        <time>2018-04-21T08:44:05Z</time>
      </trkpt>
      <trkpt lat="44.99355" lon="0.41983">
        <ele>140.5</ele>
        <time>2018-04-21T08:44:13Z</time>
      </trkpt>
      <trkpt lat="44.99476" lon="0.41937">
        <ele>140.5</ele>
        <time>2018-04-21T08:44:43Z</time>
      </trkpt>
      <trkpt lat="44.99491" lon="0.41929">
        <ele>138.6</ele>
        <time>2018-04-21T08:44:47Z</time>
      </trkpt>
      <trkpt lat="44.99496" lon="0.41916">
        <ele>138.2</ele>
        <time>2018-04-21T08:44:50Z</time>
      </trkpt>
      <trkpt lat="44.99496" lon="0.41893">
        <ele>137.3</ele>
        <time>2018-04-21T08:44:54Z</time>
      </trkpt>
      <trkpt lat="44.99483" lon="0.41838">
        <ele>136</ele>
        <time>2018-04-21T08:45:04Z</time>
      </trkpt>
      <trkpt lat="44.99378" lon="0.41758">
        <ele>134.5</ele>
        <time>2018-04-21T08:45:34Z</time>
      </trkpt>
      <trkpt lat="44.99374" lon="0.41748">
        <ele>136.1</ele>
        <time>2018-04-21T08:45:36Z</time>
      </trkpt>
      <trkpt lat="44.99494" lon="0.41699">
        <ele>140.8</ele>
        <time>2018-04-21T08:46:07Z</time>
      </trkpt>
      <trkpt lat="44.99542" lon="0.41663">
        <ele>141.8</ele>
        <time>2018-04-21T08:46:20Z</time>
      </trkpt>
      <trkpt lat="44.99737" lon="0.4155">
        <ele>128.8</ele>
        <time>2018-04-21T08:47:13Z</time>
      </trkpt>
      <trkpt lat="44.99677" lon="0.41427">
        <ele>128.6</ele>
        <time>2018-04-21T08:47:39Z</time>
      </trkpt>
      <trkpt lat="44.99677" lon="0.41427">
        <ele>128.6</ele>
        <time>2018-04-21T08:47:39Z</time>
      </trkpt>
      <trkpt lat="44.9961" lon="0.4129">
        <ele>128.4</ele>
        <time>2018-04-21T08:48:08Z</time>
      </trkpt>
      <trkpt lat="44.996" lon="0.40977">
        <ele>131.5</ele>
        <time>2018-04-21T08:49:04Z</time>
      </trkpt>
      <trkpt lat="44.99599" lon="0.40946">
        <ele>134.6</ele>
        <time>2018-04-21T08:49:10Z</time>
      </trkpt>
      <trkpt lat="44.99585" lon="0.40838">
        <ele>142</ele>
        <time>2018-04-21T08:49:29Z</time>
      </trkpt>
      <trkpt lat="44.99572" lon="0.40781">
        <ele>148.3</ele>
        <time>2018-04-21T08:49:39Z</time>
      </trkpt>
      <trkpt lat="44.99557" lon="0.40741">
        <ele>152.6</ele>
        <time>2018-04-21T08:49:47Z</time>
      </trkpt>
      <trkpt lat="44.9954" lon="0.40674">
        <ele>155.8</ele>
        <time>2018-04-21T08:50:00Z</time>
      </trkpt>
      <trkpt lat="44.99537" lon="0.40612">
        <ele>157.7</ele>
        <time>2018-04-21T08:50:11Z</time>
      </trkpt>
      <trkpt lat="44.99555" lon="0.40518">
        <ele>161.5</ele>
        <time>2018-04-21T08:50:29Z</time>
      </trkpt>
      <trkpt lat="44.99578" lon="0.40533">
        <ele>160.7</ele>
        <time>2018-04-21T08:50:35Z</time>
      </trkpt>
      <trkpt lat="44.99596" lon="0.40532">
        <ele>159.8</ele>
        <time>2018-04-21T08:50:48Z</time>
      </trkpt>
      <trkpt lat="44.99576" lon="0.40366">
        <ele>158.7</ele>
        <time>2018-04-21T08:51:18Z</time>
      </trkpt>
      <trkpt lat="44.99568" lon="0.40304">
        <ele>157.5</ele>
        <time>2018-04-21T08:51:29Z</time>
      </trkpt>
      <trkpt lat="44.99764" lon="0.40132">
        <ele>154.1</ele>
        <time>2018-04-21T08:52:26Z</time>
      </trkpt>
      <trkpt lat="44.99852" lon="0.40014">
        <ele>154.1</ele>
        <time>2018-04-21T08:52:55Z</time>
      </trkpt>
      <trkpt lat="44.99856" lon="0.39956">
        <ele>153.2</ele>
        <time>2018-04-21T08:53:06Z</time>
      </trkpt>
      <trkpt lat="44.99896" lon="0.39902">
        <ele>151.8</ele>
        <time>2018-04-21T08:53:20Z</time>
      </trkpt>
      <trkpt lat="45.00056" lon="0.39887">
        <ele>154.1</ele>
        <time>2018-04-21T08:54:00Z</time>
      </trkpt>
      <trkpt lat="45.00056" lon="0.39887">
        <ele>154.1</ele>
        <time>2018-04-21T08:54:00Z</time>
      </trkpt>
      <trkpt lat="45.00064" lon="0.39885">
        <ele>155.3</ele>
        <time>2018-04-21T08:54:02Z</time>
      </trkpt>
      <trkpt lat="45.00228" lon="0.3971">
        <ele>150.9</ele>
        <time>2018-04-21T08:54:53Z</time>
      </trkpt>
      <trkpt lat="45.00279" lon="0.39655">
        <ele>150</ele>
        <time>2018-04-21T08:55:09Z</time>
      </trkpt>
      <trkpt lat="45.00281" lon="0.3965">
        <ele>148.9</ele>
        <time>2018-04-21T08:55:10Z</time>
      </trkpt>
      <trkpt lat="45.00313" lon="0.3958">
        <ele>147.8</ele>
        <time>2018-04-21T08:55:24Z</time>
      </trkpt>
      <trkpt lat="45.0036" lon="0.39556">
        <ele>146.1</ele>
        <time>2018-04-21T08:55:37Z</time>
      </trkpt>
      <trkpt lat="45.00427" lon="0.39494">
        <ele>144.7</ele>
        <time>2018-04-21T08:55:57Z</time>
      </trkpt>
      <trkpt lat="45.00493" lon="0.39436">
        <ele>137.9</ele>
        <time>2018-04-21T08:56:16Z</time>
      </trkpt>
      <trkpt lat="45.00493" lon="0.39436">
        <ele>141.3</ele>
        <time>2018-04-21T08:56:16Z</time>
      </trkpt>
      <trkpt lat="45.00493" lon="0.39436">
        <ele>137.9</ele>
        <time>2018-04-21T08:56:16Z</time>
      </trkpt>
      <trkpt lat="45.00499" lon="0.3941">
        <ele>134.3</ele>
        <time>2018-04-21T08:56:20Z</time>
      </trkpt>
      <trkpt lat="45.00546" lon="0.393">
        <ele>127.2</ele>
        <time>2018-04-21T08:56:43Z</time>
      </trkpt>
      <trkpt lat="45.0058" lon="0.39228">
        <ele>123.4</ele>
        <time>2018-04-21T08:56:58Z</time>
      </trkpt>
      <trkpt lat="45.00613" lon="0.39152">
        <ele>119.9</ele>
        <time>2018-04-21T08:57:14Z</time>
      </trkpt>
      <trkpt lat="45.00619" lon="0.39144">
        <ele>119.9</ele>
        <time>2018-04-21T08:57:16Z</time>
      </trkpt>
      <trkpt lat="45.00619" lon="0.39144">
        <ele>119.9</ele>
        <time>2018-04-21T08:57:16Z</time>
      </trkpt>
      <trkpt lat="45.00634" lon="0.3912">
        <ele>119.9</ele>
        <time>2018-04-21T08:57:21Z</time>
      </trkpt>
      <trkpt lat="45.00676" lon="0.3906">
        <ele>118.4</ele>
        <time>2018-04-21T08:57:36Z</time>
      </trkpt>
      <trkpt lat="45.00691" lon="0.39043">
        <ele>113</ele>
        <time>2018-04-21T08:57:41Z</time>
      </trkpt>
      <trkpt lat="45.00738" lon="0.38963">
        <ele>110.6</ele>
        <time>2018-04-21T08:57:59Z</time>
      </trkpt>
      <trkpt lat="45.00784" lon="0.38907">
        <ele>109</ele>
        <time>2018-04-21T08:58:14Z</time>
      </trkpt>
      <trkpt lat="45.00995" lon="0.38804">
        <ele>100.3</ele>
        <time>2018-04-21T08:59:09Z</time>
      </trkpt>
      <trkpt lat="45.01045" lon="0.38776">
        <ele>99.2</ele>
        <time>2018-04-21T08:59:23Z</time>
      </trkpt>
      <trkpt lat="45.0115" lon="0.38848">
        <ele>98.7</ele>
        <time>2018-04-21T08:59:53Z</time>
      </trkpt>
      <trkpt lat="45.01157" lon="0.38826">
        <ele>101.2</ele>
        <time>2018-04-21T09:00:00Z</time>
      </trkpt>
      <trkpt lat="45.01177" lon="0.38705">
        <ele>102.4</ele>
        <time>2018-04-21T09:00:22Z</time>
      </trkpt>
      <trkpt lat="45.01175" lon="0.38696">
        <ele>106.4</ele>
        <time>2018-04-21T09:00:24Z</time>
      </trkpt>
      <trkpt lat="45.01174" lon="0.38646">
        <ele>107.2</ele>
        <time>2018-04-21T09:00:33Z</time>
      </trkpt>
      <trkpt lat="45.01169" lon="0.38521">
        <ele>107.2</ele>
        <time>2018-04-21T09:00:56Z</time>
      </trkpt>
      <trkpt lat="45.01215" lon="0.38335">
        <ele>107.1</ele>
        <time>2018-04-21T09:01:30Z</time>
      </trkpt>
      <trkpt lat="45.01201" lon="0.38311">
        <ele>115.2</ele>
        <time>2018-04-21T09:01:40Z</time>
      </trkpt>
      <trkpt lat="45.01074" lon="0.38338">
        <ele>120.5</ele>
        <time>2018-04-21T09:02:12Z</time>
      </trkpt>
      <trkpt lat="45.00953" lon="0.38315">
        <ele>128.7</ele>
        <time>2018-04-21T09:02:42Z</time>
      </trkpt>
      <trkpt lat="45.00782" lon="0.38402">
        <ele>131.3</ele>
        <time>2018-04-21T09:03:27Z</time>
      </trkpt>
      <trkpt lat="45.00511" lon="0.38587">
        <ele>115.4</ele>
        <time>2018-04-21T09:04:41Z</time>
      </trkpt>
      <trkpt lat="45.00495" lon="0.38512">
        <ele>117.9</ele>
        <time>2018-04-21T09:04:55Z</time>
      </trkpt>
      <trkpt lat="45.00385" lon="0.38421">
        <ele>117</ele>
        <time>2018-04-21T09:05:28Z</time>
      </trkpt>
      <trkpt lat="45.00324" lon="0.38406">
        <ele>108.3</ele>
        <time>2018-04-21T09:05:44Z</time>
      </trkpt>
      <trkpt lat="45.00251" lon="0.38293">
        <ele>105.9</ele>
        <time>2018-04-21T09:06:11Z</time>
      </trkpt>
      <trkpt lat="45.00238" lon="0.38136">
        <ele>103.4</ele>
        <time>2018-04-21T09:06:38Z</time>
      </trkpt>
      <trkpt lat="45.00225" lon="0.38061">
        <ele>102.2</ele>
        <time>2018-04-21T09:06:52Z</time>
      </trkpt>
      <trkpt lat="45.00161" lon="0.37901">
        <ele>105.2</ele>
        <time>2018-04-21T09:07:24Z</time>
      </trkpt>
      <trkpt lat="45.00152" lon="0.37863">
        <ele>105.1</ele>
        <time>2018-04-21T09:07:31Z</time>
      </trkpt>
      <trkpt lat="45.00144" lon="0.37808">
        <ele>105.4</ele>
        <time>2018-04-21T09:07:41Z</time>
      </trkpt>
      <trkpt lat="45.00134" lon="0.37737">
        <ele>105.7</ele>
        <time>2018-04-21T09:07:54Z</time>
      </trkpt>
      <trkpt lat="45.00136" lon="0.37697">
        <ele>107.2</ele>
        <time>2018-04-21T09:08:01Z</time>
      </trkpt>
      <trkpt lat="45.00409" lon="0.3756">
        <ele>98.3</ele>
        <time>2018-04-21T09:09:24Z</time>
      </trkpt>
      <trkpt lat="45.00409" lon="0.3756">
        <ele>98.3</ele>
        <time>2018-04-21T09:09:24Z</time>
      </trkpt>
      <trkpt lat="45.00448" lon="0.37557">
        <ele>92.4</ele>
        <time>2018-04-21T09:09:33Z</time>
      </trkpt>
      <trkpt lat="45.00467" lon="0.37568">
        <ele>92.7</ele>
        <time>2018-04-21T09:09:38Z</time>
      </trkpt>
      <trkpt lat="45.00569" lon="0.37561">
        <ele>100.4</ele>
        <time>2018-04-21T09:10:08Z</time>
      </trkpt>
      <trkpt lat="45.00569" lon="0.37561">
        <ele>100.4</ele>
        <time>2018-04-21T09:10:08Z</time>
      </trkpt>
      <trkpt lat="45.00666" lon="0.37527">
        <ele>103</ele>
        <time>2018-04-21T09:10:32Z</time>
      </trkpt>
      <trkpt lat="45.00649" lon="0.37396">
        <ele>107</ele>
        <time>2018-04-21T09:10:56Z</time>
      </trkpt>
      <trkpt lat="45.00515" lon="0.37098">
        <ele>99.6</ele>
        <time>2018-04-21T09:11:58Z</time>
      </trkpt>
      <trkpt lat="45.00463" lon="0.37022">
        <ele>92</ele>
        <time>2018-04-21T09:12:16Z</time>
      </trkpt>
      <trkpt lat="45.00497" lon="0.36979">
        <ele>94.5</ele>
        <time>2018-04-21T09:12:28Z</time>
      </trkpt>
      <trkpt lat="45.00576" lon="0.36917">
        <ele>99.2</ele>
        <time>2018-04-21T09:12:50Z</time>
      </trkpt>
      <trkpt lat="45.00586" lon="0.369">
        <ele>108.8</ele>
        <time>2018-04-21T09:12:54Z</time>
      </trkpt>
      <trkpt lat="45.00609" lon="0.36826">
        <ele>113.6</ele>
        <time>2018-04-21T09:13:08Z</time>
      </trkpt>
      <trkpt lat="45.0062" lon="0.36746">
        <ele>116.7</ele>
        <time>2018-04-21T09:13:22Z</time>
      </trkpt>
      <trkpt lat="45.00612" lon="0.36684">
        <ele>120.5</ele>
        <time>2018-04-21T09:13:33Z</time>
      </trkpt>
      <trkpt lat="45.006" lon="0.36647">
        <ele>120.3</ele>
        <time>2018-04-21T09:13:40Z</time>
      </trkpt>
      <trkpt lat="45.00565" lon="0.36596">
        <ele>125.8</ele>
        <time>2018-04-21T09:13:53Z</time>
      </trkpt>
      <trkpt lat="45.00479" lon="0.36515">
        <ele>130.2</ele>
        <time>2018-04-21T09:14:18Z</time>
      </trkpt>
      <trkpt lat="45.00438" lon="0.36342">
        <ele>134.6</ele>
        <time>2018-04-21T09:14:50Z</time>
      </trkpt>
      <trkpt lat="45.00431" lon="0.36283">
        <ele>134</ele>
        <time>2018-04-21T09:15:01Z</time>
      </trkpt>
      <trkpt lat="45.0043" lon="0.36189">
        <ele>131.5</ele>
        <time>2018-04-21T09:15:17Z</time>
      </trkpt>
      <trkpt lat="45.00434" lon="0.36106">
        <ele>128.2</ele>
        <time>2018-04-21T09:15:32Z</time>
      </trkpt>
      <trkpt lat="45.00565" lon="0.36068">
        <ele>130.1</ele>
        <time>2018-04-21T09:16:07Z</time>
      </trkpt>
      <trkpt lat="45.00843" lon="0.36092">
        <ele>119.2</ele>
        <time>2018-04-21T09:17:16Z</time>
      </trkpt>
      <trkpt lat="45.00921" lon="0.36089">
        <ele>117.3</ele>
        <time>2018-04-21T09:17:35Z</time>
      </trkpt>
      <trkpt lat="45.00978" lon="0.3609">
        <ele>114</ele>
        <time>2018-04-21T09:17:49Z</time>
      </trkpt>
      <trkpt lat="45.01064" lon="0.36106">
        <ele>110.3</ele>
        <time>2018-04-21T09:18:11Z</time>
      </trkpt>
      <trkpt lat="45.01075" lon="0.36109">
        <ele>110</ele>
        <time>2018-04-21T09:18:14Z</time>
      </trkpt>
      <trkpt lat="45.01201" lon="0.36188">
        <ele>110.1</ele>
        <time>2018-04-21T09:18:47Z</time>
      </trkpt>
      <trkpt lat="45.01286" lon="0.36227">
        <ele>110.7</ele>
        <time>2018-04-21T09:19:10Z</time>
      </trkpt>
      <trkpt lat="45.01395" lon="0.362">
        <ele>107.9</ele>
        <time>2018-04-21T09:19:37Z</time>
      </trkpt>
      <trkpt lat="45.01615" lon="0.3614">
        <ele>108.4</ele>
        <time>2018-04-21T09:20:34Z</time>
      </trkpt>
      <trkpt lat="45.01881" lon="0.36065">
        <ele>98.2</ele>
        <time>2018-04-21T09:21:42Z</time>
      </trkpt>
      <trkpt lat="45.0196" lon="0.36079">
        <ele>95.6</ele>
        <time>2018-04-21T09:22:01Z</time>
      </trkpt>
      <trkpt lat="45.0208" lon="0.36111">
        <ele>94.3</ele>
        <time>2018-04-21T09:22:32Z</time>
      </trkpt>
      <trkpt lat="45.0208" lon="0.36265">
        <ele>93.6</ele>
        <time>2018-04-21T09:23:22Z</time>
      </trkpt>
      <trkpt lat="45.0208" lon="0.36265">
        <ele>93.6</ele>
        <time>2018-04-21T09:23:22Z</time>
      </trkpt>
      <trkpt lat="45.02077" lon="0.36269">
        <ele>92.7</ele>
        <time>2018-04-21T09:23:23Z</time>
      </trkpt>
      <trkpt lat="45.02127" lon="0.36414">
        <ele>87.5</ele>
        <time>2018-04-21T09:23:51Z</time>
      </trkpt>
      <trkpt lat="45.0225" lon="0.36597">
        <ele>86.9</ele>
        <time>2018-04-21T09:24:37Z</time>
      </trkpt>
      <trkpt lat="45.0232" lon="0.36687">
        <ele>87.7</ele>
        <time>2018-04-21T09:25:06Z</time>
      </trkpt>
      <trkpt lat="45.02348" lon="0.3677">
        <ele>84.6</ele>
        <time>2018-04-21T09:25:22Z</time>
      </trkpt>
      <trkpt lat="45.02352" lon="0.36786">
        <ele>84.5</ele>
        <time>2018-04-21T09:25:25Z</time>
      </trkpt>
      <trkpt lat="45.02367" lon="0.36833">
        <ele>84</ele>
        <time>2018-04-21T09:25:34Z</time>
      </trkpt>
      <trkpt lat="45.02374" lon="0.36855">
        <ele>82.9</ele>
        <time>2018-04-21T09:25:38Z</time>
      </trkpt>
      <trkpt lat="45.02346" lon="0.36985">
        <ele>84.1</ele>
        <time>2018-04-21T09:26:04Z</time>
      </trkpt>
      <trkpt lat="45.02322" lon="0.37042">
        <ele>85.3</ele>
        <time>2018-04-21T09:26:16Z</time>
      </trkpt>
      <trkpt lat="45.02289" lon="0.37198">
        <ele>80.7</ele>
        <time>2018-04-21T09:26:44Z</time>
      </trkpt>
      <trkpt lat="45.02382" lon="0.37211">
        <ele>73.7</ele>
        <time>2018-04-21T09:27:07Z</time>
      </trkpt>
      <trkpt lat="45.02396" lon="0.37211">
        <ele>71.5</ele>
        <time>2018-04-21T09:27:10Z</time>
      </trkpt>
      <trkpt lat="45.02469" lon="0.3716">
        <ele>68.7</ele>
        <time>2018-04-21T09:27:30Z</time>
      </trkpt>
      <trkpt lat="45.02626" lon="0.37025">
        <ele>65.4</ele>
        <time>2018-04-21T09:28:16Z</time>
      </trkpt>
      <trkpt lat="45.0267" lon="0.36989">
        <ele>65.5</ele>
        <time>2018-04-21T09:28:28Z</time>
      </trkpt>
      <trkpt lat="45.02805" lon="0.36874">
        <ele>59.8</ele>
        <time>2018-04-21T09:29:07Z</time>
      </trkpt>
      <trkpt lat="45.02893" lon="0.36919">
        <ele>55.4</ele>
        <time>2018-04-21T09:29:30Z</time>
      </trkpt>
      <trkpt lat="45.02893" lon="0.36919">
        <ele>55.4</ele>
        <time>2018-04-21T09:29:30Z</time>
      </trkpt>
      <trkpt lat="45.02958" lon="0.36964">
        <ele>52.3</ele>
        <time>2018-04-21T09:29:54Z</time>
      </trkpt>
      <trkpt lat="45.03036" lon="0.36932">
        <ele>52.6</ele>
        <time>2018-04-21T09:30:14Z</time>
      </trkpt>
      <trkpt lat="45.03089" lon="0.36899">
        <ele>52.6</ele>
        <time>2018-04-21T09:30:28Z</time>
      </trkpt>
      <trkpt lat="45.03121" lon="0.36878">
        <ele>51.8</ele>
        <time>2018-04-21T09:30:36Z</time>
      </trkpt>
      <trkpt lat="45.03186" lon="0.36822">
        <ele>51.4</ele>
        <time>2018-04-21T09:30:55Z</time>
      </trkpt>
      <trkpt lat="45.03338" lon="0.36707">
        <ele>51.4</ele>
        <time>2018-04-21T09:31:38Z</time>
      </trkpt>
      <trkpt lat="45.03394" lon="0.36679">
        <ele>50.8</ele>
        <time>2018-04-21T09:31:52Z</time>
      </trkpt>
      <trkpt lat="45.03418" lon="0.36669">
        <ele>50.3</ele>
        <time>2018-04-21T09:31:59Z</time>
      </trkpt>
      <trkpt lat="45.03594" lon="0.36641">
        <ele>51.6</ele>
        <time>2018-04-21T09:32:42Z</time>
      </trkpt>
      <trkpt lat="45.03684" lon="0.36631">
        <ele>50.3</ele>
        <time>2018-04-21T09:33:05Z</time>
      </trkpt>
      <trkpt lat="45.03667" lon="0.36511">
        <ele>53</ele>
        <time>2018-04-21T09:33:27Z</time>
      </trkpt>
      <trkpt lat="45.0371" lon="0.36348">
        <ele>57</ele>
        <time>2018-04-21T09:33:57Z</time>
      </trkpt>
      <trkpt lat="45.03678" lon="0.35974">
        <ele>56.5</ele>
        <time>2018-04-21T09:35:03Z</time>
      </trkpt>
      <trkpt lat="45.03641" lon="0.35577">
        <ele>45.8</ele>
        <time>2018-04-21T09:36:13Z</time>
      </trkpt>
      <trkpt lat="45.03641" lon="0.35577">
        <ele>55.4</ele>
        <time>2018-04-21T09:36:13Z</time>
      </trkpt>
      <trkpt lat="45.0364" lon="0.35538">
        <ele>55.9</ele>
        <time>2018-04-21T09:36:20Z</time>
      </trkpt>
      <trkpt lat="45.03675" lon="0.35475">
        <ele>55.8</ele>
        <time>2018-04-21T09:36:35Z</time>
      </trkpt>
      <trkpt lat="45.03821" lon="0.35441">
        <ele>55.6</ele>
        <time>2018-04-21T09:37:11Z</time>
      </trkpt>
      <trkpt lat="45.03821" lon="0.35441">
        <ele>55.6</ele>
        <time>2018-04-21T09:37:11Z</time>
      </trkpt>
      <trkpt lat="45.03829" lon="0.35439">
        <ele>55.9</ele>
        <time>2018-04-21T09:37:13Z</time>
      </trkpt>
      <trkpt lat="45.03958" lon="0.35414">
        <ele>55.5</ele>
        <time>2018-04-21T09:37:48Z</time>
      </trkpt>
      <trkpt lat="45.03966" lon="0.35207">
        <ele>53.5</ele>
        <time>2018-04-21T09:38:24Z</time>
      </trkpt>
      <trkpt lat="45.04007" lon="0.35215">
        <ele>53.9</ele>
        <time>2018-04-21T09:38:35Z</time>
      </trkpt>
      <trkpt lat="45.04051" lon="0.35295">
        <ele>53.8</ele>
        <time>2018-04-21T09:39:02Z</time>
      </trkpt>
      <trkpt lat="45.04042" lon="0.35578">
        <ele>57.3</ele>
        <time>2018-04-21T09:39:51Z</time>
      </trkpt>
      <trkpt lat="45.04038" lon="0.35851">
        <ele>56.9</ele>
        <time>2018-04-21T09:40:39Z</time>
      </trkpt>
      <trkpt lat="45.04028" lon="0.362">
        <ele>44</ele>
        <time>2018-04-21T09:41:40Z</time>
      </trkpt>
      <trkpt lat="45.04022" lon="0.3628">
        <ele>44</ele>
        <time>2018-04-21T09:41:54Z</time>
      </trkpt>
      <trkpt lat="45.03927" lon="0.36622">
        <ele>44.8</ele>
        <time>2018-04-21T09:42:58Z</time>
      </trkpt>
      <trkpt lat="45.03818" lon="0.3697">
        <ele>45.5</ele>
        <time>2018-04-21T09:44:04Z</time>
      </trkpt>
      <trkpt lat="45.03841" lon="0.36991">
        <ele>46.1</ele>
        <time>2018-04-21T09:44:11Z</time>
      </trkpt>
      <trkpt lat="45.03876" lon="0.37022">
        <ele>47.3</ele>
        <time>2018-04-21T09:44:22Z</time>
      </trkpt>
      <trkpt lat="45.04086" lon="0.372">
        <ele>49.6</ele>
        <time>2018-04-21T09:45:23Z</time>
      </trkpt>
      <trkpt lat="45.04279" lon="0.37068">
        <ele>49</ele>
        <time>2018-04-21T09:46:17Z</time>
      </trkpt>
      <trkpt lat="45.04426" lon="0.36943">
        <ele>54.1</ele>
        <time>2018-04-21T09:46:59Z</time>
      </trkpt>
      <trkpt lat="45.04464" lon="0.36906">
        <ele>54.1</ele>
        <time>2018-04-21T09:47:10Z</time>
      </trkpt>
      <trkpt lat="45.04668" lon="0.36727">
        <ele>51.9</ele>
        <time>2018-04-21T09:48:09Z</time>
      </trkpt>
      <trkpt lat="45.04905" lon="0.36519">
        <ele>49.8</ele>
        <time>2018-04-21T09:49:18Z</time>
      </trkpt>
      <trkpt lat="45.05073" lon="0.36372">
        <ele>52</ele>
        <time>2018-04-21T09:50:07Z</time>
      </trkpt>
      <trkpt lat="45.05091" lon="0.36398">
        <ele>51.7</ele>
        <time>2018-04-21T09:50:13Z</time>
      </trkpt>
      <trkpt lat="45.05198" lon="0.36363">
        <ele>54.4</ele>
        <time>2018-04-21T09:50:40Z</time>
      </trkpt>
      <trkpt lat="45.05297" lon="0.3642">
        <ele>58.7</ele>
        <time>2018-04-21T09:51:08Z</time>
      </trkpt>
      <trkpt lat="45.05352" lon="0.36416">
        <ele>61.4</ele>
        <time>2018-04-21T09:51:21Z</time>
      </trkpt>
      <trkpt lat="45.05451" lon="0.36554">
        <ele>62</ele>
        <time>2018-04-21T09:52:05Z</time>
      </trkpt>
      <trkpt lat="45.05546" lon="0.36766">
        <ele>62</ele>
        <time>2018-04-21T09:52:49Z</time>
      </trkpt>
      <trkpt lat="45.05606" lon="0.37055">
        <ele>61.5</ele>
        <time>2018-04-21T09:53:42Z</time>
      </trkpt>
      <trkpt lat="45.05676" lon="0.37247">
        <ele>60.8</ele>
        <time>2018-04-21T09:54:19Z</time>
      </trkpt>
      <trkpt lat="45.05703" lon="0.37323">
        <ele>61.4</ele>
        <time>2018-04-21T09:54:34Z</time>
      </trkpt>
      <trkpt lat="45.05761" lon="0.37633">
        <ele>63.7</ele>
        <time>2018-04-21T09:55:30Z</time>
      </trkpt>
      <trkpt lat="45.05782" lon="0.37788">
        <ele>62.2</ele>
        <time>2018-04-21T09:55:58Z</time>
      </trkpt>
      <trkpt lat="45.05855" lon="0.37945">
        <ele>54.9</ele>
        <time>2018-04-21T09:56:30Z</time>
      </trkpt>
      <trkpt lat="45.05922" lon="0.38203">
        <ele>59.1</ele>
        <time>2018-04-21T09:57:19Z</time>
      </trkpt>
      <trkpt lat="45.05936" lon="0.38241">
        <ele>60.4</ele>
        <time>2018-04-21T09:57:26Z</time>
      </trkpt>
      <trkpt lat="45.06091" lon="0.38643">
        <ele>76.1</ele>
        <time>2018-04-21T09:58:46Z</time>
      </trkpt>
      <trkpt lat="45.06111" lon="0.38696">
        <ele>76.1</ele>
        <time>2018-04-21T09:58:56Z</time>
      </trkpt>
      <trkpt lat="45.06227" lon="0.386">
        <ele>81.2</ele>
        <time>2018-04-21T09:59:29Z</time>
      </trkpt>
      <trkpt lat="45.06334" lon="0.38557">
        <ele>85.1</ele>
        <time>2018-04-21T09:59:57Z</time>
      </trkpt>
      <trkpt lat="45.06422" lon="0.38531">
        <ele>88.5</ele>
        <time>2018-04-21T10:00:19Z</time>
      </trkpt>
      <trkpt lat="45.06436" lon="0.38497">
        <ele>87.9</ele>
        <time>2018-04-21T10:00:26Z</time>
      </trkpt>
      <trkpt lat="45.06545" lon="0.38474">
        <ele>88.5</ele>
        <time>2018-04-21T10:00:53Z</time>
      </trkpt>
      <trkpt lat="45.06583" lon="0.38476">
        <ele>91.4</ele>
        <time>2018-04-21T10:01:03Z</time>
      </trkpt>
      <trkpt lat="45.06613" lon="0.38456">
        <ele>92.3</ele>
        <time>2018-04-21T10:01:11Z</time>
      </trkpt>
      <trkpt lat="45.06642" lon="0.38437">
        <ele>92.1</ele>
        <time>2018-04-21T10:01:19Z</time>
      </trkpt>
      <trkpt lat="45.06659" lon="0.38417">
        <ele>90.2</ele>
        <time>2018-04-21T10:01:24Z</time>
      </trkpt>
      <trkpt lat="45.06676" lon="0.38396">
        <ele>87.9</ele>
        <time>2018-04-21T10:01:30Z</time>
      </trkpt>
      <trkpt lat="45.067" lon="0.38385">
        <ele>85.3</ele>
        <time>2018-04-21T10:01:36Z</time>
      </trkpt>
      <trkpt lat="45.06723" lon="0.38374">
        <ele>81.7</ele>
        <time>2018-04-21T10:01:42Z</time>
      </trkpt>
      <trkpt lat="45.06813" lon="0.38372">
        <ele>87.5</ele>
        <time>2018-04-21T10:02:04Z</time>
      </trkpt>
      <trkpt lat="45.06813" lon="0.38372">
        <ele>87.5</ele>
        <time>2018-04-21T10:02:04Z</time>
      </trkpt>
      <trkpt lat="45.06901" lon="0.38343">
        <ele>84.3</ele>
        <time>2018-04-21T10:02:26Z</time>
      </trkpt>
      <trkpt lat="45.07065" lon="0.3829">
        <ele>77</ele>
        <time>2018-04-21T10:03:07Z</time>
      </trkpt>
      <trkpt lat="45.07082" lon="0.3827">
        <ele>72.3</ele>
        <time>2018-04-21T10:03:13Z</time>
      </trkpt>
      <trkpt lat="45.071" lon="0.3825">
        <ele>68.4</ele>
        <time>2018-04-21T10:03:18Z</time>
      </trkpt>
      <trkpt lat="45.07189" lon="0.38254">
        <ele>64.5</ele>
        <time>2018-04-21T10:03:41Z</time>
      </trkpt>
      <trkpt lat="45.07263" lon="0.38257">
        <ele>65.2</ele>
        <time>2018-04-21T10:03:59Z</time>
      </trkpt>
      <trkpt lat="45.07348" lon="0.3827">
        <ele>64.6</ele>
        <time>2018-04-21T10:04:20Z</time>
      </trkpt>
      <trkpt lat="45.07367" lon="0.38262">
        <ele>62</ele>
        <time>2018-04-21T10:04:25Z</time>
      </trkpt>
      <trkpt lat="45.07386" lon="0.38255">
        <ele>60</ele>
        <time>2018-04-21T10:04:29Z</time>
      </trkpt>
      <trkpt lat="45.07472" lon="0.38292">
        <ele>63.6</ele>
        <time>2018-04-21T10:04:51Z</time>
      </trkpt>
      <trkpt lat="45.07521" lon="0.38326">
        <ele>67.1</ele>
        <time>2018-04-21T10:05:05Z</time>
      </trkpt>
      <trkpt lat="45.07559" lon="0.38355">
        <ele>66.7</ele>
        <time>2018-04-21T10:05:16Z</time>
      </trkpt>
      <trkpt lat="45.07649" lon="0.38338">
        <ele>65.8</ele>
        <time>2018-04-21T10:05:39Z</time>
      </trkpt>
      <trkpt lat="45.07686" lon="0.38343">
        <ele>61.8</ele>
        <time>2018-04-21T10:05:48Z</time>
      </trkpt>
      <trkpt lat="45.07705" lon="0.38207">
        <ele>60.9</ele>
        <time>2018-04-21T10:06:12Z</time>
      </trkpt>
      <trkpt lat="45.07733" lon="0.3806">
        <ele>67.5</ele>
        <time>2018-04-21T10:06:39Z</time>
      </trkpt>
      <trkpt lat="45.07767" lon="0.38061">
        <ele>68.5</ele>
        <time>2018-04-21T10:06:47Z</time>
      </trkpt>
      <trkpt lat="45.07723" lon="0.37881">
        <ele>72.1</ele>
        <time>2018-04-21T10:07:20Z</time>
      </trkpt>
      <trkpt lat="45.07692" lon="0.37789">
        <ele>79.6</ele>
        <time>2018-04-21T10:07:38Z</time>
      </trkpt>
      <trkpt lat="45.07687" lon="0.37773">
        <ele>84.1</ele>
        <time>2018-04-21T10:07:41Z</time>
      </trkpt>
      <trkpt lat="45.07614" lon="0.37627">
        <ele>90.9</ele>
        <time>2018-04-21T10:08:12Z</time>
      </trkpt>
      <trkpt lat="45.07576" lon="0.37576">
        <ele>92.5</ele>
        <time>2018-04-21T10:08:25Z</time>
      </trkpt>
      <trkpt lat="45.07534" lon="0.37346">
        <ele>97.3</ele>
        <time>2018-04-21T10:09:07Z</time>
      </trkpt>
      <trkpt lat="45.0749" lon="0.37154">
        <ele>104.3</ele>
        <time>2018-04-21T10:09:42Z</time>
      </trkpt>
      <trkpt lat="45.07485" lon="0.3709">
        <ele>105.1</ele>
        <time>2018-04-21T10:09:54Z</time>
      </trkpt>
      <trkpt lat="45.07396" lon="0.36892">
        <ele>103.1</ele>
        <time>2018-04-21T10:10:43Z</time>
      </trkpt>
      <trkpt lat="45.07356" lon="0.36845">
        <ele>105.3</ele>
        <time>2018-04-21T10:10:56Z</time>
      </trkpt>
      <trkpt lat="45.07328" lon="0.36828">
        <ele>106.1</ele>
        <time>2018-04-21T10:11:03Z</time>
      </trkpt>
      <trkpt lat="45.07325" lon="0.36826">
        <ele>106.7</ele>
        <time>2018-04-21T10:11:04Z</time>
      </trkpt>
      <trkpt lat="45.07336" lon="0.36769">
        <ele>113.3</ele>
        <time>2018-04-21T10:11:14Z</time>
      </trkpt>
      <trkpt lat="45.07368" lon="0.36628">
        <ele>117.3</ele>
        <time>2018-04-21T10:11:41Z</time>
      </trkpt>
      <trkpt lat="45.07418" lon="0.36586">
        <ele>122.6</ele>
        <time>2018-04-21T10:11:56Z</time>
      </trkpt>
      <trkpt lat="45.07488" lon="0.3656">
        <ele>128.6</ele>
        <time>2018-04-21T10:12:13Z</time>
      </trkpt>
      <trkpt lat="45.07519" lon="0.36536">
        <ele>131.6</ele>
        <time>2018-04-21T10:12:22Z</time>
      </trkpt>
      <trkpt lat="45.07531" lon="0.36494">
        <ele>133.1</ele>
        <time>2018-04-21T10:12:30Z</time>
      </trkpt>
      <trkpt lat="45.07604" lon="0.36257">
        <ele>143.6</ele>
        <time>2018-04-21T10:13:16Z</time>
      </trkpt>
      <trkpt lat="45.07614" lon="0.36223">
        <ele>142.1</ele>
        <time>2018-04-21T10:13:22Z</time>
      </trkpt>
      <trkpt lat="45.07676" lon="0.36057">
        <ele>137.4</ele>
        <time>2018-04-21T10:13:55Z</time>
      </trkpt>
      <trkpt lat="45.07705" lon="0.35983">
        <ele>135.2</ele>
        <time>2018-04-21T10:14:10Z</time>
      </trkpt>
      <trkpt lat="45.07705" lon="0.35983">
        <ele>135.2</ele>
        <time>2018-04-21T10:14:10Z</time>
      </trkpt>
      <trkpt lat="45.07718" lon="0.35974">
        <ele>135.2</ele>
        <time>2018-04-21T10:14:14Z</time>
      </trkpt>
      <trkpt lat="45.07865" lon="0.35892">
        <ele>130.7</ele>
        <time>2018-04-21T10:14:53Z</time>
      </trkpt>
      <trkpt lat="45.07897" lon="0.35873">
        <ele>130.6</ele>
        <time>2018-04-21T10:15:02Z</time>
      </trkpt>
      <trkpt lat="45.08019" lon="0.35754">
        <ele>135.2</ele>
        <time>2018-04-21T10:15:39Z</time>
      </trkpt>
      <trkpt lat="45.08104" lon="0.3572">
        <ele>140.8</ele>
        <time>2018-04-21T10:16:01Z</time>
      </trkpt>
      <trkpt lat="45.08168" lon="0.35655">
        <ele>143.3</ele>
        <time>2018-04-21T10:16:20Z</time>
      </trkpt>
      <trkpt lat="45.08185" lon="0.35607">
        <ele>143.7</ele>
        <time>2018-04-21T10:16:30Z</time>
      </trkpt>
      <trkpt lat="45.0819" lon="0.35604">
        <ele>143.7</ele>
        <time>2018-04-21T10:16:31Z</time>
      </trkpt>
      <trkpt lat="45.08321" lon="0.35615">
        <ele>144</ele>
        <time>2018-04-21T10:17:04Z</time>
      </trkpt>
      <trkpt lat="45.08435" lon="0.35602">
        <ele>142.7</ele>
        <time>2018-04-21T10:17:38Z</time>
      </trkpt>
      <trkpt lat="45.0852" lon="0.35692">
        <ele>138.1</ele>
        <time>2018-04-21T10:18:05Z</time>
      </trkpt>
      <trkpt lat="45.0853" lon="0.35704">
        <ele>137.9</ele>
        <time>2018-04-21T10:18:08Z</time>
      </trkpt>
      <trkpt lat="45.08623" lon="0.35689">
        <ele>136.1</ele>
        <time>2018-04-21T10:18:31Z</time>
      </trkpt>
      <trkpt lat="45.08629" lon="0.35705">
        <ele>134.6</ele>
        <time>2018-04-21T10:18:35Z</time>
      </trkpt>
      <trkpt lat="45.08715" lon="0.35945">
        <ele>133</ele>
        <time>2018-04-21T10:19:22Z</time>
      </trkpt>
      <trkpt lat="45.08738" lon="0.35918">
        <ele>131.3</ele>
        <time>2018-04-21T10:19:29Z</time>
      </trkpt>
      <trkpt lat="45.08829" lon="0.35798">
        <ele>130.3</ele>
        <time>2018-04-21T10:20:03Z</time>
      </trkpt>
      <trkpt lat="45.08868" lon="0.358">
        <ele>126.5</ele>
        <time>2018-04-21T10:20:13Z</time>
      </trkpt>
      <trkpt lat="45.08874" lon="0.35808">
        <ele>124.1</ele>
        <time>2018-04-21T10:20:15Z</time>
      </trkpt>
      <trkpt lat="45.08902" lon="0.35799">
        <ele>121.5</ele>
        <time>2018-04-21T10:20:26Z</time>
      </trkpt>
      <trkpt lat="45.09004" lon="0.35719">
        <ele>118.1</ele>
        <time>2018-04-21T10:20:55Z</time>
      </trkpt>
      <trkpt lat="45.09094" lon="0.35658">
        <ele>114.8</ele>
        <time>2018-04-21T10:21:23Z</time>
      </trkpt>
      <trkpt lat="45.09094" lon="0.35658">
        <ele>114.8</ele>
        <time>2018-04-21T10:21:23Z</time>
      </trkpt>
      <trkpt lat="45.09119" lon="0.3561">
        <ele>114.5</ele>
        <time>2018-04-21T10:21:33Z</time>
      </trkpt>
      <trkpt lat="45.09237" lon="0.35598">
        <ele>112.6</ele>
        <time>2018-04-21T10:22:02Z</time>
      </trkpt>
      <trkpt lat="45.09374" lon="0.35533">
        <ele>111</ele>
        <time>2018-04-21T10:22:39Z</time>
      </trkpt>
      <trkpt lat="45.09462" lon="0.35561">
        <ele>103.3</ele>
        <time>2018-04-21T10:23:01Z</time>
      </trkpt>
      <trkpt lat="45.09533" lon="0.3558">
        <ele>101.9</ele>
        <time>2018-04-21T10:23:19Z</time>
      </trkpt>
      <trkpt lat="45.0962" lon="0.35614">
        <ele>101.5</ele>
        <time>2018-04-21T10:23:42Z</time>
      </trkpt>
      <trkpt lat="45.09634" lon="0.35614">
        <ele>105.8</ele>
        <time>2018-04-21T10:23:46Z</time>
      </trkpt>
      <trkpt lat="45.09634" lon="0.35619">
        <ele>104.9</ele>
        <time>2018-04-21T10:23:47Z</time>
      </trkpt>
      <trkpt lat="45.09636" lon="0.35643">
        <ele>103.9</ele>
        <time>2018-04-21T10:23:51Z</time>
      </trkpt>
      <trkpt lat="45.09679" lon="0.35872">
        <ele>100.8</ele>
        <time>2018-04-21T10:24:32Z</time>
      </trkpt>
      <trkpt lat="45.0969" lon="0.36074">
        <ele>93</ele>
        <time>2018-04-21T10:25:08Z</time>
      </trkpt>
      <trkpt lat="45.09648" lon="0.36272">
        <ele>90.7</ele>
        <time>2018-04-21T10:25:44Z</time>
      </trkpt>
      <trkpt lat="45.09653" lon="0.3634">
        <ele>93.3</ele>
        <time>2018-04-21T10:25:56Z</time>
      </trkpt>
      <trkpt lat="45.09671" lon="0.36314">
        <ele>94.1</ele>
        <time>2018-04-21T10:26:02Z</time>
      </trkpt>
      <trkpt lat="45.09762" lon="0.36192">
        <ele>96.5</ele>
        <time>2018-04-21T10:26:33Z</time>
      </trkpt>
      <trkpt lat="45.09902" lon="0.36064">
        <ele>100.5</ele>
        <time>2018-04-21T10:27:14Z</time>
      </trkpt>
      <trkpt lat="45.09929" lon="0.3603">
        <ele>95.2</ele>
        <time>2018-04-21T10:27:23Z</time>
      </trkpt>
      <trkpt lat="45.09928" lon="0.36029">
        <ele>100.9</ele>
        <time>2018-04-21T10:27:23Z</time>
      </trkpt>
      <trkpt lat="45.09947" lon="0.36005">
        <ele>101.3</ele>
        <time>2018-04-21T10:27:30Z</time>
      </trkpt>
      <trkpt lat="45.10068" lon="0.35751">
        <ele>105.2</ele>
        <time>2018-04-21T10:28:24Z</time>
      </trkpt>
      <trkpt lat="45.10072" lon="0.3573">
        <ele>105.3</ele>
        <time>2018-04-21T10:28:28Z</time>
      </trkpt>
      <trkpt lat="45.10142" lon="0.35629">
        <ele>108.3</ele>
        <time>2018-04-21T10:28:53Z</time>
      </trkpt>
      <trkpt lat="45.10182" lon="0.35571">
        <ele>110.3</ele>
        <time>2018-04-21T10:29:08Z</time>
      </trkpt>
      <trkpt lat="45.10201" lon="0.35497">
        <ele>111.6</ele>
        <time>2018-04-21T10:29:22Z</time>
      </trkpt>
      <trkpt lat="45.1023" lon="0.35362">
        <ele>115.1</ele>
        <time>2018-04-21T10:29:46Z</time>
      </trkpt>
      <trkpt lat="45.10227" lon="0.35338">
        <ele>115.4</ele>
        <time>2018-04-21T10:29:51Z</time>
      </trkpt>
      <trkpt lat="45.10214" lon="0.35255">
        <ele>117.1</ele>
        <time>2018-04-21T10:30:06Z</time>
      </trkpt>
      <trkpt lat="45.10275" lon="0.34984">
        <ele>120.1</ele>
        <time>2018-04-21T10:30:55Z</time>
      </trkpt>
      <trkpt lat="45.1029" lon="0.34815">
        <ele>117.3</ele>
        <time>2018-04-21T10:31:25Z</time>
      </trkpt>
      <trkpt lat="45.10306" lon="0.34723">
        <ele>115.8</ele>
        <time>2018-04-21T10:31:42Z</time>
      </trkpt>
      <trkpt lat="45.1043" lon="0.34613">
        <ele>115.9</ele>
        <time>2018-04-21T10:32:21Z</time>
      </trkpt>
      <trkpt lat="45.10609" lon="0.34558">
        <ele>117.9</ele>
        <time>2018-04-21T10:33:07Z</time>
      </trkpt>
      <trkpt lat="45.10624" lon="0.34557">
        <ele>117.1</ele>
        <time>2018-04-21T10:33:11Z</time>
      </trkpt>
      <trkpt lat="45.10723" lon="0.34578">
        <ele>117.9</ele>
        <time>2018-04-21T10:33:37Z</time>
      </trkpt>
      <trkpt lat="45.10798" lon="0.34635">
        <ele>118.5</ele>
        <time>2018-04-21T10:33:57Z</time>
      </trkpt>
      <trkpt lat="45.10969" lon="0.34742">
        <ele>113</ele>
        <time>2018-04-21T10:34:44Z</time>
      </trkpt>
      <trkpt lat="45.11149" lon="0.34787">
        <ele>111</ele>
        <time>2018-04-21T10:35:29Z</time>
      </trkpt>
      <trkpt lat="45.11265" lon="0.34816">
        <ele>109.1</ele>
        <time>2018-04-21T10:35:58Z</time>
      </trkpt>
      <trkpt lat="45.11447" lon="0.34936">
        <ele>112.1</ele>
        <time>2018-04-21T10:36:49Z</time>
      </trkpt>
      <trkpt lat="45.11539" lon="0.35042">
        <ele>113.1</ele>
        <time>2018-04-21T10:37:18Z</time>
      </trkpt>
      <trkpt lat="45.11549" lon="0.35076">
        <ele>113</ele>
        <time>2018-04-21T10:37:25Z</time>
      </trkpt>
      <trkpt lat="45.115" lon="0.35317">
        <ele>117.8</ele>
        <time>2018-04-21T10:38:11Z</time>
      </trkpt>
      <trkpt lat="45.11358" lon="0.35474">
        <ele>118.2</ele>
        <time>2018-04-21T10:39:01Z</time>
      </trkpt>
      <trkpt lat="45.11349" lon="0.3573">
        <ele>124.9</ele>
        <time>2018-04-21T10:39:46Z</time>
      </trkpt>
      <trkpt lat="45.11352" lon="0.35847">
        <ele>124.9</ele>
        <time>2018-04-21T10:40:06Z</time>
      </trkpt>
      <trkpt lat="45.1132" lon="0.35853">
        <ele>128.7</ele>
        <time>2018-04-21T10:40:14Z</time>
      </trkpt>
      <trkpt lat="45.11309" lon="0.35852">
        <ele>128.9</ele>
        <time>2018-04-21T10:40:17Z</time>
      </trkpt>
      <trkpt lat="45.11352" lon="0.35847">
        <ele>124.9</ele>
        <time>2018-04-21T10:40:28Z</time>
      </trkpt>
      <trkpt lat="45.11352" lon="0.35858">
        <ele>125</ele>
        <time>2018-04-21T10:40:30Z</time>
      </trkpt>
      <trkpt lat="45.11504" lon="0.35804">
        <ele>125.6</ele>
        <time>2018-04-21T10:41:08Z</time>
      </trkpt>
      <trkpt lat="45.11719" lon="0.35836">
        <ele>126.5</ele>
        <time>2018-04-21T10:42:02Z</time>
      </trkpt>
      <trkpt lat="45.11823" lon="0.35858">
        <ele>129.9</ele>
        <time>2018-04-21T10:42:28Z</time>
      </trkpt>
      <trkpt lat="45.12065" lon="0.35825">
        <ele>130</ele>
        <time>2018-04-21T10:43:28Z</time>
      </trkpt>
      <trkpt lat="45.12187" lon="0.35817">
        <ele>128</ele>
        <time>2018-04-21T10:43:59Z</time>
      </trkpt>
      <trkpt lat="45.12235" lon="0.35774">
        <ele>124.4</ele>
        <time>2018-04-21T10:44:14Z</time>
      </trkpt>
      <trkpt lat="45.12448" lon="0.35687">
        <ele>113.1</ele>
        <time>2018-04-21T10:45:09Z</time>
      </trkpt>
      <trkpt lat="45.12454" lon="0.357">
        <ele>110.9</ele>
        <time>2018-04-21T10:45:12Z</time>
      </trkpt>
      <trkpt lat="45.12637" lon="0.35782">
        <ele>110.8</ele>
        <time>2018-04-21T10:46:03Z</time>
      </trkpt>
      <trkpt lat="45.12691" lon="0.3579">
        <ele>113.5</ele>
        <time>2018-04-21T10:46:16Z</time>
      </trkpt>
      <trkpt lat="45.12889" lon="0.35834">
        <ele>111.9</ele>
        <time>2018-04-21T10:47:06Z</time>
      </trkpt>
      <trkpt lat="45.12891" lon="0.35835">
        <ele>114</ele>
        <time>2018-04-21T10:47:06Z</time>
      </trkpt>
      <trkpt lat="45.12845" lon="0.36095">
        <ele>104.4</ele>
        <time>2018-04-21T10:47:53Z</time>
      </trkpt>
      <trkpt lat="45.12834" lon="0.36129">
        <ele>104.5</ele>
        <time>2018-04-21T10:48:00Z</time>
      </trkpt>
      <trkpt lat="45.12797" lon="0.36213">
        <ele>103.7</ele>
        <time>2018-04-21T10:48:17Z</time>
      </trkpt>
      <trkpt lat="45.12773" lon="0.36237">
        <ele>103.1</ele>
        <time>2018-04-21T10:48:24Z</time>
      </trkpt>
      <trkpt lat="45.12827" lon="0.36334">
        <ele>108.4</ele>
        <time>2018-04-21T10:48:46Z</time>
      </trkpt>
      <trkpt lat="45.12902" lon="0.36387">
        <ele>108.4</ele>
        <time>2018-04-21T10:49:06Z</time>
      </trkpt>
      <trkpt lat="45.13031" lon="0.36484">
        <ele>121.2</ele>
        <time>2018-04-21T10:49:42Z</time>
      </trkpt>
      <trkpt lat="45.13191" lon="0.36749">
        <ele>127.3</ele>
        <time>2018-04-21T10:50:43Z</time>
      </trkpt>
      <trkpt lat="45.13249" lon="0.3683">
        <ele>127.5</ele>
        <time>2018-04-21T10:51:03Z</time>
      </trkpt>
      <trkpt lat="45.13269" lon="0.36797">
        <ele>126.2</ele>
        <time>2018-04-21T10:51:13Z</time>
      </trkpt>
      <trkpt lat="45.13285" lon="0.3674">
        <ele>124.9</ele>
        <time>2018-04-21T10:51:24Z</time>
      </trkpt>
      <trkpt lat="45.13297" lon="0.36708">
        <ele>124.7</ele>
        <time>2018-04-21T10:51:30Z</time>
      </trkpt>
      <trkpt lat="45.13417" lon="0.36511">
        <ele>130.6</ele>
        <time>2018-04-21T10:52:16Z</time>
      </trkpt>
      <trkpt lat="45.13443" lon="0.36468">
        <ele>130.7</ele>
        <time>2018-04-21T10:52:26Z</time>
      </trkpt>
      <trkpt lat="45.13531" lon="0.36386">
        <ele>132.1</ele>
        <time>2018-04-21T10:52:53Z</time>
      </trkpt>
      <trkpt lat="45.13668" lon="0.36339">
        <ele>133</ele>
        <time>2018-04-21T10:53:28Z</time>
      </trkpt>
      <trkpt lat="45.13744" lon="0.36334">
        <ele>137.1</ele>
        <time>2018-04-21T10:53:46Z</time>
      </trkpt>
      <trkpt lat="45.13773" lon="0.36337">
        <ele>136.2</ele>
        <time>2018-04-21T10:53:54Z</time>
      </trkpt>
      <trkpt lat="45.13837" lon="0.36348">
        <ele>132.6</ele>
        <time>2018-04-21T10:54:09Z</time>
      </trkpt>
      <trkpt lat="45.13913" lon="0.36362">
        <ele>132.7</ele>
        <time>2018-04-21T10:54:28Z</time>
      </trkpt>
      <trkpt lat="45.13982" lon="0.3638">
        <ele>134.7</ele>
        <time>2018-04-21T10:54:46Z</time>
      </trkpt>
      <trkpt lat="45.14042" lon="0.36337">
        <ele>140.6</ele>
        <time>2018-04-21T10:55:02Z</time>
      </trkpt>
      <trkpt lat="45.14128" lon="0.3631">
        <ele>142.6</ele>
        <time>2018-04-21T10:55:24Z</time>
      </trkpt>
      <trkpt lat="45.14217" lon="0.36274">
        <ele>147.6</ele>
        <time>2018-04-21T10:55:47Z</time>
      </trkpt>
      <trkpt lat="45.14217" lon="0.36276">
        <ele>146.7</ele>
        <time>2018-04-21T10:55:47Z</time>
      </trkpt>
      <trkpt lat="45.14267" lon="0.36261">
        <ele>146.5</ele>
        <time>2018-04-21T10:56:00Z</time>
      </trkpt>
      <trkpt lat="45.14337" lon="0.36253">
        <ele>145.3</ele>
        <time>2018-04-21T10:56:17Z</time>
      </trkpt>
      <trkpt lat="45.14355" lon="0.36251">
        <ele>144.1</ele>
        <time>2018-04-21T10:56:22Z</time>
      </trkpt>
      <trkpt lat="45.14367" lon="0.36207">
        <ele>142.3</ele>
        <time>2018-04-21T10:56:37Z</time>
      </trkpt>
      <trkpt lat="45.14473" lon="0.36244">
        <ele>139.3</ele>
        <time>2018-04-21T10:57:04Z</time>
      </trkpt>
      <trkpt lat="45.14504" lon="0.36258">
        <ele>139.2</ele>
        <time>2018-04-21T10:57:12Z</time>
      </trkpt>
      <trkpt lat="45.14705" lon="0.36405">
        <ele>142.9</ele>
        <time>2018-04-21T10:58:08Z</time>
      </trkpt>
      <trkpt lat="45.14783" lon="0.36504">
        <ele>144.9</ele>
        <time>2018-04-21T10:58:34Z</time>
      </trkpt>
      <trkpt lat="45.14851" lon="0.36611">
        <ele>147.2</ele>
        <time>2018-04-21T10:58:59Z</time>
      </trkpt>
      <trkpt lat="45.1494" lon="0.36798">
        <ele>142.8</ele>
        <time>2018-04-21T10:59:39Z</time>
      </trkpt>
      <trkpt lat="45.14972" lon="0.36871">
        <ele>143.6</ele>
        <time>2018-04-21T10:59:54Z</time>
      </trkpt>
      <trkpt lat="45.14997" lon="0.36913">
        <ele>144</ele>
        <time>2018-04-21T11:00:03Z</time>
      </trkpt>
      <trkpt lat="45.15069" lon="0.37032">
        <ele>141.5</ele>
        <time>2018-04-21T11:00:31Z</time>
      </trkpt>
      <trkpt lat="45.15142" lon="0.37096">
        <ele>139.1</ele>
        <time>2018-04-21T11:00:52Z</time>
      </trkpt>
      <trkpt lat="45.15165" lon="0.37108">
        <ele>139.3</ele>
        <time>2018-04-21T11:00:59Z</time>
      </trkpt>
      <trkpt lat="45.15248" lon="0.37124">
        <ele>139.6</ele>
        <time>2018-04-21T11:01:20Z</time>
      </trkpt>
      <trkpt lat="45.15302" lon="0.3711">
        <ele>139</ele>
        <time>2018-04-21T11:01:33Z</time>
      </trkpt>
      <trkpt lat="45.15328" lon="0.37103">
        <ele>137.9</ele>
        <time>2018-04-21T11:01:40Z</time>
      </trkpt>
      <trkpt lat="45.15441" lon="0.37107">
        <ele>136.1</ele>
        <time>2018-04-21T11:02:08Z</time>
      </trkpt>
      <trkpt lat="45.15525" lon="0.37156">
        <ele>132.2</ele>
        <time>2018-04-21T11:02:30Z</time>
      </trkpt>
      <trkpt lat="45.15585" lon="0.37186">
        <ele>129</ele>
        <time>2018-04-21T11:02:46Z</time>
      </trkpt>
      <trkpt lat="45.15664" lon="0.37201">
        <ele>125.7</ele>
        <time>2018-04-21T11:03:06Z</time>
      </trkpt>
      <trkpt lat="45.15712" lon="0.372">
        <ele>125.9</ele>
        <time>2018-04-21T11:03:17Z</time>
      </trkpt>
      <trkpt lat="45.15779" lon="0.37217">
        <ele>124.7</ele>
        <time>2018-04-21T11:03:34Z</time>
      </trkpt>
      <trkpt lat="45.15942" lon="0.37256">
        <ele>127.8</ele>
        <time>2018-04-21T11:04:15Z</time>
      </trkpt>
      <trkpt lat="45.15956" lon="0.37262">
        <ele>127.5</ele>
        <time>2018-04-21T11:04:19Z</time>
      </trkpt>
      <trkpt lat="45.16056" lon="0.37334">
        <ele>125</ele>
        <time>2018-04-21T11:04:46Z</time>
      </trkpt>
      <trkpt lat="45.16172" lon="0.37396">
        <ele>131.9</ele>
        <time>2018-04-21T11:05:17Z</time>
      </trkpt>
      <trkpt lat="45.16212" lon="0.37415">
        <ele>131.3</ele>
        <time>2018-04-21T11:05:27Z</time>
      </trkpt>
      <trkpt lat="45.16254" lon="0.3743">
        <ele>131</ele>
        <time>2018-04-21T11:05:38Z</time>
      </trkpt>
      <trkpt lat="45.16434" lon="0.37511">
        <ele>135.8</ele>
        <time>2018-04-21T11:06:25Z</time>
      </trkpt>
      <trkpt lat="45.16471" lon="0.37556">
        <ele>137.5</ele>
        <time>2018-04-21T11:06:37Z</time>
      </trkpt>
      <trkpt lat="45.16494" lon="0.37584">
        <ele>138.5</ele>
        <time>2018-04-21T11:06:44Z</time>
      </trkpt>
      <trkpt lat="45.16594" lon="0.37641">
        <ele>143.7</ele>
        <time>2018-04-21T11:07:11Z</time>
      </trkpt>
      <trkpt lat="45.16594" lon="0.37641">
        <ele>143.7</ele>
        <time>2018-04-21T11:07:11Z</time>
      </trkpt>
      <trkpt lat="45.166" lon="0.37642">
        <ele>144.1</ele>
        <time>2018-04-21T11:07:13Z</time>
      </trkpt>
      <trkpt lat="45.16606" lon="0.37552">
        <ele>141</ele>
        <time>2018-04-21T11:07:29Z</time>
      </trkpt>
      <trkpt lat="45.16606" lon="0.37493">
        <ele>137.5</ele>
        <time>2018-04-21T11:07:39Z</time>
      </trkpt>
      <trkpt lat="45.16618" lon="0.37377">
        <ele>135.7</ele>
        <time>2018-04-21T11:08:00Z</time>
      </trkpt>
      <trkpt lat="45.16599" lon="0.37301">
        <ele>131.1</ele>
        <time>2018-04-21T11:08:17Z</time>
      </trkpt>
      <trkpt lat="45.16563" lon="0.37277">
        <ele>127.4</ele>
        <time>2018-04-21T11:08:27Z</time>
      </trkpt>
      <trkpt lat="45.16531" lon="0.37232">
        <ele>125.2</ele>
        <time>2018-04-21T11:08:39Z</time>
      </trkpt>
      <trkpt lat="45.16534" lon="0.3714">
        <ele>125</ele>
        <time>2018-04-21T11:08:55Z</time>
      </trkpt>
      <trkpt lat="45.16539" lon="0.37067">
        <ele>125</ele>
        <time>2018-04-21T11:09:08Z</time>
      </trkpt>
      <trkpt lat="45.16617" lon="0.36832">
        <ele>119.4</ele>
        <time>2018-04-21T11:09:53Z</time>
      </trkpt>
      <trkpt lat="45.16664" lon="0.36713">
        <ele>119</ele>
        <time>2018-04-21T11:10:17Z</time>
      </trkpt>
      <trkpt lat="45.16671" lon="0.36668">
        <ele>118</ele>
        <time>2018-04-21T11:10:25Z</time>
      </trkpt>
      <trkpt lat="45.16664" lon="0.36544">
        <ele>116.8</ele>
        <time>2018-04-21T11:10:47Z</time>
      </trkpt>
      <trkpt lat="45.16689" lon="0.36551">
        <ele>117.2</ele>
        <time>2018-04-21T11:10:53Z</time>
      </trkpt>
      <trkpt lat="45.16698" lon="0.36553">
        <ele>117.2</ele>
        <time>2018-04-21T11:10:55Z</time>
      </trkpt>
      <trkpt lat="45.16774" lon="0.36641">
        <ele>120.1</ele>
        <time>2018-04-21T11:11:19Z</time>
      </trkpt>
      <trkpt lat="45.16838" lon="0.36738">
        <ele>124.5</ele>
        <time>2018-04-21T11:11:43Z</time>
      </trkpt>
      <trkpt lat="45.16878" lon="0.3679">
        <ele>126.7</ele>
        <time>2018-04-21T11:11:56Z</time>
      </trkpt>
      <trkpt lat="45.16978" lon="0.36873">
        <ele>130.6</ele>
        <time>2018-04-21T11:12:25Z</time>
      </trkpt>
      <trkpt lat="45.17011" lon="0.36899">
        <ele>132.8</ele>
        <time>2018-04-21T11:12:34Z</time>
      </trkpt>
      <trkpt lat="45.17031" lon="0.36914">
        <ele>133.7</ele>
        <time>2018-04-21T11:12:40Z</time>
      </trkpt>
      <trkpt lat="45.17156" lon="0.36993">
        <ele>136.1</ele>
        <time>2018-04-21T11:13:15Z</time>
      </trkpt>
      <trkpt lat="45.17198" lon="0.36993">
        <ele>136.1</ele>
        <time>2018-04-21T11:13:25Z</time>
      </trkpt>
      <trkpt lat="45.17231" lon="0.36981">
        <ele>137</ele>
        <time>2018-04-21T11:13:33Z</time>
      </trkpt>
      <trkpt lat="45.173" lon="0.36968">
        <ele>140.2</ele>
        <time>2018-04-21T11:13:51Z</time>
      </trkpt>
      <trkpt lat="45.17382" lon="0.36989">
        <ele>143.9</ele>
        <time>2018-04-21T11:14:11Z</time>
      </trkpt>
      <trkpt lat="45.1746" lon="0.36988">
        <ele>147.5</ele>
        <time>2018-04-21T11:14:31Z</time>
      </trkpt>
      <trkpt lat="45.17586" lon="0.36936">
        <ele>151.5</ele>
        <time>2018-04-21T11:15:03Z</time>
      </trkpt>
      <trkpt lat="45.1762" lon="0.36913">
        <ele>152.3</ele>
        <time>2018-04-21T11:15:12Z</time>
      </trkpt>
      <trkpt lat="45.1765" lon="0.36902">
        <ele>153</ele>
        <time>2018-04-21T11:15:20Z</time>
      </trkpt>
      <trkpt lat="45.17691" lon="0.36911">
        <ele>155.3</ele>
        <time>2018-04-21T11:15:30Z</time>
      </trkpt>
      <trkpt lat="45.17732" lon="0.36926">
        <ele>156</ele>
        <time>2018-04-21T11:15:41Z</time>
      </trkpt>
      <trkpt lat="45.17768" lon="0.36945">
        <ele>156.1</ele>
        <time>2018-04-21T11:15:50Z</time>
      </trkpt>
      <trkpt lat="45.17814" lon="0.36978">
        <ele>157.3</ele>
        <time>2018-04-21T11:16:03Z</time>
      </trkpt>
      <trkpt lat="45.17889" lon="0.37015">
        <ele>159.2</ele>
        <time>2018-04-21T11:16:23Z</time>
      </trkpt>
      <trkpt lat="45.1793" lon="0.37021">
        <ele>162.4</ele>
        <time>2018-04-21T11:16:33Z</time>
      </trkpt>
      <trkpt lat="45.17969" lon="0.3702">
        <ele>162.5</ele>
        <time>2018-04-21T11:16:43Z</time>
      </trkpt>
      <trkpt lat="45.18102" lon="0.36899">
        <ele>162.1</ele>
        <time>2018-04-21T11:17:22Z</time>
      </trkpt>
      <trkpt lat="45.18186" lon="0.36829">
        <ele>158.8</ele>
        <time>2018-04-21T11:17:46Z</time>
      </trkpt>
      <trkpt lat="45.1823" lon="0.36711">
        <ele>152.1</ele>
        <time>2018-04-21T11:18:09Z</time>
      </trkpt>
      <trkpt lat="45.18235" lon="0.36705">
        <ele>152.1</ele>
        <time>2018-04-21T11:18:11Z</time>
      </trkpt>
      <trkpt lat="45.18313" lon="0.36664">
        <ele>150.7</ele>
        <time>2018-04-21T11:18:31Z</time>
      </trkpt>
      <trkpt lat="45.18387" lon="0.36586">
        <ele>147.2</ele>
        <time>2018-04-21T11:18:54Z</time>
      </trkpt>
      <trkpt lat="45.18503" lon="0.36621">
        <ele>145.3</ele>
        <time>2018-04-21T11:19:24Z</time>
      </trkpt>
      <trkpt lat="45.18581" lon="0.36548">
        <ele>148.9</ele>
        <time>2018-04-21T11:19:48Z</time>
      </trkpt>
      <trkpt lat="45.18591" lon="0.36549">
        <ele>153.9</ele>
        <time>2018-04-21T11:19:51Z</time>
      </trkpt>
      <trkpt lat="45.18687" lon="0.36599">
        <ele>157.4</ele>
        <time>2018-04-21T11:20:17Z</time>
      </trkpt>
      <trkpt lat="45.18687" lon="0.36599">
        <ele>157.4</ele>
        <time>2018-04-21T11:20:17Z</time>
      </trkpt>
      <trkpt lat="45.18709" lon="0.36602">
        <ele>159.3</ele>
        <time>2018-04-21T11:20:23Z</time>
      </trkpt>
      <trkpt lat="45.18925" lon="0.36559">
        <ele>161</ele>
        <time>2018-04-21T11:21:17Z</time>
      </trkpt>
      <trkpt lat="45.18992" lon="0.36571">
        <ele>164.8</ele>
        <time>2018-04-21T11:21:34Z</time>
      </trkpt>
      <trkpt lat="45.19017" lon="0.36581">
        <ele>165.6</ele>
        <time>2018-04-21T11:21:41Z</time>
      </trkpt>
      <trkpt lat="45.19129" lon="0.36652">
        <ele>168.2</ele>
        <time>2018-04-21T11:22:14Z</time>
      </trkpt>
      <trkpt lat="45.19178" lon="0.36661">
        <ele>171.7</ele>
        <time>2018-04-21T11:22:28Z</time>
      </trkpt>
      <trkpt lat="45.19243" lon="0.36611">
        <ele>171.9</ele>
        <time>2018-04-21T11:22:46Z</time>
      </trkpt>
      <trkpt lat="45.19275" lon="0.36588">
        <ele>171.7</ele>
        <time>2018-04-21T11:22:55Z</time>
      </trkpt>
      <trkpt lat="45.19341" lon="0.36698">
        <ele>172.3</ele>
        <time>2018-04-21T11:23:20Z</time>
      </trkpt>
      <trkpt lat="45.19377" lon="0.36675">
        <ele>171.6</ele>
        <time>2018-04-21T11:23:30Z</time>
      </trkpt>
      <trkpt lat="45.1949" lon="0.36605">
        <ele>167.8</ele>
        <time>2018-04-21T11:24:00Z</time>
      </trkpt>
      <trkpt lat="45.19502" lon="0.366">
        <ele>167.9</ele>
        <time>2018-04-21T11:24:03Z</time>
      </trkpt>
      <trkpt lat="45.19502" lon="0.366">
        <ele>167.9</ele>
        <time>2018-04-21T11:24:03Z</time>
      </trkpt>
      <trkpt lat="45.19505" lon="0.36599">
        <ele>168.1</ele>
        <time>2018-04-21T11:24:04Z</time>
      </trkpt>
      <trkpt lat="45.19598" lon="0.36617">
        <ele>169.3</ele>
        <time>2018-04-21T11:24:27Z</time>
      </trkpt>
      <trkpt lat="45.19615" lon="0.36612">
        <ele>170.3</ele>
        <time>2018-04-21T11:24:32Z</time>
      </trkpt>
      <trkpt lat="45.19634" lon="0.36578">
        <ele>171.5</ele>
        <time>2018-04-21T11:24:39Z</time>
      </trkpt>
      <trkpt lat="45.19629" lon="0.36443">
        <ele>175.8</ele>
        <time>2018-04-21T11:25:03Z</time>
      </trkpt>
      <trkpt lat="45.19631" lon="0.36393">
        <ele>176.7</ele>
        <time>2018-04-21T11:25:12Z</time>
      </trkpt>
      <trkpt lat="45.19674" lon="0.36193">
        <ele>176.1</ele>
        <time>2018-04-21T11:25:49Z</time>
      </trkpt>
      <trkpt lat="45.19681" lon="0.3613">
        <ele>176</ele>
        <time>2018-04-21T11:26:01Z</time>
      </trkpt>
      <trkpt lat="45.19724" lon="0.36069">
        <ele>174.2</ele>
        <time>2018-04-21T11:26:16Z</time>
      </trkpt>
      <trkpt lat="45.19727" lon="0.36066">
        <ele>172.4</ele>
        <time>2018-04-21T11:26:16Z</time>
      </trkpt>
      <trkpt lat="45.19717" lon="0.35946">
        <ele>160</ele>
        <time>2018-04-21T11:26:37Z</time>
      </trkpt>
      <trkpt lat="45.19717" lon="0.35858">
        <ele>159.2</ele>
        <time>2018-04-21T11:26:53Z</time>
      </trkpt>
      <trkpt lat="45.19718" lon="0.35841">
        <ele>159.7</ele>
        <time>2018-04-21T11:26:56Z</time>
      </trkpt>
      <trkpt lat="45.19721" lon="0.35825">
        <ele>151.7</ele>
        <time>2018-04-21T11:26:58Z</time>
      </trkpt>
      <trkpt lat="45.19728" lon="0.35808">
        <ele>158.9</ele>
        <time>2018-04-21T11:27:02Z</time>
      </trkpt>
      <trkpt lat="45.19727" lon="0.35807">
        <ele>150.1</ele>
        <time>2018-04-21T11:27:03Z</time>
      </trkpt>
      <trkpt lat="45.19728" lon="0.35803">
        <ele>148.4</ele>
        <time>2018-04-21T11:27:03Z</time>
      </trkpt>
      <trkpt lat="45.19713" lon="0.35782">
        <ele>147.6</ele>
        <time>2018-04-21T11:27:08Z</time>
      </trkpt>
      <trkpt lat="45.19709" lon="0.35776">
        <ele>145.5</ele>
        <time>2018-04-21T11:27:10Z</time>
      </trkpt>
      <trkpt lat="45.19709" lon="0.35749">
        <ele>144.5</ele>
        <time>2018-04-21T11:27:15Z</time>
      </trkpt>
      <trkpt lat="45.19718" lon="0.35718">
        <ele>139.7</ele>
        <time>2018-04-21T11:27:21Z</time>
      </trkpt>
      <trkpt lat="45.19712" lon="0.35714">
        <ele>139.7</ele>
        <time>2018-04-21T11:27:22Z</time>
      </trkpt>
      <trkpt lat="45.19757" lon="0.35704">
        <ele>136.1</ele>
        <time>2018-04-21T11:27:34Z</time>
      </trkpt>
      <trkpt lat="45.1976" lon="0.35692">
        <ele>135.8</ele>
        <time>2018-04-21T11:27:36Z</time>
      </trkpt>
      <trkpt lat="45.19792" lon="0.35699">
        <ele>139.6</ele>
        <time>2018-04-21T11:27:44Z</time>
      </trkpt>
      <trkpt lat="45.19807" lon="0.357">
        <ele>139.7</ele>
        <time>2018-04-21T11:27:48Z</time>
      </trkpt>
      <trkpt lat="45.19835" lon="0.35684">
        <ele>143.3</ele>
        <time>2018-04-21T11:27:55Z</time>
      </trkpt>
      <trkpt lat="45.19837" lon="0.35679">
        <ele>145.2</ele>
        <time>2018-04-21T11:27:56Z</time>
      </trkpt>
      <trkpt lat="45.19841" lon="0.35672">
        <ele>147.1</ele>
        <time>2018-04-21T11:27:58Z</time>
      </trkpt>
      <trkpt lat="45.19845" lon="0.35655">
        <ele>147.2</ele>
        <time>2018-04-21T11:28:01Z</time>
      </trkpt>
      <trkpt lat="45.19719" lon="0.35543">
        <ele>145.8</ele>
        <time>2018-04-21T11:28:41Z</time>
      </trkpt>
      <trkpt lat="45.19685" lon="0.35524">
        <ele>141.8</ele>
        <time>2018-04-21T11:28:50Z</time>
      </trkpt>
      <trkpt lat="45.19595" lon="0.35351">
        <ele>129.5</ele>
        <time>2018-04-21T11:29:27Z</time>
      </trkpt>
      <trkpt lat="45.19589" lon="0.35322">
        <ele>130.3</ele>
        <time>2018-04-21T11:29:33Z</time>
      </trkpt>
      <trkpt lat="45.1966" lon="0.35165">
        <ele>133.3</ele>
        <time>2018-04-21T11:30:06Z</time>
      </trkpt>
      <trkpt lat="45.19701" lon="0.35114">
        <ele>142.7</ele>
        <time>2018-04-21T11:30:20Z</time>
      </trkpt>
      <trkpt lat="45.19779" lon="0.35041">
        <ele>145.9</ele>
        <time>2018-04-21T11:30:43Z</time>
      </trkpt>
      <trkpt lat="45.19779" lon="0.34877">
        <ele>156.8</ele>
        <time>2018-04-21T11:31:12Z</time>
      </trkpt>
      <trkpt lat="45.19781" lon="0.34854">
        <ele>157.1</ele>
        <time>2018-04-21T11:31:16Z</time>
      </trkpt>
      <trkpt lat="45.19802" lon="0.34803">
        <ele>160.8</ele>
        <time>2018-04-21T11:31:26Z</time>
      </trkpt>
      <trkpt lat="45.19911" lon="0.34709">
        <ele>163.8</ele>
        <time>2018-04-21T11:31:57Z</time>
      </trkpt>
      <trkpt lat="45.19936" lon="0.34676">
        <ele>164</ele>
        <time>2018-04-21T11:32:06Z</time>
      </trkpt>
      <trkpt lat="45.19942" lon="0.34662">
        <ele>168.8</ele>
        <time>2018-04-21T11:32:09Z</time>
      </trkpt>
      <trkpt lat="45.19969" lon="0.34667">
        <ele>162.3</ele>
        <time>2018-04-21T11:32:15Z</time>
      </trkpt>
      <trkpt lat="45.20037" lon="0.34677">
        <ele>166.3</ele>
        <time>2018-04-21T11:32:32Z</time>
      </trkpt>
      <trkpt lat="45.20113" lon="0.34685">
        <ele>167.2</ele>
        <time>2018-04-21T11:32:51Z</time>
      </trkpt>
      <trkpt lat="45.20266" lon="0.34803">
        <ele>172</ele>
        <time>2018-04-21T11:33:37Z</time>
      </trkpt>
      <trkpt lat="45.20317" lon="0.3494">
        <ele>174.9</ele>
        <time>2018-04-21T11:34:04Z</time>
      </trkpt>
      <trkpt lat="45.20328" lon="0.34992">
        <ele>176.1</ele>
        <time>2018-04-21T11:34:13Z</time>
      </trkpt>
      <trkpt lat="45.20339" lon="0.35045">
        <ele>177.9</ele>
        <time>2018-04-21T11:34:23Z</time>
      </trkpt>
      <trkpt lat="45.2035" lon="0.35052">
        <ele>181.4</ele>
        <time>2018-04-21T11:34:26Z</time>
      </trkpt>
      <trkpt lat="45.20365" lon="0.35003">
        <ele>181.4</ele>
        <time>2018-04-21T11:34:35Z</time>
      </trkpt>
      <trkpt lat="45.20392" lon="0.34797">
        <ele>178.8</ele>
        <time>2018-04-21T11:35:14Z</time>
      </trkpt>
      <trkpt lat="45.20398" lon="0.34689">
        <ele>178.1</ele>
        <time>2018-04-21T11:35:35Z</time>
      </trkpt>
      <trkpt lat="45.20428" lon="0.34648">
        <ele>177.6</ele>
        <time>2018-04-21T11:36:02Z</time>
      </trkpt>
      <trkpt lat="45.20515" lon="0.34716">
        <ele>178</ele>
        <time>2018-04-21T11:36:30Z</time>
      </trkpt>
      <trkpt lat="45.20535" lon="0.34545">
        <ele>175.2</ele>
        <time>2018-04-21T11:37:04Z</time>
      </trkpt>
      <trkpt lat="45.20655" lon="0.34206">
        <ele>171.8</ele>
        <time>2018-04-21T11:38:19Z</time>
      </trkpt>
      <trkpt lat="45.20666" lon="0.34168">
        <ele>171.5</ele>
        <time>2018-04-21T11:38:27Z</time>
      </trkpt>
      <trkpt lat="45.20696" lon="0.34047">
        <ele>168.1</ele>
        <time>2018-04-21T11:38:52Z</time>
      </trkpt>
      <trkpt lat="45.20743" lon="0.33967">
        <ele>164.1</ele>
        <time>2018-04-21T11:39:13Z</time>
      </trkpt>
      <trkpt lat="45.20752" lon="0.33946">
        <ele>164</ele>
        <time>2018-04-21T11:39:18Z</time>
      </trkpt>
      <trkpt lat="45.20767" lon="0.33891">
        <ele>160.3</ele>
        <time>2018-04-21T11:39:29Z</time>
      </trkpt>
      <trkpt lat="45.20783" lon="0.33811">
        <ele>161.7</ele>
        <time>2018-04-21T11:39:48Z</time>
      </trkpt>
      <trkpt lat="45.20735" lon="0.33703">
        <ele>158.1</ele>
        <time>2018-04-21T11:40:16Z</time>
      </trkpt>
      <trkpt lat="45.2073" lon="0.33692">
        <ele>157.6</ele>
        <time>2018-04-21T11:40:19Z</time>
      </trkpt>
      <trkpt lat="45.20729" lon="0.33667">
        <ele>156.1</ele>
        <time>2018-04-21T11:40:25Z</time>
      </trkpt>
      <trkpt lat="45.20727" lon="0.33642">
        <ele>153</ele>
        <time>2018-04-21T11:40:30Z</time>
      </trkpt>
      <trkpt lat="45.20714" lon="0.33611">
        <ele>151.1</ele>
        <time>2018-04-21T11:40:39Z</time>
      </trkpt>
      <trkpt lat="45.207" lon="0.33579">
        <ele>150.6</ele>
        <time>2018-04-21T11:40:47Z</time>
      </trkpt>
      <trkpt lat="45.20703" lon="0.33516">
        <ele>143.5</ele>
        <time>2018-04-21T11:41:01Z</time>
      </trkpt>
      <trkpt lat="45.20705" lon="0.33453">
        <ele>137.2</ele>
        <time>2018-04-21T11:41:15Z</time>
      </trkpt>
      <trkpt lat="45.20691" lon="0.33402">
        <ele>131.3</ele>
        <time>2018-04-21T11:41:27Z</time>
      </trkpt>
      <trkpt lat="45.20676" lon="0.33352">
        <ele>125.5</ele>
        <time>2018-04-21T11:41:39Z</time>
      </trkpt>
      <trkpt lat="45.20613" lon="0.33262">
        <ele>117.6</ele>
        <time>2018-04-21T11:42:07Z</time>
      </trkpt>
      <trkpt lat="45.20579" lon="0.33214">
        <ele>126</ele>
        <time>2018-04-21T11:42:22Z</time>
      </trkpt>
      <trkpt lat="45.20561" lon="0.33227">
        <ele>128</ele>
        <time>2018-04-21T11:42:28Z</time>
      </trkpt>
      <trkpt lat="45.20519" lon="0.33245">
        <ele>131.2</ele>
        <time>2018-04-21T11:42:42Z</time>
      </trkpt>
      <trkpt lat="45.20464" lon="0.33258">
        <ele>136.3</ele>
        <time>2018-04-21T11:43:00Z</time>
      </trkpt>
      <trkpt lat="45.20433" lon="0.33265">
        <ele>137.4</ele>
        <time>2018-04-21T11:43:09Z</time>
      </trkpt>
      <trkpt lat="45.20414" lon="0.33258">
        <ele>138.4</ele>
        <time>2018-04-21T11:43:15Z</time>
      </trkpt>
      <trkpt lat="45.20359" lon="0.33235">
        <ele>142.5</ele>
        <time>2018-04-21T11:43:33Z</time>
      </trkpt>
      <trkpt lat="45.2032" lon="0.33245">
        <ele>142.8</ele>
        <time>2018-04-21T11:43:44Z</time>
      </trkpt>
      <trkpt lat="45.20263" lon="0.33253">
        <ele>145.3</ele>
        <time>2018-04-21T11:44:01Z</time>
      </trkpt>
      <trkpt lat="45.20243" lon="0.3327">
        <ele>143.8</ele>
        <time>2018-04-21T11:44:08Z</time>
      </trkpt>
      <trkpt lat="45.20197" lon="0.33304">
        <ele>140</ele>
        <time>2018-04-21T11:44:23Z</time>
      </trkpt>
      <trkpt lat="45.2017" lon="0.33322">
        <ele>142.4</ele>
        <time>2018-04-21T11:44:31Z</time>
      </trkpt>
      <trkpt lat="45.2016" lon="0.33351">
        <ele>145.1</ele>
        <time>2018-04-21T11:44:38Z</time>
      </trkpt>
      <trkpt lat="45.20168" lon="0.33392">
        <ele>148.1</ele>
        <time>2018-04-21T11:44:46Z</time>
      </trkpt>
      <trkpt lat="45.20176" lon="0.33433">
        <ele>149.7</ele>
        <time>2018-04-21T11:44:54Z</time>
      </trkpt>
      <trkpt lat="45.20166" lon="0.3345">
        <ele>150.5</ele>
        <time>2018-04-21T11:44:59Z</time>
      </trkpt>
      <trkpt lat="45.20153" lon="0.33458">
        <ele>151.8</ele>
        <time>2018-04-21T11:45:03Z</time>
      </trkpt>
      <trkpt lat="45.2014" lon="0.33466">
        <ele>145.4</ele>
        <time>2018-04-21T11:45:07Z</time>
      </trkpt>
      <trkpt lat="45.20105" lon="0.33487">
        <ele>146.7</ele>
        <time>2018-04-21T11:45:17Z</time>
      </trkpt>
      <trkpt lat="45.20066" lon="0.33482">
        <ele>152.4</ele>
        <time>2018-04-21T11:45:28Z</time>
      </trkpt>
      <trkpt lat="45.20044" lon="0.33484">
        <ele>152.6</ele>
        <time>2018-04-21T11:45:34Z</time>
      </trkpt>
      <trkpt lat="45.2002" lon="0.33421">
        <ele>152.9</ele>
        <time>2018-04-21T11:45:48Z</time>
      </trkpt>
      <trkpt lat="45.19952" lon="0.33342">
        <ele>156.4</ele>
        <time>2018-04-21T11:46:13Z</time>
      </trkpt>
      <trkpt lat="45.20001" lon="0.3315">
        <ele>155.5</ele>
        <time>2018-04-21T11:46:51Z</time>
      </trkpt>
      <trkpt lat="45.20155" lon="0.3255">
        <ele>151.7</ele>
        <time>2018-04-21T11:48:52Z</time>
      </trkpt>
      <trkpt lat="45.20155" lon="0.3255">
        <ele>151.7</ele>
        <time>2018-04-21T11:48:52Z</time>
      </trkpt>
      <trkpt lat="45.20155" lon="0.3255">
        <ele>151.7</ele>
        <time>2018-04-21T11:48:52Z</time>
      </trkpt>
      <trkpt lat="45.20062" lon="0.32455">
        <ele>152.6</ele>
        <time>2018-04-21T11:49:25Z</time>
      </trkpt>
      <trkpt lat="45.19992" lon="0.32178">
        <ele>152.7</ele>
        <time>2018-04-21T11:50:24Z</time>
      </trkpt>
      <trkpt lat="45.19927" lon="0.32029">
        <ele>149.5</ele>
        <time>2018-04-21T11:50:59Z</time>
      </trkpt>
      <trkpt lat="45.19927" lon="0.32029">
        <ele>149.5</ele>
        <time>2018-04-21T11:50:59Z</time>
      </trkpt>
      <trkpt lat="45.19897" lon="0.31958">
        <ele>145.2</ele>
        <time>2018-04-21T11:51:15Z</time>
      </trkpt>
      <trkpt lat="45.19891" lon="0.31912">
        <ele>144.9</ele>
        <time>2018-04-21T11:51:24Z</time>
      </trkpt>
      <trkpt lat="45.19873" lon="0.31865">
        <ele>144.7</ele>
        <time>2018-04-21T11:51:34Z</time>
      </trkpt>
      <trkpt lat="45.19768" lon="0.31687">
        <ele>143.5</ele>
        <time>2018-04-21T11:52:22Z</time>
      </trkpt>
      <trkpt lat="45.19749" lon="0.31581">
        <ele>139</ele>
        <time>2018-04-21T11:52:43Z</time>
      </trkpt>
      <trkpt lat="45.19745" lon="0.31408">
        <ele>122.2</ele>
        <time>2018-04-21T11:53:16Z</time>
      </trkpt>
      <trkpt lat="45.19702" lon="0.31439">
        <ele>123</ele>
        <time>2018-04-21T11:53:30Z</time>
      </trkpt>
      <trkpt lat="45.19565" lon="0.3165">
        <ele>122.2</ele>
        <time>2018-04-21T11:54:29Z</time>
      </trkpt>
      <trkpt lat="45.19444" lon="0.31677">
        <ele>125.4</ele>
        <time>2018-04-21T11:55:07Z</time>
      </trkpt>
      <trkpt lat="45.19444" lon="0.31677">
        <ele>125.4</ele>
        <time>2018-04-21T11:55:07Z</time>
      </trkpt>
      <trkpt lat="45.19421" lon="0.31571">
        <ele>127.1</ele>
        <time>2018-04-21T11:55:20Z</time>
      </trkpt>
      <trkpt lat="45.19415" lon="0.3156">
        <ele>127.4</ele>
        <time>2018-04-21T11:55:22Z</time>
      </trkpt>
      <trkpt lat="45.1927" lon="0.31541">
        <ele>133.5</ele>
        <time>2018-04-21T11:55:45Z</time>
      </trkpt>
      <trkpt lat="45.19254" lon="0.31542">
        <ele>133.4</ele>
        <time>2018-04-21T11:55:48Z</time>
      </trkpt>
      <trkpt lat="45.18993" lon="0.316">
        <ele>130.5</ele>
        <time>2018-04-21T11:56:30Z</time>
      </trkpt>
      <trkpt lat="45.18896" lon="0.31455">
        <ele>130.7</ele>
        <time>2018-04-21T11:56:58Z</time>
      </trkpt>
      <trkpt lat="45.18871" lon="0.31399">
        <ele>128.9</ele>
        <time>2018-04-21T11:57:06Z</time>
      </trkpt>
      <trkpt lat="45.18813" lon="0.31262">
        <ele>124</ele>
        <time>2018-04-21T11:57:24Z</time>
      </trkpt>
      <trkpt lat="45.1876" lon="0.31154">
        <ele>120.3</ele>
        <time>2018-04-21T11:57:39Z</time>
      </trkpt>
      <trkpt lat="45.18826" lon="0.31074">
        <ele>120.3</ele>
        <time>2018-04-21T11:57:52Z</time>
      </trkpt>
      <trkpt lat="45.18967" lon="0.3088">
        <ele>117.1</ele>
        <time>2018-04-21T11:58:24Z</time>
      </trkpt>
      <trkpt lat="45.18978" lon="0.30874">
        <ele>117.2</ele>
        <time>2018-04-21T11:58:26Z</time>
      </trkpt>
      <trkpt lat="45.19047" lon="0.30821">
        <ele>117.6</ele>
        <time>2018-04-21T11:58:40Z</time>
      </trkpt>
      <trkpt lat="45.19177" lon="0.3066">
        <ele>109.5</ele>
        <time>2018-04-21T11:59:07Z</time>
      </trkpt>
      <trkpt lat="45.19168" lon="0.30579">
        <ele>106.4</ele>
        <time>2018-04-21T11:59:17Z</time>
      </trkpt>
      <trkpt lat="45.1921" lon="0.30522">
        <ele>105.4</ele>
        <time>2018-04-21T11:59:37Z</time>
      </trkpt>
      <trkpt lat="45.19338" lon="0.30593">
        <ele>103.8</ele>
        <time>2018-04-21T12:00:44Z</time>
      </trkpt>
      <trkpt lat="45.1937" lon="0.306">
        <ele>111</ele>
        <time>2018-04-21T12:01:01Z</time>
      </trkpt>
      <trkpt lat="45.19386" lon="0.30575">
        <ele>111.8</ele>
        <time>2018-04-21T12:01:12Z</time>
      </trkpt>
      <trkpt lat="45.19392" lon="0.30517">
        <ele>114.2</ele>
        <time>2018-04-21T12:01:30Z</time>
      </trkpt>
      <trkpt lat="45.19445" lon="0.30359">
        <ele>115.6</ele>
        <time>2018-04-21T12:02:22Z</time>
      </trkpt>
      <trkpt lat="45.19479" lon="0.30301">
        <ele>119.4</ele>
        <time>2018-04-21T12:02:45Z</time>
      </trkpt>
      <trkpt lat="45.19474" lon="0.30282">
        <ele>119.5</ele>
        <time>2018-04-21T12:02:51Z</time>
      </trkpt>
      <trkpt lat="45.19474" lon="0.30193">
        <ele>120.1</ele>
        <time>2018-04-21T12:03:23Z</time>
      </trkpt>
      <trkpt lat="45.19404" lon="0.30149">
        <ele>119.6</ele>
        <time>2018-04-21T12:03:59Z</time>
      </trkpt>
      <trkpt lat="45.19361" lon="0.30079">
        <ele>120.2</ele>
        <time>2018-04-21T12:04:26Z</time>
      </trkpt>
      <trkpt lat="45.19336" lon="0.2991">
        <ele>121.5</ele>
        <time>2018-04-21T12:05:07Z</time>
      </trkpt>
      <trkpt lat="45.19383" lon="0.2982">
        <ele>123</ele>
        <time>2018-04-21T12:05:54Z</time>
      </trkpt>
      <trkpt lat="45.19387" lon="0.29806">
        <ele>123.9</ele>
        <time>2018-04-21T12:06:02Z</time>
      </trkpt>
      <trkpt lat="45.19331" lon="0.29788">
        <ele>121</ele>
        <time>2018-04-21T12:06:48Z</time>
      </trkpt>
      <trkpt lat="45.19267" lon="0.29876">
        <ele>116.6</ele>
        <time>2018-04-21T12:07:31Z</time>
      </trkpt>
      <trkpt lat="45.19179" lon="0.30011">
        <ele>109.3</ele>
        <time>2018-04-21T12:08:34Z</time>
      </trkpt>
      <trkpt lat="45.19166" lon="0.30021">
        <ele>108.2</ele>
        <time>2018-04-21T12:08:41Z</time>
      </trkpt>
      <trkpt lat="45.19158" lon="0.30027">
        <ele>107.2</ele>
        <time>2018-04-21T12:08:44Z</time>
      </trkpt>
      <trkpt lat="45.19054" lon="0.30017">
        <ele>102.7</ele>
        <time>2018-04-21T12:09:26Z</time>
      </trkpt>
      <trkpt lat="45.18958" lon="0.30017">
        <ele>99.1</ele>
        <time>2018-04-21T12:10:04Z</time>
      </trkpt>
      <trkpt lat="45.18909" lon="0.2999">
        <ele>95</ele>
        <time>2018-04-21T12:10:25Z</time>
      </trkpt>
      <trkpt lat="45.18814" lon="0.29981">
        <ele>91.5</ele>
        <time>2018-04-21T12:11:03Z</time>
      </trkpt>
      <trkpt lat="45.18817" lon="0.29976">
        <ele>92.9</ele>
        <time>2018-04-21T12:11:05Z</time>
      </trkpt>
      <trkpt lat="45.18729" lon="0.29859">
        <ele>95.5</ele>
        <time>2018-04-21T12:11:39Z</time>
      </trkpt>
      <trkpt lat="45.18676" lon="0.29755">
        <ele>99.5</ele>
        <time>2018-04-21T12:12:02Z</time>
      </trkpt>
      <trkpt lat="45.18621" lon="0.29611">
        <ele>103.3</ele>
        <time>2018-04-21T12:12:29Z</time>
      </trkpt>
      <trkpt lat="45.18603" lon="0.29596">
        <ele>103.2</ele>
        <time>2018-04-21T12:12:35Z</time>
      </trkpt>
      <trkpt lat="45.18629" lon="0.29479">
        <ele>104.8</ele>
        <time>2018-04-21T12:13:05Z</time>
      </trkpt>
      <trkpt lat="45.18649" lon="0.29402">
        <ele>109.7</ele>
        <time>2018-04-21T12:13:21Z</time>
      </trkpt>
      <trkpt lat="45.18669" lon="0.29268">
        <ele>113.8</ele>
        <time>2018-04-21T12:13:49Z</time>
      </trkpt>
      <trkpt lat="45.18672" lon="0.29238">
        <ele>113.8</ele>
        <time>2018-04-21T12:13:55Z</time>
      </trkpt>
      <trkpt lat="45.18671" lon="0.29204">
        <ele>116.3</ele>
        <time>2018-04-21T12:14:02Z</time>
      </trkpt>
      <trkpt lat="45.18699" lon="0.29198">
        <ele>120.7</ele>
        <time>2018-04-21T12:14:10Z</time>
      </trkpt>
      <trkpt lat="45.18699" lon="0.29198">
        <ele>120.7</ele>
        <time>2018-04-21T12:14:10Z</time>
      </trkpt>
      <trkpt lat="45.18786" lon="0.29178">
        <ele>125.1</ele>
        <time>2018-04-21T12:14:45Z</time>
      </trkpt>
      <trkpt lat="45.18857" lon="0.29147">
        <ele>126.9</ele>
        <time>2018-04-21T12:15:15Z</time>
      </trkpt>
      <trkpt lat="45.18999" lon="0.29104">
        <ele>129.6</ele>
        <time>2018-04-21T12:16:14Z</time>
      </trkpt>
      <trkpt lat="45.18999" lon="0.29104">
        <ele>129.6</ele>
        <time>2018-04-21T12:16:14Z</time>
      </trkpt>
      <trkpt lat="45.19053" lon="0.29008">
        <ele>128.3</ele>
        <time>2018-04-21T12:16:33Z</time>
      </trkpt>
      <trkpt lat="45.19095" lon="0.28899">
        <ele>127.3</ele>
        <time>2018-04-21T12:16:51Z</time>
      </trkpt>
      <trkpt lat="45.19195" lon="0.28769">
        <ele>123.7</ele>
        <time>2018-04-21T12:17:28Z</time>
      </trkpt>
      <trkpt lat="45.1926" lon="0.28703">
        <ele>122.6</ele>
        <time>2018-04-21T12:17:50Z</time>
      </trkpt>
      <trkpt lat="45.19304" lon="0.28627">
        <ele>123.6</ele>
        <time>2018-04-21T12:18:09Z</time>
      </trkpt>
      <trkpt lat="45.19308" lon="0.28611">
        <ele>123.7</ele>
        <time>2018-04-21T12:18:12Z</time>
      </trkpt>
      <trkpt lat="45.19329" lon="0.28469">
        <ele>123.9</ele>
        <time>2018-04-21T12:18:38Z</time>
      </trkpt>
      <trkpt lat="45.19362" lon="0.28362">
        <ele>122.3</ele>
        <time>2018-04-21T12:18:58Z</time>
      </trkpt>
      <trkpt lat="45.19495" lon="0.27919">
        <ele>108.9</ele>
        <time>2018-04-21T12:20:17Z</time>
      </trkpt>
      <trkpt lat="45.19602" lon="0.27503">
        <ele>93.2</ele>
        <time>2018-04-21T12:21:31Z</time>
      </trkpt>
      <trkpt lat="45.19602" lon="0.27503">
        <ele>93.2</ele>
        <time>2018-04-21T12:21:31Z</time>
      </trkpt>
      <trkpt lat="45.19609" lon="0.27478">
        <ele>91.7</ele>
        <time>2018-04-21T12:21:35Z</time>
      </trkpt>
      <trkpt lat="45.1966" lon="0.27358">
        <ele>82.8</ele>
        <time>2018-04-21T12:21:56Z</time>
      </trkpt>
      <trkpt lat="45.19728" lon="0.27222">
        <ele>78.2</ele>
        <time>2018-04-21T12:22:21Z</time>
      </trkpt>
      <trkpt lat="45.19722" lon="0.27218">
        <ele>78.3</ele>
        <time>2018-04-21T12:22:23Z</time>
      </trkpt>
      <trkpt lat="45.19722" lon="0.27218">
        <ele>78.3</ele>
        <time>2018-04-21T12:22:23Z</time>
      </trkpt>
      <trkpt lat="45.19711" lon="0.27209">
        <ele>78.4</ele>
        <time>2018-04-21T12:22:25Z</time>
      </trkpt>
      <trkpt lat="45.19661" lon="0.27185">
        <ele>78.4</ele>
        <time>2018-04-21T12:22:37Z</time>
      </trkpt>
      <trkpt lat="45.19566" lon="0.27152">
        <ele>78.2</ele>
        <time>2018-04-21T12:22:58Z</time>
      </trkpt>
      <trkpt lat="45.19601" lon="0.27045">
        <ele>83.9</ele>
        <time>2018-04-21T12:23:17Z</time>
      </trkpt>
      <trkpt lat="45.19601" lon="0.27045">
        <ele>81</ele>
        <time>2018-04-21T12:23:17Z</time>
      </trkpt>
      <trkpt lat="45.19616" lon="0.27018">
        <ele>86.2</ele>
        <time>2018-04-21T12:23:24Z</time>
      </trkpt>
      <trkpt lat="45.19651" lon="0.26979">
        <ele>92</ele>
        <time>2018-04-21T12:23:37Z</time>
      </trkpt>
      <trkpt lat="45.19754" lon="0.26871">
        <ele>102.7</ele>
        <time>2018-04-21T12:24:15Z</time>
      </trkpt>
      <trkpt lat="45.19825" lon="0.26812">
        <ele>106.9</ele>
        <time>2018-04-21T12:24:40Z</time>
      </trkpt>
      <trkpt lat="45.19938" lon="0.2673">
        <ele>112.4</ele>
        <time>2018-04-21T12:25:18Z</time>
      </trkpt>
      <trkpt lat="45.19965" lon="0.26703">
        <ele>113.2</ele>
        <time>2018-04-21T12:25:27Z</time>
      </trkpt>
      <trkpt lat="45.20042" lon="0.26562">
        <ele>110.1</ele>
        <time>2018-04-21T12:26:05Z</time>
      </trkpt>
      <trkpt lat="45.20103" lon="0.2646">
        <ele>107.7</ele>
        <time>2018-04-21T12:26:33Z</time>
      </trkpt>
      <trkpt lat="45.20113" lon="0.26432">
        <ele>101.4</ele>
        <time>2018-04-21T12:26:42Z</time>
      </trkpt>
      <trkpt lat="45.20037" lon="0.26341">
        <ele>99.2</ele>
        <time>2018-04-21T12:27:14Z</time>
      </trkpt>
      <trkpt lat="45.19936" lon="0.26199">
        <ele>100</ele>
        <time>2018-04-21T12:27:56Z</time>
      </trkpt>
      <trkpt lat="45.1992" lon="0.26193">
        <ele>103.5</ele>
        <time>2018-04-21T12:28:01Z</time>
      </trkpt>
      <trkpt lat="45.19905" lon="0.26149">
        <ele>104.3</ele>
        <time>2018-04-21T12:28:11Z</time>
      </trkpt>
      <trkpt lat="45.1976" lon="0.25852">
        <ele>100.1</ele>
        <time>2018-04-21T12:29:25Z</time>
      </trkpt>
      <trkpt lat="45.19713" lon="0.25704">
        <ele>96.9</ele>
        <time>2018-04-21T12:29:57Z</time>
      </trkpt>
      <trkpt lat="45.1969" lon="0.25597">
        <ele>90.5</ele>
        <time>2018-04-21T12:30:20Z</time>
      </trkpt>
      <trkpt lat="45.19681" lon="0.25446">
        <ele>84.4</ele>
        <time>2018-04-21T12:30:50Z</time>
      </trkpt>
      <trkpt lat="45.1968" lon="0.25404">
        <ele>79.6</ele>
        <time>2018-04-21T12:30:59Z</time>
      </trkpt>
      <trkpt lat="45.19687" lon="0.25216">
        <ele>69.2</ele>
        <time>2018-04-21T12:31:37Z</time>
      </trkpt>
      <trkpt lat="45.197" lon="0.25163">
        <ele>64</ele>
        <time>2018-04-21T12:31:48Z</time>
      </trkpt>
      <trkpt lat="45.19777" lon="0.25197">
        <ele>64.9</ele>
        <time>2018-04-21T12:32:11Z</time>
      </trkpt>
      <trkpt lat="45.19883" lon="0.25195">
        <ele>64.8</ele>
        <time>2018-04-21T12:32:42Z</time>
      </trkpt>
      <trkpt lat="45.20139" lon="0.25189">
        <ele>67.2</ele>
        <time>2018-04-21T12:33:55Z</time>
      </trkpt>
      <trkpt lat="45.20366" lon="0.25282">
        <ele>65.5</ele>
        <time>2018-04-21T12:35:19Z</time>
      </trkpt>
      <trkpt lat="45.20442" lon="0.25337">
        <ele>65</ele>
        <time>2018-04-21T12:35:50Z</time>
      </trkpt>
      <trkpt lat="45.20448" lon="0.25221">
        <ele>68.1</ele>
        <time>2018-04-21T12:36:19Z</time>
      </trkpt>
      <trkpt lat="45.20448" lon="0.25221">
        <ele>68.1</ele>
        <time>2018-04-21T12:36:19Z</time>
      </trkpt>
      <trkpt lat="45.20641" lon="0.25118">
        <ele>77.3</ele>
        <time>2018-04-21T12:37:11Z</time>
      </trkpt>
      <trkpt lat="45.20666" lon="0.25105">
        <ele>78</ele>
        <time>2018-04-21T12:37:18Z</time>
      </trkpt>
      <trkpt lat="45.20699" lon="0.25049">
        <ele>77.1</ele>
        <time>2018-04-21T12:37:34Z</time>
      </trkpt>
      <trkpt lat="45.20734" lon="0.25011">
        <ele>75.5</ele>
        <time>2018-04-21T12:37:46Z</time>
      </trkpt>
      <trkpt lat="45.2099" lon="0.25027">
        <ele>82.8</ele>
        <time>2018-04-21T12:38:33Z</time>
      </trkpt>
      <trkpt lat="45.21006" lon="0.25031">
        <ele>83</ele>
        <time>2018-04-21T12:38:35Z</time>
      </trkpt>
      <trkpt lat="45.21241" lon="0.25131">
        <ele>79.4</ele>
        <time>2018-04-21T12:39:20Z</time>
      </trkpt>
      <trkpt lat="45.21241" lon="0.25131">
        <ele>79.4</ele>
        <time>2018-04-21T12:39:20Z</time>
      </trkpt>
      <trkpt lat="45.21469" lon="0.25301">
        <ele>83.6</ele>
        <time>2018-04-21T12:40:02Z</time>
      </trkpt>
      <trkpt lat="45.21442" lon="0.2538">
        <ele>79.3</ele>
        <time>2018-04-21T12:40:12Z</time>
      </trkpt>
      <trkpt lat="45.21472" lon="0.25388">
        <ele>78.7</ele>
        <time>2018-04-21T12:40:17Z</time>
      </trkpt>
      <trkpt lat="45.21488" lon="0.2539">
        <ele>78.7</ele>
        <time>2018-04-21T12:40:20Z</time>
      </trkpt>
      <trkpt lat="45.21735" lon="0.25384">
        <ele>78.5</ele>
        <time>2018-04-21T12:41:01Z</time>
      </trkpt>
      <trkpt lat="45.21895" lon="0.25349">
        <ele>80.7</ele>
        <time>2018-04-21T12:41:28Z</time>
      </trkpt>
      <trkpt lat="45.21909" lon="0.2534">
        <ele>80.6</ele>
        <time>2018-04-21T12:41:30Z</time>
      </trkpt>
      <trkpt lat="45.21912" lon="0.25334">
        <ele>81.6</ele>
        <time>2018-04-21T12:41:31Z</time>
      </trkpt>
      <trkpt lat="45.21998" lon="0.25189">
        <ele>82.6</ele>
        <time>2018-04-21T12:41:57Z</time>
      </trkpt>
      <trkpt lat="45.22133" lon="0.25072">
        <ele>88.9</ele>
        <time>2018-04-21T12:42:27Z</time>
      </trkpt>
      <trkpt lat="45.22167" lon="0.25041">
        <ele>89</ele>
        <time>2018-04-21T12:42:35Z</time>
      </trkpt>
      <trkpt lat="45.22243" lon="0.24798">
        <ele>93.5</ele>
        <time>2018-04-21T12:43:10Z</time>
      </trkpt>
      <trkpt lat="45.22266" lon="0.24712">
        <ele>93.5</ele>
        <time>2018-04-21T12:43:23Z</time>
      </trkpt>
      <trkpt lat="45.22317" lon="0.24492">
        <ele>101.5</ele>
        <time>2018-04-21T12:43:54Z</time>
      </trkpt>
      <trkpt lat="45.22323" lon="0.24479">
        <ele>101.4</ele>
        <time>2018-04-21T12:43:56Z</time>
      </trkpt>
      <trkpt lat="45.22345" lon="0.24477">
        <ele>101.6</ele>
        <time>2018-04-21T12:44:00Z</time>
      </trkpt>
      <trkpt lat="45.22467" lon="0.24506">
        <ele>102.5</ele>
        <time>2018-04-21T12:44:23Z</time>
      </trkpt>
      <trkpt lat="45.22599" lon="0.24609">
        <ele>97</ele>
        <time>2018-04-21T12:44:51Z</time>
      </trkpt>
      <trkpt lat="45.22692" lon="0.24678">
        <ele>96.9</ele>
        <time>2018-04-21T12:45:10Z</time>
      </trkpt>
      <trkpt lat="45.22855" lon="0.24786">
        <ele>97.1</ele>
        <time>2018-04-21T12:45:43Z</time>
      </trkpt>
      <trkpt lat="45.22864" lon="0.24689">
        <ele>97.9</ele>
        <time>2018-04-21T12:46:02Z</time>
      </trkpt>
      <trkpt lat="45.22907" lon="0.2416">
        <ele>124.9</ele>
        <time>2018-04-21T12:47:44Z</time>
      </trkpt>
      <trkpt lat="45.22914" lon="0.24033">
        <ele>126.4</ele>
        <time>2018-04-21T12:48:09Z</time>
      </trkpt>
      <trkpt lat="45.22913" lon="0.24003">
        <ele>126.4</ele>
        <time>2018-04-21T12:48:14Z</time>
      </trkpt>
      <trkpt lat="45.22911" lon="0.23988">
        <ele>126.1</ele>
        <time>2018-04-21T12:48:17Z</time>
      </trkpt>
      <trkpt lat="45.22908" lon="0.23972">
        <ele>125.8</ele>
        <time>2018-04-21T12:48:22Z</time>
      </trkpt>
      <trkpt lat="45.22979" lon="0.23878">
        <ele>116.8</ele>
        <time>2018-04-21T12:49:00Z</time>
      </trkpt>
      <trkpt lat="45.23038" lon="0.23836">
        <ele>113.4</ele>
        <time>2018-04-21T12:49:26Z</time>
      </trkpt>
      <trkpt lat="45.23067" lon="0.23827">
        <ele>108.3</ele>
        <time>2018-04-21T12:49:37Z</time>
      </trkpt>
      <trkpt lat="45.23069" lon="0.23809">
        <ele>106.9</ele>
        <time>2018-04-21T12:49:42Z</time>
      </trkpt>
      <trkpt lat="45.23074" lon="0.23736">
        <ele>103</ele>
        <time>2018-04-21T12:49:58Z</time>
      </trkpt>
      <trkpt lat="45.23078" lon="0.23726">
        <ele>103.1</ele>
        <time>2018-04-21T12:50:01Z</time>
      </trkpt>
      <trkpt lat="45.23146" lon="0.23665">
        <ele>102.3</ele>
        <time>2018-04-21T12:50:26Z</time>
      </trkpt>
      <trkpt lat="45.2315" lon="0.23669">
        <ele>102.2</ele>
        <time>2018-04-21T12:50:27Z</time>
      </trkpt>
      <trkpt lat="45.23171" lon="0.23792">
        <ele>101.4</ele>
        <time>2018-04-21T12:50:39Z</time>
      </trkpt>
      <trkpt lat="45.23192" lon="0.23881">
        <ele>94</ele>
        <time>2018-04-21T12:50:49Z</time>
      </trkpt>
      <trkpt lat="45.23604" lon="0.23819">
        <ele>88.8</ele>
        <time>2018-04-21T12:51:45Z</time>
      </trkpt>
      <trkpt lat="45.23976" lon="0.23805">
        <ele>84.3</ele>
        <time>2018-04-21T12:52:36Z</time>
      </trkpt>
      <trkpt lat="45.24008" lon="0.23802">
        <ele>84.8</ele>
        <time>2018-04-21T12:52:40Z</time>
      </trkpt>
      <trkpt lat="45.24103" lon="0.23728">
        <ele>85</ele>
        <time>2018-04-21T12:53:08Z</time>
      </trkpt>
      <trkpt lat="45.24152" lon="0.23571">
        <ele>85.7</ele>
        <time>2018-04-21T12:53:41Z</time>
      </trkpt>
      <trkpt lat="45.24252" lon="0.2355">
        <ele>88.4</ele>
        <time>2018-04-21T12:54:17Z</time>
      </trkpt>
      <trkpt lat="45.24291" lon="0.23472">
        <ele>88.1</ele>
        <time>2018-04-21T12:54:35Z</time>
      </trkpt>
      <trkpt lat="45.24326" lon="0.23392">
        <ele>86.8</ele>
        <time>2018-04-21T12:54:54Z</time>
      </trkpt>
      <trkpt lat="45.24377" lon="0.23264">
        <ele>83.7</ele>
        <time>2018-04-21T12:55:22Z</time>
      </trkpt>
      <trkpt lat="45.24377" lon="0.23264">
        <ele>83.7</ele>
        <time>2018-04-21T12:55:22Z</time>
      </trkpt>
      <trkpt lat="45.24517" lon="0.23119">
        <ele>90.7</ele>
        <time>2018-04-21T12:56:07Z</time>
      </trkpt>
      <trkpt lat="45.2453" lon="0.23095">
        <ele>90.5</ele>
        <time>2018-04-21T12:56:12Z</time>
      </trkpt>
      <trkpt lat="45.24982" lon="0.23306">
        <ele>96.3</ele>
        <time>2018-04-21T12:58:13Z</time>
      </trkpt>
      <trkpt lat="45.24982" lon="0.23306">
        <ele>96.3</ele>
        <time>2018-04-21T12:58:13Z</time>
      </trkpt>
      <trkpt lat="45.25176" lon="0.23416">
        <ele>101.7</ele>
        <time>2018-04-21T12:59:03Z</time>
      </trkpt>
      <trkpt lat="45.25185" lon="0.23389">
        <ele>101.4</ele>
        <time>2018-04-21T12:59:08Z</time>
      </trkpt>
      <trkpt lat="45.25243" lon="0.23075">
        <ele>99</ele>
        <time>2018-04-21T13:00:02Z</time>
      </trkpt>
      <trkpt lat="45.25244" lon="0.23061">
        <ele>98.9</ele>
        <time>2018-04-21T13:00:05Z</time>
      </trkpt>
      <trkpt lat="45.2536" lon="0.22993">
        <ele>97.8</ele>
        <time>2018-04-21T13:00:50Z</time>
      </trkpt>
      <trkpt lat="45.25552" lon="0.23065">
        <ele>94.6</ele>
        <time>2018-04-21T13:01:38Z</time>
      </trkpt>
      <trkpt lat="45.25559" lon="0.23073">
        <ele>94.4</ele>
        <time>2018-04-21T13:01:40Z</time>
      </trkpt>
      <trkpt lat="45.25559" lon="0.23052">
        <ele>96.2</ele>
        <time>2018-04-21T13:01:43Z</time>
      </trkpt>
      <trkpt lat="45.25576" lon="0.23007">
        <ele>96.7</ele>
        <time>2018-04-21T13:01:52Z</time>
      </trkpt>
      <trkpt lat="45.25624" lon="0.22861">
        <ele>98.9</ele>
        <time>2018-04-21T13:02:19Z</time>
      </trkpt>
      <trkpt lat="45.25611" lon="0.22618">
        <ele>97.2</ele>
        <time>2018-04-21T13:03:00Z</time>
      </trkpt>
      <trkpt lat="45.25647" lon="0.22406">
        <ele>86.4</ele>
        <time>2018-04-21T13:03:37Z</time>
      </trkpt>
      <trkpt lat="45.25755" lon="0.2174">
        <ele>76.9</ele>
        <time>2018-04-21T13:05:31Z</time>
      </trkpt>
      <trkpt lat="45.25773" lon="0.21679">
        <ele>80.1</ele>
        <time>2018-04-21T13:05:42Z</time>
      </trkpt>
      <trkpt lat="45.25739" lon="0.21548">
        <ele>83.6</ele>
        <time>2018-04-21T13:06:06Z</time>
      </trkpt>
      <trkpt lat="45.25739" lon="0.21548">
        <ele>83.6</ele>
        <time>2018-04-21T13:06:06Z</time>
      </trkpt>
      <trkpt lat="45.25759" lon="0.21529">
        <ele>82.5</ele>
        <time>2018-04-21T13:06:11Z</time>
      </trkpt>
      <trkpt lat="45.25881" lon="0.21406">
        <ele>79.7</ele>
        <time>2018-04-21T13:07:13Z</time>
      </trkpt>
      <trkpt lat="45.25998" lon="0.21324">
        <ele>73.5</ele>
        <time>2018-04-21T13:08:06Z</time>
      </trkpt>
      <trkpt lat="45.26076" lon="0.21285">
        <ele>70.5</ele>
        <time>2018-04-21T13:08:41Z</time>
      </trkpt>
      <trkpt lat="45.26106" lon="0.21215">
        <ele>68.8</ele>
        <time>2018-04-21T13:09:04Z</time>
      </trkpt>
      <trkpt lat="45.26088" lon="0.21133">
        <ele>64.9</ele>
        <time>2018-04-21T13:09:29Z</time>
      </trkpt>
      <trkpt lat="45.26102" lon="0.21043">
        <ele>60</ele>
        <time>2018-04-21T13:09:55Z</time>
      </trkpt>
      <trkpt lat="45.26126" lon="0.20991">
        <ele>57.3</ele>
        <time>2018-04-21T13:10:13Z</time>
      </trkpt>
      <trkpt lat="45.2615" lon="0.20944">
        <ele>54.2</ele>
        <time>2018-04-21T13:10:30Z</time>
      </trkpt>
      <trkpt lat="45.26148" lon="0.20862">
        <ele>47.2</ele>
        <time>2018-04-21T13:10:54Z</time>
      </trkpt>
      <trkpt lat="45.26148" lon="0.20862">
        <ele>47.2</ele>
        <time>2018-04-21T13:10:54Z</time>
      </trkpt>
      <trkpt lat="45.2616" lon="0.20798">
        <ele>45.5</ele>
        <time>2018-04-21T13:11:17Z</time>
      </trkpt>
      <trkpt lat="45.26228" lon="0.20711">
        <ele>45.3</ele>
        <time>2018-04-21T13:11:51Z</time>
      </trkpt>
      <trkpt lat="45.26228" lon="0.20711">
        <ele>45.3</ele>
        <time>2018-04-21T13:11:51Z</time>
      </trkpt>
      <trkpt lat="45.26299" lon="0.20586">
        <ele>44.6</ele>
        <time>2018-04-21T13:12:31Z</time>
      </trkpt>
      <trkpt lat="45.26303" lon="0.20582">
        <ele>44.6</ele>
        <time>2018-04-21T13:12:33Z</time>
      </trkpt>
      <trkpt lat="45.26458" lon="0.20756">
        <ele>44.7</ele>
        <time>2018-04-21T13:13:45Z</time>
      </trkpt>
      <trkpt lat="45.26827" lon="0.2117">
        <ele>45.8</ele>
        <time>2018-04-21T13:16:25Z</time>
      </trkpt>
      <trkpt lat="45.26951" lon="0.21452">
        <ele>44.7</ele>
        <time>2018-04-21T13:18:16Z</time>
      </trkpt>
      <trkpt lat="45.27418" lon="0.21858">
        <ele>48.2</ele>
        <time>2018-04-21T13:21:11Z</time>
      </trkpt>
      <trkpt lat="45.27481" lon="0.21769">
        <ele>46.9</ele>
        <time>2018-04-21T13:21:40Z</time>
      </trkpt>
      <trkpt lat="45.27657" lon="0.21377">
        <ele>45.8</ele>
        <time>2018-04-21T13:23:16Z</time>
      </trkpt>
      <trkpt lat="45.2782" lon="0.21426">
        <ele>47.1</ele>
        <time>2018-04-21T13:24:00Z</time>
      </trkpt>
      <trkpt lat="45.2782" lon="0.21426">
        <ele>47.1</ele>
        <time>2018-04-21T13:24:00Z</time>
      </trkpt>
      <trkpt lat="45.27916" lon="0.21457">
        <ele>46.6</ele>
        <time>2018-04-21T13:24:26Z</time>
      </trkpt>
      <trkpt lat="45.27883" lon="0.21386">
        <ele>46.8</ele>
        <time>2018-04-21T13:24:42Z</time>
      </trkpt>
      <trkpt lat="45.27802" lon="0.21212">
        <ele>47.7</ele>
        <time>2018-04-21T13:25:20Z</time>
      </trkpt>
      <trkpt lat="45.27883" lon="0.21386">
        <ele>46.8</ele>
        <time>2018-04-21T13:25:58Z</time>
      </trkpt>
      <trkpt lat="45.28251" lon="0.2227">
        <ele>50.2</ele>
        <time>2018-04-21T13:29:07Z</time>
      </trkpt>
      <trkpt lat="45.28455" lon="0.22309">
        <ele>48.7</ele>
        <time>2018-04-21T13:30:00Z</time>
      </trkpt>
      <trkpt lat="45.28627" lon="0.22456">
        <ele>50.1</ele>
        <time>2018-04-21T13:30:51Z</time>
      </trkpt>
      <trkpt lat="45.28878" lon="0.22945">
        <ele>50.7</ele>
        <time>2018-04-21T13:32:10Z</time>
      </trkpt>
      <trkpt lat="45.28861" lon="0.23074">
        <ele>51.6</ele>
        <time>2018-04-21T13:32:29Z</time>
      </trkpt>
      <trkpt lat="45.28899" lon="0.23112">
        <ele>51.2</ele>
        <time>2018-04-21T13:32:41Z</time>
      </trkpt>
      <trkpt lat="45.29153" lon="0.22914">
        <ele>48.1</ele>
        <time>2018-04-21T13:33:18Z</time>
      </trkpt>
      <trkpt lat="45.2919" lon="0.22886">
        <ele>48.3</ele>
        <time>2018-04-21T13:33:23Z</time>
      </trkpt>
      <trkpt lat="45.29216" lon="0.22871">
        <ele>48.2</ele>
        <time>2018-04-21T13:33:26Z</time>
      </trkpt>
      <trkpt lat="45.29643" lon="0.22661">
        <ele>49</ele>
        <time>2018-04-21T13:34:16Z</time>
      </trkpt>
      <trkpt lat="45.29633" lon="0.22623">
        <ele>49.3</ele>
        <time>2018-04-21T13:34:21Z</time>
      </trkpt>
      <trkpt lat="45.29411" lon="0.22352">
        <ele>55.4</ele>
        <time>2018-04-21T13:34:53Z</time>
      </trkpt>
      <trkpt lat="45.29297" lon="0.22127">
        <ele>64.4</ele>
        <time>2018-04-21T13:35:14Z</time>
      </trkpt>
      <trkpt lat="45.29256" lon="0.22053">
        <ele>64.4</ele>
        <time>2018-04-21T13:35:21Z</time>
      </trkpt>
      <trkpt lat="45.29077" lon="0.21798">
        <ele>63.3</ele>
        <time>2018-04-21T13:35:49Z</time>
      </trkpt>
      <trkpt lat="45.28736" lon="0.21455">
        <ele>60.1</ele>
        <time>2018-04-21T13:36:35Z</time>
      </trkpt>
      <trkpt lat="45.28716" lon="0.21285">
        <ele>58.4</ele>
        <time>2018-04-21T13:36:56Z</time>
      </trkpt>
      <trkpt lat="45.28708" lon="0.20904">
        <ele>65.3</ele>
        <time>2018-04-21T13:37:48Z</time>
      </trkpt>
      <trkpt lat="45.28663" lon="0.20612">
        <ele>79.1</ele>
        <time>2018-04-21T13:38:29Z</time>
      </trkpt>
      <trkpt lat="45.28647" lon="0.20482">
        <ele>80.2</ele>
        <time>2018-04-21T13:38:47Z</time>
      </trkpt>
      <trkpt lat="45.28637" lon="0.20403">
        <ele>81.3</ele>
        <time>2018-04-21T13:39:00Z</time>
      </trkpt>
      <trkpt lat="45.28732" lon="0.20297">
        <ele>82.2</ele>
        <time>2018-04-21T13:39:28Z</time>
      </trkpt>
      <trkpt lat="45.28754" lon="0.2015">
        <ele>89.1</ele>
        <time>2018-04-21T13:39:52Z</time>
      </trkpt>
      <trkpt lat="45.28864" lon="0.20085">
        <ele>97.6</ele>
        <time>2018-04-21T13:40:18Z</time>
      </trkpt>
      <trkpt lat="45.28974" lon="0.20015">
        <ele>115.1</ele>
        <time>2018-04-21T13:40:45Z</time>
      </trkpt>
      <trkpt lat="45.29014" lon="0.19944">
        <ele>122.3</ele>
        <time>2018-04-21T13:41:00Z</time>
      </trkpt>
      <trkpt lat="45.29077" lon="0.1975">
        <ele>124.4</ele>
        <time>2018-04-21T13:41:34Z</time>
      </trkpt>
      <trkpt lat="45.29122" lon="0.19675">
        <ele>124.9</ele>
        <time>2018-04-21T13:41:49Z</time>
      </trkpt>
      <trkpt lat="45.29062" lon="0.1967">
        <ele>122.2</ele>
        <time>2018-04-21T13:42:03Z</time>
      </trkpt>
      <trkpt lat="45.28893" lon="0.19526">
        <ele>108</ele>
        <time>2018-04-21T13:42:47Z</time>
      </trkpt>
      <trkpt lat="45.28866" lon="0.19512">
        <ele>106.5</ele>
        <time>2018-04-21T13:42:54Z</time>
      </trkpt>
      <trkpt lat="45.28848" lon="0.19517">
        <ele>109.6</ele>
        <time>2018-04-21T13:42:58Z</time>
      </trkpt>
      <trkpt lat="45.28742" lon="0.19416">
        <ele>107.1</ele>
        <time>2018-04-21T13:43:28Z</time>
      </trkpt>
      <trkpt lat="45.28691" lon="0.19362">
        <ele>106.7</ele>
        <time>2018-04-21T13:43:42Z</time>
      </trkpt>
      <trkpt lat="45.28441" lon="0.19166">
        <ele>103.5</ele>
        <time>2018-04-21T13:44:46Z</time>
      </trkpt>
      <trkpt lat="45.28424" lon="0.19163">
        <ele>101.7</ele>
        <time>2018-04-21T13:44:50Z</time>
      </trkpt>
      <trkpt lat="45.28436" lon="0.19136">
        <ele>90.5</ele>
        <time>2018-04-21T13:44:55Z</time>
      </trkpt>
      <trkpt lat="45.28526" lon="0.19001">
        <ele>86.5</ele>
        <time>2018-04-21T13:45:29Z</time>
      </trkpt>
      <trkpt lat="45.28529" lon="0.18941">
        <ele>83.4</ele>
        <time>2018-04-21T13:45:40Z</time>
      </trkpt>
      <trkpt lat="45.28531" lon="0.18905">
        <ele>82.4</ele>
        <time>2018-04-21T13:45:46Z</time>
      </trkpt>
      <trkpt lat="45.2847" lon="0.1879">
        <ele>74.8</ele>
        <time>2018-04-21T13:46:12Z</time>
      </trkpt>
      <trkpt lat="45.28384" lon="0.18607">
        <ele>57.9</ele>
        <time>2018-04-21T13:46:50Z</time>
      </trkpt>
      <trkpt lat="45.28384" lon="0.18607">
        <ele>57.9</ele>
        <time>2018-04-21T13:46:50Z</time>
      </trkpt>
      <trkpt lat="45.28243" lon="0.18748">
        <ele>57.8</ele>
        <time>2018-04-21T13:47:33Z</time>
      </trkpt>
      <trkpt lat="45.28229" lon="0.18741">
        <ele>54.5</ele>
        <time>2018-04-21T13:47:39Z</time>
      </trkpt>
      <trkpt lat="45.28225" lon="0.18732">
        <ele>54.5</ele>
        <time>2018-04-21T13:47:41Z</time>
      </trkpt>
      <trkpt lat="45.28165" lon="0.18575">
        <ele>52.6</ele>
        <time>2018-04-21T13:48:13Z</time>
      </trkpt>
      <trkpt lat="45.28159" lon="0.1849">
        <ele>53</ele>
        <time>2018-04-21T13:48:28Z</time>
      </trkpt>
      <trkpt lat="45.28177" lon="0.18376">
        <ele>53.9</ele>
        <time>2018-04-21T13:48:49Z</time>
      </trkpt>
      <trkpt lat="45.28196" lon="0.18159">
        <ele>56.1</ele>
        <time>2018-04-21T13:49:28Z</time>
      </trkpt>
      <trkpt lat="45.28265" lon="0.17924">
        <ele>54.1</ele>
        <time>2018-04-21T13:50:12Z</time>
      </trkpt>
      <trkpt lat="45.28328" lon="0.17956">
        <ele>58.2</ele>
        <time>2018-04-21T13:50:29Z</time>
      </trkpt>
      <trkpt lat="45.28355" lon="0.17966">
        <ele>58.5</ele>
        <time>2018-04-21T13:50:36Z</time>
      </trkpt>
      <trkpt lat="45.28404" lon="0.17972">
        <ele>61</ele>
        <time>2018-04-21T13:50:48Z</time>
      </trkpt>
      <trkpt lat="45.28501" lon="0.17962">
        <ele>66</ele>
        <time>2018-04-21T13:51:13Z</time>
      </trkpt>
      <trkpt lat="45.28626" lon="0.17893">
        <ele>72.8</ele>
        <time>2018-04-21T13:51:46Z</time>
      </trkpt>
      <trkpt lat="45.28644" lon="0.17897">
        <ele>73.7</ele>
        <time>2018-04-21T13:51:51Z</time>
      </trkpt>
      <trkpt lat="45.28707" lon="0.17926">
        <ele>72.8</ele>
        <time>2018-04-21T13:52:08Z</time>
      </trkpt>
      <trkpt lat="45.28842" lon="0.17936">
        <ele>70.4</ele>
        <time>2018-04-21T13:52:42Z</time>
      </trkpt>
      <trkpt lat="45.28982" lon="0.17956">
        <ele>70.6</ele>
        <time>2018-04-21T13:53:18Z</time>
      </trkpt>
      <trkpt lat="45.29074" lon="0.17876">
        <ele>71.2</ele>
        <time>2018-04-21T13:53:53Z</time>
      </trkpt>
      <trkpt lat="45.29092" lon="0.17834">
        <ele>71.5</ele>
        <time>2018-04-21T13:54:02Z</time>
      </trkpt>
      <trkpt lat="45.29108" lon="0.17821">
        <ele>72.6</ele>
        <time>2018-04-21T13:54:07Z</time>
      </trkpt>
      <trkpt lat="45.29247" lon="0.17638">
        <ele>74.9</ele>
        <time>2018-04-21T13:55:01Z</time>
      </trkpt>
      <trkpt lat="45.29249" lon="0.17606">
        <ele>75.4</ele>
        <time>2018-04-21T13:55:07Z</time>
      </trkpt>
      <trkpt lat="45.29255" lon="0.17456">
        <ele>80.1</ele>
        <time>2018-04-21T13:55:33Z</time>
      </trkpt>
      <trkpt lat="45.29255" lon="0.17456">
        <ele>80.1</ele>
        <time>2018-04-21T13:55:33Z</time>
      </trkpt>
      <trkpt lat="45.29276" lon="0.1746">
        <ele>81.6</ele>
        <time>2018-04-21T13:55:39Z</time>
      </trkpt>
      <trkpt lat="45.29648" lon="0.17535">
        <ele>86</ele>
        <time>2018-04-21T13:57:13Z</time>
      </trkpt>
      <trkpt lat="45.29695" lon="0.17535">
        <ele>86.2</ele>
        <time>2018-04-21T13:57:24Z</time>
      </trkpt>
      <trkpt lat="45.30122" lon="0.17426">
        <ele>89.1</ele>
        <time>2018-04-21T13:59:13Z</time>
      </trkpt>
      <trkpt lat="45.30171" lon="0.17429">
        <ele>90.7</ele>
        <time>2018-04-21T13:59:26Z</time>
      </trkpt>
      <trkpt lat="45.30342" lon="0.17498">
        <ele>105.5</ele>
        <time>2018-04-21T14:00:10Z</time>
      </trkpt>
      <trkpt lat="45.30358" lon="0.17503">
        <ele>105.6</ele>
        <time>2018-04-21T14:00:14Z</time>
      </trkpt>
      <trkpt lat="45.30419" lon="0.17483">
        <ele>111.8</ele>
        <time>2018-04-21T14:00:30Z</time>
      </trkpt>
      <trkpt lat="45.30485" lon="0.17445">
        <ele>113.9</ele>
        <time>2018-04-21T14:00:48Z</time>
      </trkpt>
      <trkpt lat="45.30485" lon="0.17445">
        <ele>113.9</ele>
        <time>2018-04-21T14:00:48Z</time>
      </trkpt>
      <trkpt lat="45.30536" lon="0.17435">
        <ele>116.5</ele>
        <time>2018-04-21T14:01:00Z</time>
      </trkpt>
      <trkpt lat="45.30574" lon="0.1744">
        <ele>118.2</ele>
        <time>2018-04-21T14:01:10Z</time>
      </trkpt>
      <trkpt lat="45.30784" lon="0.17573">
        <ele>131.2</ele>
        <time>2018-04-21T14:02:08Z</time>
      </trkpt>
      <trkpt lat="45.30802" lon="0.17583">
        <ele>131.2</ele>
        <time>2018-04-21T14:02:12Z</time>
      </trkpt>
      <trkpt lat="45.30979" lon="0.17513">
        <ele>133.6</ele>
        <time>2018-04-21T14:03:01Z</time>
      </trkpt>
      <trkpt lat="45.31034" lon="0.17483">
        <ele>137.1</ele>
        <time>2018-04-21T14:03:15Z</time>
      </trkpt>
      <trkpt lat="45.3118" lon="0.17449">
        <ele>141.2</ele>
        <time>2018-04-21T14:03:52Z</time>
      </trkpt>
      <trkpt lat="45.31179" lon="0.17445">
        <ele>141.2</ele>
        <time>2018-04-21T14:03:53Z</time>
      </trkpt>
      <trkpt lat="45.30936" lon="0.1709">
        <ele>137.4</ele>
        <time>2018-04-21T14:05:20Z</time>
      </trkpt>
      <trkpt lat="45.30761" lon="0.16926">
        <ele>140.9</ele>
        <time>2018-04-21T14:06:12Z</time>
      </trkpt>
      <trkpt lat="45.30732" lon="0.16895">
        <ele>140.5</ele>
        <time>2018-04-21T14:06:21Z</time>
      </trkpt>
      <trkpt lat="45.30618" lon="0.16719">
        <ele>128</ele>
        <time>2018-04-21T14:07:03Z</time>
      </trkpt>
      <trkpt lat="45.30587" lon="0.16684">
        <ele>128</ele>
        <time>2018-04-21T14:07:13Z</time>
      </trkpt>
      <trkpt lat="45.30587" lon="0.16684">
        <ele>128</ele>
        <time>2018-04-21T14:07:13Z</time>
      </trkpt>
      <trkpt lat="45.30576" lon="0.16675">
        <ele>128.5</ele>
        <time>2018-04-21T14:07:16Z</time>
      </trkpt>
      <trkpt lat="45.30527" lon="0.16633">
        <ele>129</ele>
        <time>2018-04-21T14:07:31Z</time>
      </trkpt>
      <trkpt lat="45.304" lon="0.16468">
        <ele>140.1</ele>
        <time>2018-04-21T14:08:13Z</time>
      </trkpt>
      <trkpt lat="45.30367" lon="0.16428">
        <ele>140.1</ele>
        <time>2018-04-21T14:08:24Z</time>
      </trkpt>
      <trkpt lat="45.30377" lon="0.16399">
        <ele>139.2</ele>
        <time>2018-04-21T14:08:30Z</time>
      </trkpt>
      <trkpt lat="45.30437" lon="0.16226">
        <ele>138</ele>
        <time>2018-04-21T14:09:04Z</time>
      </trkpt>
      <trkpt lat="45.30557" lon="0.16096">
        <ele>133.1</ele>
        <time>2018-04-21T14:09:41Z</time>
      </trkpt>
      <trkpt lat="45.30646" lon="0.16013">
        <ele>130.2</ele>
        <time>2018-04-21T14:10:08Z</time>
      </trkpt>
      <trkpt lat="45.30697" lon="0.15963">
        <ele>128</ele>
        <time>2018-04-21T14:10:24Z</time>
      </trkpt>
      <trkpt lat="45.30796" lon="0.15846">
        <ele>124.8</ele>
        <time>2018-04-21T14:10:56Z</time>
      </trkpt>
      <trkpt lat="45.30893" lon="0.1564">
        <ele>119.4</ele>
        <time>2018-04-21T14:11:39Z</time>
      </trkpt>
      <trkpt lat="45.30931" lon="0.15535">
        <ele>118.6</ele>
        <time>2018-04-21T14:12:00Z</time>
      </trkpt>
      <trkpt lat="45.30941" lon="0.15492">
        <ele>118.6</ele>
        <time>2018-04-21T14:12:07Z</time>
      </trkpt>
      <trkpt lat="45.30961" lon="0.15366">
        <ele>118.3</ele>
        <time>2018-04-21T14:12:31Z</time>
      </trkpt>
      <trkpt lat="45.30969" lon="0.153">
        <ele>108.8</ele>
        <time>2018-04-21T14:12:43Z</time>
      </trkpt>
      <trkpt lat="45.30963" lon="0.15294">
        <ele>109.9</ele>
        <time>2018-04-21T14:12:45Z</time>
      </trkpt>
      <trkpt lat="45.30932" lon="0.15214">
        <ele>107.3</ele>
        <time>2018-04-21T14:13:06Z</time>
      </trkpt>
      <trkpt lat="45.30938" lon="0.15192">
        <ele>107.5</ele>
        <time>2018-04-21T14:13:10Z</time>
      </trkpt>
      <trkpt lat="45.3096" lon="0.14974">
        <ele>104.5</ele>
        <time>2018-04-21T14:13:49Z</time>
      </trkpt>
      <trkpt lat="45.31002" lon="0.14848">
        <ele>100.6</ele>
        <time>2018-04-21T14:14:13Z</time>
      </trkpt>
      <trkpt lat="45.31038" lon="0.14744">
        <ele>95.4</ele>
        <time>2018-04-21T14:14:33Z</time>
      </trkpt>
      <trkpt lat="45.31038" lon="0.14744">
        <ele>95.4</ele>
        <time>2018-04-21T14:14:33Z</time>
      </trkpt>
      <trkpt lat="45.31008" lon="0.14677">
        <ele>91.6</ele>
        <time>2018-04-21T14:14:47Z</time>
      </trkpt>
      <trkpt lat="45.31008" lon="0.14677">
        <ele>91.6</ele>
        <time>2018-04-21T14:14:47Z</time>
      </trkpt>
      <trkpt lat="45.30963" lon="0.14576">
        <ele>87.8</ele>
        <time>2018-04-21T14:15:08Z</time>
      </trkpt>
      <trkpt lat="45.30921" lon="0.14474">
        <ele>87</ele>
        <time>2018-04-21T14:15:29Z</time>
      </trkpt>
      <trkpt lat="45.30886" lon="0.14425">
        <ele>82.4</ele>
        <time>2018-04-21T14:15:41Z</time>
      </trkpt>
      <trkpt lat="45.30818" lon="0.14363">
        <ele>83.1</ele>
        <time>2018-04-21T14:16:01Z</time>
      </trkpt>
      <trkpt lat="45.30698" lon="0.14237">
        <ele>86.2</ele>
        <time>2018-04-21T14:16:38Z</time>
      </trkpt>
      <trkpt lat="45.30621" lon="0.14184">
        <ele>88.7</ele>
        <time>2018-04-21T14:16:59Z</time>
      </trkpt>
      <trkpt lat="45.30595" lon="0.14164">
        <ele>90.5</ele>
        <time>2018-04-21T14:17:07Z</time>
      </trkpt>
      <trkpt lat="45.30567" lon="0.14138">
        <ele>96.9</ele>
        <time>2018-04-21T14:17:15Z</time>
      </trkpt>
      <trkpt lat="45.30561" lon="0.14125">
        <ele>97</ele>
        <time>2018-04-21T14:17:18Z</time>
      </trkpt>
      <trkpt lat="45.30479" lon="0.1383">
        <ele>91.1</ele>
        <time>2018-04-21T14:18:13Z</time>
      </trkpt>
      <trkpt lat="45.30388" lon="0.13508">
        <ele>91.8</ele>
        <time>2018-04-21T14:19:14Z</time>
      </trkpt>
      <trkpt lat="45.30253" lon="0.1359">
        <ele>89.2</ele>
        <time>2018-04-21T14:19:52Z</time>
      </trkpt>
      <trkpt lat="45.30207" lon="0.13554">
        <ele>88.4</ele>
        <time>2018-04-21T14:20:09Z</time>
      </trkpt>
      <trkpt lat="45.30192" lon="0.13349">
        <ele>85.9</ele>
        <time>2018-04-21T14:20:45Z</time>
      </trkpt>
      <trkpt lat="45.30188" lon="0.13329">
        <ele>78.7</ele>
        <time>2018-04-21T14:20:48Z</time>
      </trkpt>
      <trkpt lat="45.30204" lon="0.1331">
        <ele>75.8</ele>
        <time>2018-04-21T14:20:54Z</time>
      </trkpt>
      <trkpt lat="45.30205" lon="0.1312">
        <ele>72.5</ele>
        <time>2018-04-21T14:21:27Z</time>
      </trkpt>
      <trkpt lat="45.30315" lon="0.12844">
        <ele>78.4</ele>
        <time>2018-04-21T14:22:23Z</time>
      </trkpt>
      <trkpt lat="45.30322" lon="0.12806">
        <ele>79.1</ele>
        <time>2018-04-21T14:22:30Z</time>
      </trkpt>
      <trkpt lat="45.30315" lon="0.1269">
        <ele>82.3</ele>
        <time>2018-04-21T14:22:50Z</time>
      </trkpt>
      <trkpt lat="45.30315" lon="0.1269">
        <ele>82.3</ele>
        <time>2018-04-21T14:22:50Z</time>
      </trkpt>
      <trkpt lat="45.30307" lon="0.12546">
        <ele>85.4</ele>
        <time>2018-04-21T14:23:15Z</time>
      </trkpt>
      <trkpt lat="45.30309" lon="0.12533">
        <ele>86.9</ele>
        <time>2018-04-21T14:23:18Z</time>
      </trkpt>
      <trkpt lat="45.30305" lon="0.12521">
        <ele>87.1</ele>
        <time>2018-04-21T14:23:20Z</time>
      </trkpt>
      <trkpt lat="45.30293" lon="0.12263">
        <ele>100.3</ele>
        <time>2018-04-21T14:24:05Z</time>
      </trkpt>
      <trkpt lat="45.3029" lon="0.12224">
        <ele>100.6</ele>
        <time>2018-04-21T14:24:12Z</time>
      </trkpt>
      <trkpt lat="45.30275" lon="0.12137">
        <ele>101.5</ele>
        <time>2018-04-21T14:24:28Z</time>
      </trkpt>
      <trkpt lat="45.30242" lon="0.12025">
        <ele>107.3</ele>
        <time>2018-04-21T14:24:49Z</time>
      </trkpt>
      <trkpt lat="45.3022" lon="0.1196">
        <ele>106</ele>
        <time>2018-04-21T14:25:03Z</time>
      </trkpt>
      <trkpt lat="45.30206" lon="0.11939">
        <ele>105.8</ele>
        <time>2018-04-21T14:25:08Z</time>
      </trkpt>
      <trkpt lat="45.30125" lon="0.11827">
        <ele>102</ele>
        <time>2018-04-21T14:25:37Z</time>
      </trkpt>
      <trkpt lat="45.30173" lon="0.11678">
        <ele>96.5</ele>
        <time>2018-04-21T14:26:06Z</time>
      </trkpt>
      <trkpt lat="45.30178" lon="0.11628">
        <ele>93.1</ele>
        <time>2018-04-21T14:26:15Z</time>
      </trkpt>
      <trkpt lat="45.30175" lon="0.11603">
        <ele>92.9</ele>
        <time>2018-04-21T14:26:19Z</time>
      </trkpt>
      <trkpt lat="45.3016" lon="0.11502">
        <ele>96.4</ele>
        <time>2018-04-21T14:26:37Z</time>
      </trkpt>
      <trkpt lat="45.30155" lon="0.11382">
        <ele>105.6</ele>
        <time>2018-04-21T14:26:58Z</time>
      </trkpt>
      <trkpt lat="45.30155" lon="0.1135">
        <ele>105.8</ele>
        <time>2018-04-21T14:27:04Z</time>
      </trkpt>
      <trkpt lat="45.30126" lon="0.11252">
        <ele>108.3</ele>
        <time>2018-04-21T14:27:23Z</time>
      </trkpt>
      <trkpt lat="45.29967" lon="0.10989">
        <ele>114.4</ele>
        <time>2018-04-21T14:28:23Z</time>
      </trkpt>
      <trkpt lat="45.29913" lon="0.10903">
        <ele>114.4</ele>
        <time>2018-04-21T14:28:43Z</time>
      </trkpt>
      <trkpt lat="45.2985" lon="0.1078">
        <ele>112</ele>
        <time>2018-04-21T14:29:10Z</time>
      </trkpt>
      <trkpt lat="45.29844" lon="0.10765">
        <ele>111.7</ele>
        <time>2018-04-21T14:29:13Z</time>
      </trkpt>
      <trkpt lat="45.29807" lon="0.1076">
        <ele>109.7</ele>
        <time>2018-04-21T14:29:25Z</time>
      </trkpt>
      <trkpt lat="45.29623" lon="0.10539">
        <ele>102.9</ele>
        <time>2018-04-21T14:30:25Z</time>
      </trkpt>
      <trkpt lat="45.29557" lon="0.10443">
        <ele>100.6</ele>
        <time>2018-04-21T14:30:48Z</time>
      </trkpt>
      <trkpt lat="45.29537" lon="0.10409">
        <ele>99.5</ele>
        <time>2018-04-21T14:30:56Z</time>
      </trkpt>
      <trkpt lat="45.29469" lon="0.10344">
        <ele>99.2</ele>
        <time>2018-04-21T14:31:16Z</time>
      </trkpt>
      <trkpt lat="45.29428" lon="0.10248">
        <ele>98.8</ele>
        <time>2018-04-21T14:31:37Z</time>
      </trkpt>
      <trkpt lat="45.29457" lon="0.1018">
        <ele>88.8</ele>
        <time>2018-04-21T14:31:51Z</time>
      </trkpt>
      <trkpt lat="45.29456" lon="0.10016">
        <ele>84.1</ele>
        <time>2018-04-21T14:32:25Z</time>
      </trkpt>
      <trkpt lat="45.29441" lon="0.09991">
        <ele>88.1</ele>
        <time>2018-04-21T14:32:31Z</time>
      </trkpt>
      <trkpt lat="45.29423" lon="0.09967">
        <ele>88.8</ele>
        <time>2018-04-21T14:32:37Z</time>
      </trkpt>
      <trkpt lat="45.29423" lon="0.09967">
        <ele>88.8</ele>
        <time>2018-04-21T14:32:37Z</time>
      </trkpt>
      <trkpt lat="45.29395" lon="0.09929">
        <ele>89.5</ele>
        <time>2018-04-21T14:32:47Z</time>
      </trkpt>
      <trkpt lat="45.29298" lon="0.09773">
        <ele>91.6</ele>
        <time>2018-04-21T14:33:23Z</time>
      </trkpt>
      <trkpt lat="45.29282" lon="0.09753">
        <ele>96.3</ele>
        <time>2018-04-21T14:33:29Z</time>
      </trkpt>
      <trkpt lat="45.29246" lon="0.09693">
        <ele>99.7</ele>
        <time>2018-04-21T14:33:43Z</time>
      </trkpt>
      <trkpt lat="45.2922" lon="0.09641">
        <ele>99.8</ele>
        <time>2018-04-21T14:33:54Z</time>
      </trkpt>
      <trkpt lat="45.29185" lon="0.09571">
        <ele>105.2</ele>
        <time>2018-04-21T14:34:15Z</time>
      </trkpt>
      <trkpt lat="45.29254" lon="0.09527">
        <ele>108.3</ele>
        <time>2018-04-21T14:34:40Z</time>
      </trkpt>
      <trkpt lat="45.29352" lon="0.09513">
        <ele>110.4</ele>
        <time>2018-04-21T14:35:08Z</time>
      </trkpt>
      <trkpt lat="45.29418" lon="0.09476">
        <ele>113.4</ele>
        <time>2018-04-21T14:35:28Z</time>
      </trkpt>
      <trkpt lat="45.29491" lon="0.09384">
        <ele>116.9</ele>
        <time>2018-04-21T14:35:55Z</time>
      </trkpt>
      <trkpt lat="45.29491" lon="0.09384">
        <ele>115.4</ele>
        <time>2018-04-21T14:35:55Z</time>
      </trkpt>
      <trkpt lat="45.29504" lon="0.09193">
        <ele>125.5</ele>
        <time>2018-04-21T14:36:33Z</time>
      </trkpt>
      <trkpt lat="45.29484" lon="0.09072">
        <ele>125.6</ele>
        <time>2018-04-21T14:36:58Z</time>
      </trkpt>
      <trkpt lat="45.29445" lon="0.08882">
        <ele>127.2</ele>
        <time>2018-04-21T14:37:44Z</time>
      </trkpt>
      <trkpt lat="45.29475" lon="0.08864">
        <ele>125.8</ele>
        <time>2018-04-21T14:37:54Z</time>
      </trkpt>
      <trkpt lat="45.29505" lon="0.08846">
        <ele>124.9</ele>
        <time>2018-04-21T14:38:04Z</time>
      </trkpt>
      <trkpt lat="45.29437" lon="0.08764">
        <ele>132.7</ele>
        <time>2018-04-21T14:38:31Z</time>
      </trkpt>
      <trkpt lat="45.29301" lon="0.08599">
        <ele>127.8</ele>
        <time>2018-04-21T14:39:25Z</time>
      </trkpt>
      <trkpt lat="45.29233" lon="0.08516">
        <ele>117.5</ele>
        <time>2018-04-21T14:39:52Z</time>
      </trkpt>
      <trkpt lat="45.29212" lon="0.08491">
        <ele>118</ele>
        <time>2018-04-21T14:40:00Z</time>
      </trkpt>
      <trkpt lat="45.29172" lon="0.08405">
        <ele>108.7</ele>
        <time>2018-04-21T14:40:20Z</time>
      </trkpt>
      <trkpt lat="45.29148" lon="0.08342">
        <ele>104.3</ele>
        <time>2018-04-21T14:40:34Z</time>
      </trkpt>
      <trkpt lat="45.29127" lon="0.08248">
        <ele>96.8</ele>
        <time>2018-04-21T14:40:54Z</time>
      </trkpt>
      <trkpt lat="45.29121" lon="0.08229">
        <ele>96.7</ele>
        <time>2018-04-21T14:40:57Z</time>
      </trkpt>
      <trkpt lat="45.29084" lon="0.08167">
        <ele>93.1</ele>
        <time>2018-04-21T14:41:14Z</time>
      </trkpt>
      <trkpt lat="45.29023" lon="0.08076">
        <ele>89.1</ele>
        <time>2018-04-21T14:41:38Z</time>
      </trkpt>
      <trkpt lat="45.28962" lon="0.08018">
        <ele>85.8</ele>
        <time>2018-04-21T14:41:59Z</time>
      </trkpt>
      <trkpt lat="45.28893" lon="0.07911">
        <ele>84.1</ele>
        <time>2018-04-21T14:42:27Z</time>
      </trkpt>
      <trkpt lat="45.28549" lon="0.07652">
        <ele>87.5</ele>
        <time>2018-04-21T14:44:16Z</time>
      </trkpt>
      <trkpt lat="45.28426" lon="0.07559">
        <ele>104.7</ele>
        <time>2018-04-21T14:44:55Z</time>
      </trkpt>
      <trkpt lat="45.28424" lon="0.07561">
        <ele>111.6</ele>
        <time>2018-04-21T14:44:56Z</time>
      </trkpt>
      <trkpt lat="45.28425" lon="0.07561">
        <ele>105.2</ele>
        <time>2018-04-21T14:44:56Z</time>
      </trkpt>
      <trkpt lat="45.28474" lon="0.07468">
        <ele>103.9</ele>
        <time>2018-04-21T14:45:05Z</time>
      </trkpt>
      <trkpt lat="45.28613" lon="0.07175">
        <ele>97.8</ele>
        <time>2018-04-21T14:45:32Z</time>
      </trkpt>
      <trkpt lat="45.28613" lon="0.07175">
        <ele>97.8</ele>
        <time>2018-04-21T14:45:32Z</time>
      </trkpt>
      <trkpt lat="45.28613" lon="0.07174">
        <ele>91.7</ele>
        <time>2018-04-21T14:45:32Z</time>
      </trkpt>
      <trkpt lat="45.28569" lon="0.07154">
        <ele>98.3</ele>
        <time>2018-04-21T14:45:41Z</time>
      </trkpt>
      <trkpt lat="45.28516" lon="0.07073">
        <ele>99.7</ele>
        <time>2018-04-21T14:46:05Z</time>
      </trkpt>
      <trkpt lat="45.28442" lon="0.07106">
        <ele>97.8</ele>
        <time>2018-04-21T14:46:29Z</time>
      </trkpt>
      <trkpt lat="45.28376" lon="0.0712">
        <ele>92.1</ele>
        <time>2018-04-21T14:46:48Z</time>
      </trkpt>
      <trkpt lat="45.28376" lon="0.0712">
        <ele>92.1</ele>
        <time>2018-04-21T14:46:48Z</time>
      </trkpt>
      <trkpt lat="45.28364" lon="0.07118">
        <ele>86.3</ele>
        <time>2018-04-21T14:46:51Z</time>
      </trkpt>
      <trkpt lat="45.28258" lon="0.07031">
        <ele>72.1</ele>
        <time>2018-04-21T14:47:19Z</time>
      </trkpt>
      <trkpt lat="45.28115" lon="0.06905">
        <ele>62.9</ele>
        <time>2018-04-21T14:47:58Z</time>
      </trkpt>
      <trkpt lat="45.28097" lon="0.06896">
        <ele>67.3</ele>
        <time>2018-04-21T14:48:02Z</time>
      </trkpt>
      <trkpt lat="45.28069" lon="0.06886">
        <ele>67</ele>
        <time>2018-04-21T14:48:09Z</time>
      </trkpt>
      <trkpt lat="45.27974" lon="0.06861">
        <ele>73.5</ele>
        <time>2018-04-21T14:48:31Z</time>
      </trkpt>
      <trkpt lat="45.27934" lon="0.06839">
        <ele>81.4</ele>
        <time>2018-04-21T14:48:41Z</time>
      </trkpt>
      <trkpt lat="45.27818" lon="0.06748">
        <ele>97.6</ele>
        <time>2018-04-21T14:49:11Z</time>
      </trkpt>
      <trkpt lat="45.27717" lon="0.06689">
        <ele>101</ele>
        <time>2018-04-21T14:49:37Z</time>
      </trkpt>
      <trkpt lat="45.27717" lon="0.06689">
        <ele>101</ele>
        <time>2018-04-21T14:49:37Z</time>
      </trkpt>
      <trkpt lat="45.27699" lon="0.06684">
        <ele>105.1</ele>
        <time>2018-04-21T14:49:39Z</time>
      </trkpt>
      <trkpt lat="45.27657" lon="0.06682">
        <ele>107.3</ele>
        <time>2018-04-21T14:49:46Z</time>
      </trkpt>
      <trkpt lat="45.27557" lon="0.06682">
        <ele>112.9</ele>
        <time>2018-04-21T14:50:02Z</time>
      </trkpt>
      <trkpt lat="45.27549" lon="0.0668">
        <ele>113</ele>
        <time>2018-04-21T14:50:04Z</time>
      </trkpt>
      <trkpt lat="45.27472" lon="0.06651">
        <ele>116.3</ele>
        <time>2018-04-21T14:50:17Z</time>
      </trkpt>
      <trkpt lat="45.27254" lon="0.06634">
        <ele>138.6</ele>
        <time>2018-04-21T14:50:52Z</time>
      </trkpt>
      <trkpt lat="45.27217" lon="0.06762">
        <ele>138.1</ele>
        <time>2018-04-21T14:51:08Z</time>
      </trkpt>
      <trkpt lat="45.27142" lon="0.06843">
        <ele>138.3</ele>
        <time>2018-04-21T14:51:24Z</time>
      </trkpt>
      <trkpt lat="45.27116" lon="0.06932">
        <ele>132.3</ele>
        <time>2018-04-21T14:51:35Z</time>
      </trkpt>
      <trkpt lat="45.27091" lon="0.07031">
        <ele>129</ele>
        <time>2018-04-21T14:51:47Z</time>
      </trkpt>
      <trkpt lat="45.27036" lon="0.07001">
        <ele>136.6</ele>
        <time>2018-04-21T14:51:56Z</time>
      </trkpt>
      <trkpt lat="45.27036" lon="0.07001">
        <ele>136.6</ele>
        <time>2018-04-21T14:51:56Z</time>
      </trkpt>
      <trkpt lat="45.27006" lon="0.07347">
        <ele>147.6</ele>
        <time>2018-04-21T14:52:28Z</time>
      </trkpt>
      <trkpt lat="45.26977" lon="0.07873">
        <ele>147.5</ele>
        <time>2018-04-21T14:53:17Z</time>
      </trkpt>
      <trkpt lat="45.26974" lon="0.07915">
        <ele>147.4</ele>
        <time>2018-04-21T14:53:21Z</time>
      </trkpt>
      <trkpt lat="45.26885" lon="0.08005">
        <ele>151.2</ele>
        <time>2018-04-21T14:53:36Z</time>
      </trkpt>
      <trkpt lat="45.26862" lon="0.08041">
        <ele>151.4</ele>
        <time>2018-04-21T14:53:40Z</time>
      </trkpt>
      <trkpt lat="45.26847" lon="0.08181">
        <ele>152.4</ele>
        <time>2018-04-21T14:53:54Z</time>
      </trkpt>
      <trkpt lat="45.26848" lon="0.08264">
        <ele>149.1</ele>
        <time>2018-04-21T14:54:02Z</time>
      </trkpt>
      <trkpt lat="45.26848" lon="0.08264">
        <ele>149.1</ele>
        <time>2018-04-21T14:54:02Z</time>
      </trkpt>
      <trkpt lat="45.26842" lon="0.0827">
        <ele>149</ele>
        <time>2018-04-21T14:54:03Z</time>
      </trkpt>
      <trkpt lat="45.26829" lon="0.08283">
        <ele>147.8</ele>
        <time>2018-04-21T14:54:06Z</time>
      </trkpt>
      <trkpt lat="45.2679" lon="0.08334">
        <ele>147.7</ele>
        <time>2018-04-21T14:54:18Z</time>
      </trkpt>
      <trkpt lat="45.26713" lon="0.08368">
        <ele>150.1</ele>
        <time>2018-04-21T14:54:36Z</time>
      </trkpt>
      <trkpt lat="45.26672" lon="0.08379">
        <ele>152.4</ele>
        <time>2018-04-21T14:54:45Z</time>
      </trkpt>
      <trkpt lat="45.2658" lon="0.08429">
        <ele>150.6</ele>
        <time>2018-04-21T14:55:08Z</time>
      </trkpt>
      <trkpt lat="45.2654" lon="0.08422">
        <ele>149.1</ele>
        <time>2018-04-21T14:55:18Z</time>
      </trkpt>
      <trkpt lat="45.26407" lon="0.08347">
        <ele>146.7</ele>
        <time>2018-04-21T14:55:52Z</time>
      </trkpt>
      <trkpt lat="45.26393" lon="0.08331">
        <ele>146.5</ele>
        <time>2018-04-21T14:55:56Z</time>
      </trkpt>
      <trkpt lat="45.26369" lon="0.08325">
        <ele>141.1</ele>
        <time>2018-04-21T14:56:02Z</time>
      </trkpt>
      <trkpt lat="45.2629" lon="0.08408">
        <ele>138</ele>
        <time>2018-04-21T14:56:23Z</time>
      </trkpt>
      <trkpt lat="45.2624" lon="0.08543">
        <ele>137.3</ele>
        <time>2018-04-21T14:56:46Z</time>
      </trkpt>
      <trkpt lat="45.26214" lon="0.08598">
        <ele>138.9</ele>
        <time>2018-04-21T14:56:56Z</time>
      </trkpt>
      <trkpt lat="45.26175" lon="0.08664">
        <ele>140.1</ele>
        <time>2018-04-21T14:57:09Z</time>
      </trkpt>
      <trkpt lat="45.26163" lon="0.08691">
        <ele>140.1</ele>
        <time>2018-04-21T14:57:13Z</time>
      </trkpt>
      <trkpt lat="45.26094" lon="0.08789">
        <ele>139</ele>
        <time>2018-04-21T14:57:36Z</time>
      </trkpt>
      <trkpt lat="45.26074" lon="0.08868">
        <ele>138.7</ele>
        <time>2018-04-21T14:57:48Z</time>
      </trkpt>
      <trkpt lat="45.26072" lon="0.08906">
        <ele>134.4</ele>
        <time>2018-04-21T14:57:54Z</time>
      </trkpt>
      <trkpt lat="45.26067" lon="0.08957">
        <ele>126.9</ele>
        <time>2018-04-21T14:58:01Z</time>
      </trkpt>
      <trkpt lat="45.2607" lon="0.09115">
        <ele>121.1</ele>
        <time>2018-04-21T14:58:25Z</time>
      </trkpt>
      <trkpt lat="45.2608" lon="0.0915">
        <ele>117.4</ele>
        <time>2018-04-21T14:58:31Z</time>
      </trkpt>
      <trkpt lat="45.26096" lon="0.0917">
        <ele>114.4</ele>
        <time>2018-04-21T14:58:35Z</time>
      </trkpt>
      <trkpt lat="45.26117" lon="0.09228">
        <ele>106.5</ele>
        <time>2018-04-21T14:58:45Z</time>
      </trkpt>
      <trkpt lat="45.26129" lon="0.09278">
        <ele>103.5</ele>
        <time>2018-04-21T14:58:53Z</time>
      </trkpt>
      <trkpt lat="45.26174" lon="0.09325">
        <ele>97.2</ele>
        <time>2018-04-21T14:59:05Z</time>
      </trkpt>
      <trkpt lat="45.26186" lon="0.09333">
        <ele>93.9</ele>
        <time>2018-04-21T14:59:07Z</time>
      </trkpt>
      <trkpt lat="45.26205" lon="0.09335">
        <ele>90</ele>
        <time>2018-04-21T14:59:12Z</time>
      </trkpt>
      <trkpt lat="45.26244" lon="0.09365">
        <ele>85.7</ele>
        <time>2018-04-21T14:59:21Z</time>
      </trkpt>
      <trkpt lat="45.26317" lon="0.09432">
        <ele>80.2</ele>
        <time>2018-04-21T14:59:39Z</time>
      </trkpt>
      <trkpt lat="45.26322" lon="0.09451">
        <ele>76.8</ele>
        <time>2018-04-21T14:59:42Z</time>
      </trkpt>
      <trkpt lat="45.26325" lon="0.09451">
        <ele>76.9</ele>
        <time>2018-04-21T14:59:43Z</time>
      </trkpt>
      <trkpt lat="45.2618" lon="0.09527">
        <ele>75.9</ele>
        <time>2018-04-21T15:00:08Z</time>
      </trkpt>
      <trkpt lat="45.26059" lon="0.09595">
        <ele>74.3</ele>
        <time>2018-04-21T15:00:30Z</time>
      </trkpt>
      <trkpt lat="45.25992" lon="0.09584">
        <ele>76</ele>
        <time>2018-04-21T15:01:02Z</time>
      </trkpt>
      <trkpt lat="45.2584" lon="0.09436">
        <ele>77.1</ele>
        <time>2018-04-21T15:02:43Z</time>
      </trkpt>
      <trkpt lat="45.25833" lon="0.09427">
        <ele>80.8</ele>
        <time>2018-04-21T15:02:48Z</time>
      </trkpt>
      <trkpt lat="45.25808" lon="0.09404">
        <ele>85.4</ele>
        <time>2018-04-21T15:03:04Z</time>
      </trkpt>
      <trkpt lat="45.25747" lon="0.09348">
        <ele>85.4</ele>
        <time>2018-04-21T15:03:43Z</time>
      </trkpt>
      <trkpt lat="45.25727" lon="0.0933">
        <ele>90</ele>
        <time>2018-04-21T15:03:54Z</time>
      </trkpt>
      <trkpt lat="45.25697" lon="0.09341">
        <ele>95.1</ele>
        <time>2018-04-21T15:04:08Z</time>
      </trkpt>
      <trkpt lat="45.25658" lon="0.09314">
        <ele>96.4</ele>
        <time>2018-04-21T15:04:29Z</time>
      </trkpt>
      <trkpt lat="45.25658" lon="0.09314">
        <ele>96.4</ele>
        <time>2018-04-21T15:04:29Z</time>
      </trkpt>
      <trkpt lat="45.25643" lon="0.09297">
        <ele>96.5</ele>
        <time>2018-04-21T15:04:34Z</time>
      </trkpt>
      <trkpt lat="45.25589" lon="0.09268">
        <ele>115</ele>
        <time>2018-04-21T15:04:48Z</time>
      </trkpt>
      <trkpt lat="45.255" lon="0.09229">
        <ele>118.5</ele>
        <time>2018-04-21T15:05:16Z</time>
      </trkpt>
      <trkpt lat="45.255" lon="0.09229">
        <ele>118.5</ele>
        <time>2018-04-21T15:05:16Z</time>
      </trkpt>
      <trkpt lat="45.25276" lon="0.09243">
        <ele>114.3</ele>
        <time>2018-04-21T15:06:17Z</time>
      </trkpt>
      <trkpt lat="45.25221" lon="0.09277">
        <ele>115.7</ele>
        <time>2018-04-21T15:06:34Z</time>
      </trkpt>
      <trkpt lat="45.25087" lon="0.09283">
        <ele>115.8</ele>
        <time>2018-04-21T15:07:10Z</time>
      </trkpt>
      <trkpt lat="45.2502" lon="0.09353">
        <ele>109.7</ele>
        <time>2018-04-21T15:07:37Z</time>
      </trkpt>
      <trkpt lat="45.25014" lon="0.09361">
        <ele>109.4</ele>
        <time>2018-04-21T15:07:39Z</time>
      </trkpt>
      <trkpt lat="45.24924" lon="0.09393">
        <ele>106</ele>
        <time>2018-04-21T15:08:08Z</time>
      </trkpt>
      <trkpt lat="45.24888" lon="0.09432">
        <ele>102.8</ele>
        <time>2018-04-21T15:08:22Z</time>
      </trkpt>
      <trkpt lat="45.24822" lon="0.09481">
        <ele>99.8</ele>
        <time>2018-04-21T15:08:45Z</time>
      </trkpt>
      <trkpt lat="45.248" lon="0.09501">
        <ele>97.9</ele>
        <time>2018-04-21T15:08:54Z</time>
      </trkpt>
      <trkpt lat="45.24751" lon="0.0958">
        <ele>94.4</ele>
        <time>2018-04-21T15:09:17Z</time>
      </trkpt>
      <trkpt lat="45.24732" lon="0.09629">
        <ele>88.9</ele>
        <time>2018-04-21T15:09:29Z</time>
      </trkpt>
      <trkpt lat="45.24719" lon="0.09641">
        <ele>89</ele>
        <time>2018-04-21T15:09:34Z</time>
      </trkpt>
      <trkpt lat="45.24652" lon="0.09667">
        <ele>86.6</ele>
        <time>2018-04-21T15:09:55Z</time>
      </trkpt>
      <trkpt lat="45.24608" lon="0.09684">
        <ele>81.4</ele>
        <time>2018-04-21T15:10:09Z</time>
      </trkpt>
      <trkpt lat="45.24603" lon="0.09691">
        <ele>71</ele>
        <time>2018-04-21T15:10:11Z</time>
      </trkpt>
      <trkpt lat="45.24578" lon="0.09731">
        <ele>67.2</ele>
        <time>2018-04-21T15:10:23Z</time>
      </trkpt>
      <trkpt lat="45.24368" lon="0.09891">
        <ele>49.8</ele>
        <time>2018-04-21T15:11:36Z</time>
      </trkpt>
      <trkpt lat="45.24368" lon="0.09891">
        <ele>49.8</ele>
        <time>2018-04-21T15:11:36Z</time>
      </trkpt>
      <trkpt lat="45.24346" lon="0.09999">
        <ele>51.2</ele>
        <time>2018-04-21T15:12:05Z</time>
      </trkpt>
      <trkpt lat="45.24321" lon="0.10103">
        <ele>54.1</ele>
        <time>2018-04-21T15:12:32Z</time>
      </trkpt>
      <trkpt lat="45.24202" lon="0.10195">
        <ele>76.8</ele>
        <time>2018-04-21T15:13:19Z</time>
      </trkpt>
      <trkpt lat="45.24177" lon="0.1026">
        <ele>79.8</ele>
        <time>2018-04-21T15:13:38Z</time>
      </trkpt>
      <trkpt lat="45.24154" lon="0.10422">
        <ele>84.2</ele>
        <time>2018-04-21T15:14:19Z</time>
      </trkpt>
      <trkpt lat="45.2414" lon="0.10574">
        <ele>92.2</ele>
        <time>2018-04-21T15:14:56Z</time>
      </trkpt>
      <trkpt lat="45.24128" lon="0.10669">
        <ele>97.6</ele>
        <time>2018-04-21T15:15:20Z</time>
      </trkpt>
      <trkpt lat="45.24104" lon="0.10762">
        <ele>105.6</ele>
        <time>2018-04-21T15:15:44Z</time>
      </trkpt>
      <trkpt lat="45.24102" lon="0.10787">
        <ele>105.9</ele>
        <time>2018-04-21T15:15:50Z</time>
      </trkpt>
      <trkpt lat="45.24113" lon="0.10991">
        <ele>100.3</ele>
        <time>2018-04-21T15:16:40Z</time>
      </trkpt>
      <trkpt lat="45.24113" lon="0.10991">
        <ele>100.3</ele>
        <time>2018-04-21T15:16:40Z</time>
      </trkpt>
      <trkpt lat="45.24129" lon="0.1109">
        <ele>98.2</ele>
        <time>2018-04-21T15:17:05Z</time>
      </trkpt>
      <trkpt lat="45.24116" lon="0.11168">
        <ele>97.3</ele>
        <time>2018-04-21T15:17:26Z</time>
      </trkpt>
      <trkpt lat="45.24037" lon="0.112">
        <ele>98</ele>
        <time>2018-04-21T15:17:56Z</time>
      </trkpt>
      <trkpt lat="45.24027" lon="0.11156">
        <ele>94.5</ele>
        <time>2018-04-21T15:18:07Z</time>
      </trkpt>
      <trkpt lat="45.23909" lon="0.11017">
        <ele>91.6</ele>
        <time>2018-04-21T15:19:00Z</time>
      </trkpt>
      <trkpt lat="45.23771" lon="0.10843">
        <ele>91.8</ele>
        <time>2018-04-21T15:20:05Z</time>
      </trkpt>
      <trkpt lat="45.23608" lon="0.10784">
        <ele>91.2</ele>
        <time>2018-04-21T15:21:01Z</time>
      </trkpt>
      <trkpt lat="45.23387" lon="0.10598">
        <ele>92.4</ele>
        <time>2018-04-21T15:22:25Z</time>
      </trkpt>
      <trkpt lat="45.23322" lon="0.10537">
        <ele>93.2</ele>
        <time>2018-04-21T15:22:51Z</time>
      </trkpt>
      <trkpt lat="45.23309" lon="0.10382">
        <ele>97.5</ele>
        <time>2018-04-21T15:23:29Z</time>
      </trkpt>
      <trkpt lat="45.23323" lon="0.10344">
        <ele>97.5</ele>
        <time>2018-04-21T15:23:39Z</time>
      </trkpt>
      <trkpt lat="45.23314" lon="0.10277">
        <ele>99.3</ele>
        <time>2018-04-21T15:24:06Z</time>
      </trkpt>
      <trkpt lat="45.23236" lon="0.10276">
        <ele>98.4</ele>
        <time>2018-04-21T15:24:34Z</time>
      </trkpt>
      <trkpt lat="45.23231" lon="0.10276">
        <ele>97.5</ele>
        <time>2018-04-21T15:24:36Z</time>
      </trkpt>
      <trkpt lat="45.23142" lon="0.10228">
        <ele>92.6</ele>
        <time>2018-04-21T15:25:11Z</time>
      </trkpt>
      <trkpt lat="45.23136" lon="0.10228">
        <ele>91.9</ele>
        <time>2018-04-21T15:25:13Z</time>
      </trkpt>
      <trkpt lat="45.2313" lon="0.1013">
        <ele>89.3</ele>
        <time>2018-04-21T15:25:30Z</time>
      </trkpt>
      <trkpt lat="45.23101" lon="0.10008">
        <ele>86.1</ele>
        <time>2018-04-21T15:25:51Z</time>
      </trkpt>
      <trkpt lat="45.23115" lon="0.09948">
        <ele>84.8</ele>
        <time>2018-04-21T15:26:01Z</time>
      </trkpt>
      <trkpt lat="45.23196" lon="0.09845">
        <ele>81.2</ele>
        <time>2018-04-21T15:26:28Z</time>
      </trkpt>
      <trkpt lat="45.23183" lon="0.09825">
        <ele>76.6</ele>
        <time>2018-04-21T15:26:33Z</time>
      </trkpt>
      <trkpt lat="45.23174" lon="0.09803">
        <ele>76.6</ele>
        <time>2018-04-21T15:26:37Z</time>
      </trkpt>
      <trkpt lat="45.23124" lon="0.09698">
        <ele>72.7</ele>
        <time>2018-04-21T15:26:58Z</time>
      </trkpt>
      <trkpt lat="45.2304" lon="0.09629">
        <ele>63.3</ele>
        <time>2018-04-21T15:27:21Z</time>
      </trkpt>
      <trkpt lat="45.2304" lon="0.09629">
        <ele>63.3</ele>
        <time>2018-04-21T15:27:21Z</time>
      </trkpt>
      <trkpt lat="45.23001" lon="0.09559">
        <ele>60.7</ele>
        <time>2018-04-21T15:27:37Z</time>
      </trkpt>
      <trkpt lat="45.22966" lon="0.09415">
        <ele>47.4</ele>
        <time>2018-04-21T15:28:02Z</time>
      </trkpt>
      <trkpt lat="45.22931" lon="0.09381">
        <ele>43.7</ele>
        <time>2018-04-21T15:28:12Z</time>
      </trkpt>
      <trkpt lat="45.22846" lon="0.09318">
        <ele>38.8</ele>
        <time>2018-04-21T15:28:35Z</time>
      </trkpt>
      <trkpt lat="45.22846" lon="0.09318">
        <ele>38.8</ele>
        <time>2018-04-21T15:28:35Z</time>
      </trkpt>
      <trkpt lat="45.22868" lon="0.09284">
        <ele>37.5</ele>
        <time>2018-04-21T15:28:43Z</time>
      </trkpt>
      <trkpt lat="45.22915" lon="0.09173">
        <ele>42.5</ele>
        <time>2018-04-21T15:29:06Z</time>
      </trkpt>
      <trkpt lat="45.22929" lon="0.09149">
        <ele>42.3</ele>
        <time>2018-04-21T15:29:11Z</time>
      </trkpt>
      <trkpt lat="45.23047" lon="0.08908">
        <ele>55.3</ele>
        <time>2018-04-21T15:30:04Z</time>
      </trkpt>
      <trkpt lat="45.23076" lon="0.08853">
        <ele>59.3</ele>
        <time>2018-04-21T15:30:16Z</time>
      </trkpt>
      <trkpt lat="45.23164" lon="0.08738">
        <ele>64.2</ele>
        <time>2018-04-21T15:30:46Z</time>
      </trkpt>
      <trkpt lat="45.23183" lon="0.08716">
        <ele>71.2</ele>
        <time>2018-04-21T15:30:52Z</time>
      </trkpt>
      <trkpt lat="45.23221" lon="0.08695">
        <ele>74.7</ele>
        <time>2018-04-21T15:31:02Z</time>
      </trkpt>
      <trkpt lat="45.23212" lon="0.08528">
        <ele>71.8</ele>
        <time>2018-04-21T15:31:32Z</time>
      </trkpt>
      <trkpt lat="45.23227" lon="0.08474">
        <ele>68.7</ele>
        <time>2018-04-21T15:31:42Z</time>
      </trkpt>
      <trkpt lat="45.23227" lon="0.08474">
        <ele>68.7</ele>
        <time>2018-04-21T15:31:42Z</time>
      </trkpt>
      <trkpt lat="45.23268" lon="0.08402">
        <ele>67.1</ele>
        <time>2018-04-21T15:31:58Z</time>
      </trkpt>
      <trkpt lat="45.23262" lon="0.08335">
        <ele>63.7</ele>
        <time>2018-04-21T15:32:11Z</time>
      </trkpt>
      <trkpt lat="45.23281" lon="0.08166">
        <ele>61.3</ele>
        <time>2018-04-21T15:32:41Z</time>
      </trkpt>
      <trkpt lat="45.2328" lon="0.07972">
        <ele>67.2</ele>
        <time>2018-04-21T15:33:16Z</time>
      </trkpt>
      <trkpt lat="45.23269" lon="0.07931">
        <ele>69.5</ele>
        <time>2018-04-21T15:33:23Z</time>
      </trkpt>
      <trkpt lat="45.23214" lon="0.07792">
        <ele>68</ele>
        <time>2018-04-21T15:33:53Z</time>
      </trkpt>
      <trkpt lat="45.23195" lon="0.07716">
        <ele>67.8</ele>
        <time>2018-04-21T15:34:07Z</time>
      </trkpt>
      <trkpt lat="45.23176" lon="0.075">
        <ele>67.3</ele>
        <time>2018-04-21T15:34:47Z</time>
      </trkpt>
      <trkpt lat="45.23165" lon="0.07482">
        <ele>63.1</ele>
        <time>2018-04-21T15:34:52Z</time>
      </trkpt>
      <trkpt lat="45.23069" lon="0.07477">
        <ele>59</ele>
        <time>2018-04-21T15:35:17Z</time>
      </trkpt>
      <trkpt lat="45.23026" lon="0.07477">
        <ele>55.7</ele>
        <time>2018-04-21T15:35:28Z</time>
      </trkpt>
      <trkpt lat="45.22982" lon="0.07467">
        <ele>53.8</ele>
        <time>2018-04-21T15:35:39Z</time>
      </trkpt>
      <trkpt lat="45.22916" lon="0.07466">
        <ele>50.8</ele>
        <time>2018-04-21T15:35:56Z</time>
      </trkpt>
      <trkpt lat="45.22908" lon="0.07465">
        <ele>50.5</ele>
        <time>2018-04-21T15:35:57Z</time>
      </trkpt>
      <trkpt lat="45.22667" lon="0.07396">
        <ele>44.5</ele>
        <time>2018-04-21T15:36:59Z</time>
      </trkpt>
      <trkpt lat="45.22621" lon="0.07383">
        <ele>43.6</ele>
        <time>2018-04-21T15:37:11Z</time>
      </trkpt>
      <trkpt lat="45.22561" lon="0.07404">
        <ele>40.3</ele>
        <time>2018-04-21T15:37:29Z</time>
      </trkpt>
      <trkpt lat="45.22494" lon="0.07287">
        <ele>36.2</ele>
        <time>2018-04-21T15:37:56Z</time>
      </trkpt>
      <trkpt lat="45.22489" lon="0.07277">
        <ele>36</ele>
        <time>2018-04-21T15:37:59Z</time>
      </trkpt>
      <trkpt lat="45.22254" lon="0.07244">
        <ele>30.1</ele>
        <time>2018-04-21T15:38:59Z</time>
      </trkpt>
      <trkpt lat="45.22252" lon="0.07239">
        <ele>30.1</ele>
        <time>2018-04-21T15:39:00Z</time>
      </trkpt>
      <trkpt lat="45.22256" lon="0.07012">
        <ele>31.9</ele>
        <time>2018-04-21T15:39:40Z</time>
      </trkpt>
      <trkpt lat="45.22262" lon="0.0679">
        <ele>30.2</ele>
        <time>2018-04-21T15:40:19Z</time>
      </trkpt>
      <trkpt lat="45.22334" lon="0.06625">
        <ele>30.6</ele>
        <time>2018-04-21T15:40:55Z</time>
      </trkpt>
      <trkpt lat="45.22539" lon="0.06498">
        <ele>30.5</ele>
        <time>2018-04-21T15:41:51Z</time>
      </trkpt>
      <trkpt lat="45.22539" lon="0.06498">
        <ele>30.5</ele>
        <time>2018-04-21T15:41:51Z</time>
      </trkpt>
      <trkpt lat="45.22644" lon="0.06339">
        <ele>31</ele>
        <time>2018-04-21T15:42:31Z</time>
      </trkpt>
      <trkpt lat="45.22776" lon="0.06214">
        <ele>33.4</ele>
        <time>2018-04-21T15:43:11Z</time>
      </trkpt>
      <trkpt lat="45.22891" lon="0.05986">
        <ele>36.4</ele>
        <time>2018-04-21T15:44:00Z</time>
      </trkpt>
      <trkpt lat="45.23005" lon="0.05902">
        <ele>40.9</ele>
        <time>2018-04-21T15:44:33Z</time>
      </trkpt>
      <trkpt lat="45.23017" lon="0.05897">
        <ele>41.4</ele>
        <time>2018-04-21T15:44:36Z</time>
      </trkpt>
      <trkpt lat="45.23065" lon="0.05889">
        <ele>42.9</ele>
        <time>2018-04-21T15:44:48Z</time>
      </trkpt>
      <trkpt lat="45.23122" lon="0.0589">
        <ele>43.2</ele>
        <time>2018-04-21T15:45:02Z</time>
      </trkpt>
      <trkpt lat="45.23133" lon="0.05893">
        <ele>47.2</ele>
        <time>2018-04-21T15:45:05Z</time>
      </trkpt>
      <trkpt lat="45.23144" lon="0.0582">
        <ele>45.6</ele>
        <time>2018-04-21T15:45:18Z</time>
      </trkpt>
      <trkpt lat="45.2316" lon="0.05537">
        <ele>47.4</ele>
        <time>2018-04-21T15:46:08Z</time>
      </trkpt>
      <trkpt lat="45.23024" lon="0.05218">
        <ele>55.4</ele>
        <time>2018-04-21T15:47:14Z</time>
      </trkpt>
      <trkpt lat="45.22921" lon="0.05089">
        <ele>54.7</ele>
        <time>2018-04-21T15:47:48Z</time>
      </trkpt>
      <trkpt lat="45.22817" lon="0.04944">
        <ele>49.6</ele>
        <time>2018-04-21T15:48:25Z</time>
      </trkpt>
      <trkpt lat="45.22703" lon="0.0478">
        <ele>51.5</ele>
        <time>2018-04-21T15:49:05Z</time>
      </trkpt>
      <trkpt lat="45.22651" lon="0.04709">
        <ele>51.5</ele>
        <time>2018-04-21T15:49:23Z</time>
      </trkpt>
      <trkpt lat="45.22582" lon="0.04658">
        <ele>47.5</ele>
        <time>2018-04-21T15:49:43Z</time>
      </trkpt>
      <trkpt lat="45.22531" lon="0.04636">
        <ele>49</ele>
        <time>2018-04-21T15:49:56Z</time>
      </trkpt>
      <trkpt lat="45.22431" lon="0.04585">
        <ele>50.7</ele>
        <time>2018-04-21T15:50:23Z</time>
      </trkpt>
      <trkpt lat="45.22408" lon="0.0457">
        <ele>50.9</ele>
        <time>2018-04-21T15:50:29Z</time>
      </trkpt>
      <trkpt lat="45.2219" lon="0.04237">
        <ele>42.7</ele>
        <time>2018-04-21T15:51:50Z</time>
      </trkpt>
      <trkpt lat="45.22115" lon="0.04113">
        <ele>38.5</ele>
        <time>2018-04-21T15:52:18Z</time>
      </trkpt>
      <trkpt lat="45.22095" lon="0.04076">
        <ele>37.8</ele>
        <time>2018-04-21T15:52:27Z</time>
      </trkpt>
      <trkpt lat="45.21938" lon="0.03756">
        <ele>37.6</ele>
        <time>2018-04-21T15:53:36Z</time>
      </trkpt>
      <trkpt lat="45.21916" lon="0.03711">
        <ele>37</ele>
        <time>2018-04-21T15:53:46Z</time>
      </trkpt>
      <trkpt lat="45.21884" lon="0.03391">
        <ele>36.6</ele>
        <time>2018-04-21T15:54:43Z</time>
      </trkpt>
      <trkpt lat="45.21887" lon="0.0323">
        <ele>36.1</ele>
        <time>2018-04-21T15:55:12Z</time>
      </trkpt>
      <trkpt lat="45.21913" lon="0.03158">
        <ele>34.3</ele>
        <time>2018-04-21T15:55:26Z</time>
      </trkpt>
      <trkpt lat="45.22084" lon="0.02706">
        <ele>31.8</ele>
        <time>2018-04-21T15:56:56Z</time>
      </trkpt>
      <trkpt lat="45.22085" lon="0.02594">
        <ele>34.6</ele>
        <time>2018-04-21T15:57:16Z</time>
      </trkpt>
      <trkpt lat="45.22112" lon="0.02518">
        <ele>37.7</ele>
        <time>2018-04-21T15:57:31Z</time>
      </trkpt>
      <trkpt lat="45.22197" lon="0.02433">
        <ele>42.1</ele>
        <time>2018-04-21T15:57:57Z</time>
      </trkpt>
      <trkpt lat="45.22207" lon="0.02414">
        <ele>42.3</ele>
        <time>2018-04-21T15:58:01Z</time>
      </trkpt>
      <trkpt lat="45.22221" lon="0.02368">
        <ele>48.4</ele>
        <time>2018-04-21T15:58:10Z</time>
      </trkpt>
      <trkpt lat="45.22231" lon="0.02178">
        <ele>50.5</ele>
        <time>2018-04-21T15:58:44Z</time>
      </trkpt>
      <trkpt lat="45.22259" lon="0.02094">
        <ele>54</ele>
        <time>2018-04-21T15:59:00Z</time>
      </trkpt>
      <trkpt lat="45.22258" lon="0.02089">
        <ele>54</ele>
        <time>2018-04-21T15:59:01Z</time>
      </trkpt>
      <trkpt lat="45.2231" lon="0.01855">
        <ele>58.6</ele>
        <time>2018-04-21T15:59:44Z</time>
      </trkpt>
      <trkpt lat="45.22374" lon="0.01654">
        <ele>79.9</ele>
        <time>2018-04-21T16:00:23Z</time>
      </trkpt>
      <trkpt lat="45.22379" lon="0.01627">
        <ele>80.1</ele>
        <time>2018-04-21T16:00:28Z</time>
      </trkpt>
      <trkpt lat="45.22368" lon="0.01328">
        <ele>87.5</ele>
        <time>2018-04-21T16:01:21Z</time>
      </trkpt>
      <trkpt lat="45.22355" lon="0.01253">
        <ele>86.6</ele>
        <time>2018-04-21T16:01:34Z</time>
      </trkpt>
      <trkpt lat="45.22304" lon="0.00982">
        <ele>89.9</ele>
        <time>2018-04-21T16:02:24Z</time>
      </trkpt>
      <trkpt lat="45.22304" lon="0.00982">
        <ele>89.9</ele>
        <time>2018-04-21T16:02:24Z</time>
      </trkpt>
      <trkpt lat="45.22269" lon="0.00808">
        <ele>93.2</ele>
        <time>2018-04-21T16:02:56Z</time>
      </trkpt>
      <trkpt lat="45.22205" lon="0.00653">
        <ele>94.5</ele>
        <time>2018-04-21T16:03:27Z</time>
      </trkpt>
      <trkpt lat="45.22203" lon="0.0065">
        <ele>94.6</ele>
        <time>2018-04-21T16:03:28Z</time>
      </trkpt>
      <trkpt lat="45.22112" lon="0.00583">
        <ele>94.5</ele>
        <time>2018-04-21T16:03:54Z</time>
      </trkpt>
      <trkpt lat="45.22119" lon="0.00568">
        <ele>92.9</ele>
        <time>2018-04-21T16:03:57Z</time>
      </trkpt>
      <trkpt lat="45.22156" lon="0.00562">
        <ele>94.6</ele>
        <time>2018-04-21T16:04:07Z</time>
      </trkpt>
      <trkpt lat="45.22194" lon="0.00556">
        <ele>95.6</ele>
        <time>2018-04-21T16:04:16Z</time>
      </trkpt>
      <trkpt lat="45.22226" lon="0.00579">
        <ele>95.5</ele>
        <time>2018-04-21T16:04:25Z</time>
      </trkpt>
      <trkpt lat="45.22368" lon="0.00686">
        <ele>99.5</ele>
        <time>2018-04-21T16:05:05Z</time>
      </trkpt>
      <trkpt lat="45.22374" lon="0.00697">
        <ele>99.3</ele>
        <time>2018-04-21T16:05:08Z</time>
      </trkpt>
      <trkpt lat="45.224" lon="0.00766">
        <ele>98.4</ele>
        <time>2018-04-21T16:05:22Z</time>
      </trkpt>
      <trkpt lat="45.22438" lon="0.00877">
        <ele>97.2</ele>
        <time>2018-04-21T16:05:43Z</time>
      </trkpt>
      <trkpt lat="45.22457" lon="0.00898">
        <ele>98.5</ele>
        <time>2018-04-21T16:05:49Z</time>
      </trkpt>
      <trkpt lat="45.22519" lon="0.00976">
        <ele>101.9</ele>
        <time>2018-04-21T16:06:10Z</time>
      </trkpt>
      <trkpt lat="45.22551" lon="0.00988">
        <ele>105.5</ele>
        <time>2018-04-21T16:06:18Z</time>
      </trkpt>
      <trkpt lat="45.22592" lon="0.01004">
        <ele>107.9</ele>
        <time>2018-04-21T16:06:29Z</time>
      </trkpt>
      <trkpt lat="45.22601" lon="0.01007">
        <ele>107.9</ele>
        <time>2018-04-21T16:06:31Z</time>
      </trkpt>
      <trkpt lat="45.2264" lon="0.00919">
        <ele>106.6</ele>
        <time>2018-04-21T16:06:50Z</time>
      </trkpt>
      <trkpt lat="45.2264" lon="0.00919">
        <ele>113.6</ele>
        <time>2018-04-21T16:06:50Z</time>
      </trkpt>
      <trkpt lat="45.22658" lon="0.00904">
        <ele>114.3</ele>
        <time>2018-04-21T16:06:55Z</time>
      </trkpt>
      <trkpt lat="45.22708" lon="0.0086">
        <ele>115.2</ele>
        <time>2018-04-21T16:07:10Z</time>
      </trkpt>
      <trkpt lat="45.22744" lon="0.00813">
        <ele>116.1</ele>
        <time>2018-04-21T16:07:22Z</time>
      </trkpt>
      <trkpt lat="45.22805" lon="0.00734">
        <ele>110.7</ele>
        <time>2018-04-21T16:07:43Z</time>
      </trkpt>
      <trkpt lat="45.22854" lon="0.0068">
        <ele>111.1</ele>
        <time>2018-04-21T16:07:58Z</time>
      </trkpt>
      <trkpt lat="45.2298" lon="0.00579">
        <ele>111.7</ele>
        <time>2018-04-21T16:08:35Z</time>
      </trkpt>
      <trkpt lat="45.22971" lon="0.00468">
        <ele>114.6</ele>
        <time>2018-04-21T16:08:56Z</time>
      </trkpt>
      <trkpt lat="45.22927" lon="0.00417">
        <ele>115.5</ele>
        <time>2018-04-21T16:09:10Z</time>
      </trkpt>
      <trkpt lat="45.22896" lon="0.00356">
        <ele>112.4</ele>
        <time>2018-04-21T16:09:24Z</time>
      </trkpt>
      <trkpt lat="45.229" lon="0.00359">
        <ele>112.2</ele>
        <time>2018-04-21T16:09:25Z</time>
      </trkpt>
      <trkpt lat="45.22947" lon="0.00346">
        <ele>113</ele>
        <time>2018-04-21T16:09:37Z</time>
      </trkpt>
      <trkpt lat="45.23094" lon="0.00313">
        <ele>117</ele>
        <time>2018-04-21T16:10:15Z</time>
      </trkpt>
      <trkpt lat="45.23116" lon="0.00267">
        <ele>120.7</ele>
        <time>2018-04-21T16:10:26Z</time>
      </trkpt>
      <trkpt lat="45.23116" lon="0.00234">
        <ele>121.5</ele>
        <time>2018-04-21T16:10:32Z</time>
      </trkpt>
      <trkpt lat="45.23113" lon="0.00187">
        <ele>122.5</ele>
        <time>2018-04-21T16:10:40Z</time>
      </trkpt>
      <trkpt lat="45.23051" lon="0.00075">
        <ele>121.7</ele>
        <time>2018-04-21T16:11:05Z</time>
      </trkpt>
      <trkpt lat="45.22932" lon="-8.0E-5">
        <ele>113.8</ele>
        <time>2018-04-21T16:11:38Z</time>
      </trkpt>
      <trkpt lat="45.22902" lon="-0.00067">
        <ele>111.9</ele>
        <time>2018-04-21T16:11:51Z</time>
      </trkpt>
      <trkpt lat="45.22874" lon="-0.00331">
        <ele>110.7</ele>
        <time>2018-04-21T16:12:40Z</time>
      </trkpt>
      <trkpt lat="45.22871" lon="-0.00368">
        <ele>109.6</ele>
        <time>2018-04-21T16:12:46Z</time>
      </trkpt>
      <trkpt lat="45.22838" lon="-0.0048">
        <ele>108.5</ele>
        <time>2018-04-21T16:13:08Z</time>
      </trkpt>
      <trkpt lat="45.22766" lon="-0.00597">
        <ele>107.6</ele>
        <time>2018-04-21T16:13:35Z</time>
      </trkpt>
      <trkpt lat="45.22795" lon="-0.00846">
        <ele>106.1</ele>
        <time>2018-04-21T16:14:20Z</time>
      </trkpt>
      <trkpt lat="45.22823" lon="-0.01042">
        <ele>109.8</ele>
        <time>2018-04-21T16:14:56Z</time>
      </trkpt>
      <trkpt lat="45.22827" lon="-0.01046">
        <ele>114.4</ele>
        <time>2018-04-21T16:14:58Z</time>
      </trkpt>
      <trkpt lat="45.2292" lon="-0.00975">
        <ele>108.6</ele>
        <time>2018-04-21T16:15:24Z</time>
      </trkpt>
      <trkpt lat="45.22976" lon="-0.00855">
        <ele>104</ele>
        <time>2018-04-21T16:15:50Z</time>
      </trkpt>
      <trkpt lat="45.23193" lon="-0.00646">
        <ele>90.5</ele>
        <time>2018-04-21T16:16:55Z</time>
      </trkpt>
      <trkpt lat="45.2326" lon="-0.00597">
        <ele>90.4</ele>
        <time>2018-04-21T16:17:14Z</time>
      </trkpt>
      <trkpt lat="45.23307" lon="-0.00487">
        <ele>90.2</ele>
        <time>2018-04-21T16:17:37Z</time>
      </trkpt>
      <trkpt lat="45.23325" lon="-0.00451">
        <ele>88.8</ele>
        <time>2018-04-21T16:17:45Z</time>
      </trkpt>
      <trkpt lat="45.23374" lon="-0.00527">
        <ele>99.7</ele>
        <time>2018-04-21T16:18:03Z</time>
      </trkpt>
      <trkpt lat="45.23475" lon="-0.00676">
        <ele>117.9</ele>
        <time>2018-04-21T16:18:39Z</time>
      </trkpt>
      <trkpt lat="45.23478" lon="-0.00709">
        <ele>118</ele>
        <time>2018-04-21T16:18:45Z</time>
      </trkpt>
      <trkpt lat="45.23504" lon="-0.0079">
        <ele>123.1</ele>
        <time>2018-04-21T16:19:01Z</time>
      </trkpt>
      <trkpt lat="45.23523" lon="-0.00903">
        <ele>127</ele>
        <time>2018-04-21T16:19:21Z</time>
      </trkpt>
      <trkpt lat="45.23532" lon="-0.00928">
        <ele>128.3</ele>
        <time>2018-04-21T16:19:26Z</time>
      </trkpt>
      <trkpt lat="45.23534" lon="-0.00935">
        <ele>129.6</ele>
        <time>2018-04-21T16:19:27Z</time>
      </trkpt>
      <trkpt lat="45.23443" lon="-0.01038">
        <ele>115.9</ele>
        <time>2018-04-21T16:19:58Z</time>
      </trkpt>
      <trkpt lat="45.23443" lon="-0.01038">
        <ele>115.9</ele>
        <time>2018-04-21T16:19:58Z</time>
      </trkpt>
      <trkpt lat="45.23443" lon="-0.01038">
        <ele>115.9</ele>
        <time>2018-04-21T16:19:58Z</time>
      </trkpt>
      <trkpt lat="45.23626" lon="-0.01421">
        <ele>103</ele>
        <time>2018-04-21T16:21:19Z</time>
      </trkpt>
      <trkpt lat="45.23647" lon="-0.01463">
        <ele>96.3</ele>
        <time>2018-04-21T16:21:28Z</time>
      </trkpt>
      <trkpt lat="45.23803" lon="-0.0163">
        <ele>90.4</ele>
        <time>2018-04-21T16:22:18Z</time>
      </trkpt>
      <trkpt lat="45.23844" lon="-0.01675">
        <ele>87.1</ele>
        <time>2018-04-21T16:22:31Z</time>
      </trkpt>
      <trkpt lat="45.23919" lon="-0.01762">
        <ele>76.2</ele>
        <time>2018-04-21T16:22:55Z</time>
      </trkpt>
      <trkpt lat="45.23891" lon="-0.0181">
        <ele>78</ele>
        <time>2018-04-21T16:23:06Z</time>
      </trkpt>
      <trkpt lat="45.23761" lon="-0.01907">
        <ele>81.5</ele>
        <time>2018-04-21T16:23:43Z</time>
      </trkpt>
      <trkpt lat="45.23672" lon="-0.01974">
        <ele>81.8</ele>
        <time>2018-04-21T16:24:08Z</time>
      </trkpt>
      <trkpt lat="45.23662" lon="-0.02021">
        <ele>81.4</ele>
        <time>2018-04-21T16:24:17Z</time>
      </trkpt>
      <trkpt lat="45.23649" lon="-0.02093">
        <ele>81.4</ele>
        <time>2018-04-21T16:24:30Z</time>
      </trkpt>
      <trkpt lat="45.23663" lon="-0.02194">
        <ele>84.8</ele>
        <time>2018-04-21T16:24:48Z</time>
      </trkpt>
      <trkpt lat="45.23666" lon="-0.02194">
        <ele>83.5</ele>
        <time>2018-04-21T16:24:49Z</time>
      </trkpt>
      <trkpt lat="45.23666" lon="-0.02194">
        <ele>83.5</ele>
        <time>2018-04-21T16:24:49Z</time>
      </trkpt>
      <trkpt lat="45.23721" lon="-0.02193">
        <ele>81.9</ele>
        <time>2018-04-21T16:25:03Z</time>
      </trkpt>
      <trkpt lat="45.23749" lon="-0.02186">
        <ele>79</ele>
        <time>2018-04-21T16:25:12Z</time>
      </trkpt>
      <trkpt lat="45.23874" lon="-0.02212">
        <ele>78.5</ele>
        <time>2018-04-21T16:25:46Z</time>
      </trkpt>
      <trkpt lat="45.23862" lon="-0.02329">
        <ele>78.7</ele>
        <time>2018-04-21T16:26:07Z</time>
      </trkpt>
      <trkpt lat="45.23843" lon="-0.02413">
        <ele>82.3</ele>
        <time>2018-04-21T16:26:24Z</time>
      </trkpt>
      <trkpt lat="45.2385" lon="-0.02418">
        <ele>87.8</ele>
        <time>2018-04-21T16:26:26Z</time>
      </trkpt>
      <trkpt lat="45.23854" lon="-0.02419">
        <ele>87.7</ele>
        <time>2018-04-21T16:26:27Z</time>
      </trkpt>
      <trkpt lat="45.23854" lon="-0.02421">
        <ele>76</ele>
        <time>2018-04-21T16:26:27Z</time>
      </trkpt>
      <trkpt lat="45.23854" lon="-0.02419">
        <ele>87.7</ele>
        <time>2018-04-21T16:26:28Z</time>
      </trkpt>
      <trkpt lat="45.239" lon="-0.02363">
        <ele>86.1</ele>
        <time>2018-04-21T16:26:43Z</time>
      </trkpt>
      <trkpt lat="45.23909" lon="-0.02349">
        <ele>81</ele>
        <time>2018-04-21T16:26:46Z</time>
      </trkpt>
      <trkpt lat="45.23982" lon="-0.02284">
        <ele>80</ele>
        <time>2018-04-21T16:27:12Z</time>
      </trkpt>
      <trkpt lat="45.24042" lon="-0.0223">
        <ele>78.5</ele>
        <time>2018-04-21T16:27:30Z</time>
      </trkpt>
      <trkpt lat="45.24045" lon="-0.02229">
        <ele>78.3</ele>
        <time>2018-04-21T16:27:31Z</time>
      </trkpt>
      <trkpt lat="45.24119" lon="-0.02374">
        <ele>77.9</ele>
        <time>2018-04-21T16:28:03Z</time>
      </trkpt>
      <trkpt lat="45.24153" lon="-0.02477">
        <ele>85.8</ele>
        <time>2018-04-21T16:28:23Z</time>
      </trkpt>
      <trkpt lat="45.24167" lon="-0.02478">
        <ele>87.1</ele>
        <time>2018-04-21T16:28:27Z</time>
      </trkpt>
      <trkpt lat="45.24185" lon="-0.02469">
        <ele>75.9</ele>
        <time>2018-04-21T16:28:32Z</time>
      </trkpt>
      <trkpt lat="45.24184" lon="-0.02466">
        <ele>87.2</ele>
        <time>2018-04-21T16:28:32Z</time>
      </trkpt>
      <trkpt lat="45.24189" lon="-0.02381">
        <ele>87.4</ele>
        <time>2018-04-21T16:28:49Z</time>
      </trkpt>
      <trkpt lat="45.24179" lon="-0.02127">
        <ele>81.3</ele>
        <time>2018-04-21T16:29:35Z</time>
      </trkpt>
      <trkpt lat="45.24147" lon="-0.02063">
        <ele>80.4</ele>
        <time>2018-04-21T16:29:49Z</time>
      </trkpt>
      <trkpt lat="45.24147" lon="-0.02051">
        <ele>80.4</ele>
        <time>2018-04-21T16:29:51Z</time>
      </trkpt>
      <trkpt lat="45.24146" lon="-0.02041">
        <ele>80.3</ele>
        <time>2018-04-21T16:29:53Z</time>
      </trkpt>
      <trkpt lat="45.24212" lon="-0.0193">
        <ele>79.9</ele>
        <time>2018-04-21T16:30:19Z</time>
      </trkpt>
      <trkpt lat="45.24237" lon="-0.0196">
        <ele>83.2</ele>
        <time>2018-04-21T16:30:29Z</time>
      </trkpt>
      <trkpt lat="45.24301" lon="-0.02081">
        <ele>91.4</ele>
        <time>2018-04-21T16:30:56Z</time>
      </trkpt>
      <trkpt lat="45.24344" lon="-0.02159">
        <ele>101.6</ele>
        <time>2018-04-21T16:31:14Z</time>
      </trkpt>
      <trkpt lat="45.24369" lon="-0.02197">
        <ele>102.4</ele>
        <time>2018-04-21T16:31:23Z</time>
      </trkpt>
      <trkpt lat="45.24394" lon="-0.02239">
        <ele>96.6</ele>
        <time>2018-04-21T16:31:33Z</time>
      </trkpt>
      <trkpt lat="45.24392" lon="-0.0224">
        <ele>104.7</ele>
        <time>2018-04-21T16:31:33Z</time>
      </trkpt>
      <trkpt lat="45.24445" lon="-0.02477">
        <ele>109.2</ele>
        <time>2018-04-21T16:32:17Z</time>
      </trkpt>
      <trkpt lat="45.2445" lon="-0.02492">
        <ele>109.3</ele>
        <time>2018-04-21T16:32:20Z</time>
      </trkpt>
      <trkpt lat="45.24452" lon="-0.02512">
        <ele>112.8</ele>
        <time>2018-04-21T16:32:24Z</time>
      </trkpt>
      <trkpt lat="45.24449" lon="-0.02595">
        <ele>118.4</ele>
        <time>2018-04-21T16:32:39Z</time>
      </trkpt>
      <trkpt lat="45.24452" lon="-0.02597">
        <ele>118.4</ele>
        <time>2018-04-21T16:32:40Z</time>
      </trkpt>
      <trkpt lat="45.24434" lon="-0.02956">
        <ele>128.2</ele>
        <time>2018-04-21T16:33:44Z</time>
      </trkpt>
      <trkpt lat="45.24419" lon="-0.03046">
        <ele>126.6</ele>
        <time>2018-04-21T16:34:00Z</time>
      </trkpt>
      <trkpt lat="45.24419" lon="-0.03046">
        <ele>126.6</ele>
        <time>2018-04-21T16:34:00Z</time>
      </trkpt>
      <trkpt lat="45.24361" lon="-0.03393">
        <ele>122.5</ele>
        <time>2018-04-21T16:35:04Z</time>
      </trkpt>
      <trkpt lat="45.24373" lon="-0.03631">
        <ele>116.5</ele>
        <time>2018-04-21T16:35:46Z</time>
      </trkpt>
      <trkpt lat="45.24382" lon="-0.03725">
        <ele>116.5</ele>
        <time>2018-04-21T16:36:03Z</time>
      </trkpt>
      <trkpt lat="45.24382" lon="-0.03725">
        <ele>112.5</ele>
        <time>2018-04-21T16:36:03Z</time>
      </trkpt>
      <trkpt lat="45.24382" lon="-0.03725">
        <ele>112.5</ele>
        <time>2018-04-21T16:36:03Z</time>
      </trkpt>
      <trkpt lat="45.24382" lon="-0.03725">
        <ele>116.5</ele>
        <time>2018-04-21T16:36:03Z</time>
      </trkpt>
      <trkpt lat="45.24398" lon="-0.03843">
        <ele>121.6</ele>
        <time>2018-04-21T16:36:24Z</time>
      </trkpt>
      <trkpt lat="45.24591" lon="-0.0396">
        <ele>125.8</ele>
        <time>2018-04-21T16:37:17Z</time>
      </trkpt>
      <trkpt lat="45.24591" lon="-0.03961">
        <ele>125</ele>
        <time>2018-04-21T16:37:17Z</time>
      </trkpt>
      <trkpt lat="45.24404" lon="-0.03846">
        <ele>125.8</ele>
        <time>2018-04-21T16:38:08Z</time>
      </trkpt>
      <trkpt lat="45.24648" lon="-0.03994">
        <ele>130</ele>
        <time>2018-04-21T16:39:15Z</time>
      </trkpt>
      <trkpt lat="45.24679" lon="-0.04027">
        <ele>130.3</ele>
        <time>2018-04-21T16:39:24Z</time>
      </trkpt>
      <trkpt lat="45.24806" lon="-0.04509">
        <ele>126.3</ele>
        <time>2018-04-21T16:40:57Z</time>
      </trkpt>
      <trkpt lat="45.24806" lon="-0.04509">
        <ele>126.3</ele>
        <time>2018-04-21T16:40:57Z</time>
      </trkpt>
      <trkpt lat="45.24845" lon="-0.04644">
        <ele>126.3</ele>
        <time>2018-04-21T16:41:23Z</time>
      </trkpt>
      <trkpt lat="45.24877" lon="-0.05117">
        <ele>125.2</ele>
        <time>2018-04-21T16:42:49Z</time>
      </trkpt>
      <trkpt lat="45.24863" lon="-0.0518">
        <ele>123.4</ele>
        <time>2018-04-21T16:43:01Z</time>
      </trkpt>
      <trkpt lat="45.24832" lon="-0.05244">
        <ele>123.9</ele>
        <time>2018-04-21T16:43:14Z</time>
      </trkpt>
      <trkpt lat="45.24748" lon="-0.0543">
        <ele>124.3</ele>
        <time>2018-04-21T16:43:54Z</time>
      </trkpt>
      <trkpt lat="45.24661" lon="-0.05703">
        <ele>121.6</ele>
        <time>2018-04-21T16:44:46Z</time>
      </trkpt>
      <trkpt lat="45.24655" lon="-0.05742">
        <ele>120.2</ele>
        <time>2018-04-21T16:44:54Z</time>
      </trkpt>
      <trkpt lat="45.24673" lon="-0.05995">
        <ele>117.3</ele>
        <time>2018-04-21T16:45:38Z</time>
      </trkpt>
      <trkpt lat="45.24676" lon="-0.06035">
        <ele>115.5</ele>
        <time>2018-04-21T16:45:46Z</time>
      </trkpt>
      <trkpt lat="45.24675" lon="-0.06064">
        <ele>115.5</ele>
        <time>2018-04-21T16:45:51Z</time>
      </trkpt>
      <trkpt lat="45.24623" lon="-0.06483">
        <ele>118</ele>
        <time>2018-04-21T16:47:07Z</time>
      </trkpt>
      <trkpt lat="45.24663" lon="-0.06764">
        <ele>124.4</ele>
        <time>2018-04-21T16:47:58Z</time>
      </trkpt>
      <trkpt lat="45.24665" lon="-0.06789">
        <ele>123.7</ele>
        <time>2018-04-21T16:48:03Z</time>
      </trkpt>
      <trkpt lat="45.24663" lon="-0.06861">
        <ele>122.7</ele>
        <time>2018-04-21T16:48:15Z</time>
      </trkpt>
      <trkpt lat="45.24657" lon="-0.07021">
        <ele>116.3</ele>
        <time>2018-04-21T16:48:44Z</time>
      </trkpt>
      <trkpt lat="45.24654" lon="-0.07059">
        <ele>113.1</ele>
        <time>2018-04-21T16:48:51Z</time>
      </trkpt>
      <trkpt lat="45.24649" lon="-0.07086">
        <ele>112.8</ele>
        <time>2018-04-21T16:48:56Z</time>
      </trkpt>
      <trkpt lat="45.2458" lon="-0.07274">
        <ele>114</ele>
        <time>2018-04-21T16:49:34Z</time>
      </trkpt>
      <trkpt lat="45.24585" lon="-0.07422">
        <ele>118</ele>
        <time>2018-04-21T16:50:01Z</time>
      </trkpt>
      <trkpt lat="45.24567" lon="-0.07669">
        <ele>119.1</ele>
        <time>2018-04-21T16:50:45Z</time>
      </trkpt>
      <trkpt lat="45.24594" lon="-0.07992">
        <ele>116.8</ele>
        <time>2018-04-21T16:51:43Z</time>
      </trkpt>
      <trkpt lat="45.24607" lon="-0.08088">
        <ele>117.3</ele>
        <time>2018-04-21T16:52:00Z</time>
      </trkpt>
      <trkpt lat="45.24707" lon="-0.08332">
        <ele>114.1</ele>
        <time>2018-04-21T16:52:50Z</time>
      </trkpt>
      <trkpt lat="45.24707" lon="-0.08353">
        <ele>114</ele>
        <time>2018-04-21T16:52:54Z</time>
      </trkpt>
      <trkpt lat="45.24649" lon="-0.08793">
        <ele>105.4</ele>
        <time>2018-04-21T16:54:13Z</time>
      </trkpt>
      <trkpt lat="45.24634" lon="-0.08916">
        <ele>105.8</ele>
        <time>2018-04-21T16:54:35Z</time>
      </trkpt>
      <trkpt lat="45.24644" lon="-0.09148">
        <ele>110.8</ele>
        <time>2018-04-21T16:55:16Z</time>
      </trkpt>
      <trkpt lat="45.2466" lon="-0.09365">
        <ele>110.4</ele>
        <time>2018-04-21T16:55:55Z</time>
      </trkpt>
      <trkpt lat="45.24694" lon="-0.09672">
        <ele>105.1</ele>
        <time>2018-04-21T16:56:50Z</time>
      </trkpt>
      <trkpt lat="45.24697" lon="-0.09719">
        <ele>104.8</ele>
        <time>2018-04-21T16:56:58Z</time>
      </trkpt>
      <trkpt lat="45.2469" lon="-0.09777">
        <ele>102.5</ele>
        <time>2018-04-21T16:57:08Z</time>
      </trkpt>
      <trkpt lat="45.24678" lon="-0.09844">
        <ele>104.4</ele>
        <time>2021-11-10T12:43:51Z</time>
      </trkpt>
      <trkpt lat="45.2468" lon="-0.09993">
        <ele>105.8</ele>
        <time>2021-11-10T12:43:44Z</time>
      </trkpt>
      <trkpt lat="45.24689" lon="-0.10129">
        <ele>108.6</ele>
        <time>2021-11-10T12:43:37Z</time>
      </trkpt>
      <trkpt lat="45.24695" lon="-0.10137">
        <ele>107.2</ele>
        <time>2021-11-10T12:43:25Z</time>
      </trkpt>
      <trkpt lat="45.24695" lon="-0.10137">
        <ele>90.3</ele>
        <time>2021-11-10T12:43:03Z</time>
      </trkpt>
      <trkpt lat="45.24694" lon="-0.10137">
        <ele>90.2</ele>
        <time>2021-11-10T12:42:59Z</time>
      </trkpt>
      <trkpt lat="45.24693" lon="-0.10137">
        <ele>90.2</ele>
        <time>2021-11-10T12:42:56Z</time>
      </trkpt>
      <trkpt lat="45.24833" lon="-0.10137">
        <ele>90.2</ele>
        <time>2021-11-10T12:42:41Z</time>
      </trkpt>
      <trkpt lat="45.2487" lon="-0.10138">
        <ele>90.2</ele>
        <time>2021-11-10T12:42:38Z</time>
      </trkpt>
      <trkpt lat="45.25072" lon="-0.10223">
        <ele>90.2</ele>
        <time>2021-11-10T12:42:19Z</time>
      </trkpt>
      <trkpt lat="45.25113" lon="-0.10244">
        <ele>90.3</ele>
        <time>2021-11-10T12:42:16Z</time>
      </trkpt>
      <trkpt lat="45.25188" lon="-0.10254">
        <ele>90.8</ele>
        <time>2021-11-10T12:42:01Z</time>
      </trkpt>
      <trkpt lat="45.25187" lon="-0.10268">
        <ele>86.1</ele>
        <time>2021-11-10T12:41:54Z</time>
      </trkpt>
      <trkpt lat="45.2518" lon="-0.10304">
        <ele>83.1</ele>
        <time>2021-11-10T12:41:51Z</time>
      </trkpt>
      <trkpt lat="45.25188" lon="-0.1038">
        <ele>78.2</ele>
        <time>2021-11-10T12:41:47Z</time>
      </trkpt>
      <trkpt lat="45.25221" lon="-0.1052">
        <ele>73.5</ele>
        <time>2021-11-10T12:41:40Z</time>
      </trkpt>
      <trkpt lat="45.25258" lon="-0.10665">
        <ele>69</ele>
        <time>2021-11-10T12:41:33Z</time>
      </trkpt>
      <trkpt lat="45.25291" lon="-0.10817">
        <ele>65.7</ele>
        <time>2021-11-10T12:41:25Z</time>
      </trkpt>
      <trkpt lat="45.25294" lon="-0.10856">
        <ele>66.1</ele>
        <time>2021-11-10T12:41:22Z</time>
      </trkpt>
      <trkpt lat="45.25314" lon="-0.10874">
        <ele>69.8</ele>
        <time>2021-11-10T12:41:15Z</time>
      </trkpt>
      <trkpt lat="45.25388" lon="-0.10854">
        <ele>72.8</ele>
        <time>2021-11-10T12:41:07Z</time>
      </trkpt>
      <trkpt lat="45.25461" lon="-0.10859">
        <ele>66.9</ele>
        <time>2021-11-10T12:40:59Z</time>
      </trkpt>
      <trkpt lat="45.25482" lon="-0.10854">
        <ele>63.7</ele>
        <time>2021-11-10T12:40:56Z</time>
      </trkpt>
      <trkpt lat="45.25497" lon="-0.10876">
        <ele>59.3</ele>
        <time>2021-11-10T12:40:52Z</time>
      </trkpt>
      <trkpt lat="45.25506" lon="-0.10896">
        <ele>55.3</ele>
        <time>2021-11-10T12:40:49Z</time>
      </trkpt>
      <trkpt lat="45.2552" lon="-0.10921">
        <ele>52.2</ele>
        <time>2021-11-10T12:40:45Z</time>
      </trkpt>
      <trkpt lat="45.2559" lon="-0.11025">
        <ele>48.5</ele>
        <time>2021-11-10T12:40:37Z</time>
      </trkpt>
      <trkpt lat="45.25607" lon="-0.11064">
        <ele>49.1</ele>
        <time>2021-11-10T12:40:34Z</time>
      </trkpt>
      <trkpt lat="45.25655" lon="-0.11127">
        <ele>54</ele>
        <time>2021-11-10T12:40:27Z</time>
      </trkpt>
      <trkpt lat="45.25705" lon="-0.11122">
        <ele>57.1</ele>
        <time>2021-11-10T12:40:21Z</time>
      </trkpt>
      <trkpt lat="45.25786" lon="-0.11093">
        <ele>57.6</ele>
        <time>2021-11-10T12:40:10Z</time>
      </trkpt>
      <trkpt lat="45.25798" lon="-0.1109">
        <ele>57.6</ele>
        <time>2021-11-10T12:40:07Z</time>
      </trkpt>
      <trkpt lat="45.25805" lon="-0.11088">
        <ele>56.1</ele>
        <time>2021-11-10T12:39:53Z</time>
      </trkpt>
      <trkpt lat="45.25742" lon="-0.11218">
        <ele>54.9</ele>
        <time>2021-11-10T12:39:40Z</time>
      </trkpt>
      <trkpt lat="45.25615" lon="-0.11401">
        <ele>56.2</ele>
        <time>2021-11-10T12:39:29Z</time>
      </trkpt>
      <trkpt lat="45.25533" lon="-0.11528">
        <ele>60.2</ele>
        <time>2021-11-10T12:39:22Z</time>
      </trkpt>
      <trkpt lat="45.25491" lon="-0.11592">
        <ele>62.7</ele>
        <time>2021-11-10T12:39:19Z</time>
      </trkpt>
      <trkpt lat="45.25365" lon="-0.1197">
        <ele>62.2</ele>
        <time>2021-11-10T12:39:04Z</time>
      </trkpt>
      <trkpt lat="45.25404" lon="-0.12015">
        <ele>62.4</ele>
        <time>2021-11-10T12:38:53Z</time>
      </trkpt>
      <trkpt lat="45.25546" lon="-0.12104">
        <ele>66.5</ele>
        <time>2021-11-10T12:38:43Z</time>
      </trkpt>
      <trkpt lat="45.25593" lon="-0.12126">
        <ele>67</ele>
        <time>2021-11-10T12:38:39Z</time>
      </trkpt>
      <trkpt lat="45.25552" lon="-0.12219">
        <ele>68.2</ele>
        <time>2021-11-10T12:38:29Z</time>
      </trkpt>
      <trkpt lat="45.25489" lon="-0.12333">
        <ele>70.4</ele>
        <time>2021-11-10T12:38:22Z</time>
      </trkpt>
      <trkpt lat="45.25488" lon="-0.12348">
        <ele>80.6</ele>
        <time>2021-11-10T12:37:54Z</time>
      </trkpt>
      <trkpt lat="45.25487" lon="-0.12346">
        <ele>80.6</ele>
        <time>2021-11-10T12:37:50Z</time>
      </trkpt>
      <trkpt lat="45.25488" lon="-0.12344">
        <ele>75</ele>
        <time>2021-11-10T12:37:44Z</time>
      </trkpt>
      <trkpt lat="45.2548" lon="-0.12354">
        <ele>72.2</ele>
        <time>2021-11-10T12:37:40Z</time>
      </trkpt>
      <trkpt lat="45.25397" lon="-0.12459">
        <ele>68.2</ele>
        <time>2021-11-10T12:37:32Z</time>
      </trkpt>
      <trkpt lat="45.2532" lon="-0.12523">
        <ele>65.3</ele>
        <time>2021-11-10T12:37:25Z</time>
      </trkpt>
      <trkpt lat="45.25314" lon="-0.12526">
        <ele>63.5</ele>
        <time>2021-11-10T12:37:14Z</time>
      </trkpt>
      <trkpt lat="45.25314" lon="-0.12526">
        <ele>63.5</ele>
        <time>2021-11-10T12:37:02Z</time>
      </trkpt>
      <trkpt lat="45.25322" lon="-0.12575">
        <ele>66.9</ele>
        <time>2021-11-10T12:36:50Z</time>
      </trkpt>
      <trkpt lat="45.25374" lon="-0.12683">
        <ele>73.1</ele>
        <time>2021-11-10T12:36:42Z</time>
      </trkpt>
      <trkpt lat="45.25415" lon="-0.12753">
        <ele>78.8</ele>
        <time>2021-11-10T12:36:38Z</time>
      </trkpt>
      <trkpt lat="45.25444" lon="-0.12805">
        <ele>81.8</ele>
        <time>2021-11-10T12:36:35Z</time>
      </trkpt>
      <trkpt lat="45.25488" lon="-0.12879">
        <ele>85.6</ele>
        <time>2021-11-10T12:36:31Z</time>
      </trkpt>
      <trkpt lat="45.25522" lon="-0.12932">
        <ele>89.7</ele>
        <time>2021-11-10T12:36:28Z</time>
      </trkpt>
      <trkpt lat="45.25599" lon="-0.13053">
        <ele>92.7</ele>
        <time>2021-11-10T12:36:21Z</time>
      </trkpt>
      <trkpt lat="45.25645" lon="-0.13111">
        <ele>92.6</ele>
        <time>2021-11-10T12:36:18Z</time>
      </trkpt>
      <trkpt lat="45.25797" lon="-0.13169">
        <ele>91.2</ele>
        <time>2021-11-10T12:36:11Z</time>
      </trkpt>
      <trkpt lat="45.25913" lon="-0.13235">
        <ele>94.5</ele>
        <time>2021-11-10T12:36:04Z</time>
      </trkpt>
      <trkpt lat="45.25972" lon="-0.13282">
        <ele>94.2</ele>
        <time>2021-11-10T12:36:00Z</time>
      </trkpt>
      <trkpt lat="45.2613" lon="-0.13511">
        <ele>97.4</ele>
        <time>2021-11-10T12:35:49Z</time>
      </trkpt>
      <trkpt lat="45.26175" lon="-0.13591">
        <ele>98.7</ele>
        <time>2021-11-10T12:35:46Z</time>
      </trkpt>
      <trkpt lat="45.26339" lon="-0.13682">
        <ele>100.5</ele>
        <time>2021-11-10T12:35:35Z</time>
      </trkpt>
      <trkpt lat="45.26341" lon="-0.1368">
        <ele>97.4</ele>
        <time>2021-11-10T12:35:25Z</time>
      </trkpt>
      <trkpt lat="45.2634" lon="-0.13681">
        <ele>98.1</ele>
        <time>2021-11-10T12:34:56Z</time>
      </trkpt>
      <trkpt lat="45.26409" lon="-0.13552">
        <ele>102.9</ele>
        <time>2021-11-10T12:34:41Z</time>
      </trkpt>
      <trkpt lat="45.26429" lon="-0.13514">
        <ele>102.1</ele>
        <time>2021-11-10T12:34:38Z</time>
      </trkpt>
      <trkpt lat="45.26445" lon="-0.13483">
        <ele>101.1</ele>
        <time>2021-11-10T12:34:34Z</time>
      </trkpt>
      <trkpt lat="45.26446" lon="-0.13476">
        <ele>100.6</ele>
        <time>2021-11-10T12:34:27Z</time>
      </trkpt>
      <trkpt lat="45.26444" lon="-0.13486">
        <ele>99</ele>
        <time>2021-11-10T12:34:17Z</time>
      </trkpt>
      <trkpt lat="45.26444" lon="-0.13484">
        <ele>99.4</ele>
        <time>2021-11-10T12:33:39Z</time>
      </trkpt>
      <trkpt lat="45.26444" lon="-0.13484">
        <ele>99.1</ele>
        <time>2021-11-10T12:02:49Z</time>
      </trkpt>
      <trkpt lat="45.26442" lon="-0.13482">
        <ele>100.1</ele>
        <time>2021-11-10T12:03:16Z</time>
      </trkpt>
      <trkpt lat="45.26442" lon="-0.13482">
        <ele>100.2</ele>
        <time>2021-11-10T12:03:37Z</time>
      </trkpt>
      <trkpt lat="45.26436" lon="-0.13476">
        <ele>105.5</ele>
        <time>2021-11-10T12:03:40Z</time>
      </trkpt>
      <trkpt lat="45.26424" lon="-0.13459">
        <ele>106</ele>
        <time>2021-11-10T12:03:43Z</time>
      </trkpt>
      <trkpt lat="45.26402" lon="-0.13428">
        <ele>103.4</ele>
        <time>2021-11-10T12:03:47Z</time>
      </trkpt>
      <trkpt lat="45.26379" lon="-0.13402">
        <ele>97.9</ele>
        <time>2021-11-10T12:03:51Z</time>
      </trkpt>
      <trkpt lat="45.2636" lon="-0.13375">
        <ele>96</ele>
        <time>2021-11-10T12:03:54Z</time>
      </trkpt>
      <trkpt lat="45.26324" lon="-0.13327">
        <ele>92.7</ele>
        <time>2021-11-10T12:04:01Z</time>
      </trkpt>
      <trkpt lat="45.26317" lon="-0.13308">
        <ele>89</ele>
        <time>2021-11-10T12:04:05Z</time>
      </trkpt>
      <trkpt lat="45.26323" lon="-0.13285">
        <ele>89.1</ele>
        <time>2021-11-10T12:04:08Z</time>
      </trkpt>
      <trkpt lat="45.26338" lon="-0.13237">
        <ele>88.3</ele>
        <time>2021-11-10T12:04:16Z</time>
      </trkpt>
      <trkpt lat="45.26345" lon="-0.13205">
        <ele>87.8</ele>
        <time>2021-11-10T12:04:20Z</time>
      </trkpt>
      <trkpt lat="45.26355" lon="-0.13138">
        <ele>90</ele>
        <time>2021-11-10T12:04:28Z</time>
      </trkpt>
      <trkpt lat="45.2636" lon="-0.13087">
        <ele>90.9</ele>
        <time>2021-11-10T12:04:35Z</time>
      </trkpt>
      <trkpt lat="45.26359" lon="-0.12949">
        <ele>87.4</ele>
        <time>2021-11-10T12:04:55Z</time>
      </trkpt>
      <trkpt lat="45.26357" lon="-0.1293">
        <ele>86.9</ele>
        <time>2021-11-10T12:04:59Z</time>
      </trkpt>
      <trkpt lat="45.26362" lon="-0.12855">
        <ele>82.5</ele>
        <time>2021-11-10T12:05:12Z</time>
      </trkpt>
      <trkpt lat="45.26365" lon="-0.1283">
        <ele>78.4</ele>
        <time>2021-11-10T12:05:16Z</time>
      </trkpt>
      <trkpt lat="45.26369" lon="-0.12806">
        <ele>73.5</ele>
        <time>2021-11-10T12:05:20Z</time>
      </trkpt>
      <trkpt lat="45.26371" lon="-0.12788">
        <ele>72.5</ele>
        <time>2021-11-10T12:05:27Z</time>
      </trkpt>
      <trkpt lat="45.2637" lon="-0.12787">
        <ele>73.6</ele>
        <time>2021-11-10T12:05:34Z</time>
      </trkpt>
      <trkpt lat="45.2637" lon="-0.12787">
        <ele>72.5</ele>
        <time>2021-11-10T12:06:02Z</time>
      </trkpt>
      <trkpt lat="45.2637" lon="-0.12784">
        <ele>77.6</ele>
        <time>2021-11-10T12:06:17Z</time>
      </trkpt>
      <trkpt lat="45.26372" lon="-0.12767">
        <ele>77.2</ele>
        <time>2021-11-10T12:06:20Z</time>
      </trkpt>
      <trkpt lat="45.26368" lon="-0.12739">
        <ele>73.3</ele>
        <time>2021-11-10T12:06:27Z</time>
      </trkpt>
      <trkpt lat="45.26368" lon="-0.12724">
        <ele>66.5</ele>
        <time>2021-11-10T12:06:31Z</time>
      </trkpt>
      <trkpt lat="45.26367" lon="-0.12712">
        <ele>61.4</ele>
        <time>2021-11-10T12:06:34Z</time>
      </trkpt>
      <trkpt lat="45.26359" lon="-0.12701">
        <ele>56.5</ele>
        <time>2021-11-10T12:06:37Z</time>
      </trkpt>
      <trkpt lat="45.26351" lon="-0.1269">
        <ele>52.9</ele>
        <time>2021-11-10T12:06:41Z</time>
      </trkpt>
      <trkpt lat="45.26341" lon="-0.1266">
        <ele>46.9</ele>
        <time>2021-11-10T12:06:47Z</time>
      </trkpt>
      <trkpt lat="45.26342" lon="-0.12642">
        <ele>45.2</ele>
        <time>2021-11-10T12:06:50Z</time>
      </trkpt>
      <trkpt lat="45.26341" lon="-0.12624">
        <ele>44.9</ele>
        <time>2021-11-10T12:06:54Z</time>
      </trkpt>
      <trkpt lat="45.26325" lon="-0.12544">
        <ele>48.7</ele>
        <time>2021-11-10T12:07:04Z</time>
      </trkpt>
      <trkpt lat="45.26344" lon="-0.12481">
        <ele>44.4</ele>
        <time>2021-11-10T12:07:17Z</time>
      </trkpt>
      <trkpt lat="45.26346" lon="-0.12455">
        <ele>44.3</ele>
        <time>2021-11-10T12:07:21Z</time>
      </trkpt>
      <trkpt lat="45.26354" lon="-0.1242">
        <ele>42</ele>
        <time>2021-11-10T12:07:27Z</time>
      </trkpt>
      <trkpt lat="45.26346" lon="-0.12405">
        <ele>57.1</ele>
        <time>2021-11-10T12:15:08Z</time>
      </trkpt>
      <trkpt lat="45.26392" lon="-0.12438">
        <ele>60.9</ele>
        <time>2021-11-10T12:15:16Z</time>
      </trkpt>
      <trkpt lat="45.26435" lon="-0.12527">
        <ele>55.7</ele>
        <time>2021-11-10T12:15:28Z</time>
      </trkpt>
      <trkpt lat="45.26438" lon="-0.12569">
        <ele>54.3</ele>
        <time>2021-11-10T12:15:35Z</time>
      </trkpt>
      <trkpt lat="45.2644" lon="-0.1258">
        <ele>53.9</ele>
        <time>2021-11-10T12:16:05Z</time>
      </trkpt>
      <trkpt lat="45.2644" lon="-0.1258">
        <ele>52.9</ele>
        <time>2021-11-10T12:16:42Z</time>
      </trkpt>
      <trkpt lat="45.26441" lon="-0.12583">
        <ele>62.3</ele>
        <time>2021-11-10T12:19:32Z</time>
      </trkpt>
      <trkpt lat="45.26463" lon="-0.12587">
        <ele>62.3</ele>
        <time>2021-11-10T12:19:42Z</time>
      </trkpt>
      <trkpt lat="45.26489" lon="-0.12564">
        <ele>65.4</ele>
        <time>2021-11-10T12:19:49Z</time>
      </trkpt>
      <trkpt lat="45.26497" lon="-0.1254">
        <ele>68.7</ele>
        <time>2021-11-10T12:19:55Z</time>
      </trkpt>
      <trkpt lat="45.26509" lon="-0.12524">
        <ele>68.1</ele>
        <time>2021-11-10T12:19:59Z</time>
      </trkpt>
      <trkpt lat="45.26536" lon="-0.1247">
        <ele>67.2</ele>
        <time>2021-11-10T12:20:12Z</time>
      </trkpt>
      <trkpt lat="45.26549" lon="-0.12455">
        <ele>66</ele>
        <time>2021-11-10T12:20:20Z</time>
      </trkpt>
      <trkpt lat="45.26622" lon="-0.12477">
        <ele>66</ele>
        <time>2021-11-10T12:20:50Z</time>
      </trkpt>
      <trkpt lat="45.26631" lon="-0.12504">
        <ele>69.9</ele>
        <time>2021-11-10T12:20:53Z</time>
      </trkpt>
      <trkpt lat="45.26637" lon="-0.12523">
        <ele>72.6</ele>
        <time>2021-11-10T12:20:57Z</time>
      </trkpt>
      <trkpt lat="45.26646" lon="-0.1256">
        <ele>76</ele>
        <time>2021-11-10T12:21:03Z</time>
      </trkpt>
      <trkpt lat="45.26671" lon="-0.12586">
        <ele>79.8</ele>
        <time>2021-11-10T12:21:13Z</time>
      </trkpt>
      <trkpt lat="45.26682" lon="-0.12586">
        <ele>79.5</ele>
        <time>2021-11-10T12:21:17Z</time>
      </trkpt>
      <trkpt lat="45.26725" lon="-0.12604">
        <ele>79.2</ele>
        <time>2021-11-10T12:21:30Z</time>
      </trkpt>
      <trkpt lat="45.26758" lon="-0.12595">
        <ele>77.4</ele>
        <time>2021-11-10T12:21:38Z</time>
      </trkpt>
      <trkpt lat="45.26779" lon="-0.12589">
        <ele>77.4</ele>
        <time>2021-11-10T12:21:42Z</time>
      </trkpt>
      <trkpt lat="45.26807" lon="-0.12572">
        <ele>77.9</ele>
        <time>2021-11-10T12:21:49Z</time>
      </trkpt>
      <trkpt lat="45.2685" lon="-0.12557">
        <ele>73.7</ele>
        <time>2021-11-10T12:22:04Z</time>
      </trkpt>
      <trkpt lat="45.26859" lon="-0.12556">
        <ele>74.4</ele>
        <time>2021-11-10T12:22:08Z</time>
      </trkpt>
      <trkpt lat="45.26864" lon="-0.12556">
        <ele>73.8</ele>
        <time>2021-11-10T12:22:11Z</time>
      </trkpt>
      <trkpt lat="45.26879" lon="-0.12543">
        <ele>69.8</ele>
        <time>2021-11-10T12:22:18Z</time>
      </trkpt>
      <trkpt lat="45.26892" lon="-0.12512">
        <ele>64.5</ele>
        <time>2021-11-10T12:22:25Z</time>
      </trkpt>
      <trkpt lat="45.26901" lon="-0.12498">
        <ele>61.2</ele>
        <time>2021-11-10T12:22:29Z</time>
      </trkpt>
      <trkpt lat="45.26926" lon="-0.12494">
        <ele>59.5</ele>
        <time>2021-11-10T12:22:36Z</time>
      </trkpt>
      <trkpt lat="45.26949" lon="-0.12506">
        <ele>59.5</ele>
        <time>2021-11-10T12:22:40Z</time>
      </trkpt>
      <trkpt lat="45.26964" lon="-0.12514">
        <ele>60.6</ele>
        <time>2021-11-10T12:22:43Z</time>
      </trkpt>
      <trkpt lat="45.27004" lon="-0.12504">
        <ele>64.7</ele>
        <time>2021-11-10T12:22:50Z</time>
      </trkpt>
      <trkpt lat="45.27022" lon="-0.1249">
        <ele>68.7</ele>
        <time>2021-11-10T12:22:53Z</time>
      </trkpt>
      <trkpt lat="45.27042" lon="-0.1247">
        <ele>72.3</ele>
        <time>2021-11-10T12:22:56Z</time>
      </trkpt>
      <trkpt lat="45.27067" lon="-0.12445">
        <ele>74.6</ele>
        <time>2021-11-10T12:23:00Z</time>
      </trkpt>
      <trkpt lat="45.27093" lon="-0.12391">
        <ele>77.9</ele>
        <time>2021-11-10T12:23:08Z</time>
      </trkpt>
      <trkpt lat="45.27127" lon="-0.12371">
        <ele>81.9</ele>
        <time>2021-11-10T12:23:15Z</time>
      </trkpt>
      <trkpt lat="45.27175" lon="-0.12373">
        <ele>86.2</ele>
        <time>2021-11-10T12:23:22Z</time>
      </trkpt>
      <trkpt lat="45.27201" lon="-0.12373">
        <ele>91.3</ele>
        <time>2021-11-10T12:23:26Z</time>
      </trkpt>
      <trkpt lat="45.27242" lon="-0.12367">
        <ele>96.8</ele>
        <time>2021-11-10T12:23:33Z</time>
      </trkpt>
      <trkpt lat="45.27251" lon="-0.12368">
        <ele>100.4</ele>
        <time>2021-11-10T12:23:40Z</time>
      </trkpt>
      <trkpt lat="45.27251" lon="-0.12367">
        <ele>99.5</ele>
        <time>2021-11-10T12:23:44Z</time>
      </trkpt>
      <trkpt lat="45.27251" lon="-0.12367">
        <ele>99.6</ele>
        <time>2021-11-10T12:29:51Z</time>
      </trkpt>
      <trkpt lat="45.27253" lon="-0.12377">
        <ele>108.5</ele>
        <time>2021-11-10T12:29:54Z</time>
      </trkpt>
      <trkpt lat="45.27274" lon="-0.12419">
        <ele>105.9</ele>
        <time>2021-11-10T12:29:58Z</time>
      </trkpt>
      <trkpt lat="45.27301" lon="-0.1246">
        <ele>102.8</ele>
        <time>2021-11-10T12:30:01Z</time>
      </trkpt>
      <trkpt lat="45.27337" lon="-0.12497">
        <ele>99.2</ele>
        <time>2021-11-10T12:30:04Z</time>
      </trkpt>
      <trkpt lat="45.27378" lon="-0.12525">
        <ele>93.8</ele>
        <time>2021-11-10T12:30:08Z</time>
      </trkpt>
      <trkpt lat="45.27413" lon="-0.12534">
        <ele>88.9</ele>
        <time>2021-11-10T12:30:11Z</time>
      </trkpt>
      <trkpt lat="45.27441" lon="-0.12546">
        <ele>84.9</ele>
        <time>2021-11-10T12:30:14Z</time>
      </trkpt>
      <trkpt lat="45.27448" lon="-0.12566">
        <ele>79.4</ele>
        <time>2021-11-10T12:30:18Z</time>
      </trkpt>
      <trkpt lat="45.27452" lon="-0.12567">
        <ele>79.7</ele>
        <time>2021-11-10T12:30:22Z</time>
      </trkpt>
      <trkpt lat="45.27451" lon="-0.12567">
        <ele>76</ele>
        <time>2021-11-10T12:00:58Z</time>
      </trkpt>
      <trkpt lat="45.27488" lon="-0.12533">
        <ele>80.4</ele>
        <time>2021-11-10T12:00:54Z</time>
      </trkpt>
      <trkpt lat="45.27532" lon="-0.1249">
        <ele>84.4</ele>
        <time>2021-11-10T12:00:51Z</time>
      </trkpt>
      <trkpt lat="45.27584" lon="-0.12425">
        <ele>89.2</ele>
        <time>2021-11-10T12:00:47Z</time>
      </trkpt>
      <trkpt lat="45.27637" lon="-0.12318">
        <ele>94.5</ele>
        <time>2021-11-10T12:00:41Z</time>
      </trkpt>
      <trkpt lat="45.2778" lon="-0.12011">
        <ele>94.2</ele>
        <time>2021-11-10T12:00:24Z</time>
      </trkpt>
      <trkpt lat="45.27862" lon="-0.11872">
        <ele>91.4</ele>
        <time>2021-11-10T12:00:13Z</time>
      </trkpt>
      <trkpt lat="45.27903" lon="-0.1187">
        <ele>87.5</ele>
        <time>2021-11-10T12:00:10Z</time>
      </trkpt>
      <trkpt lat="45.27969" lon="-0.11867">
        <ele>88.4</ele>
        <time>2021-11-10T12:00:06Z</time>
      </trkpt>
      <trkpt lat="45.27999" lon="-0.11866">
        <ele>89.5</ele>
        <time>2021-11-10T12:00:03Z</time>
      </trkpt>
      <trkpt lat="45.28036" lon="-0.11936">
        <ele>101.3</ele>
        <time>2021-11-10T11:59:38Z</time>
      </trkpt>
      <trkpt lat="45.2805" lon="-0.11952">
        <ele>97.9</ele>
        <time>2021-11-10T11:59:26Z</time>
      </trkpt>
      <trkpt lat="45.28067" lon="-0.11954">
        <ele>101.3</ele>
        <time>2021-11-10T11:59:22Z</time>
      </trkpt>
      <trkpt lat="45.28112" lon="-0.1196">
        <ele>103.6</ele>
        <time>2021-11-10T11:59:15Z</time>
      </trkpt>
      <trkpt lat="45.28118" lon="-0.11986">
        <ele>103.9</ele>
        <time>2021-11-10T11:59:11Z</time>
      </trkpt>
      <trkpt lat="45.28142" lon="-0.12126">
        <ele>107.3</ele>
        <time>2021-11-10T11:59:01Z</time>
      </trkpt>
      <trkpt lat="45.28159" lon="-0.1223">
        <ele>111.8</ele>
        <time>2021-11-10T11:58:54Z</time>
      </trkpt>
      <trkpt lat="45.28199" lon="-0.12452">
        <ele>104.3</ele>
        <time>2021-11-10T11:58:39Z</time>
      </trkpt>
      <trkpt lat="45.28209" lon="-0.12512">
        <ele>101.2</ele>
        <time>2021-11-10T11:58:35Z</time>
      </trkpt>
      <trkpt lat="45.28216" lon="-0.12555">
        <ele>98.5</ele>
        <time>2021-11-10T11:58:31Z</time>
      </trkpt>
      <trkpt lat="45.28222" lon="-0.12578">
        <ele>99.3</ele>
        <time>2021-11-10T11:58:27Z</time>
      </trkpt>
      <trkpt lat="45.28252" lon="-0.12571">
        <ele>103.3</ele>
        <time>2021-11-10T11:58:20Z</time>
      </trkpt>
      <trkpt lat="45.28395" lon="-0.12518">
        <ele>102.8</ele>
        <time>2021-11-10T11:58:04Z</time>
      </trkpt>
      <trkpt lat="45.28416" lon="-0.12578">
        <ele>107.5</ele>
        <time>2021-11-10T11:57:57Z</time>
      </trkpt>
      <trkpt lat="45.28443" lon="-0.12665">
        <ele>109.8</ele>
        <time>2021-11-10T11:57:53Z</time>
      </trkpt>
      <trkpt lat="45.2853" lon="-0.12735">
        <ele>107.2</ele>
        <time>2021-11-10T11:57:43Z</time>
      </trkpt>
      <trkpt lat="45.28524" lon="-0.12791">
        <ele>103.4</ele>
        <time>2021-11-10T11:57:39Z</time>
      </trkpt>
      <trkpt lat="45.28581" lon="-0.12836">
        <ele>97.9</ele>
        <time>2021-11-10T11:57:23Z</time>
      </trkpt>
      <trkpt lat="45.28606" lon="-0.12863">
        <ele>89.1</ele>
        <time>2021-11-10T11:57:19Z</time>
      </trkpt>
      <trkpt lat="45.28648" lon="-0.12991">
        <ele>83.9</ele>
        <time>2021-11-10T11:57:09Z</time>
      </trkpt>
      <trkpt lat="45.28675" lon="-0.13037">
        <ele>80.1</ele>
        <time>2021-11-10T11:57:06Z</time>
      </trkpt>
      <trkpt lat="45.28775" lon="-0.13105">
        <ele>85.7</ele>
        <time>2021-11-10T11:56:55Z</time>
      </trkpt>
      <trkpt lat="45.28801" lon="-0.13135">
        <ele>90.5</ele>
        <time>2021-11-10T11:56:51Z</time>
      </trkpt>
      <trkpt lat="45.28817" lon="-0.13153">
        <ele>94</ele>
        <time>2021-11-10T11:56:48Z</time>
      </trkpt>
      <trkpt lat="45.28833" lon="-0.13175">
        <ele>98.3</ele>
        <time>2021-11-10T11:56:44Z</time>
      </trkpt>
      <trkpt lat="45.28845" lon="-0.13206">
        <ele>101.7</ele>
        <time>2021-11-10T11:56:40Z</time>
      </trkpt>
      <trkpt lat="45.28871" lon="-0.13257">
        <ele>103.7</ele>
        <time>2021-11-10T11:56:24Z</time>
      </trkpt>
      <trkpt lat="45.28889" lon="-0.13309">
        <ele>107.5</ele>
        <time>2021-11-10T11:56:13Z</time>
      </trkpt>
      <trkpt lat="45.28916" lon="-0.13426">
        <ele>110</ele>
        <time>2021-11-10T11:56:03Z</time>
      </trkpt>
      <trkpt lat="45.28938" lon="-0.13532">
        <ele>111.9</ele>
        <time>2021-11-10T11:55:55Z</time>
      </trkpt>
      <trkpt lat="45.28948" lon="-0.13586">
        <ele>113.1</ele>
        <time>2021-11-10T11:55:51Z</time>
      </trkpt>
      <trkpt lat="45.28952" lon="-0.13639">
        <ele>116.2</ele>
        <time>2021-11-10T11:55:47Z</time>
      </trkpt>
      <trkpt lat="45.28956" lon="-0.13691">
        <ele>116.9</ele>
        <time>2021-11-10T11:55:43Z</time>
      </trkpt>
      <trkpt lat="45.29039" lon="-0.13725">
        <ele>120.9</ele>
        <time>2021-11-10T11:55:30Z</time>
      </trkpt>
      <trkpt lat="45.29095" lon="-0.1371">
        <ele>125.7</ele>
        <time>2021-11-10T11:55:23Z</time>
      </trkpt>
      <trkpt lat="45.29143" lon="-0.13731">
        <ele>126.7</ele>
        <time>2021-11-10T11:55:16Z</time>
      </trkpt>
      <trkpt lat="45.2914" lon="-0.13836">
        <ele>126.7</ele>
        <time>2021-11-10T11:55:01Z</time>
      </trkpt>
      <trkpt lat="45.29199" lon="-0.13929">
        <ele>130.8</ele>
        <time>2021-11-10T11:54:49Z</time>
      </trkpt>
      <trkpt lat="45.29236" lon="-0.13873">
        <ele>133.8</ele>
        <time>2021-11-10T11:54:43Z</time>
      </trkpt>
      <trkpt lat="45.29296" lon="-0.13804">
        <ele>134.5</ele>
        <time>2021-11-10T11:54:36Z</time>
      </trkpt>
      <trkpt lat="45.29451" lon="-0.13719">
        <ele>134.1</ele>
        <time>2021-11-10T11:54:25Z</time>
      </trkpt>
      <trkpt lat="45.29517" lon="-0.13618">
        <ele>129.9</ele>
        <time>2021-11-10T11:54:17Z</time>
      </trkpt>
      <trkpt lat="45.29574" lon="-0.13485">
        <ele>123.7</ele>
        <time>2021-11-10T11:54:10Z</time>
      </trkpt>
      <trkpt lat="45.29564" lon="-0.13372">
        <ele>118</ele>
        <time>2021-11-10T11:54:03Z</time>
      </trkpt>
      <trkpt lat="45.29624" lon="-0.13339">
        <ele>112.6</ele>
        <time>2021-11-10T11:53:56Z</time>
      </trkpt>
      <trkpt lat="45.29655" lon="-0.1333">
        <ele>111.3</ele>
        <time>2021-11-10T11:53:52Z</time>
      </trkpt>
      <trkpt lat="45.29684" lon="-0.13477">
        <ele>111.6</ele>
        <time>2021-11-10T11:53:41Z</time>
      </trkpt>
      <trkpt lat="45.29691" lon="-0.1365">
        <ele>111.3</ele>
        <time>2021-11-10T11:53:34Z</time>
      </trkpt>
      <trkpt lat="45.29669" lon="-0.13951">
        <ele>108.7</ele>
        <time>2021-11-10T11:53:21Z</time>
      </trkpt>
      <trkpt lat="45.29697" lon="-0.14262">
        <ele>113.1</ele>
        <time>2021-11-10T11:53:09Z</time>
      </trkpt>
      <trkpt lat="45.29737" lon="-0.14341">
        <ele>117.5</ele>
        <time>2021-11-10T11:53:05Z</time>
      </trkpt>
      <trkpt lat="45.2979" lon="-0.14403">
        <ele>122.9</ele>
        <time>2021-11-10T11:53:01Z</time>
      </trkpt>
      <trkpt lat="45.29854" lon="-0.14479">
        <ele>130.2</ele>
        <time>2021-11-10T11:52:57Z</time>
      </trkpt>
      <trkpt lat="45.29914" lon="-0.14548">
        <ele>135.8</ele>
        <time>2021-11-10T11:52:53Z</time>
      </trkpt>
      <trkpt lat="45.29948" lon="-0.14587">
        <ele>137.3</ele>
        <time>2021-11-10T11:52:50Z</time>
      </trkpt>
      <trkpt lat="45.29974" lon="-0.1464">
        <ele>137.1</ele>
        <time>2021-11-10T11:52:39Z</time>
      </trkpt>
      <trkpt lat="45.29975" lon="-0.14641">
        <ele>138.1</ele>
        <time>2021-11-10T11:52:03Z</time>
      </trkpt>
      <trkpt lat="45.30014" lon="-0.14728">
        <ele>141.8</ele>
        <time>2021-11-10T11:51:53Z</time>
      </trkpt>
      <trkpt lat="45.30062" lon="-0.14838">
        <ele>145.4</ele>
        <time>2021-11-10T11:51:49Z</time>
      </trkpt>
      <trkpt lat="45.30087" lon="-0.14894">
        <ele>148.3</ele>
        <time>2021-11-10T11:51:46Z</time>
      </trkpt>
      <trkpt lat="45.30079" lon="-0.15063">
        <ele>151.7</ele>
        <time>2021-11-10T11:51:35Z</time>
      </trkpt>
      <trkpt lat="45.30073" lon="-0.15136">
        <ele>152.6</ele>
        <time>2021-11-10T11:51:32Z</time>
      </trkpt>
      <trkpt lat="45.30047" lon="-0.15207">
        <ele>149.1</ele>
        <time>2021-11-10T11:51:28Z</time>
      </trkpt>
      <trkpt lat="45.3" lon="-0.15252">
        <ele>145.4</ele>
        <time>2021-11-10T11:51:25Z</time>
      </trkpt>
      <trkpt lat="45.29825" lon="-0.15524">
        <ele>145.4</ele>
        <time>2021-11-10T11:51:10Z</time>
      </trkpt>
      <trkpt lat="45.29731" lon="-0.15619">
        <ele>147.8</ele>
        <time>2021-11-10T11:51:03Z</time>
      </trkpt>
      <trkpt lat="45.29686" lon="-0.15651">
        <ele>147.9</ele>
        <time>2021-11-10T11:51:00Z</time>
      </trkpt>
      <trkpt lat="45.2952" lon="-0.15919">
        <ele>143.9</ele>
        <time>2021-11-10T11:50:46Z</time>
      </trkpt>
      <trkpt lat="45.29463" lon="-0.16051">
        <ele>139.5</ele>
        <time>2021-11-10T11:50:39Z</time>
      </trkpt>
      <trkpt lat="45.29445" lon="-0.16131">
        <ele>135.7</ele>
        <time>2021-11-10T11:50:35Z</time>
      </trkpt>
      <trkpt lat="45.29429" lon="-0.16203">
        <ele>131.8</ele>
        <time>2021-11-10T11:50:32Z</time>
      </trkpt>
      <trkpt lat="45.29414" lon="-0.16287">
        <ele>130.1</ele>
        <time>2021-11-10T11:50:28Z</time>
      </trkpt>
      <trkpt lat="45.29403" lon="-0.16447">
        <ele>125.7</ele>
        <time>2021-11-10T11:50:21Z</time>
      </trkpt>
      <trkpt lat="45.29371" lon="-0.16623">
        <ele>124.1</ele>
        <time>2021-11-10T11:50:14Z</time>
      </trkpt>
      <trkpt lat="45.29264" lon="-0.16954">
        <ele>125.4</ele>
        <time>2021-11-10T11:49:59Z</time>
      </trkpt>
      <trkpt lat="45.29225" lon="-0.17056">
        <ele>125.7</ele>
        <time>2021-11-10T11:49:55Z</time>
      </trkpt>
      <trkpt lat="45.29185" lon="-0.1712">
        <ele>129.8</ele>
        <time>2021-11-10T11:49:51Z</time>
      </trkpt>
      <trkpt lat="45.29113" lon="-0.17223">
        <ele>132.9</ele>
        <time>2021-11-10T11:49:45Z</time>
      </trkpt>
      <trkpt lat="45.29089" lon="-0.17257">
        <ele>132.2</ele>
        <time>2021-11-10T11:49:42Z</time>
      </trkpt>
      <trkpt lat="45.29081" lon="-0.17271">
        <ele>129.9</ele>
        <time>2021-11-10T11:49:32Z</time>
      </trkpt>
      <trkpt lat="45.29082" lon="-0.17272">
        <ele>128.6</ele>
        <time>2021-11-10T11:48:46Z</time>
      </trkpt>
      <trkpt lat="45.29093" lon="-0.17288">
        <ele>125.4</ele>
        <time>2021-11-10T11:48:43Z</time>
      </trkpt>
      <trkpt lat="45.29108" lon="-0.17321">
        <ele>120.1</ele>
        <time>2021-11-10T11:48:39Z</time>
      </trkpt>
      <trkpt lat="45.29128" lon="-0.17356">
        <ele>112.1</ele>
        <time>2021-11-10T11:48:35Z</time>
      </trkpt>
      <trkpt lat="45.29146" lon="-0.17394">
        <ele>105.9</ele>
        <time>2021-11-10T11:48:31Z</time>
      </trkpt>
      <trkpt lat="45.29213" lon="-0.17508">
        <ele>101</ele>
        <time>2021-11-10T11:48:16Z</time>
      </trkpt>
      <trkpt lat="45.29227" lon="-0.17532">
        <ele>96.6</ele>
        <time>2021-11-10T11:48:13Z</time>
      </trkpt>
      <trkpt lat="45.29241" lon="-0.17562">
        <ele>91</ele>
        <time>2021-11-10T11:48:09Z</time>
      </trkpt>
      <trkpt lat="45.29255" lon="-0.17589">
        <ele>88.8</ele>
        <time>2021-11-10T11:48:05Z</time>
      </trkpt>
      <trkpt lat="45.29315" lon="-0.17617">
        <ele>87.1</ele>
        <time>2021-11-10T11:47:53Z</time>
      </trkpt>
      <trkpt lat="45.29368" lon="-0.17636">
        <ele>88.2</ele>
        <time>2021-11-10T11:47:42Z</time>
      </trkpt>
      <trkpt lat="45.29371" lon="-0.17636">
        <ele>85.2</ele>
        <time>2021-11-10T11:47:39Z</time>
      </trkpt>
      <trkpt lat="45.29418" lon="-0.17648">
        <ele>88.4</ele>
        <time>2021-11-10T11:47:32Z</time>
      </trkpt>
      <trkpt lat="45.29451" lon="-0.17657">
        <ele>90.5</ele>
        <time>2021-11-10T11:47:25Z</time>
      </trkpt>
      <trkpt lat="45.29465" lon="-0.1766">
        <ele>84.6</ele>
        <time>2021-11-10T11:47:18Z</time>
      </trkpt>
      <trkpt lat="45.29465" lon="-0.1766">
        <ele>85.5</ele>
        <time>2021-11-10T11:47:14Z</time>
      </trkpt>
      <trkpt lat="45.2954" lon="-0.17694">
        <ele>88.4</ele>
        <time>2021-11-10T11:46:11Z</time>
      </trkpt>
      <trkpt lat="45.29554" lon="-0.177">
        <ele>88.2</ele>
        <time>2021-11-10T11:46:07Z</time>
      </trkpt>
      <trkpt lat="45.29612" lon="-0.17725">
        <ele>86.8</ele>
        <time>2021-11-10T11:45:56Z</time>
      </trkpt>
      <trkpt lat="45.29625" lon="-0.17734">
        <ele>85.8</ele>
        <time>2021-11-10T11:45:52Z</time>
      </trkpt>
      <trkpt lat="45.29628" lon="-0.1779">
        <ele>85</ele>
        <time>2021-11-10T11:45:45Z</time>
      </trkpt>
      <trkpt lat="45.29637" lon="-0.17867">
        <ele>88.9</ele>
        <time>2021-11-10T11:45:38Z</time>
      </trkpt>
      <trkpt lat="45.29628" lon="-0.17912">
        <ele>93.4</ele>
        <time>2021-11-10T11:45:34Z</time>
      </trkpt>
      <trkpt lat="45.2959" lon="-0.17978">
        <ele>98.7</ele>
        <time>2021-11-10T11:45:27Z</time>
      </trkpt>
      <trkpt lat="45.29568" lon="-0.1801">
        <ele>102</ele>
        <time>2021-11-10T11:45:23Z</time>
      </trkpt>
      <trkpt lat="45.29499" lon="-0.18105">
        <ele>103</ele>
        <time>2021-11-10T11:45:12Z</time>
      </trkpt>
      <trkpt lat="45.29494" lon="-0.18204">
        <ele>98.1</ele>
        <time>2021-11-10T11:45:01Z</time>
      </trkpt>
      <trkpt lat="45.29486" lon="-0.18339">
        <ele>93.4</ele>
        <time>2021-11-10T11:44:53Z</time>
      </trkpt>
      <trkpt lat="45.29477" lon="-0.18471">
        <ele>90.9</ele>
        <time>2021-11-10T11:44:42Z</time>
      </trkpt>
      <trkpt lat="45.29465" lon="-0.18512">
        <ele>94.5</ele>
        <time>2021-11-10T11:44:35Z</time>
      </trkpt>
      <trkpt lat="45.29434" lon="-0.18597">
        <ele>96.7</ele>
        <time>2021-11-10T11:44:24Z</time>
      </trkpt>
      <trkpt lat="45.29412" lon="-0.18654">
        <ele>94.9</ele>
        <time>2021-11-10T11:44:17Z</time>
      </trkpt>
      <trkpt lat="45.29406" lon="-0.18708">
        <ele>98.8</ele>
        <time>2021-11-10T11:44:07Z</time>
      </trkpt>
      <trkpt lat="45.29403" lon="-0.18728">
        <ele>98.9</ele>
        <time>2021-11-10T11:44:04Z</time>
      </trkpt>
      <trkpt lat="45.294" lon="-0.1877">
        <ele>102.2</ele>
        <time>2021-11-10T11:43:57Z</time>
      </trkpt>
      <trkpt lat="45.29402" lon="-0.18821">
        <ele>105.2</ele>
        <time>2021-11-10T11:43:49Z</time>
      </trkpt>
      <trkpt lat="45.29399" lon="-0.18862">
        <ele>106.6</ele>
        <time>2021-11-10T11:43:42Z</time>
      </trkpt>
      <trkpt lat="45.29389" lon="-0.18927">
        <ele>109.8</ele>
        <time>2021-11-10T11:43:32Z</time>
      </trkpt>
      <trkpt lat="45.29383" lon="-0.18972">
        <ele>108.7</ele>
        <time>2021-11-10T11:43:24Z</time>
      </trkpt>
      <trkpt lat="45.29386" lon="-0.19056">
        <ele>107</ele>
        <time>2021-11-10T11:43:17Z</time>
      </trkpt>
      <trkpt lat="45.29374" lon="-0.19116">
        <ele>80.8</ele>
        <time>2021-11-10T11:43:14Z</time>
      </trkpt>
      <trkpt lat="45.29348" lon="-0.19208">
        <ele>80.8</ele>
        <time>2021-11-10T11:43:10Z</time>
      </trkpt>
      <trkpt lat="45.29399" lon="-0.19425">
        <ele>80.8</ele>
        <time>2021-11-10T11:43:01Z</time>
      </trkpt>
      <trkpt lat="45.29528" lon="-0.19591">
        <ele>80.8</ele>
        <time>2021-11-10T11:42:50Z</time>
      </trkpt>
      <trkpt lat="45.29535" lon="-0.19982">
        <ele>81</ele>
        <time>2021-11-10T11:42:35Z</time>
      </trkpt>
      <trkpt lat="45.29587" lon="-0.20236">
        <ele>81</ele>
        <time>2021-11-10T11:42:24Z</time>
      </trkpt>
      <trkpt lat="45.29602" lon="-0.20253">
        <ele>79.9</ele>
        <time>2021-11-10T11:42:13Z</time>
      </trkpt>
      <trkpt lat="45.29604" lon="-0.2025">
        <ele>80.3</ele>
        <time>2021-11-10T11:41:21Z</time>
      </trkpt>
      <trkpt lat="45.29654" lon="-0.20208">
        <ele>76.6</ele>
        <time>2021-11-10T11:41:13Z</time>
      </trkpt>
      <trkpt lat="45.29696" lon="-0.20161">
        <ele>77.9</ele>
        <time>2021-11-10T11:41:07Z</time>
      </trkpt>
      <trkpt lat="45.2974" lon="-0.20136">
        <ele>81.5</ele>
        <time>2021-11-10T11:40:59Z</time>
      </trkpt>
      <trkpt lat="45.29789" lon="-0.20143">
        <ele>77.9</ele>
        <time>2021-11-10T11:40:49Z</time>
      </trkpt>
      <trkpt lat="45.29837" lon="-0.20119">
        <ele>74.9</ele>
        <time>2021-11-10T11:40:42Z</time>
      </trkpt>
      <trkpt lat="45.29858" lon="-0.20108">
        <ele>71.7</ele>
        <time>2021-11-10T11:40:39Z</time>
      </trkpt>
      <trkpt lat="45.29887" lon="-0.201">
        <ele>72.5</ele>
        <time>2021-11-10T11:40:35Z</time>
      </trkpt>
      <trkpt lat="45.29982" lon="-0.20131">
        <ele>68.9</ele>
        <time>2021-11-10T11:40:24Z</time>
      </trkpt>
      <trkpt lat="45.30012" lon="-0.20146">
        <ele>67.3</ele>
        <time>2021-11-10T11:40:21Z</time>
      </trkpt>
      <trkpt lat="45.30057" lon="-0.20177">
        <ele>66</ele>
        <time>2021-11-10T11:40:13Z</time>
      </trkpt>
      <trkpt lat="45.30108" lon="-0.20178">
        <ele>62.2</ele>
        <time>2021-11-10T11:40:05Z</time>
      </trkpt>
      <trkpt lat="45.30127" lon="-0.20169">
        <ele>63.6</ele>
        <time>2021-11-10T11:40:02Z</time>
      </trkpt>
      <trkpt lat="45.30156" lon="-0.20155">
        <ele>64.4</ele>
        <time>2021-11-10T11:39:55Z</time>
      </trkpt>
      <trkpt lat="45.30186" lon="-0.20136">
        <ele>61.3</ele>
        <time>2021-11-10T11:39:44Z</time>
      </trkpt>
      <trkpt lat="45.302" lon="-0.20118">
        <ele>60.4</ele>
        <time>2021-11-10T11:39:37Z</time>
      </trkpt>
      <trkpt lat="45.30222" lon="-0.20095">
        <ele>64.6</ele>
        <time>2021-11-10T11:39:26Z</time>
      </trkpt>
      <trkpt lat="45.30232" lon="-0.20088">
        <ele>68</ele>
        <time>2021-11-10T11:39:22Z</time>
      </trkpt>
      <trkpt lat="45.30239" lon="-0.20084">
        <ele>68.8</ele>
        <time>2021-11-10T11:39:19Z</time>
      </trkpt>
      <trkpt lat="45.30256" lon="-0.20078">
        <ele>69.1</ele>
        <time>2021-11-10T11:39:15Z</time>
      </trkpt>
      <trkpt lat="45.30446" lon="-0.20042">
        <ele>68.8</ele>
        <time>2021-11-10T11:38:57Z</time>
      </trkpt>
      <trkpt lat="45.30491" lon="-0.20025">
        <ele>68.7</ele>
        <time>2021-11-10T11:38:53Z</time>
      </trkpt>
      <trkpt lat="45.30557" lon="-0.19955">
        <ele>73.2</ele>
        <time>2021-11-10T11:38:45Z</time>
      </trkpt>
      <trkpt lat="45.30578" lon="-0.1993">
        <ele>76</ele>
        <time>2021-11-10T11:38:41Z</time>
      </trkpt>
      <trkpt lat="45.30599" lon="-0.19923">
        <ele>76.1</ele>
        <time>2021-11-10T11:38:37Z</time>
      </trkpt>
      <trkpt lat="45.30626" lon="-0.19912">
        <ele>75.5</ele>
        <time>2021-11-10T11:38:33Z</time>
      </trkpt>
      <trkpt lat="45.30672" lon="-0.19877">
        <ele>79.1</ele>
        <time>2021-11-10T11:38:25Z</time>
      </trkpt>
      <trkpt lat="45.30691" lon="-0.1985">
        <ele>82.6</ele>
        <time>2021-11-10T11:38:21Z</time>
      </trkpt>
      <trkpt lat="45.30725" lon="-0.19784">
        <ele>85.6</ele>
        <time>2021-11-10T11:38:13Z</time>
      </trkpt>
      <trkpt lat="45.30744" lon="-0.19652">
        <ele>86.8</ele>
        <time>2021-11-10T11:37:57Z</time>
      </trkpt>
      <trkpt lat="45.30752" lon="-0.19629">
        <ele>87.1</ele>
        <time>2021-11-10T11:37:53Z</time>
      </trkpt>
      <trkpt lat="45.30772" lon="-0.19605">
        <ele>89.5</ele>
        <time>2021-11-10T11:37:46Z</time>
      </trkpt>
      <trkpt lat="45.30816" lon="-0.19589">
        <ele>92.8</ele>
        <time>2021-11-10T11:37:36Z</time>
      </trkpt>
      <trkpt lat="45.30826" lon="-0.19583">
        <ele>93.4</ele>
        <time>2021-11-10T11:37:33Z</time>
      </trkpt>
      <trkpt lat="45.30888" lon="-0.1953">
        <ele>97.1</ele>
        <time>2021-11-10T11:37:26Z</time>
      </trkpt>
      <trkpt lat="45.31079" lon="-0.19499">
        <ele>97.8</ele>
        <time>2021-11-10T11:37:15Z</time>
      </trkpt>
      <trkpt lat="45.31233" lon="-0.19469">
        <ele>98.1</ele>
        <time>2021-11-10T11:37:08Z</time>
      </trkpt>
      <trkpt lat="45.31347" lon="-0.1941">
        <ele>100.7</ele>
        <time>2021-11-10T11:36:57Z</time>
      </trkpt>
      <trkpt lat="45.31389" lon="-0.19397">
        <ele>100.5</ele>
        <time>2021-11-10T11:36:53Z</time>
      </trkpt>
      <trkpt lat="45.31428" lon="-0.19387">
        <ele>100.2</ele>
        <time>2021-11-10T11:36:39Z</time>
      </trkpt>
      <trkpt lat="45.31433" lon="-0.19386">
        <ele>100.1</ele>
        <time>2021-11-10T11:36:23Z</time>
      </trkpt>
      <trkpt lat="45.31485" lon="-0.19368">
        <ele>100.6</ele>
        <time>2021-11-10T11:36:16Z</time>
      </trkpt>
      <trkpt lat="45.3169" lon="-0.19462">
        <ele>104.8</ele>
        <time>2021-11-10T11:36:01Z</time>
      </trkpt>
      <trkpt lat="45.31767" lon="-0.19506">
        <ele>107.2</ele>
        <time>2021-11-10T11:35:57Z</time>
      </trkpt>
      <trkpt lat="45.31828" lon="-0.19554">
        <ele>112.7</ele>
        <time>2021-11-10T11:35:53Z</time>
      </trkpt>
      <trkpt lat="45.31975" lon="-0.19535">
        <ele>113.6</ele>
        <time>2021-11-10T11:35:42Z</time>
      </trkpt>
      <trkpt lat="45.32022" lon="-0.19553">
        <ele>110.3</ele>
        <time>2021-11-10T11:35:24Z</time>
      </trkpt>
      <trkpt lat="45.31985" lon="-0.19766">
        <ele>105.2</ele>
        <time>2021-11-10T11:34:57Z</time>
      </trkpt>
      <trkpt lat="45.31973" lon="-0.19836">
        <ele>100.3</ele>
        <time>2021-11-10T11:34:48Z</time>
      </trkpt>
      <trkpt lat="45.3197" lon="-0.19862">
        <ele>100</ele>
        <time>2021-11-10T11:34:44Z</time>
      </trkpt>
      <trkpt lat="45.31988" lon="-0.19927">
        <ele>93.8</ele>
        <time>2021-11-10T11:34:39Z</time>
      </trkpt>
      <trkpt lat="45.32046" lon="-0.19915">
        <ele>86.2</ele>
        <time>2021-11-10T11:34:35Z</time>
      </trkpt>
      <trkpt lat="45.32107" lon="-0.19849">
        <ele>82.6</ele>
        <time>2021-11-10T11:34:31Z</time>
      </trkpt>
      <trkpt lat="45.3218" lon="-0.19835">
        <ele>80.1</ele>
        <time>2021-11-10T11:34:25Z</time>
      </trkpt>
      <trkpt lat="45.32208" lon="-0.19992">
        <ele>77.8</ele>
        <time>2021-11-10T11:34:15Z</time>
      </trkpt>
      <trkpt lat="45.32201" lon="-0.20192">
        <ele>76.2</ele>
        <time>2021-11-10T11:34:07Z</time>
      </trkpt>
      <trkpt lat="45.32193" lon="-0.20314">
        <ele>74.3</ele>
        <time>2021-11-10T11:34:00Z</time>
      </trkpt>
      <trkpt lat="45.32094" lon="-0.2039">
        <ele>73.8</ele>
        <time>2021-11-10T11:33:45Z</time>
      </trkpt>
      <trkpt lat="45.31893" lon="-0.20543">
        <ele>79.6</ele>
        <time>2021-11-10T11:33:30Z</time>
      </trkpt>
      <trkpt lat="45.31775" lon="-0.20599">
        <ele>82.6</ele>
        <time>2021-11-10T11:33:22Z</time>
      </trkpt>
      <trkpt lat="45.31748" lon="-0.20612">
        <ele>83</ele>
        <time>2021-11-10T11:33:18Z</time>
      </trkpt>
      <trkpt lat="45.31701" lon="-0.20669">
        <ele>86.6</ele>
        <time>2021-11-10T11:33:11Z</time>
      </trkpt>
      <trkpt lat="45.31652" lon="-0.20735">
        <ele>89.8</ele>
        <time>2021-11-10T11:33:05Z</time>
      </trkpt>
      <trkpt lat="45.31663" lon="-0.20789">
        <ele>98.2</ele>
        <time>2021-11-10T11:32:57Z</time>
      </trkpt>
      <trkpt lat="45.31675" lon="-0.20845">
        <ele>102.7</ele>
        <time>2021-11-10T11:32:54Z</time>
      </trkpt>
      <trkpt lat="45.31688" lon="-0.20907">
        <ele>107.9</ele>
        <time>2021-11-10T11:32:51Z</time>
      </trkpt>
      <trkpt lat="45.31707" lon="-0.20992">
        <ele>112.6</ele>
        <time>2021-11-10T11:32:47Z</time>
      </trkpt>
      <trkpt lat="45.31721" lon="-0.21061">
        <ele>115.8</ele>
        <time>2021-11-10T11:32:44Z</time>
      </trkpt>
      <trkpt lat="45.31738" lon="-0.21143">
        <ele>119.3</ele>
        <time>2021-11-10T11:32:40Z</time>
      </trkpt>
      <trkpt lat="45.31753" lon="-0.21195">
        <ele>118.8</ele>
        <time>2021-11-10T11:32:37Z</time>
      </trkpt>
      <trkpt lat="45.31759" lon="-0.21257">
        <ele>115.4</ele>
        <time>2021-11-10T11:32:33Z</time>
      </trkpt>
      <trkpt lat="45.31764" lon="-0.21324">
        <ele>111.5</ele>
        <time>2021-11-10T11:32:29Z</time>
      </trkpt>
      <trkpt lat="45.3179" lon="-0.2147">
        <ele>109.3</ele>
        <time>2021-11-10T11:32:22Z</time>
      </trkpt>
      <trkpt lat="45.318" lon="-0.21568">
        <ele>109.2</ele>
        <time>2021-11-10T11:32:18Z</time>
      </trkpt>
      <trkpt lat="45.31837" lon="-0.21716">
        <ele>112.7</ele>
        <time>2021-11-10T11:32:11Z</time>
      </trkpt>
      <trkpt lat="45.31842" lon="-0.21788">
        <ele>116.2</ele>
        <time>2021-11-10T11:32:08Z</time>
      </trkpt>
      <trkpt lat="45.31852" lon="-0.22019">
        <ele>120.8</ele>
        <time>2021-11-10T11:31:58Z</time>
      </trkpt>
      <trkpt lat="45.31866" lon="-0.2211">
        <ele>123.9</ele>
        <time>2021-11-10T11:31:54Z</time>
      </trkpt>
      <trkpt lat="45.31821" lon="-0.22372">
        <ele>126.2</ele>
        <time>2021-11-10T11:31:41Z</time>
      </trkpt>
      <trkpt lat="45.31802" lon="-0.22422">
        <ele>122.8</ele>
        <time>2021-11-10T11:31:37Z</time>
      </trkpt>
      <trkpt lat="45.31776" lon="-0.22453">
        <ele>120.7</ele>
        <time>2021-11-10T11:31:29Z</time>
      </trkpt>
      <trkpt lat="45.31649" lon="-0.22642">
        <ele>122.4</ele>
        <time>2021-11-10T11:31:15Z</time>
      </trkpt>
      <trkpt lat="45.31598" lon="-0.22713">
        <ele>120.6</ele>
        <time>2021-11-10T11:31:11Z</time>
      </trkpt>
      <trkpt lat="45.31536" lon="-0.2287">
        <ele>117.6</ele>
        <time>2021-11-10T11:31:01Z</time>
      </trkpt>
      <trkpt lat="45.31496" lon="-0.22995">
        <ele>113.6</ele>
        <time>2021-11-10T11:30:53Z</time>
      </trkpt>
      <trkpt lat="45.3146" lon="-0.23067">
        <ele>110.2</ele>
        <time>2021-11-10T11:30:39Z</time>
      </trkpt>
      <trkpt lat="45.31415" lon="-0.23108">
        <ele>108.9</ele>
        <time>2021-11-10T11:30:33Z</time>
      </trkpt>
      <trkpt lat="45.31279" lon="-0.23178">
        <ele>105.4</ele>
        <time>2021-11-10T11:30:22Z</time>
      </trkpt>
      <trkpt lat="45.31264" lon="-0.23193">
        <ele>106.8</ele>
        <time>2021-11-10T11:30:19Z</time>
      </trkpt>
      <trkpt lat="45.31291" lon="-0.23314">
        <ele>109.7</ele>
        <time>2021-11-10T11:30:07Z</time>
      </trkpt>
      <trkpt lat="45.3124" lon="-0.23544">
        <ele>109.6</ele>
        <time>2021-11-10T11:29:53Z</time>
      </trkpt>
      <trkpt lat="45.31116" lon="-0.23698">
        <ele>114.4</ele>
        <time>2021-11-10T11:29:41Z</time>
      </trkpt>
      <trkpt lat="45.31097" lon="-0.23709">
        <ele>112.8</ele>
        <time>2021-11-10T11:28:29Z</time>
      </trkpt>
      <trkpt lat="45.31077" lon="-0.23731">
        <ele>116.4</ele>
        <time>2021-11-10T11:26:57Z</time>
      </trkpt>
      <trkpt lat="45.31056" lon="-0.2375">
        <ele>120.3</ele>
        <time>2021-11-10T11:26:49Z</time>
      </trkpt>
      <trkpt lat="45.31028" lon="-0.23779">
        <ele>124.8</ele>
        <time>2021-11-10T11:26:45Z</time>
      </trkpt>
      <trkpt lat="45.30912" lon="-0.23894">
        <ele>122.1</ele>
        <time>2021-11-10T11:26:35Z</time>
      </trkpt>
      <trkpt lat="45.30885" lon="-0.23909">
        <ele>116.3</ele>
        <time>2021-11-10T11:26:32Z</time>
      </trkpt>
      <trkpt lat="45.30851" lon="-0.23929">
        <ele>112.4</ele>
        <time>2021-11-10T11:26:29Z</time>
      </trkpt>
      <trkpt lat="45.30796" lon="-0.23956">
        <ele>106.4</ele>
        <time>2021-11-10T11:26:25Z</time>
      </trkpt>
      <trkpt lat="45.30765" lon="-0.23972">
        <ele>101.2</ele>
        <time>2021-11-10T11:26:22Z</time>
      </trkpt>
      <trkpt lat="45.30686" lon="-0.24006">
        <ele>94.8</ele>
        <time>2021-11-10T11:26:14Z</time>
      </trkpt>
      <trkpt lat="45.30666" lon="-0.24011">
        <ele>93.9</ele>
        <time>2021-11-10T11:26:10Z</time>
      </trkpt>
      <trkpt lat="45.30669" lon="-0.2404">
        <ele>93.7</ele>
        <time>2021-11-10T11:26:07Z</time>
      </trkpt>
      <trkpt lat="45.30693" lon="-0.24158">
        <ele>97.8</ele>
        <time>2021-11-10T11:26:00Z</time>
      </trkpt>
      <trkpt lat="45.30779" lon="-0.24331">
        <ele>97.6</ele>
        <time>2021-11-10T11:25:49Z</time>
      </trkpt>
      <trkpt lat="45.3077" lon="-0.24362">
        <ele>92.7</ele>
        <time>2021-11-10T11:25:42Z</time>
      </trkpt>
      <trkpt lat="45.30725" lon="-0.24415">
        <ele>88.5</ele>
        <time>2021-11-10T11:25:36Z</time>
      </trkpt>
      <trkpt lat="45.30645" lon="-0.24608">
        <ele>85.7</ele>
        <time>2021-11-10T11:25:19Z</time>
      </trkpt>
      <trkpt lat="45.30624" lon="-0.24651">
        <ele>83.8</ele>
        <time>2021-11-10T11:25:16Z</time>
      </trkpt>
      <trkpt lat="45.30607" lon="-0.24703">
        <ele>83.5</ele>
        <time>2021-11-10T11:25:12Z</time>
      </trkpt>
      <trkpt lat="45.30587" lon="-0.24827">
        <ele>84.4</ele>
        <time>2021-11-10T11:25:05Z</time>
      </trkpt>
      <trkpt lat="45.30545" lon="-0.24965">
        <ele>88.3</ele>
        <time>2021-11-10T11:24:58Z</time>
      </trkpt>
      <trkpt lat="45.30515" lon="-0.25043">
        <ele>91.9</ele>
        <time>2021-11-10T11:24:54Z</time>
      </trkpt>
      <trkpt lat="45.30462" lon="-0.2518">
        <ele>93.6</ele>
        <time>2021-11-10T11:24:47Z</time>
      </trkpt>
      <trkpt lat="45.30409" lon="-0.25317">
        <ele>96.6</ele>
        <time>2021-11-10T11:24:40Z</time>
      </trkpt>
      <trkpt lat="45.30366" lon="-0.25421">
        <ele>98.2</ele>
        <time>2021-11-10T11:24:33Z</time>
      </trkpt>
      <trkpt lat="45.30392" lon="-0.25456">
        <ele>94.9</ele>
        <time>2021-11-10T11:24:27Z</time>
      </trkpt>
      <trkpt lat="45.30476" lon="-0.25512">
        <ele>90.8</ele>
        <time>2021-11-10T11:24:19Z</time>
      </trkpt>
      <trkpt lat="45.30548" lon="-0.25565">
        <ele>88</ele>
        <time>2021-11-10T11:24:12Z</time>
      </trkpt>
      <trkpt lat="45.30681" lon="-0.25625">
        <ele>83.2</ele>
        <time>2021-11-10T11:24:05Z</time>
      </trkpt>
      <trkpt lat="45.30729" lon="-0.25647">
        <ele>85.5</ele>
        <time>2021-11-10T11:24:01Z</time>
      </trkpt>
      <trkpt lat="45.30727" lon="-0.25781">
        <ele>82.4</ele>
        <time>2021-11-10T11:23:51Z</time>
      </trkpt>
      <trkpt lat="45.30707" lon="-0.25828">
        <ele>83.6</ele>
        <time>2021-11-10T11:23:48Z</time>
      </trkpt>
      <trkpt lat="45.30666" lon="-0.26018">
        <ele>90.4</ele>
        <time>2021-11-10T11:23:37Z</time>
      </trkpt>
      <trkpt lat="45.30666" lon="-0.26282">
        <ele>86.7</ele>
        <time>2021-11-10T11:23:23Z</time>
      </trkpt>
      <trkpt lat="45.30705" lon="-0.26428">
        <ele>88.8</ele>
        <time>2021-11-10T11:23:12Z</time>
      </trkpt>
      <trkpt lat="45.30707" lon="-0.26484">
        <ele>88.1</ele>
        <time>2021-11-10T11:23:09Z</time>
      </trkpt>
      <trkpt lat="45.30722" lon="-0.2661">
        <ele>89.9</ele>
        <time>2021-11-10T11:22:54Z</time>
      </trkpt>
      <trkpt lat="45.30758" lon="-0.26807">
        <ele>95.4</ele>
        <time>2021-11-10T11:22:43Z</time>
      </trkpt>
      <trkpt lat="45.30733" lon="-0.2706">
        <ele>97.1</ele>
        <time>2021-11-10T11:22:29Z</time>
      </trkpt>
      <trkpt lat="45.30757" lon="-0.27138">
        <ele>93.9</ele>
        <time>2021-11-10T11:22:22Z</time>
      </trkpt>
      <trkpt lat="45.30809" lon="-0.2718">
        <ele>92.6</ele>
        <time>2021-11-10T11:22:18Z</time>
      </trkpt>
      <trkpt lat="45.30905" lon="-0.27211">
        <ele>88.1</ele>
        <time>2021-11-10T11:22:11Z</time>
      </trkpt>
      <trkpt lat="45.30992" lon="-0.27201">
        <ele>87</ele>
        <time>2021-11-10T11:22:03Z</time>
      </trkpt>
      <trkpt lat="45.31007" lon="-0.2731">
        <ele>88</ele>
        <time>2021-11-10T11:21:52Z</time>
      </trkpt>
      <trkpt lat="45.30989" lon="-0.27407">
        <ele>92.2</ele>
        <time>2021-11-10T11:21:45Z</time>
      </trkpt>
      <trkpt lat="45.30896" lon="-0.27582">
        <ele>93</ele>
        <time>2021-11-10T11:21:30Z</time>
      </trkpt>
      <trkpt lat="45.30872" lon="-0.27692">
        <ele>94.6</ele>
        <time>2021-11-10T11:21:23Z</time>
      </trkpt>
      <trkpt lat="45.30959" lon="-0.27728">
        <ele>96.5</ele>
        <time>2021-11-10T11:21:11Z</time>
      </trkpt>
      <trkpt lat="45.311" lon="-0.27748">
        <ele>94.8</ele>
        <time>2021-11-10T11:21:01Z</time>
      </trkpt>
      <trkpt lat="45.31194" lon="-0.27739">
        <ele>92.8</ele>
        <time>2021-11-10T11:20:54Z</time>
      </trkpt>
      <trkpt lat="45.31271" lon="-0.27742">
        <ele>89.2</ele>
        <time>2021-11-10T11:20:48Z</time>
      </trkpt>
      <trkpt lat="45.3139" lon="-0.2774">
        <ele>84.7</ele>
        <time>2021-11-10T11:20:37Z</time>
      </trkpt>
      <trkpt lat="45.31463" lon="-0.27734">
        <ele>74.7</ele>
        <time>2021-11-10T11:20:30Z</time>
      </trkpt>
      <trkpt lat="45.31498" lon="-0.27734">
        <ele>72.7</ele>
        <time>2021-11-10T11:20:27Z</time>
      </trkpt>
      <trkpt lat="45.3154" lon="-0.27726">
        <ele>69.1</ele>
        <time>2021-11-10T11:20:23Z</time>
      </trkpt>
      <trkpt lat="45.3162" lon="-0.27694">
        <ele>68.3</ele>
        <time>2021-11-10T11:20:15Z</time>
      </trkpt>
      <trkpt lat="45.31655" lon="-0.27681">
        <ele>70.5</ele>
        <time>2021-11-10T11:20:11Z</time>
      </trkpt>
      <trkpt lat="45.31658" lon="-0.27774">
        <ele>71</ele>
        <time>2021-11-10T11:20:00Z</time>
      </trkpt>
      <trkpt lat="45.31724" lon="-0.27812">
        <ele>71.7</ele>
        <time>2021-11-10T11:19:54Z</time>
      </trkpt>
      <trkpt lat="45.31788" lon="-0.27824">
        <ele>71.7</ele>
        <time>2021-11-10T11:19:50Z</time>
      </trkpt>
      <trkpt lat="45.31877" lon="-0.28026">
        <ele>71</ele>
        <time>2021-11-10T11:19:39Z</time>
      </trkpt>
      <trkpt lat="45.31949" lon="-0.28153">
        <ele>68.9</ele>
        <time>2021-11-10T11:19:31Z</time>
      </trkpt>
      <trkpt lat="45.31915" lon="-0.28284">
        <ele>69.4</ele>
        <time>2021-11-10T11:19:21Z</time>
      </trkpt>
      <trkpt lat="45.31898" lon="-0.28315">
        <ele>69.9</ele>
        <time>2021-11-10T11:19:18Z</time>
      </trkpt>
      <trkpt lat="45.31963" lon="-0.28395">
        <ele>67.3</ele>
        <time>2021-11-10T11:19:08Z</time>
      </trkpt>
      <trkpt lat="45.32213" lon="-0.28557">
        <ele>69</ele>
        <time>2021-11-10T11:18:50Z</time>
      </trkpt>
      <trkpt lat="45.32264" lon="-0.28544">
        <ele>69.4</ele>
        <time>2021-11-10T11:18:47Z</time>
      </trkpt>
      <trkpt lat="45.32297" lon="-0.28584">
        <ele>69.7</ele>
        <time>2021-11-10T11:18:43Z</time>
      </trkpt>
      <trkpt lat="45.32334" lon="-0.28628">
        <ele>69.4</ele>
        <time>2021-11-10T11:18:39Z</time>
      </trkpt>
      <trkpt lat="45.32379" lon="-0.28642">
        <ele>65.3</ele>
        <time>2021-11-10T11:18:36Z</time>
      </trkpt>
      <trkpt lat="45.32461" lon="-0.28651">
        <ele>65.1</ele>
        <time>2021-11-10T11:18:29Z</time>
      </trkpt>
      <trkpt lat="45.32542" lon="-0.28595">
        <ele>60.6</ele>
        <time>2021-11-10T11:18:18Z</time>
      </trkpt>
      <trkpt lat="45.326" lon="-0.28573">
        <ele>64</ele>
        <time>2021-11-10T11:18:11Z</time>
      </trkpt>
      <trkpt lat="45.32608" lon="-0.28547">
        <ele>64.3</ele>
        <time>2021-11-10T11:18:07Z</time>
      </trkpt>
      <trkpt lat="45.32565" lon="-0.28419">
        <ele>70</ele>
        <time>2021-11-10T11:17:55Z</time>
      </trkpt>
      <trkpt lat="45.32553" lon="-0.2839">
        <ele>67</ele>
        <time>2021-11-10T11:17:52Z</time>
      </trkpt>
      <trkpt lat="45.32545" lon="-0.28235">
        <ele>61.2</ele>
        <time>2021-11-10T11:17:34Z</time>
      </trkpt>
      <trkpt lat="45.32555" lon="-0.28206">
        <ele>61.6</ele>
        <time>2021-11-10T11:17:30Z</time>
      </trkpt>
      <trkpt lat="45.32589" lon="-0.28173">
        <ele>65.3</ele>
        <time>2021-11-10T11:17:23Z</time>
      </trkpt>
      <trkpt lat="45.32662" lon="-0.28128">
        <ele>68.3</ele>
        <time>2021-11-10T11:17:16Z</time>
      </trkpt>
      <trkpt lat="45.32689" lon="-0.28111">
        <ele>68.2</ele>
        <time>2021-11-10T11:17:12Z</time>
      </trkpt>
      <trkpt lat="45.32797" lon="-0.28044">
        <ele>66.7</ele>
        <time>2021-11-10T11:17:01Z</time>
      </trkpt>
      <trkpt lat="45.32931" lon="-0.27957">
        <ele>64.5</ele>
        <time>2021-11-10T11:16:43Z</time>
      </trkpt>
      <trkpt lat="45.32992" lon="-0.27948">
        <ele>69.2</ele>
        <time>2021-11-10T11:16:36Z</time>
      </trkpt>
      <trkpt lat="45.33068" lon="-0.27958">
        <ele>72.7</ele>
        <time>2021-11-10T11:16:29Z</time>
      </trkpt>
      <trkpt lat="45.33103" lon="-0.27962">
        <ele>72.8</ele>
        <time>2021-11-10T11:16:25Z</time>
      </trkpt>
      <trkpt lat="45.33122" lon="-0.27965">
        <ele>73.3</ele>
        <time>2021-11-10T11:16:22Z</time>
      </trkpt>
      <trkpt lat="45.33155" lon="-0.28042">
        <ele>67.7</ele>
        <time>2021-11-10T11:16:15Z</time>
      </trkpt>
      <trkpt lat="45.33238" lon="-0.28256">
        <ele>65.8</ele>
        <time>2021-11-10T11:16:14Z</time>
      </trkpt>
      <trkpt lat="45.33264" lon="-0.28324">
        <ele>72.1</ele>
        <time>2021-11-10T11:16:14Z</time>
      </trkpt>
      <trkpt lat="45.33265" lon="-0.28328">
        <ele>70.6</ele>
        <time>2021-11-10T11:16:14Z</time>
      </trkpt>
      <trkpt lat="45.33263" lon="-0.28335">
        <ele>69</ele>
        <time>2021-11-10T11:16:14Z</time>
      </trkpt>
      <trkpt lat="45.33269" lon="-0.28337">
        <ele>67.7</ele>
        <time>2021-11-10T11:16:10Z</time>
      </trkpt>
      <trkpt lat="45.33269" lon="-0.28337">
        <ele>67.5</ele>
        <time>2021-11-10T11:16:07Z</time>
      </trkpt>
      <trkpt lat="45.33269" lon="-0.28337">
        <ele>67</ele>
        <time>2021-11-10T11:15:50Z</time>
      </trkpt>
      <trkpt lat="45.33367" lon="-0.28494">
        <ele>68.2</ele>
        <time>2021-11-10T11:15:33Z</time>
      </trkpt>
      <trkpt lat="45.33539" lon="-0.28774">
        <ele>65.2</ele>
        <time>2021-11-10T11:15:15Z</time>
      </trkpt>
      <trkpt lat="45.33641" lon="-0.28973">
        <ele>66.8</ele>
        <time>2021-11-10T11:15:05Z</time>
      </trkpt>
      <trkpt lat="45.33676" lon="-0.29042">
        <ele>67</ele>
        <time>2021-11-10T11:14:58Z</time>
      </trkpt>
      <trkpt lat="45.3376" lon="-0.28961">
        <ele>72.4</ele>
        <time>2021-11-10T11:14:48Z</time>
      </trkpt>
      <trkpt lat="45.33807" lon="-0.28913">
        <ele>76.4</ele>
        <time>2021-11-10T11:14:44Z</time>
      </trkpt>
      <trkpt lat="45.33835" lon="-0.2885">
        <ele>79.7</ele>
        <time>2021-11-10T11:14:40Z</time>
      </trkpt>
      <trkpt lat="45.33886" lon="-0.28734">
        <ele>83.8</ele>
        <time>2021-11-10T11:14:33Z</time>
      </trkpt>
      <trkpt lat="45.33946" lon="-0.2869">
        <ele>88.6</ele>
        <time>2021-11-10T11:14:22Z</time>
      </trkpt>
      <trkpt lat="45.33959" lon="-0.28709">
        <ele>88.4</ele>
        <time>2021-11-10T11:14:19Z</time>
      </trkpt>
      <trkpt lat="45.34028" lon="-0.28935">
        <ele>84.5</ele>
        <time>2021-11-10T11:14:01Z</time>
      </trkpt>
      <trkpt lat="45.34044" lon="-0.28994">
        <ele>78.9</ele>
        <time>2021-11-10T11:13:57Z</time>
      </trkpt>
      <trkpt lat="45.34063" lon="-0.29041">
        <ele>75.1</ele>
        <time>2021-11-10T11:13:53Z</time>
      </trkpt>
      <trkpt lat="45.34084" lon="-0.2908">
        <ele>70</ele>
        <time>2021-11-10T11:13:46Z</time>
      </trkpt>
      <trkpt lat="45.341" lon="-0.29066">
        <ele>71</ele>
        <time>2021-11-10T11:13:43Z</time>
      </trkpt>
      <trkpt lat="45.3428" lon="-0.28894">
        <ele>70.1</ele>
        <time>2021-11-10T11:13:24Z</time>
      </trkpt>
      <trkpt lat="45.34473" lon="-0.28717">
        <ele>71.1</ele>
        <time>2021-11-10T11:13:00Z</time>
      </trkpt>
      <trkpt lat="45.34507" lon="-0.28735">
        <ele>67.3</ele>
        <time>2021-11-10T11:12:56Z</time>
      </trkpt>
      <trkpt lat="45.34546" lon="-0.28755">
        <ele>65</ele>
        <time>2021-11-10T11:12:52Z</time>
      </trkpt>
      <trkpt lat="45.34558" lon="-0.2875">
        <ele>65.2</ele>
        <time>2021-11-10T11:12:49Z</time>
      </trkpt>
      <trkpt lat="45.34559" lon="-0.2875">
        <ele>64.2</ele>
        <time>2021-11-10T11:12:38Z</time>
      </trkpt>
      <trkpt lat="45.34592" lon="-0.28598">
        <ele>62.3</ele>
        <time>2021-11-10T11:12:23Z</time>
      </trkpt>
      <trkpt lat="45.34601" lon="-0.28555">
        <ele>61.9</ele>
        <time>2021-11-10T11:12:20Z</time>
      </trkpt>
      <trkpt lat="45.34562" lon="-0.28446">
        <ele>61</ele>
        <time>2021-11-10T11:12:12Z</time>
      </trkpt>
      <trkpt lat="45.34496" lon="-0.28304">
        <ele>65</ele>
        <time>2021-11-10T11:12:04Z</time>
      </trkpt>
      <trkpt lat="45.34344" lon="-0.27974">
        <ele>61.6</ele>
        <time>2021-11-10T11:11:43Z</time>
      </trkpt>
      <trkpt lat="45.34322" lon="-0.27933">
        <ele>62.9</ele>
        <time>2021-11-10T11:11:39Z</time>
      </trkpt>
      <trkpt lat="45.34375" lon="-0.27841">
        <ele>62.9</ele>
        <time>2021-11-10T11:11:25Z</time>
      </trkpt>
      <trkpt lat="45.34465" lon="-0.27744">
        <ele>59.4</ele>
        <time>2021-11-10T11:11:08Z</time>
      </trkpt>
      <trkpt lat="45.34661" lon="-0.27716">
        <ele>59.9</ele>
        <time>2021-11-10T11:10:47Z</time>
      </trkpt>
      <trkpt lat="45.34802" lon="-0.27789">
        <ele>65.1</ele>
        <time>2021-11-10T11:10:29Z</time>
      </trkpt>
      <trkpt lat="45.34808" lon="-0.27793">
        <ele>65.2</ele>
        <time>2021-11-10T11:10:29Z</time>
      </trkpt>
      <trkpt lat="45.34828" lon="-0.27469">
        <ele>65.3</ele>
        <time>2021-11-10T11:09:57Z</time>
      </trkpt>
      <trkpt lat="45.34912" lon="-0.27484">
        <ele>63.7</ele>
        <time>2021-11-10T11:09:45Z</time>
      </trkpt>
      <trkpt lat="45.34956" lon="-0.27466">
        <ele>56.1</ele>
        <time>2021-11-10T11:09:39Z</time>
      </trkpt>
      <trkpt lat="45.34992" lon="-0.27443">
        <ele>57.3</ele>
        <time>2021-11-10T11:09:36Z</time>
      </trkpt>
      <trkpt lat="45.35073" lon="-0.27391">
        <ele>60.4</ele>
        <time>2021-11-10T11:09:28Z</time>
      </trkpt>
      <trkpt lat="45.35077" lon="-0.2739">
        <ele>57</ele>
        <time>2021-11-10T11:09:21Z</time>
      </trkpt>
      <trkpt lat="45.35078" lon="-0.27388">
        <ele>56.3</ele>
        <time>2021-11-10T11:08:03Z</time>
      </trkpt>
      <trkpt lat="45.35227" lon="-0.27307">
        <ele>60.5</ele>
        <time>2021-11-10T11:07:49Z</time>
      </trkpt>
      <trkpt lat="45.3533" lon="-0.27283">
        <ele>64</ele>
        <time>2021-11-10T11:07:42Z</time>
      </trkpt>
      <trkpt lat="45.35384" lon="-0.27279">
        <ele>68</ele>
        <time>2021-11-10T11:07:38Z</time>
      </trkpt>
      <trkpt lat="45.35661" lon="-0.27319">
        <ele>67.5</ele>
        <time>2021-11-10T11:07:19Z</time>
      </trkpt>
      <trkpt lat="45.35897" lon="-0.27214">
        <ele>65.5</ele>
        <time>2021-11-10T11:07:02Z</time>
      </trkpt>
      <trkpt lat="45.35942" lon="-0.27297">
        <ele>63.1</ele>
        <time>2021-11-10T11:06:51Z</time>
      </trkpt>
      <trkpt lat="45.36024" lon="-0.27207">
        <ele>66.9</ele>
        <time>2021-11-10T11:06:38Z</time>
      </trkpt>
      <trkpt lat="45.36136" lon="-0.27176">
        <ele>67.7</ele>
        <time>2021-11-10T11:06:30Z</time>
      </trkpt>
      <trkpt lat="45.36182" lon="-0.27164">
        <ele>72.4</ele>
        <time>2021-11-10T11:06:26Z</time>
      </trkpt>
      <trkpt lat="45.36201" lon="-0.2725">
        <ele>71.4</ele>
        <time>2021-11-10T11:06:15Z</time>
      </trkpt>
      <trkpt lat="45.36211" lon="-0.27367">
        <ele>74.7</ele>
        <time>2021-11-10T11:06:08Z</time>
      </trkpt>
      <trkpt lat="45.36219" lon="-0.27435">
        <ele>78.8</ele>
        <time>2021-11-10T11:06:04Z</time>
      </trkpt>
      <trkpt lat="45.36224" lon="-0.27483">
        <ele>78.7</ele>
        <time>2021-11-10T11:06:01Z</time>
      </trkpt>
      <trkpt lat="45.36229" lon="-0.27527">
        <ele>82.6</ele>
        <time>2021-11-10T11:05:58Z</time>
      </trkpt>
      <trkpt lat="45.36238" lon="-0.27626">
        <ele>84.8</ele>
        <time>2021-11-10T11:05:50Z</time>
      </trkpt>
      <trkpt lat="45.36257" lon="-0.27694">
        <ele>83.1</ele>
        <time>2021-11-10T11:05:40Z</time>
      </trkpt>
      <trkpt lat="45.36278" lon="-0.27749">
        <ele>79.5</ele>
        <time>2021-11-10T11:05:33Z</time>
      </trkpt>
      <trkpt lat="45.36335" lon="-0.27801">
        <ele>84.2</ele>
        <time>2021-11-10T11:05:23Z</time>
      </trkpt>
      <trkpt lat="45.36364" lon="-0.27876">
        <ele>88</ele>
        <time>2021-11-10T11:05:15Z</time>
      </trkpt>
      <trkpt lat="45.3637" lon="-0.27909">
        <ele>88.3</ele>
        <time>2021-11-10T11:05:12Z</time>
      </trkpt>
      <trkpt lat="45.36376" lon="-0.27949">
        <ele>87.3</ele>
        <time>2021-11-10T11:05:08Z</time>
      </trkpt>
      <trkpt lat="45.36375" lon="-0.27975">
        <ele>87.1</ele>
        <time>2021-11-10T11:04:52Z</time>
      </trkpt>
      <trkpt lat="45.36375" lon="-0.27975">
        <ele>87.6</ele>
        <time>2021-11-10T11:04:26Z</time>
      </trkpt>
      <trkpt lat="45.3643" lon="-0.2796">
        <ele>86.2</ele>
        <time>2021-11-10T11:04:16Z</time>
      </trkpt>
      <trkpt lat="45.36476" lon="-0.27954">
        <ele>83.2</ele>
        <time>2021-11-10T11:04:10Z</time>
      </trkpt>
      <trkpt lat="45.3647" lon="-0.27887">
        <ele>81.5</ele>
        <time>2021-11-10T11:04:02Z</time>
      </trkpt>
      <trkpt lat="45.3644" lon="-0.27745">
        <ele>86.2</ele>
        <time>2021-11-10T11:03:52Z</time>
      </trkpt>
      <trkpt lat="45.36438" lon="-0.27705">
        <ele>86.5</ele>
        <time>2021-11-10T11:03:49Z</time>
      </trkpt>
      <trkpt lat="45.36486" lon="-0.27665">
        <ele>80.8</ele>
        <time>2021-11-10T11:03:38Z</time>
      </trkpt>
      <trkpt lat="45.3651" lon="-0.27662">
        <ele>77.6</ele>
        <time>2021-11-10T11:03:34Z</time>
      </trkpt>
      <trkpt lat="45.36562" lon="-0.27573">
        <ele>79.6</ele>
        <time>2021-11-10T11:03:23Z</time>
      </trkpt>
      <trkpt lat="45.36622" lon="-0.27483">
        <ele>75.1</ele>
        <time>2021-11-10T11:03:08Z</time>
      </trkpt>
      <trkpt lat="45.36645" lon="-0.27467">
        <ele>77</ele>
        <time>2021-11-10T11:03:05Z</time>
      </trkpt>
      <trkpt lat="45.36706" lon="-0.2742">
        <ele>71.8</ele>
        <time>2021-11-10T11:02:53Z</time>
      </trkpt>
      <trkpt lat="45.36732" lon="-0.27401">
        <ele>71.6</ele>
        <time>2021-11-10T11:02:49Z</time>
      </trkpt>
      <trkpt lat="45.36774" lon="-0.27368">
        <ele>70.2</ele>
        <time>2021-11-10T11:02:45Z</time>
      </trkpt>
      <trkpt lat="45.36923" lon="-0.27305">
        <ele>71.7</ele>
        <time>2021-11-10T11:02:30Z</time>
      </trkpt>
      <trkpt lat="45.3696" lon="-0.27433">
        <ele>67.4</ele>
        <time>2021-11-10T11:02:18Z</time>
      </trkpt>
      <trkpt lat="45.36986" lon="-0.27535">
        <ele>65</ele>
        <time>2021-11-10T11:02:10Z</time>
      </trkpt>
      <trkpt lat="45.37074" lon="-0.27509">
        <ele>66</ele>
        <time>2021-11-10T11:01:56Z</time>
      </trkpt>
      <trkpt lat="45.37231" lon="-0.2743">
        <ele>63.8</ele>
        <time>2021-11-10T11:01:38Z</time>
      </trkpt>
      <trkpt lat="45.37289" lon="-0.2745">
        <ele>62.7</ele>
        <time>2021-11-10T11:01:31Z</time>
      </trkpt>
      <trkpt lat="45.374" lon="-0.27507">
        <ele>63</ele>
        <time>2021-11-10T11:01:24Z</time>
      </trkpt>
      <trkpt lat="45.37545" lon="-0.27518">
        <ele>61.4</ele>
        <time>2021-11-10T11:01:13Z</time>
      </trkpt>
      <trkpt lat="45.37681" lon="-0.27523">
        <ele>60.4</ele>
        <time>2021-11-10T11:01:06Z</time>
      </trkpt>
      <trkpt lat="45.37808" lon="-0.27527">
        <ele>58</ele>
        <time>2021-11-10T11:00:59Z</time>
      </trkpt>
      <trkpt lat="45.37915" lon="-0.2753">
        <ele>63.6</ele>
        <time>2021-11-10T11:00:52Z</time>
      </trkpt>
      <trkpt lat="45.37979" lon="-0.27534">
        <ele>61.7</ele>
        <time>2021-11-10T11:00:46Z</time>
      </trkpt>
      <trkpt lat="45.38161" lon="-0.27564">
        <ele>60.9</ele>
        <time>2021-11-10T11:00:28Z</time>
      </trkpt>
      <trkpt lat="45.38167" lon="-0.27565">
        <ele>60.5</ele>
        <time>2021-11-10T11:00:27Z</time>
      </trkpt>
      <trkpt lat="45.38205" lon="-0.27886">
        <ele>58.4</ele>
        <time>2021-11-10T10:59:51Z</time>
      </trkpt>
      <trkpt lat="45.38217" lon="-0.2801">
        <ele>58.1</ele>
        <time>2021-11-10T10:59:43Z</time>
      </trkpt>
      <trkpt lat="45.38212" lon="-0.28012">
        <ele>55.2</ele>
        <time>2021-11-10T10:59:43Z</time>
      </trkpt>
      <trkpt lat="45.38223" lon="-0.2803">
        <ele>55.6</ele>
        <time>2021-11-10T10:59:39Z</time>
      </trkpt>
      <trkpt lat="45.38385" lon="-0.27904">
        <ele>56.6</ele>
        <time>2021-11-10T10:59:27Z</time>
      </trkpt>
      <trkpt lat="45.38565" lon="-0.27773">
        <ele>53.4</ele>
        <time>2021-11-10T10:59:17Z</time>
      </trkpt>
      <trkpt lat="45.38845" lon="-0.27453">
        <ele>57.3</ele>
        <time>2021-11-10T10:58:59Z</time>
      </trkpt>
      <trkpt lat="45.38835" lon="-0.27252">
        <ele>58.7</ele>
        <time>2021-11-10T10:58:46Z</time>
      </trkpt>
      <trkpt lat="45.38775" lon="-0.27082">
        <ele>54.6</ele>
        <time>2021-11-10T10:58:40Z</time>
      </trkpt>
      <trkpt lat="45.38752" lon="-0.27003">
        <ele>56.2</ele>
        <time>2021-11-10T10:58:37Z</time>
      </trkpt>
      <trkpt lat="45.38705" lon="-0.26717">
        <ele>59.7</ele>
        <time>2021-11-10T10:58:25Z</time>
      </trkpt>
      <trkpt lat="45.38672" lon="-0.26532">
        <ele>65.4</ele>
        <time>2021-11-10T10:58:15Z</time>
      </trkpt>
      <trkpt lat="45.38674" lon="-0.26513">
        <ele>65</ele>
        <time>2021-11-10T10:58:12Z</time>
      </trkpt>
      <trkpt lat="45.38795" lon="-0.26468">
        <ele>69.5</ele>
        <time>2021-11-10T10:58:01Z</time>
      </trkpt>
      <trkpt lat="45.3894" lon="-0.26416">
        <ele>73.4</ele>
        <time>2021-11-10T10:57:53Z</time>
      </trkpt>
      <trkpt lat="45.39009" lon="-0.26391">
        <ele>72.6</ele>
        <time>2021-11-10T10:57:49Z</time>
      </trkpt>
      <trkpt lat="45.39368" lon="-0.26374">
        <ele>74.4</ele>
        <time>2021-11-10T10:57:29Z</time>
      </trkpt>
      <trkpt lat="45.39446" lon="-0.26378">
        <ele>76.3</ele>
        <time>2021-11-10T10:57:22Z</time>
      </trkpt>
      <trkpt lat="45.39477" lon="-0.26353">
        <ele>79.1</ele>
        <time>2021-11-10T10:57:15Z</time>
      </trkpt>
      <trkpt lat="45.39473" lon="-0.26285">
        <ele>82.6</ele>
        <time>2021-11-10T10:57:08Z</time>
      </trkpt>
      <trkpt lat="45.39443" lon="-0.26222">
        <ele>87.2</ele>
        <time>2021-11-10T10:57:01Z</time>
      </trkpt>
      <trkpt lat="45.39425" lon="-0.26176">
        <ele>91.9</ele>
        <time>2021-11-10T10:56:54Z</time>
      </trkpt>
      <trkpt lat="45.39472" lon="-0.26094">
        <ele>95.2</ele>
        <time>2021-11-10T10:56:43Z</time>
      </trkpt>
      <trkpt lat="45.39525" lon="-0.25991">
        <ele>98.9</ele>
        <time>2021-11-10T10:56:36Z</time>
      </trkpt>
      <trkpt lat="45.39549" lon="-0.25925">
        <ele>98.2</ele>
        <time>2021-11-10T10:56:32Z</time>
      </trkpt>
      <trkpt lat="45.39572" lon="-0.25877">
        <ele>95.2</ele>
        <time>2021-11-10T10:56:29Z</time>
      </trkpt>
      <trkpt lat="45.39609" lon="-0.25827">
        <ele>95.1</ele>
        <time>2021-11-10T10:56:25Z</time>
      </trkpt>
      <trkpt lat="45.39644" lon="-0.25741">
        <ele>92.1</ele>
        <time>2021-11-10T10:56:17Z</time>
      </trkpt>
      <trkpt lat="45.39648" lon="-0.25528">
        <ele>90.4</ele>
        <time>2021-11-10T10:55:59Z</time>
      </trkpt>
      <trkpt lat="45.39667" lon="-0.25374">
        <ele>87.7</ele>
        <time>2021-11-10T10:55:47Z</time>
      </trkpt>
      <trkpt lat="45.39691" lon="-0.25183">
        <ele>88.8</ele>
        <time>2021-11-10T10:55:32Z</time>
      </trkpt>
      <trkpt lat="45.39709" lon="-0.25145">
        <ele>91.8</ele>
        <time>2021-11-10T10:55:29Z</time>
      </trkpt>
      <trkpt lat="45.39788" lon="-0.24994">
        <ele>94.8</ele>
        <time>2021-11-10T10:55:21Z</time>
      </trkpt>
      <trkpt lat="45.39752" lon="-0.24871">
        <ele>93.7</ele>
        <time>2021-11-10T10:55:10Z</time>
      </trkpt>
      <trkpt lat="45.39691" lon="-0.24768">
        <ele>90.3</ele>
        <time>2021-11-10T10:55:03Z</time>
      </trkpt>
      <trkpt lat="45.39654" lon="-0.24705">
        <ele>91</ele>
        <time>2021-11-10T10:54:59Z</time>
      </trkpt>
      <trkpt lat="45.39446" lon="-0.24512">
        <ele>92.1</ele>
        <time>2021-11-10T10:54:44Z</time>
      </trkpt>
      <trkpt lat="45.39415" lon="-0.24484">
        <ele>93.6</ele>
        <time>2021-11-10T10:54:37Z</time>
      </trkpt>
      <trkpt lat="45.3946" lon="-0.24417">
        <ele>95.3</ele>
        <time>2021-11-10T10:54:30Z</time>
      </trkpt>
      <trkpt lat="45.39579" lon="-0.24271">
        <ele>95.2</ele>
        <time>2021-11-10T10:54:20Z</time>
      </trkpt>
      <trkpt lat="45.39625" lon="-0.24046">
        <ele>96.2</ele>
        <time>2021-11-10T10:54:08Z</time>
      </trkpt>
      <trkpt lat="45.39655" lon="-0.23661">
        <ele>94.2</ele>
        <time>2021-11-10T10:53:54Z</time>
      </trkpt>
      <trkpt lat="45.39688" lon="-0.23397">
        <ele>95</ele>
        <time>2021-11-10T10:53:39Z</time>
      </trkpt>
      <trkpt lat="45.39705" lon="-0.23347">
        <ele>95.3</ele>
        <time>2021-11-10T10:53:36Z</time>
      </trkpt>
      <trkpt lat="45.39858" lon="-0.23236">
        <ele>93.9</ele>
        <time>2021-11-10T10:53:21Z</time>
      </trkpt>
      <trkpt lat="45.39886" lon="-0.23224">
        <ele>92.6</ele>
        <time>2021-11-10T10:53:17Z</time>
      </trkpt>
      <trkpt lat="45.39838" lon="-0.23065">
        <ele>91.3</ele>
        <time>2021-11-10T10:53:04Z</time>
      </trkpt>
      <trkpt lat="45.3988" lon="-0.22836">
        <ele>91.3</ele>
        <time>2021-11-10T10:52:49Z</time>
      </trkpt>
      <trkpt lat="45.39925" lon="-0.22652">
        <ele>87.6</ele>
        <time>2021-11-10T10:52:39Z</time>
      </trkpt>
      <trkpt lat="45.3994" lon="-0.22585">
        <ele>85.9</ele>
        <time>2021-11-10T10:52:35Z</time>
      </trkpt>
      <trkpt lat="45.39965" lon="-0.22548">
        <ele>86.2</ele>
        <time>2021-11-10T10:52:31Z</time>
      </trkpt>
      <trkpt lat="45.4003" lon="-0.22508">
        <ele>89.3</ele>
        <time>2021-11-10T10:52:25Z</time>
      </trkpt>
      <trkpt lat="45.40074" lon="-0.22464">
        <ele>89.5</ele>
        <time>2021-11-10T10:52:21Z</time>
      </trkpt>
      <trkpt lat="45.40115" lon="-0.22423">
        <ele>87.6</ele>
        <time>2021-11-10T10:52:17Z</time>
      </trkpt>
      <trkpt lat="45.40202" lon="-0.22364">
        <ele>84.4</ele>
        <time>2021-11-10T10:52:10Z</time>
      </trkpt>
      <trkpt lat="45.40253" lon="-0.22299">
        <ele>79.8</ele>
        <time>2021-11-10T10:52:03Z</time>
      </trkpt>
      <trkpt lat="45.40271" lon="-0.22235">
        <ele>76.8</ele>
        <time>2021-11-10T10:51:59Z</time>
      </trkpt>
      <trkpt lat="45.40306" lon="-0.22103">
        <ele>76</ele>
        <time>2021-11-10T10:51:51Z</time>
      </trkpt>
      <trkpt lat="45.40321" lon="-0.22014">
        <ele>72.5</ele>
        <time>2021-11-10T10:51:44Z</time>
      </trkpt>
      <trkpt lat="45.40359" lon="-0.21975">
        <ele>75.6</ele>
        <time>2021-11-10T10:51:37Z</time>
      </trkpt>
      <trkpt lat="45.4042" lon="-0.2198">
        <ele>79.1</ele>
        <time>2021-11-10T10:51:23Z</time>
      </trkpt>
      <trkpt lat="45.40497" lon="-0.21854">
        <ele>85.4</ele>
        <time>2021-11-10T10:51:12Z</time>
      </trkpt>
      <trkpt lat="45.40558" lon="-0.21791">
        <ele>89.1</ele>
        <time>2021-11-10T10:51:08Z</time>
      </trkpt>
      <trkpt lat="45.40652" lon="-0.21692">
        <ele>93.8</ele>
        <time>2021-11-10T10:51:01Z</time>
      </trkpt>
      <trkpt lat="45.40719" lon="-0.21566">
        <ele>92.2</ele>
        <time>2021-11-10T10:50:50Z</time>
      </trkpt>
      <trkpt lat="45.40773" lon="-0.21573">
        <ele>94.5</ele>
        <time>2021-11-10T10:50:43Z</time>
      </trkpt>
      <trkpt lat="45.4085" lon="-0.2165">
        <ele>95.2</ele>
        <time>2021-11-10T10:50:31Z</time>
      </trkpt>
      <trkpt lat="45.40886" lon="-0.2158">
        <ele>98.6</ele>
        <time>2021-11-10T10:50:23Z</time>
      </trkpt>
      <trkpt lat="45.40906" lon="-0.21534">
        <ele>98.5</ele>
        <time>2021-11-10T10:50:20Z</time>
      </trkpt>
      <trkpt lat="45.40978" lon="-0.21406">
        <ele>98.4</ele>
        <time>2021-11-10T10:50:09Z</time>
      </trkpt>
      <trkpt lat="45.41024" lon="-0.21328">
        <ele>101.9</ele>
        <time>2021-11-10T10:50:02Z</time>
      </trkpt>
      <trkpt lat="45.41053" lon="-0.21298">
        <ele>101.3</ele>
        <time>2021-11-10T10:49:59Z</time>
      </trkpt>
      <trkpt lat="45.41274" lon="-0.21177">
        <ele>103.1</ele>
        <time>2021-11-10T10:49:39Z</time>
      </trkpt>
      <trkpt lat="45.41312" lon="-0.2116">
        <ele>103.2</ele>
        <time>2021-11-10T10:49:36Z</time>
      </trkpt>
      <trkpt lat="45.41462" lon="-0.21048">
        <ele>103.3</ele>
        <time>2021-11-10T10:49:21Z</time>
      </trkpt>
      <trkpt lat="45.41506" lon="-0.21034">
        <ele>107.8</ele>
        <time>2021-11-10T10:49:14Z</time>
      </trkpt>
      <trkpt lat="45.41535" lon="-0.21086">
        <ele>109</ele>
        <time>2021-11-10T10:49:07Z</time>
      </trkpt>
      <trkpt lat="45.41557" lon="-0.21129">
        <ele>108</ele>
        <time>2021-11-10T10:49:03Z</time>
      </trkpt>
      <trkpt lat="45.41571" lon="-0.21165">
        <ele>111.4</ele>
        <time>2021-11-10T10:49:00Z</time>
      </trkpt>
      <trkpt lat="45.41589" lon="-0.21203">
        <ele>106.7</ele>
        <time>2021-11-10T10:48:56Z</time>
      </trkpt>
      <trkpt lat="45.41602" lon="-0.21235">
        <ele>103</ele>
        <time>2021-11-10T10:48:52Z</time>
      </trkpt>
      <trkpt lat="45.41609" lon="-0.21253">
        <ele>102.5</ele>
        <time>2021-11-10T10:48:49Z</time>
      </trkpt>
      <trkpt lat="45.41635" lon="-0.21294">
        <ele>98</ele>
        <time>2021-11-10T10:48:43Z</time>
      </trkpt>
      <trkpt lat="45.41651" lon="-0.21319">
        <ele>93.1</ele>
        <time>2021-11-10T10:48:39Z</time>
      </trkpt>
      <trkpt lat="45.41661" lon="-0.21343">
        <ele>89.3</ele>
        <time>2021-11-10T10:48:36Z</time>
      </trkpt>
      <trkpt lat="45.41699" lon="-0.21429">
        <ele>92</ele>
        <time>2021-11-10T10:48:26Z</time>
      </trkpt>
      <trkpt lat="45.41704" lon="-0.21468">
        <ele>95.1</ele>
        <time>2021-11-10T10:48:20Z</time>
      </trkpt>
      <trkpt lat="45.41706" lon="-0.21506">
        <ele>99.7</ele>
        <time>2021-11-10T10:48:16Z</time>
      </trkpt>
      <trkpt lat="45.41727" lon="-0.21561">
        <ele>103.1</ele>
        <time>2021-11-10T10:48:09Z</time>
      </trkpt>
      <trkpt lat="45.41761" lon="-0.2164">
        <ele>105.3</ele>
        <time>2021-11-10T10:47:32Z</time>
      </trkpt>
      <trkpt lat="45.4176" lon="-0.21639">
        <ele>102</ele>
        <time>2021-11-10T10:47:28Z</time>
      </trkpt>
      <trkpt lat="45.4176" lon="-0.21639">
        <ele>101</ele>
        <time>2021-11-10T10:47:21Z</time>
      </trkpt>
      <trkpt lat="45.4176" lon="-0.21639">
        <ele>102.7</ele>
        <time>2021-11-10T10:47:10Z</time>
      </trkpt>
      <trkpt lat="45.41751" lon="-0.2162">
        <ele>103.7</ele>
        <time>2021-11-10T10:46:45Z</time>
      </trkpt>
      <trkpt lat="45.41742" lon="-0.21592">
        <ele>109.5</ele>
        <time>2021-11-10T10:46:38Z</time>
      </trkpt>
      <trkpt lat="45.41737" lon="-0.21586">
        <ele>112.7</ele>
        <time>2021-11-10T10:46:35Z</time>
      </trkpt>
      <trkpt lat="45.41726" lon="-0.21564">
        <ele>119.1</ele>
        <time>2021-11-10T10:46:27Z</time>
      </trkpt>
      <trkpt lat="45.41709" lon="-0.21531">
        <ele>115.7</ele>
        <time>2021-11-10T10:46:13Z</time>
      </trkpt>
      <trkpt lat="45.4171" lon="-0.21531">
        <ele>116</ele>
        <time>2021-11-10T10:46:09Z</time>
      </trkpt>
      <trkpt lat="45.4171" lon="-0.21532">
        <ele>115.4</ele>
        <time>2021-11-10T10:45:54Z</time>
      </trkpt>
      <trkpt lat="45.41709" lon="-0.21525">
        <ele>111.6</ele>
        <time>2021-11-10T10:45:51Z</time>
      </trkpt>
      <trkpt lat="45.41709" lon="-0.21533">
        <ele>108</ele>
        <time>2021-11-10T10:45:30Z</time>
      </trkpt>
      <trkpt lat="45.41709" lon="-0.21533">
        <ele>107.5</ele>
        <time>2021-11-10T10:44:49Z</time>
      </trkpt>
      <trkpt lat="45.41736" lon="-0.2158">
        <ele>105.1</ele>
        <time>2021-11-10T10:44:38Z</time>
      </trkpt>
      <trkpt lat="45.41751" lon="-0.21621">
        <ele>103.4</ele>
        <time>2021-11-10T10:44:31Z</time>
      </trkpt>
      <trkpt lat="45.41794" lon="-0.21651">
        <ele>108.4</ele>
        <time>2021-11-10T10:44:20Z</time>
      </trkpt>
      <trkpt lat="45.41803" lon="-0.21699">
        <ele>110.1</ele>
        <time>2021-11-10T10:44:13Z</time>
      </trkpt>
      <trkpt lat="45.41833" lon="-0.21866">
        <ele>106.6</ele>
        <time>2021-11-10T10:44:01Z</time>
      </trkpt>
      <trkpt lat="45.41852" lon="-0.21945">
        <ele>106.5</ele>
        <time>2021-11-10T10:43:57Z</time>
      </trkpt>
      <trkpt lat="45.41874" lon="-0.22021">
        <ele>106.5</ele>
        <time>2021-11-10T10:43:53Z</time>
      </trkpt>
      <trkpt lat="45.41886" lon="-0.22133">
        <ele>102.9</ele>
        <time>2021-11-10T10:43:43Z</time>
      </trkpt>
      <trkpt lat="45.41877" lon="-0.22165">
        <ele>102.8</ele>
        <time>2021-11-10T10:43:39Z</time>
      </trkpt>
      <trkpt lat="45.41868" lon="-0.22196">
        <ele>103</ele>
        <time>2021-11-10T10:43:36Z</time>
      </trkpt>
      <trkpt lat="45.41901" lon="-0.22319">
        <ele>103.7</ele>
        <time>2021-11-10T10:43:25Z</time>
      </trkpt>
      <trkpt lat="45.41929" lon="-0.22392">
        <ele>100.2</ele>
        <time>2021-11-10T10:43:17Z</time>
      </trkpt>
      <trkpt lat="45.41929" lon="-0.22442">
        <ele>95.7</ele>
        <time>2021-11-10T10:43:08Z</time>
      </trkpt>
      <trkpt lat="45.41927" lon="-0.22523">
        <ele>92.8</ele>
        <time>2021-11-10T10:42:57Z</time>
      </trkpt>
      <trkpt lat="45.4193" lon="-0.2257">
        <ele>91.4</ele>
        <time>2021-11-10T10:42:50Z</time>
      </trkpt>
      <trkpt lat="45.41933" lon="-0.226">
        <ele>91.3</ele>
        <time>2021-11-10T10:42:47Z</time>
      </trkpt>
      <trkpt lat="45.41943" lon="-0.22651">
        <ele>92.6</ele>
        <time>2021-11-10T10:42:40Z</time>
      </trkpt>
      <trkpt lat="45.41953" lon="-0.2278">
        <ele>92.8</ele>
        <time>2021-11-10T10:42:26Z</time>
      </trkpt>
      <trkpt lat="45.41937" lon="-0.22891">
        <ele>89.4</ele>
        <time>2021-11-10T10:42:15Z</time>
      </trkpt>
      <trkpt lat="45.41945" lon="-0.22948">
        <ele>88.5</ele>
        <time>2021-11-10T10:42:08Z</time>
      </trkpt>
      <trkpt lat="45.41943" lon="-0.23005">
        <ele>87.5</ele>
        <time>2021-11-10T10:42:01Z</time>
      </trkpt>
      <trkpt lat="45.41938" lon="-0.23154">
        <ele>89.3</ele>
        <time>2021-11-10T10:41:46Z</time>
      </trkpt>
      <trkpt lat="45.41935" lon="-0.23183">
        <ele>88</ele>
        <time>2021-11-10T10:41:43Z</time>
      </trkpt>
      <trkpt lat="45.41929" lon="-0.23259">
        <ele>90.6</ele>
        <time>2021-11-10T10:41:35Z</time>
      </trkpt>
      <trkpt lat="45.41944" lon="-0.2328">
        <ele>90.1</ele>
        <time>2021-11-10T10:41:32Z</time>
      </trkpt>
      <trkpt lat="45.42024" lon="-0.23348">
        <ele>91.6</ele>
        <time>2021-11-10T10:41:21Z</time>
      </trkpt>
      <trkpt lat="45.42068" lon="-0.2342">
        <ele>92.9</ele>
        <time>2021-11-10T10:41:14Z</time>
      </trkpt>
      <trkpt lat="45.42085" lon="-0.23582">
        <ele>91.3</ele>
        <time>2021-11-10T10:40:56Z</time>
      </trkpt>
      <trkpt lat="45.42087" lon="-0.23682">
        <ele>94.7</ele>
        <time>2021-11-10T10:40:45Z</time>
      </trkpt>
      <trkpt lat="45.42092" lon="-0.23706">
        <ele>96.5</ele>
        <time>2021-11-10T10:40:42Z</time>
      </trkpt>
      <trkpt lat="45.4209" lon="-0.23737">
        <ele>101</ele>
        <time>2021-11-10T10:40:38Z</time>
      </trkpt>
      <trkpt lat="45.42065" lon="-0.23798">
        <ele>97.7</ele>
        <time>2021-11-10T10:40:27Z</time>
      </trkpt>
      <trkpt lat="45.42043" lon="-0.23854">
        <ele>94.6</ele>
        <time>2021-11-10T10:40:15Z</time>
      </trkpt>
      <trkpt lat="45.42079" lon="-0.23936">
        <ele>95.2</ele>
        <time>2021-11-10T10:40:01Z</time>
      </trkpt>
      <trkpt lat="45.42148" lon="-0.24028">
        <ele>93</ele>
        <time>2021-11-10T10:39:46Z</time>
      </trkpt>
      <trkpt lat="45.4216" lon="-0.24068">
        <ele>89.8</ele>
        <time>2021-11-10T10:39:40Z</time>
      </trkpt>
      <trkpt lat="45.42145" lon="-0.24123">
        <ele>85</ele>
        <time>2021-11-10T10:39:33Z</time>
      </trkpt>
      <trkpt lat="45.42141" lon="-0.24155">
        <ele>85.6</ele>
        <time>2021-11-10T10:39:29Z</time>
      </trkpt>
      <trkpt lat="45.4216" lon="-0.24275">
        <ele>86.4</ele>
        <time>2021-11-10T10:39:11Z</time>
      </trkpt>
      <trkpt lat="45.42234" lon="-0.24259">
        <ele>90.1</ele>
        <time>2021-11-10T10:39:02Z</time>
      </trkpt>
      <trkpt lat="45.42265" lon="-0.24246">
        <ele>89.8</ele>
        <time>2021-11-10T10:38:58Z</time>
      </trkpt>
      <trkpt lat="45.42288" lon="-0.24266">
        <ele>81.7</ele>
        <time>2021-11-10T10:38:47Z</time>
      </trkpt>
      <trkpt lat="45.42299" lon="-0.24308">
        <ele>76.6</ele>
        <time>2021-11-10T10:38:40Z</time>
      </trkpt>
      <trkpt lat="45.42309" lon="-0.24322">
        <ele>72.8</ele>
        <time>2021-11-10T10:38:37Z</time>
      </trkpt>
      <trkpt lat="45.42329" lon="-0.24345">
        <ele>73.8</ele>
        <time>2021-11-10T10:38:33Z</time>
      </trkpt>
      <trkpt lat="45.42347" lon="-0.24366">
        <ele>73.9</ele>
        <time>2021-11-10T10:38:29Z</time>
      </trkpt>
      <trkpt lat="45.424" lon="-0.24407">
        <ele>75.3</ele>
        <time>2021-11-10T10:38:19Z</time>
      </trkpt>
      <trkpt lat="45.42466" lon="-0.24455">
        <ele>80.8</ele>
        <time>2021-11-10T10:38:08Z</time>
      </trkpt>
      <trkpt lat="45.42495" lon="-0.24482">
        <ele>88.1</ele>
        <time>2021-11-10T10:38:01Z</time>
      </trkpt>
      <trkpt lat="45.42496" lon="-0.2453">
        <ele>91.5</ele>
        <time>2021-11-10T10:37:54Z</time>
      </trkpt>
      <trkpt lat="45.42499" lon="-0.24572">
        <ele>94.3</ele>
        <time>2021-11-10T10:37:47Z</time>
      </trkpt>
      <trkpt lat="45.42517" lon="-0.24586">
        <ele>99.8</ele>
        <time>2021-11-10T10:37:41Z</time>
      </trkpt>
      <trkpt lat="45.42536" lon="-0.24585">
        <ele>95.6</ele>
        <time>2021-11-10T10:28:37Z</time>
      </trkpt>
      <trkpt lat="45.42536" lon="-0.24585">
        <ele>95.9</ele>
        <time>2021-11-10T10:28:33Z</time>
      </trkpt>
      <trkpt lat="45.42541" lon="-0.24585">
        <ele>94.8</ele>
        <time>2021-11-10T10:28:22Z</time>
      </trkpt>
      <trkpt lat="45.42594" lon="-0.24598">
        <ele>98.2</ele>
        <time>2021-11-10T10:28:15Z</time>
      </trkpt>
      <trkpt lat="45.42623" lon="-0.24605">
        <ele>100.2</ele>
        <time>2021-11-10T10:28:12Z</time>
      </trkpt>
      <trkpt lat="45.42672" lon="-0.24654">
        <ele>96.4</ele>
        <time>2021-11-10T10:27:57Z</time>
      </trkpt>
      <trkpt lat="45.4267" lon="-0.24694">
        <ele>96.4</ele>
        <time>2021-11-10T10:27:54Z</time>
      </trkpt>
      <trkpt lat="45.42652" lon="-0.24901">
        <ele>92.1</ele>
        <time>2021-11-10T10:27:43Z</time>
      </trkpt>
      <trkpt lat="45.42639" lon="-0.2502">
        <ele>88.5</ele>
        <time>2021-11-10T10:27:36Z</time>
      </trkpt>
      <trkpt lat="45.42633" lon="-0.25097">
        <ele>87.7</ele>
        <time>2021-11-10T10:27:29Z</time>
      </trkpt>
      <trkpt lat="45.42641" lon="-0.25107">
        <ele>84.5</ele>
        <time>2021-11-10T10:27:25Z</time>
      </trkpt>
      <trkpt lat="45.42685" lon="-0.25123">
        <ele>82.5</ele>
        <time>2021-11-10T10:27:18Z</time>
      </trkpt>
      <trkpt lat="45.42775" lon="-0.25133">
        <ele>90.6</ele>
        <time>2021-11-10T10:27:10Z</time>
      </trkpt>
      <trkpt lat="45.42844" lon="-0.25138">
        <ele>91.2</ele>
        <time>2021-11-10T10:27:03Z</time>
      </trkpt>
      <trkpt lat="45.42898" lon="-0.25169">
        <ele>94.6</ele>
        <time>2021-11-10T10:26:55Z</time>
      </trkpt>
      <trkpt lat="45.4292" lon="-0.25198">
        <ele>97.6</ele>
        <time>2021-11-10T10:26:51Z</time>
      </trkpt>
      <trkpt lat="45.42932" lon="-0.25224">
        <ele>96.2</ele>
        <time>2021-11-10T10:26:48Z</time>
      </trkpt>
      <trkpt lat="45.42974" lon="-0.25332">
        <ele>93.3</ele>
        <time>2021-11-10T10:26:31Z</time>
      </trkpt>
      <trkpt lat="45.43006" lon="-0.25388">
        <ele>95.6</ele>
        <time>2021-11-10T10:26:23Z</time>
      </trkpt>
      <trkpt lat="45.4304" lon="-0.25436">
        <ele>95.9</ele>
        <time>2021-11-10T10:26:16Z</time>
      </trkpt>
      <trkpt lat="45.43054" lon="-0.25492">
        <ele>98.1</ele>
        <time>2021-11-10T10:26:09Z</time>
      </trkpt>
      <trkpt lat="45.43051" lon="-0.25576">
        <ele>102.3</ele>
        <time>2021-11-10T10:25:54Z</time>
      </trkpt>
      <trkpt lat="45.4306" lon="-0.25644">
        <ele>108.4</ele>
        <time>2021-11-10T10:25:47Z</time>
      </trkpt>
      <trkpt lat="45.43107" lon="-0.25799">
        <ele>111.5</ele>
        <time>2021-11-10T10:25:28Z</time>
      </trkpt>
      <trkpt lat="45.43118" lon="-0.2585">
        <ele>109.6</ele>
        <time>2021-11-10T10:25:21Z</time>
      </trkpt>
      <trkpt lat="45.43143" lon="-0.25904">
        <ele>107.1</ele>
        <time>2021-11-10T10:25:13Z</time>
      </trkpt>
      <trkpt lat="45.4318" lon="-0.25996">
        <ele>109.4</ele>
        <time>2021-11-10T10:25:06Z</time>
      </trkpt>
      <trkpt lat="45.43244" lon="-0.26053">
        <ele>115.4</ele>
        <time>2021-11-10T10:24:58Z</time>
      </trkpt>
      <trkpt lat="45.43317" lon="-0.26148">
        <ele>116.1</ele>
        <time>2021-11-10T10:24:51Z</time>
      </trkpt>
      <trkpt lat="45.434" lon="-0.26261">
        <ele>113.8</ele>
        <time>2021-11-10T10:24:39Z</time>
      </trkpt>
      <trkpt lat="45.43413" lon="-0.26343">
        <ele>108.9</ele>
        <time>2021-11-10T10:24:32Z</time>
      </trkpt>
      <trkpt lat="45.43418" lon="-0.26358">
        <ele>109.8</ele>
        <time>2021-11-10T10:24:18Z</time>
      </trkpt>
      <trkpt lat="45.43448" lon="-0.26479">
        <ele>110.5</ele>
        <time>2021-11-10T10:24:00Z</time>
      </trkpt>
      <trkpt lat="45.43497" lon="-0.2661">
        <ele>109.3</ele>
        <time>2021-11-10T10:23:53Z</time>
      </trkpt>
      <trkpt lat="45.43453" lon="-0.26755">
        <ele>114.2</ele>
        <time>2021-11-10T10:23:41Z</time>
      </trkpt>
      <trkpt lat="45.43391" lon="-0.27">
        <ele>112.9</ele>
        <time>2021-11-10T10:23:27Z</time>
      </trkpt>
      <trkpt lat="45.43337" lon="-0.27037">
        <ele>106.2</ele>
        <time>2021-11-10T10:23:20Z</time>
      </trkpt>
      <trkpt lat="45.43248" lon="-0.27066">
        <ele>100.4</ele>
        <time>2021-11-10T10:23:14Z</time>
      </trkpt>
      <trkpt lat="45.43187" lon="-0.27087">
        <ele>98.1</ele>
        <time>2021-11-10T10:23:10Z</time>
      </trkpt>
      <trkpt lat="45.43122" lon="-0.27183">
        <ele>95.1</ele>
        <time>2021-11-10T10:23:03Z</time>
      </trkpt>
      <trkpt lat="45.4308" lon="-0.27212">
        <ele>95</ele>
        <time>2021-11-10T10:22:59Z</time>
      </trkpt>
      <trkpt lat="45.42914" lon="-0.27267">
        <ele>94.6</ele>
        <time>2021-11-10T10:22:48Z</time>
      </trkpt>
      <trkpt lat="45.42857" lon="-0.27311">
        <ele>99.5</ele>
        <time>2021-11-10T10:22:41Z</time>
      </trkpt>
      <trkpt lat="45.42824" lon="-0.27321">
        <ele>98.4</ele>
        <time>2021-11-10T10:22:37Z</time>
      </trkpt>
      <trkpt lat="45.42677" lon="-0.27419">
        <ele>97</ele>
        <time>2021-11-10T10:22:23Z</time>
      </trkpt>
      <trkpt lat="45.4265" lon="-0.27488">
        <ele>93.1</ele>
        <time>2021-11-10T10:22:17Z</time>
      </trkpt>
      <trkpt lat="45.42651" lon="-0.27653">
        <ele>96.3</ele>
        <time>2021-11-10T10:22:06Z</time>
      </trkpt>
      <trkpt lat="45.42651" lon="-0.27653">
        <ele>107.7</ele>
        <time>2021-11-10T10:22:06Z</time>
      </trkpt>
      <trkpt lat="45.4265" lon="-0.27655">
        <ele>107.9</ele>
        <time>2021-11-10T10:22:05Z</time>
      </trkpt>
      <trkpt lat="45.42686" lon="-0.27781">
        <ele>106.6</ele>
        <time>2021-11-10T10:21:48Z</time>
      </trkpt>
      <trkpt lat="45.42706" lon="-0.2791">
        <ele>106.1</ele>
        <time>2021-11-10T10:21:31Z</time>
      </trkpt>
      <trkpt lat="45.42665" lon="-0.28071">
        <ele>106.3</ele>
        <time>2021-11-10T10:21:12Z</time>
      </trkpt>
      <trkpt lat="45.42637" lon="-0.28264">
        <ele>105.4</ele>
        <time>2021-11-10T10:20:50Z</time>
      </trkpt>
      <trkpt lat="45.42644" lon="-0.28293">
        <ele>106</ele>
        <time>2021-11-10T10:20:46Z</time>
      </trkpt>
      <trkpt lat="45.42693" lon="-0.28278">
        <ele>108.4</ele>
        <time>2021-11-10T10:20:34Z</time>
      </trkpt>
      <trkpt lat="45.42752" lon="-0.28266">
        <ele>108.5</ele>
        <time>2021-11-10T10:20:22Z</time>
      </trkpt>
      <trkpt lat="45.42779" lon="-0.28302">
        <ele>108.3</ele>
        <time>2021-11-10T10:20:11Z</time>
      </trkpt>
      <trkpt lat="45.42844" lon="-0.2846">
        <ele>106.3</ele>
        <time>2021-11-10T10:19:42Z</time>
      </trkpt>
      <trkpt lat="45.42954" lon="-0.28364">
        <ele>100.7</ele>
        <time>2021-11-10T10:19:11Z</time>
      </trkpt>
      <trkpt lat="45.43019" lon="-0.28327">
        <ele>92.9</ele>
        <time>2021-11-10T10:18:55Z</time>
      </trkpt>
      <trkpt lat="45.43096" lon="-0.28257">
        <ele>83.1</ele>
        <time>2021-11-10T10:18:33Z</time>
      </trkpt>
      <trkpt lat="45.43115" lon="-0.28263">
        <ele>82.2</ele>
        <time>2021-11-10T10:18:28Z</time>
      </trkpt>
      <trkpt lat="45.43174" lon="-0.28232">
        <ele>79.5</ele>
        <time>2021-11-10T10:18:03Z</time>
      </trkpt>
      <trkpt lat="45.43191" lon="-0.28231">
        <ele>79.5</ele>
        <time>2021-11-10T10:17:56Z</time>
      </trkpt>
      <trkpt lat="45.43211" lon="-0.28241">
        <ele>75.8</ele>
        <time>2021-11-10T10:17:47Z</time>
      </trkpt>
      <trkpt lat="45.43211" lon="-0.28239">
        <ele>75.6</ele>
        <time>2021-11-10T10:17:47Z</time>
      </trkpt>
      <trkpt lat="45.43207" lon="-0.28263">
        <ele>74.1</ele>
        <time>2021-11-10T10:17:43Z</time>
      </trkpt>
      <trkpt lat="45.43204" lon="-0.28324">
        <ele>77.6</ele>
        <time>2021-11-10T10:17:39Z</time>
      </trkpt>
      <trkpt lat="45.43198" lon="-0.28395">
        <ele>81.4</ele>
        <time>2021-11-10T10:17:35Z</time>
      </trkpt>
      <trkpt lat="45.43187" lon="-0.28443">
        <ele>80.5</ele>
        <time>2021-11-10T10:17:32Z</time>
      </trkpt>
      <trkpt lat="45.43168" lon="-0.28695">
        <ele>81.6</ele>
        <time>2021-11-10T10:17:16Z</time>
      </trkpt>
      <trkpt lat="45.43231" lon="-0.28759">
        <ele>77.8</ele>
        <time>2021-11-10T10:17:06Z</time>
      </trkpt>
      <trkpt lat="45.43174" lon="-0.28905">
        <ele>84.2</ele>
        <time>2021-11-10T10:16:55Z</time>
      </trkpt>
      <trkpt lat="45.4313" lon="-0.29037">
        <ele>84.8</ele>
        <time>2021-11-10T10:16:48Z</time>
      </trkpt>
      <trkpt lat="45.43051" lon="-0.29155">
        <ele>83.1</ele>
        <time>2021-11-10T10:16:33Z</time>
      </trkpt>
      <trkpt lat="45.43065" lon="-0.29247">
        <ele>79.3</ele>
        <time>2021-11-10T10:16:26Z</time>
      </trkpt>
      <trkpt lat="45.43044" lon="-0.29353">
        <ele>74.8</ele>
        <time>2021-11-10T10:16:19Z</time>
      </trkpt>
      <trkpt lat="45.43005" lon="-0.29531">
        <ele>70.7</ele>
        <time>2021-11-10T10:16:11Z</time>
      </trkpt>
      <trkpt lat="45.42985" lon="-0.29574">
        <ele>71.3</ele>
        <time>2021-11-10T10:16:07Z</time>
      </trkpt>
      <trkpt lat="45.42882" lon="-0.29599">
        <ele>76</ele>
        <time>2021-11-10T10:15:59Z</time>
      </trkpt>
      <trkpt lat="45.42851" lon="-0.29606">
        <ele>75</ele>
        <time>2021-11-10T10:15:55Z</time>
      </trkpt>
      <trkpt lat="45.42895" lon="-0.29759">
        <ele>69.2</ele>
        <time>2021-11-10T10:15:43Z</time>
      </trkpt>
      <trkpt lat="45.42932" lon="-0.29862">
        <ele>69</ele>
        <time>2021-11-10T10:15:39Z</time>
      </trkpt>
      <trkpt lat="45.42967" lon="-0.29958">
        <ele>65.3</ele>
        <time>2021-11-10T10:15:35Z</time>
      </trkpt>
      <trkpt lat="45.43056" lon="-0.30202">
        <ele>63.8</ele>
        <time>2021-11-10T10:15:23Z</time>
      </trkpt>
      <trkpt lat="45.43079" lon="-0.30267">
        <ele>66.4</ele>
        <time>2021-11-10T10:15:17Z</time>
      </trkpt>
      <trkpt lat="45.43064" lon="-0.30276">
        <ele>66.4</ele>
        <time>2021-11-10T10:15:13Z</time>
      </trkpt>
      <trkpt lat="45.42962" lon="-0.30298">
        <ele>68</ele>
        <time>2021-11-10T10:15:05Z</time>
      </trkpt>
      <trkpt lat="45.42802" lon="-0.30392">
        <ele>73.5</ele>
        <time>2021-11-10T10:14:54Z</time>
      </trkpt>
      <trkpt lat="45.42776" lon="-0.30404">
        <ele>73.9</ele>
        <time>2021-11-10T10:14:51Z</time>
      </trkpt>
      <trkpt lat="45.42795" lon="-0.30479">
        <ele>72.2</ele>
        <time>2021-11-10T10:14:41Z</time>
      </trkpt>
      <trkpt lat="45.42822" lon="-0.30552">
        <ele>71.1</ele>
        <time>2021-11-10T10:14:37Z</time>
      </trkpt>
      <trkpt lat="45.42876" lon="-0.3075">
        <ele>66.6</ele>
        <time>2021-11-10T10:14:29Z</time>
      </trkpt>
      <trkpt lat="45.42958" lon="-0.31022">
        <ele>66.1</ele>
        <time>2021-11-10T10:14:18Z</time>
      </trkpt>
      <trkpt lat="45.43028" lon="-0.31327">
        <ele>63.5</ele>
        <time>2021-11-10T10:14:05Z</time>
      </trkpt>
      <trkpt lat="45.43151" lon="-0.3159">
        <ele>65.7</ele>
        <time>2021-11-10T10:13:54Z</time>
      </trkpt>
      <trkpt lat="45.43202" lon="-0.3167">
        <ele>65.6</ele>
        <time>2021-11-10T10:13:48Z</time>
      </trkpt>
      <trkpt lat="45.43226" lon="-0.31721">
        <ele>62.4</ele>
        <time>2021-11-10T10:13:41Z</time>
      </trkpt>
      <trkpt lat="45.43341" lon="-0.31918">
        <ele>62.5</ele>
        <time>2021-11-10T10:13:30Z</time>
      </trkpt>
      <trkpt lat="45.43375" lon="-0.31985">
        <ele>62.3</ele>
        <time>2021-11-10T10:13:27Z</time>
      </trkpt>
      <trkpt lat="45.43444" lon="-0.32184">
        <ele>60.5</ele>
        <time>2021-11-10T10:13:17Z</time>
      </trkpt>
      <trkpt lat="45.43572" lon="-0.32275">
        <ele>60.3</ele>
        <time>2021-11-10T10:13:02Z</time>
      </trkpt>
      <trkpt lat="45.4356" lon="-0.32399">
        <ele>59.2</ele>
        <time>2021-11-10T10:12:52Z</time>
      </trkpt>
      <trkpt lat="45.43558" lon="-0.32594">
        <ele>56.2</ele>
        <time>2021-11-10T10:12:42Z</time>
      </trkpt>
      <trkpt lat="45.43566" lon="-0.32755">
        <ele>53.1</ele>
        <time>2021-11-10T10:12:32Z</time>
      </trkpt>
      <trkpt lat="45.43578" lon="-0.32885">
        <ele>50.1</ele>
        <time>2021-11-10T10:12:26Z</time>
      </trkpt>
      <trkpt lat="45.43584" lon="-0.32944">
        <ele>50.5</ele>
        <time>2021-11-10T10:12:23Z</time>
      </trkpt>
      <trkpt lat="45.43588" lon="-0.33077">
        <ele>48.4</ele>
        <time>2021-11-10T10:12:16Z</time>
      </trkpt>
      <trkpt lat="45.43593" lon="-0.33214">
        <ele>43.8</ele>
        <time>2021-11-10T10:12:08Z</time>
      </trkpt>
      <trkpt lat="45.43595" lon="-0.33256">
        <ele>43</ele>
        <time>2021-11-10T10:12:05Z</time>
      </trkpt>
      <trkpt lat="45.43615" lon="-0.33339">
        <ele>45.3</ele>
        <time>2021-11-10T10:11:58Z</time>
      </trkpt>
      <trkpt lat="45.43615" lon="-0.33444">
        <ele>48</ele>
        <time>2021-11-10T10:11:50Z</time>
      </trkpt>
      <trkpt lat="45.43585" lon="-0.33535">
        <ele>52.6</ele>
        <time>2021-11-10T10:11:43Z</time>
      </trkpt>
      <trkpt lat="45.43561" lon="-0.33574">
        <ele>50.9</ele>
        <time>2021-11-10T10:11:40Z</time>
      </trkpt>
      <trkpt lat="45.43488" lon="-0.33686">
        <ele>49.5</ele>
        <time>2021-11-10T10:11:32Z</time>
      </trkpt>
      <trkpt lat="45.43429" lon="-0.33785">
        <ele>53</ele>
        <time>2021-11-10T10:11:25Z</time>
      </trkpt>
      <trkpt lat="45.43352" lon="-0.3385">
        <ele>56.5</ele>
        <time>2021-11-10T10:11:17Z</time>
      </trkpt>
      <trkpt lat="45.43305" lon="-0.33876">
        <ele>61</ele>
        <time>2021-11-10T10:11:06Z</time>
      </trkpt>
      <trkpt lat="45.43251" lon="-0.33887">
        <ele>65.3</ele>
        <time>2021-11-10T10:10:59Z</time>
      </trkpt>
      <trkpt lat="45.43173" lon="-0.33942">
        <ele>68.3</ele>
        <time>2021-11-10T10:10:51Z</time>
      </trkpt>
      <trkpt lat="45.43042" lon="-0.34097">
        <ele>67.4</ele>
        <time>2021-11-10T10:10:33Z</time>
      </trkpt>
      <trkpt lat="45.43021" lon="-0.34168">
        <ele>62.8</ele>
        <time>2021-11-10T10:10:29Z</time>
      </trkpt>
      <trkpt lat="45.42991" lon="-0.34256">
        <ele>60.9</ele>
        <time>2021-11-10T10:10:22Z</time>
      </trkpt>
      <trkpt lat="45.42983" lon="-0.34291">
        <ele>57</ele>
        <time>2021-11-10T10:10:18Z</time>
      </trkpt>
      <trkpt lat="45.42963" lon="-0.34372">
        <ele>51.6</ele>
        <time>2021-11-10T10:10:07Z</time>
      </trkpt>
      <trkpt lat="45.42916" lon="-0.34464">
        <ele>55</ele>
        <time>2021-11-10T10:09:53Z</time>
      </trkpt>
      <trkpt lat="45.42905" lon="-0.34485">
        <ele>59.9</ele>
        <time>2021-11-10T10:09:49Z</time>
      </trkpt>
      <trkpt lat="45.429" lon="-0.34511">
        <ele>63.1</ele>
        <time>2021-11-10T10:09:46Z</time>
      </trkpt>
      <trkpt lat="45.42892" lon="-0.3454">
        <ele>67.4</ele>
        <time>2021-11-10T10:09:42Z</time>
      </trkpt>
      <trkpt lat="45.42876" lon="-0.34596">
        <ele>70.5</ele>
        <time>2021-11-10T10:09:35Z</time>
      </trkpt>
      <trkpt lat="45.42861" lon="-0.34654">
        <ele>73.7</ele>
        <time>2021-11-10T10:09:28Z</time>
      </trkpt>
      <trkpt lat="45.42851" lon="-0.34686">
        <ele>73.4</ele>
        <time>2021-11-10T10:09:24Z</time>
      </trkpt>
      <trkpt lat="45.4284" lon="-0.34721">
        <ele>66.4</ele>
        <time>2021-11-10T10:07:38Z</time>
      </trkpt>
      <trkpt lat="45.42864" lon="-0.34725">
        <ele>67.2</ele>
        <time>2021-11-10T10:07:35Z</time>
      </trkpt>
      <trkpt lat="45.42962" lon="-0.34737">
        <ele>63.8</ele>
        <time>2021-11-10T10:07:24Z</time>
      </trkpt>
      <trkpt lat="45.42983" lon="-0.34741">
        <ele>62.3</ele>
        <time>2021-11-10T10:07:21Z</time>
      </trkpt>
      <trkpt lat="45.43024" lon="-0.34814">
        <ele>58.7</ele>
        <time>2021-11-10T10:07:11Z</time>
      </trkpt>
      <trkpt lat="45.43044" lon="-0.34866">
        <ele>58.9</ele>
        <time>2021-11-10T10:07:02Z</time>
      </trkpt>
      <trkpt lat="45.43039" lon="-0.34931">
        <ele>58.2</ele>
        <time>2021-11-10T10:06:55Z</time>
      </trkpt>
      <trkpt lat="45.43046" lon="-0.3501">
        <ele>61.3</ele>
        <time>2021-11-10T10:06:48Z</time>
      </trkpt>
      <trkpt lat="45.43052" lon="-0.35062">
        <ele>63.3</ele>
        <time>2021-11-10T10:06:44Z</time>
      </trkpt>
      <trkpt lat="45.43061" lon="-0.3509">
        <ele>63.3</ele>
        <time>2021-11-10T10:06:41Z</time>
      </trkpt>
      <trkpt lat="45.43116" lon="-0.35152">
        <ele>66</ele>
        <time>2021-11-10T10:06:26Z</time>
      </trkpt>
      <trkpt lat="45.43127" lon="-0.35239">
        <ele>69.6</ele>
        <time>2021-11-10T10:06:19Z</time>
      </trkpt>
      <trkpt lat="45.43139" lon="-0.35293">
        <ele>72.7</ele>
        <time>2021-11-10T10:06:15Z</time>
      </trkpt>
      <trkpt lat="45.43149" lon="-0.35343">
        <ele>73.6</ele>
        <time>2021-11-10T10:06:11Z</time>
      </trkpt>
      <trkpt lat="45.43158" lon="-0.35435">
        <ele>74.6</ele>
        <time>2021-11-10T10:06:03Z</time>
      </trkpt>
      <trkpt lat="45.4315" lon="-0.35553">
        <ele>73.2</ele>
        <time>2021-11-10T10:05:53Z</time>
      </trkpt>
      <trkpt lat="45.43141" lon="-0.35735">
        <ele>75.8</ele>
        <time>2021-11-10T10:05:27Z</time>
      </trkpt>
      <trkpt lat="45.4314" lon="-0.35744">
        <ele>73.6</ele>
        <time>2021-11-10T10:05:15Z</time>
      </trkpt>
      <trkpt lat="45.43141" lon="-0.3576">
        <ele>75</ele>
        <time>2021-11-10T10:04:05Z</time>
      </trkpt>
      <trkpt lat="45.4308" lon="-0.35881">
        <ele>78</ele>
        <time>2021-11-10T10:03:55Z</time>
      </trkpt>
      <trkpt lat="45.43073" lon="-0.35929">
        <ele>78.2</ele>
        <time>2021-11-10T10:03:51Z</time>
      </trkpt>
      <trkpt lat="45.43136" lon="-0.36018">
        <ele>80.5</ele>
        <time>2021-11-10T10:03:43Z</time>
      </trkpt>
      <trkpt lat="45.43187" lon="-0.36148">
        <ele>81.9</ele>
        <time>2021-11-10T10:03:35Z</time>
      </trkpt>
      <trkpt lat="45.43264" lon="-0.36237">
        <ele>79.5</ele>
        <time>2021-11-10T10:03:27Z</time>
      </trkpt>
      <trkpt lat="45.43277" lon="-0.36279">
        <ele>77.3</ele>
        <time>2021-11-10T10:03:17Z</time>
      </trkpt>
      <trkpt lat="45.43276" lon="-0.36279">
        <ele>75.7</ele>
        <time>2021-11-10T10:03:10Z</time>
      </trkpt>
      <trkpt lat="45.43253" lon="-0.36297">
        <ele>81.3</ele>
        <time>2021-11-10T10:03:03Z</time>
      </trkpt>
      <trkpt lat="45.43213" lon="-0.36337">
        <ele>83.4</ele>
        <time>2021-11-10T10:02:59Z</time>
      </trkpt>
      <trkpt lat="45.4313" lon="-0.36494">
        <ele>78.1</ele>
        <time>2021-11-10T10:02:48Z</time>
      </trkpt>
      <trkpt lat="45.43102" lon="-0.3654">
        <ele>75</ele>
        <time>2021-11-10T10:02:45Z</time>
      </trkpt>
      <trkpt lat="45.43063" lon="-0.36589">
        <ele>67.8</ele>
        <time>2021-11-10T10:02:41Z</time>
      </trkpt>
      <trkpt lat="45.43017" lon="-0.36667">
        <ele>59.3</ele>
        <time>2021-11-10T10:02:37Z</time>
      </trkpt>
      <trkpt lat="45.42962" lon="-0.36776">
        <ele>57.6</ele>
        <time>2021-11-10T10:02:30Z</time>
      </trkpt>
      <trkpt lat="45.42953" lon="-0.3679">
        <ele>54.5</ele>
        <time>2021-11-10T10:02:23Z</time>
      </trkpt>
      <trkpt lat="45.42953" lon="-0.3679">
        <ele>54.4</ele>
        <time>2021-11-10T10:02:19Z</time>
      </trkpt>
      <trkpt lat="45.42953" lon="-0.36791">
        <ele>53.8</ele>
        <time>2021-11-10T10:01:07Z</time>
      </trkpt>
      <trkpt lat="45.42908" lon="-0.36936">
        <ele>53.1</ele>
        <time>2021-11-10T10:00:50Z</time>
      </trkpt>
      <trkpt lat="45.42815" lon="-0.37086">
        <ele>48.2</ele>
        <time>2021-11-10T10:00:42Z</time>
      </trkpt>
      <trkpt lat="45.42712" lon="-0.37272">
        <ele>43.9</ele>
        <time>2021-11-10T10:00:35Z</time>
      </trkpt>
      <trkpt lat="45.4262" lon="-0.37531">
        <ele>43.5</ele>
        <time>2021-11-10T10:00:23Z</time>
      </trkpt>
      <trkpt lat="45.42702" lon="-0.37571">
        <ele>42.2</ele>
        <time>2021-11-10T10:00:12Z</time>
      </trkpt>
      <trkpt lat="45.42765" lon="-0.3759">
        <ele>43.3</ele>
        <time>2021-11-10T10:00:08Z</time>
      </trkpt>
      <trkpt lat="45.42888" lon="-0.37719">
        <ele>42.7</ele>
        <time>2021-11-10T09:59:56Z</time>
      </trkpt>
      <trkpt lat="45.42968" lon="-0.37695">
        <ele>43.5</ele>
        <time>2021-11-10T09:59:46Z</time>
      </trkpt>
      <trkpt lat="45.43146" lon="-0.37563">
        <ele>45.5</ele>
        <time>2021-11-10T09:59:31Z</time>
      </trkpt>
      <trkpt lat="45.43164" lon="-0.37601">
        <ele>44.1</ele>
        <time>2021-11-10T09:59:23Z</time>
      </trkpt>
      <trkpt lat="45.432" lon="-0.3777">
        <ele>47.3</ele>
        <time>2021-11-10T09:59:12Z</time>
      </trkpt>
      <trkpt lat="45.43242" lon="-0.37935">
        <ele>49.2</ele>
        <time>2021-11-10T09:59:05Z</time>
      </trkpt>
      <trkpt lat="45.43296" lon="-0.38084">
        <ele>51.6</ele>
        <time>2021-11-10T09:58:57Z</time>
      </trkpt>
      <trkpt lat="45.43314" lon="-0.38154">
        <ele>54.8</ele>
        <time>2021-11-10T09:58:53Z</time>
      </trkpt>
      <trkpt lat="45.43328" lon="-0.38209">
        <ele>56.7</ele>
        <time>2021-11-10T09:58:49Z</time>
      </trkpt>
      <trkpt lat="45.43361" lon="-0.38272">
        <ele>58.6</ele>
        <time>2021-11-10T09:58:42Z</time>
      </trkpt>
      <trkpt lat="45.43391" lon="-0.38382">
        <ele>60.8</ele>
        <time>2021-11-10T09:58:35Z</time>
      </trkpt>
      <trkpt lat="45.43399" lon="-0.38413">
        <ele>60.9</ele>
        <time>2021-11-10T09:58:31Z</time>
      </trkpt>
      <trkpt lat="45.43476" lon="-0.38375">
        <ele>57.4</ele>
        <time>2021-11-10T09:58:24Z</time>
      </trkpt>
      <trkpt lat="45.43539" lon="-0.38341">
        <ele>57.2</ele>
        <time>2021-11-10T09:58:21Z</time>
      </trkpt>
      <trkpt lat="45.43679" lon="-0.38262">
        <ele>53.9</ele>
        <time>2021-11-10T09:58:13Z</time>
      </trkpt>
      <trkpt lat="45.43942" lon="-0.38246">
        <ele>52.2</ele>
        <time>2021-11-10T09:58:00Z</time>
      </trkpt>
      <trkpt lat="45.44143" lon="-0.38248">
        <ele>56.7</ele>
        <time>2021-11-10T09:57:53Z</time>
      </trkpt>
      <trkpt lat="45.44257" lon="-0.38179">
        <ele>57.9</ele>
        <time>2021-11-10T09:57:43Z</time>
      </trkpt>
      <trkpt lat="45.44257" lon="-0.38179">
        <ele>56.8</ele>
        <time>2021-11-10T09:57:19Z</time>
      </trkpt>
      <trkpt lat="45.44257" lon="-0.38178">
        <ele>107.8</ele>
        <time>2021-11-10T09:54:11Z</time>
      </trkpt>
      <trkpt lat="45.44274" lon="-0.38154">
        <ele>107.8</ele>
        <time>2021-11-10T09:54:08Z</time>
      </trkpt>
      <trkpt lat="45.44387" lon="-0.37958">
        <ele>107.9</ele>
        <time>2021-11-10T09:53:58Z</time>
      </trkpt>
      <trkpt lat="45.44529" lon="-0.37906">
        <ele>107.9</ele>
        <time>2021-11-10T09:53:47Z</time>
      </trkpt>
      <trkpt lat="45.44562" lon="-0.38">
        <ele>107.7</ele>
        <time>2021-11-10T09:53:35Z</time>
      </trkpt>
      <trkpt lat="45.44534" lon="-0.38426">
        <ele>107.9</ele>
        <time>2021-11-10T09:53:20Z</time>
      </trkpt>
      <trkpt lat="45.4453" lon="-0.38478">
        <ele>107.9</ele>
        <time>2021-11-10T09:53:17Z</time>
      </trkpt>
      <trkpt lat="45.44537" lon="-0.385">
        <ele>107.8</ele>
        <time>2021-11-10T09:53:06Z</time>
      </trkpt>
      <trkpt lat="45.44537" lon="-0.385">
        <ele>50.1</ele>
        <time>2021-11-10T09:51:48Z</time>
      </trkpt>
      <trkpt lat="45.44538" lon="-0.38501">
        <ele>51.5</ele>
        <time>2021-11-10T09:51:44Z</time>
      </trkpt>
      <trkpt lat="45.44636" lon="-0.38577">
        <ele>49.5</ele>
        <time>2021-11-10T09:51:29Z</time>
      </trkpt>
      <trkpt lat="45.44921" lon="-0.38794">
        <ele>51.6</ele>
        <time>2021-11-10T09:51:03Z</time>
      </trkpt>
      <trkpt lat="45.44998" lon="-0.38841">
        <ele>50.9</ele>
        <time>2021-11-10T09:50:55Z</time>
      </trkpt>
      <trkpt lat="45.45065" lon="-0.38881">
        <ele>46.7</ele>
        <time>2021-11-10T09:50:48Z</time>
      </trkpt>
      <trkpt lat="45.45083" lon="-0.38894">
        <ele>44.9</ele>
        <time>2021-11-10T09:50:45Z</time>
      </trkpt>
      <trkpt lat="45.451" lon="-0.3891">
        <ele>41.8</ele>
        <time>2021-11-10T09:50:41Z</time>
      </trkpt>
      <trkpt lat="45.45113" lon="-0.38923">
        <ele>38.7</ele>
        <time>2021-11-10T09:50:37Z</time>
      </trkpt>
      <trkpt lat="45.45113" lon="-0.38923">
        <ele>53.4</ele>
        <time>2021-11-10T09:50:33Z</time>
      </trkpt>
      <trkpt lat="45.45113" lon="-0.38923">
        <ele>52.7</ele>
        <time>2021-11-10T09:50:29Z</time>
      </trkpt>
      <trkpt lat="45.45113" lon="-0.38923">
        <ele>52.4</ele>
        <time>2021-11-10T09:39:59Z</time>
      </trkpt>
      <trkpt lat="45.45164" lon="-0.38975">
        <ele>55.5</ele>
        <time>2021-11-10T09:16:59Z</time>
      </trkpt>
      <trkpt lat="45.45215" lon="-0.39032">
        <ele>57.6</ele>
        <time>2021-11-10T09:16:52Z</time>
      </trkpt>
      <trkpt lat="45.45339" lon="-0.3915">
        <ele>56.1</ele>
        <time>2021-11-10T09:16:38Z</time>
      </trkpt>
      <trkpt lat="45.45465" lon="-0.39284">
        <ele>56.2</ele>
        <time>2021-11-10T09:16:24Z</time>
      </trkpt>
      <trkpt lat="45.45508" lon="-0.39323">
        <ele>56.3</ele>
        <time>2021-11-10T09:16:21Z</time>
      </trkpt>
      <trkpt lat="45.45678" lon="-0.39468">
        <ele>53.1</ele>
        <time>2021-11-10T09:16:10Z</time>
      </trkpt>
      <trkpt lat="45.45819" lon="-0.39538">
        <ele>55.6</ele>
        <time>2021-11-10T09:16:00Z</time>
      </trkpt>
      <trkpt lat="45.45959" lon="-0.39587">
        <ele>58.1</ele>
        <time>2021-11-10T09:15:46Z</time>
      </trkpt>
      <trkpt lat="45.46141" lon="-0.39784">
        <ele>61.8</ele>
        <time>2021-11-10T09:15:31Z</time>
      </trkpt>
      <trkpt lat="45.46189" lon="-0.3984">
        <ele>61.8</ele>
        <time>2021-11-10T09:15:27Z</time>
      </trkpt>
      <trkpt lat="45.46276" lon="-0.39966">
        <ele>56.8</ele>
        <time>2021-11-10T09:15:13Z</time>
      </trkpt>
      <trkpt lat="45.46355" lon="-0.4008">
        <ele>53</ele>
        <time>2021-11-10T09:15:06Z</time>
      </trkpt>
      <trkpt lat="45.46448" lon="-0.40228">
        <ele>48.5</ele>
        <time>2021-11-10T09:14:59Z</time>
      </trkpt>
      <trkpt lat="45.46502" lon="-0.40315">
        <ele>45</ele>
        <time>2021-11-10T09:14:55Z</time>
      </trkpt>
      <trkpt lat="45.4661" lon="-0.40478">
        <ele>41.2</ele>
        <time>2021-11-10T09:14:48Z</time>
      </trkpt>
      <trkpt lat="45.46847" lon="-0.40838">
        <ele>40</ele>
        <time>2021-11-10T09:14:31Z</time>
      </trkpt>
      <trkpt lat="45.46964" lon="-0.41084">
        <ele>39.7</ele>
        <time>2021-11-10T09:14:21Z</time>
      </trkpt>
      <trkpt lat="45.47187" lon="-0.41348">
        <ele>38</ele>
        <time>2021-11-10T09:14:05Z</time>
      </trkpt>
      <trkpt lat="45.47471" lon="-0.41641">
        <ele>36.6</ele>
        <time>2021-11-10T09:13:48Z</time>
      </trkpt>
      <trkpt lat="45.47648" lon="-0.4179">
        <ele>36.2</ele>
        <time>2021-11-10T09:13:33Z</time>
      </trkpt>
      <trkpt lat="45.47685" lon="-0.41773">
        <ele>35.4</ele>
        <time>2021-11-10T09:13:25Z</time>
      </trkpt>
      <trkpt lat="45.47844" lon="-0.41424">
        <ele>32.5</ele>
        <time>2021-11-10T09:13:09Z</time>
      </trkpt>
      <trkpt lat="45.47964" lon="-0.41125">
        <ele>35.7</ele>
        <time>2021-11-10T09:12:57Z</time>
      </trkpt>
      <trkpt lat="45.48003" lon="-0.41027">
        <ele>39.2</ele>
        <time>2021-11-10T09:12:53Z</time>
      </trkpt>
      <trkpt lat="45.48052" lon="-0.40898">
        <ele>41.9</ele>
        <time>2021-11-10T09:12:46Z</time>
      </trkpt>
      <trkpt lat="45.48117" lon="-0.40919">
        <ele>41.4</ele>
        <time>2021-11-10T09:12:36Z</time>
      </trkpt>
      <trkpt lat="45.48153" lon="-0.40944">
        <ele>41.1</ele>
        <time>2021-11-10T09:12:33Z</time>
      </trkpt>
      <trkpt lat="45.48269" lon="-0.41027">
        <ele>39.5</ele>
        <time>2021-11-10T09:12:21Z</time>
      </trkpt>
      <trkpt lat="45.48372" lon="-0.411">
        <ele>38.2</ele>
        <time>2021-11-10T09:12:14Z</time>
      </trkpt>
      <trkpt lat="45.48402" lon="-0.4112">
        <ele>37.3</ele>
        <time>2021-11-10T09:12:11Z</time>
      </trkpt>
      <trkpt lat="45.48443" lon="-0.41074">
        <ele>38.5</ele>
        <time>2021-11-10T09:12:00Z</time>
      </trkpt>
      <trkpt lat="45.48474" lon="-0.41106">
        <ele>35.1</ele>
        <time>2021-11-10T09:11:53Z</time>
      </trkpt>
      <trkpt lat="45.48641" lon="-0.41213">
        <ele>34.3</ele>
        <time>2021-11-10T09:11:38Z</time>
      </trkpt>
      <trkpt lat="45.48774" lon="-0.4132">
        <ele>31.5</ele>
        <time>2021-11-10T09:11:28Z</time>
      </trkpt>
      <trkpt lat="45.48812" lon="-0.41268">
        <ele>35.7</ele>
        <time>2021-11-10T09:11:21Z</time>
      </trkpt>
      <trkpt lat="45.4885" lon="-0.41192">
        <ele>38.2</ele>
        <time>2021-11-10T09:11:17Z</time>
      </trkpt>
      <trkpt lat="45.48894" lon="-0.41184">
        <ele>39</ele>
        <time>2021-11-10T09:11:07Z</time>
      </trkpt>
      <trkpt lat="45.48977" lon="-0.41268">
        <ele>36</ele>
        <time>2021-11-10T09:11:00Z</time>
      </trkpt>
      <trkpt lat="45.49152" lon="-0.41401">
        <ele>33</ele>
        <time>2021-11-10T09:10:49Z</time>
      </trkpt>
      <trkpt lat="45.49297" lon="-0.41512">
        <ele>32.1</ele>
        <time>2021-11-10T09:10:41Z</time>
      </trkpt>
      <trkpt lat="45.49387" lon="-0.41617">
        <ele>35.2</ele>
        <time>2021-11-10T09:10:34Z</time>
      </trkpt>
      <trkpt lat="45.49502" lon="-0.41754">
        <ele>30.5</ele>
        <time>2021-11-10T09:10:23Z</time>
      </trkpt>
      <trkpt lat="45.49571" lon="-0.41827">
        <ele>27.3</ele>
        <time>2021-11-10T09:10:17Z</time>
      </trkpt>
      <trkpt lat="45.49554" lon="-0.41922">
        <ele>26.3</ele>
        <time>2021-11-10T09:10:06Z</time>
      </trkpt>
      <trkpt lat="45.49491" lon="-0.4206">
        <ele>25</ele>
        <time>2021-11-10T09:09:56Z</time>
      </trkpt>
      <trkpt lat="45.49534" lon="-0.42317">
        <ele>26.5</ele>
        <time>2021-11-10T09:09:41Z</time>
      </trkpt>
      <trkpt lat="45.49541" lon="-0.42378">
        <ele>25.3</ele>
        <time>2021-11-10T09:09:37Z</time>
      </trkpt>
      <trkpt lat="45.49691" lon="-0.42613">
        <ele>25.7</ele>
        <time>2021-11-10T09:09:19Z</time>
      </trkpt>
      <trkpt lat="45.49761" lon="-0.42716">
        <ele>25.1</ele>
        <time>2021-11-10T09:09:12Z</time>
      </trkpt>
      <trkpt lat="45.49852" lon="-0.42932">
        <ele>24</ele>
        <time>2021-11-10T09:08:57Z</time>
      </trkpt>
      <trkpt lat="45.4994" lon="-0.43212">
        <ele>24.6</ele>
        <time>2021-11-10T09:08:37Z</time>
      </trkpt>
      <trkpt lat="45.49962" lon="-0.43272">
        <ele>23.6</ele>
        <time>2021-11-10T09:08:33Z</time>
      </trkpt>
      <trkpt lat="45.49984" lon="-0.43368">
        <ele>24.8</ele>
        <time>2021-11-10T09:08:26Z</time>
      </trkpt>
      <trkpt lat="45.49942" lon="-0.43466">
        <ele>26.1</ele>
        <time>2021-11-10T09:08:12Z</time>
      </trkpt>
      <trkpt lat="45.49951" lon="-0.43535">
        <ele>24.9</ele>
        <time>2021-11-10T09:07:59Z</time>
      </trkpt>
      <trkpt lat="45.49946" lon="-0.43545">
        <ele>23.5</ele>
        <time>2021-11-10T09:07:55Z</time>
      </trkpt>
      <trkpt lat="45.49991" lon="-0.43682">
        <ele>21.8</ele>
        <time>2021-11-10T09:07:35Z</time>
      </trkpt>
      <trkpt lat="45.50086" lon="-0.44066">
        <ele>21.6</ele>
        <time>2021-11-10T09:07:08Z</time>
      </trkpt>
      <trkpt lat="45.50134" lon="-0.44232">
        <ele>20.9</ele>
        <time>2021-11-10T09:06:54Z</time>
      </trkpt>
      <trkpt lat="45.50152" lon="-0.44325">
        <ele>25.7</ele>
        <time>2021-11-10T09:06:43Z</time>
      </trkpt>
      <trkpt lat="45.5013" lon="-0.44367">
        <ele>27.6</ele>
        <time>2021-11-10T09:06:36Z</time>
      </trkpt>
      <trkpt lat="45.50085" lon="-0.44406">
        <ele>24.3</ele>
        <time>2021-11-10T09:06:26Z</time>
      </trkpt>
      <trkpt lat="45.49971" lon="-0.44551">
        <ele>29.5</ele>
        <time>2021-11-10T09:06:11Z</time>
      </trkpt>
      <trkpt lat="45.49944" lon="-0.44578">
        <ele>28.3</ele>
        <time>2021-11-10T09:06:07Z</time>
      </trkpt>
      <trkpt lat="45.49973" lon="-0.44637">
        <ele>30.8</ele>
        <time>2021-11-10T09:06:00Z</time>
      </trkpt>
      <trkpt lat="45.50108" lon="-0.44827">
        <ele>27.4</ele>
        <time>2021-11-10T09:05:49Z</time>
      </trkpt>
      <trkpt lat="45.50161" lon="-0.44899">
        <ele>27</ele>
        <time>2021-11-10T09:05:45Z</time>
      </trkpt>
      <trkpt lat="45.50279" lon="-0.44995">
        <ele>25.4</ele>
        <time>2021-11-10T09:05:33Z</time>
      </trkpt>
      <trkpt lat="45.50322" lon="-0.45027">
        <ele>25.4</ele>
        <time>2021-11-10T09:05:30Z</time>
      </trkpt>
      <trkpt lat="45.5038" lon="-0.45075">
        <ele>25.3</ele>
        <time>2021-11-10T09:05:26Z</time>
      </trkpt>
      <trkpt lat="45.50503" lon="-0.45211">
        <ele>24</ele>
        <time>2021-11-10T09:05:15Z</time>
      </trkpt>
      <trkpt lat="45.50641" lon="-0.45386">
        <ele>25.9</ele>
        <time>2021-11-10T09:04:55Z</time>
      </trkpt>
      <trkpt lat="45.50691" lon="-0.45492">
        <ele>22.7</ele>
        <time>2021-11-10T09:04:44Z</time>
      </trkpt>
      <trkpt lat="45.50689" lon="-0.45516">
        <ele>22.4</ele>
        <time>2021-11-10T09:04:41Z</time>
      </trkpt>
      <trkpt lat="45.50545" lon="-0.45669">
        <ele>24.4</ele>
        <time>2021-11-10T09:04:27Z</time>
      </trkpt>
      <trkpt lat="45.50358" lon="-0.46001">
        <ele>27.1</ele>
        <time>2021-11-10T09:04:13Z</time>
      </trkpt>
      <trkpt lat="45.50243" lon="-0.46228">
        <ele>30.3</ele>
        <time>2021-11-10T09:04:05Z</time>
      </trkpt>
      <trkpt lat="45.50186" lon="-0.46336">
        <ele>30.2</ele>
        <time>2021-11-10T09:04:01Z</time>
      </trkpt>
      <trkpt lat="45.50106" lon="-0.46501">
        <ele>25.7</ele>
        <time>2021-11-10T09:03:54Z</time>
      </trkpt>
      <trkpt lat="45.50022" lon="-0.46682">
        <ele>31.1</ele>
        <time>2021-11-10T09:03:44Z</time>
      </trkpt>
      <trkpt lat="45.49925" lon="-0.46699">
        <ele>36.9</ele>
        <time>2021-11-10T09:03:37Z</time>
      </trkpt>
      <trkpt lat="45.49851" lon="-0.46777">
        <ele>38.1</ele>
        <time>2021-11-10T09:03:29Z</time>
      </trkpt>
      <trkpt lat="45.4977" lon="-0.46963">
        <ele>35.8</ele>
        <time>2021-11-10T09:03:18Z</time>
      </trkpt>
      <trkpt lat="45.49745" lon="-0.47134">
        <ele>34.1</ele>
        <time>2021-11-10T09:03:11Z</time>
      </trkpt>
      <trkpt lat="45.4973" lon="-0.47239">
        <ele>34.8</ele>
        <time>2021-11-10T09:03:07Z</time>
      </trkpt>
      <trkpt lat="45.49727" lon="-0.47331">
        <ele>34.9</ele>
        <time>2021-11-10T09:03:03Z</time>
      </trkpt>
      <trkpt lat="45.49789" lon="-0.4752">
        <ele>40.4</ele>
        <time>2021-11-10T09:02:56Z</time>
      </trkpt>
      <trkpt lat="45.49846" lon="-0.47707">
        <ele>46.2</ele>
        <time>2021-11-10T09:02:49Z</time>
      </trkpt>
      <trkpt lat="45.49841" lon="-0.47763">
        <ele>49.4</ele>
        <time>2021-11-10T09:02:46Z</time>
      </trkpt>
      <trkpt lat="45.49724" lon="-0.47943">
        <ele>46.4</ele>
        <time>2021-11-10T09:02:35Z</time>
      </trkpt>
      <trkpt lat="45.49695" lon="-0.4803">
        <ele>41.5</ele>
        <time>2021-11-10T09:02:31Z</time>
      </trkpt>
      <trkpt lat="45.49689" lon="-0.48219">
        <ele>36.9</ele>
        <time>2021-11-10T09:02:24Z</time>
      </trkpt>
      <trkpt lat="45.49664" lon="-0.48318">
        <ele>38</ele>
        <time>2021-11-10T09:02:20Z</time>
      </trkpt>
      <trkpt lat="45.49625" lon="-0.48552">
        <ele>35.3</ele>
        <time>2021-11-10T09:02:10Z</time>
      </trkpt>
      <trkpt lat="45.49567" lon="-0.48703">
        <ele>32.1</ele>
        <time>2021-11-10T09:02:02Z</time>
      </trkpt>
      <trkpt lat="45.4955" lon="-0.48769">
        <ele>34</ele>
        <time>2021-11-10T09:01:59Z</time>
      </trkpt>
      <trkpt lat="45.49503" lon="-0.48966">
        <ele>35.2</ele>
        <time>2021-11-10T09:01:43Z</time>
      </trkpt>
      <trkpt lat="45.49471" lon="-0.49025">
        <ele>34.7</ele>
        <time>2021-11-10T09:01:39Z</time>
      </trkpt>
      <trkpt lat="45.49322" lon="-0.49074">
        <ele>37.5</ele>
        <time>2021-11-10T09:01:25Z</time>
      </trkpt>
      <trkpt lat="45.49115" lon="-0.49229">
        <ele>36.8</ele>
        <time>2021-11-10T09:01:07Z</time>
      </trkpt>
      <trkpt lat="45.48887" lon="-0.49251">
        <ele>40.5</ele>
        <time>2021-11-10T09:00:49Z</time>
      </trkpt>
      <trkpt lat="45.48798" lon="-0.49256">
        <ele>40.4</ele>
        <time>2021-11-10T09:00:42Z</time>
      </trkpt>
      <trkpt lat="45.48695" lon="-0.49226">
        <ele>39.4</ele>
        <time>2021-11-10T09:00:27Z</time>
      </trkpt>
      <trkpt lat="45.48591" lon="-0.49272">
        <ele>36.1</ele>
        <time>2021-11-10T09:00:15Z</time>
      </trkpt>
      <trkpt lat="45.48523" lon="-0.4938">
        <ele>32.3</ele>
        <time>2021-11-10T09:00:07Z</time>
      </trkpt>
      <trkpt lat="45.48488" lon="-0.49472">
        <ele>28.8</ele>
        <time>2021-11-10T08:59:56Z</time>
      </trkpt>
      <trkpt lat="45.4854" lon="-0.4956">
        <ele>25.6</ele>
        <time>2021-11-10T08:59:50Z</time>
      </trkpt>
      <trkpt lat="45.48567" lon="-0.49615">
        <ele>24</ele>
        <time>2021-11-10T08:59:47Z</time>
      </trkpt>
      <trkpt lat="45.48655" lon="-0.49711">
        <ele>23.6</ele>
        <time>2021-11-10T08:59:40Z</time>
      </trkpt>
      <trkpt lat="45.48764" lon="-0.49848">
        <ele>21.9</ele>
        <time>2021-11-10T08:59:29Z</time>
      </trkpt>
      <trkpt lat="45.487" lon="-0.50062">
        <ele>21.9</ele>
        <time>2021-11-10T08:59:17Z</time>
      </trkpt>
      <trkpt lat="45.48673" lon="-0.50158">
        <ele>21.2</ele>
        <time>2021-11-10T08:59:13Z</time>
      </trkpt>
      <trkpt lat="45.4855" lon="-0.50258">
        <ele>20.1</ele>
        <time>2021-11-10T08:59:01Z</time>
      </trkpt>
      <trkpt lat="45.48502" lon="-0.50261">
        <ele>21.6</ele>
        <time>2021-11-10T08:58:58Z</time>
      </trkpt>
      <trkpt lat="45.48279" lon="-0.5034">
        <ele>19.4</ele>
        <time>2021-11-10T08:58:41Z</time>
      </trkpt>
      <trkpt lat="45.48247" lon="-0.50432">
        <ele>18.6</ele>
        <time>2021-11-10T08:58:29Z</time>
      </trkpt>
      <trkpt lat="45.48254" lon="-0.5051">
        <ele>21.1</ele>
        <time>2021-11-10T08:58:21Z</time>
      </trkpt>
      <trkpt lat="45.48259" lon="-0.50566">
        <ele>16.9</ele>
        <time>2021-11-10T08:58:13Z</time>
      </trkpt>
      <trkpt lat="45.48309" lon="-0.50758">
        <ele>18.8</ele>
        <time>2021-11-10T08:57:57Z</time>
      </trkpt>
      <trkpt lat="45.48306" lon="-0.50888">
        <ele>22.2</ele>
        <time>2021-11-10T08:57:49Z</time>
      </trkpt>
      <trkpt lat="45.48362" lon="-0.51057">
        <ele>22.2</ele>
        <time>2021-11-10T08:57:38Z</time>
      </trkpt>
      <trkpt lat="45.48377" lon="-0.51296">
        <ele>26.5</ele>
        <time>2021-11-10T08:57:23Z</time>
      </trkpt>
      <trkpt lat="45.48353" lon="-0.51557">
        <ele>29.7</ele>
        <time>2021-11-10T08:57:09Z</time>
      </trkpt>
      <trkpt lat="45.48316" lon="-0.51687">
        <ele>32.8</ele>
        <time>2021-11-10T08:57:02Z</time>
      </trkpt>
      <trkpt lat="45.48302" lon="-0.51742">
        <ele>32.5</ele>
        <time>2021-11-10T08:56:59Z</time>
      </trkpt>
      <trkpt lat="45.48281" lon="-0.51813">
        <ele>31.9</ele>
        <time>2021-11-10T08:56:55Z</time>
      </trkpt>
      <trkpt lat="45.48287" lon="-0.5198">
        <ele>35.1</ele>
        <time>2021-11-10T08:56:41Z</time>
      </trkpt>
      <trkpt lat="45.48373" lon="-0.52212">
        <ele>31.6</ele>
        <time>2021-11-10T08:56:30Z</time>
      </trkpt>
      <trkpt lat="45.48357" lon="-0.52257">
        <ele>32.2</ele>
        <time>2021-11-10T08:56:26Z</time>
      </trkpt>
      <trkpt lat="45.48283" lon="-0.52358">
        <ele>33.4</ele>
        <time>2021-11-10T08:56:19Z</time>
      </trkpt>
      <trkpt lat="45.4828" lon="-0.52409">
        <ele>20.7</ele>
        <time>2021-11-10T08:56:15Z</time>
      </trkpt>
      <trkpt lat="45.483" lon="-0.52466">
        <ele>20.6</ele>
        <time>2021-11-10T08:56:11Z</time>
      </trkpt>
      <trkpt lat="45.48381" lon="-0.52632">
        <ele>20.4</ele>
        <time>2021-11-10T08:55:56Z</time>
      </trkpt>
      <trkpt lat="45.48367" lon="-0.52755">
        <ele>20.4</ele>
        <time>2021-11-10T08:55:42Z</time>
      </trkpt>
      <trkpt lat="45.48227" lon="-0.52961">
        <ele>20.4</ele>
        <time>2021-11-10T08:55:24Z</time>
      </trkpt>
      <trkpt lat="45.48212" lon="-0.52985">
        <ele>20.4</ele>
        <time>2021-11-10T08:55:21Z</time>
      </trkpt>
      <trkpt lat="45.48224" lon="-0.53041">
        <ele>20.6</ele>
        <time>2021-11-10T08:55:07Z</time>
      </trkpt>
      <trkpt lat="45.48241" lon="-0.53071">
        <ele>20.6</ele>
        <time>2021-11-10T08:55:04Z</time>
      </trkpt>
      <trkpt lat="45.48255" lon="-0.5327">
        <ele>22.1</ele>
        <time>2021-11-10T08:54:49Z</time>
      </trkpt>
      <trkpt lat="45.4832" lon="-0.53409">
        <ele>26.5</ele>
        <time>2021-11-10T08:54:38Z</time>
      </trkpt>
      <trkpt lat="45.4833" lon="-0.5345">
        <ele>27.7</ele>
        <time>2021-11-10T08:54:35Z</time>
      </trkpt>
      <trkpt lat="45.48309" lon="-0.5364">
        <ele>30.7</ele>
        <time>2021-11-10T08:54:24Z</time>
      </trkpt>
      <trkpt lat="45.4834" lon="-0.5378">
        <ele>33.8</ele>
        <time>2021-11-10T08:54:17Z</time>
      </trkpt>
      <trkpt lat="45.48349" lon="-0.54143">
        <ele>30.9</ele>
        <time>2021-11-10T08:54:02Z</time>
      </trkpt>
      <trkpt lat="45.48327" lon="-0.54358">
        <ele>29.1</ele>
        <time>2021-11-10T08:53:51Z</time>
      </trkpt>
      <trkpt lat="45.48325" lon="-0.54421">
        <ele>25.2</ele>
        <time>2021-11-10T08:53:43Z</time>
      </trkpt>
      <trkpt lat="45.48331" lon="-0.54437">
        <ele>24.9</ele>
        <time>2021-11-10T08:53:39Z</time>
      </trkpt>
      <trkpt lat="45.48421" lon="-0.54557">
        <ele>24.7</ele>
        <time>2021-11-10T08:53:24Z</time>
      </trkpt>
      <trkpt lat="45.4845" lon="-0.54632">
        <ele>26.5</ele>
        <time>2021-11-10T08:53:15Z</time>
      </trkpt>
      <trkpt lat="45.48459" lon="-0.54665">
        <ele>28.3</ele>
        <time>2021-11-10T08:53:11Z</time>
      </trkpt>
      <trkpt lat="45.48491" lon="-0.54765">
        <ele>27.6</ele>
        <time>2021-11-10T08:52:56Z</time>
      </trkpt>
      <trkpt lat="45.48531" lon="-0.54947">
        <ele>26</ele>
        <time>2021-11-10T08:52:31Z</time>
      </trkpt>
      <trkpt lat="45.48527" lon="-0.54968">
        <ele>23.4</ele>
        <time>2021-11-10T08:52:28Z</time>
      </trkpt>
      <trkpt lat="45.48545" lon="-0.55013">
        <ele>20.3</ele>
        <time>2021-11-10T08:52:21Z</time>
      </trkpt>
      <trkpt lat="45.48561" lon="-0.55043">
        <ele>20</ele>
        <time>2021-11-10T08:52:17Z</time>
      </trkpt>
      <trkpt lat="45.48618" lon="-0.55134">
        <ele>24.7</ele>
        <time>2021-11-10T08:52:06Z</time>
      </trkpt>
      <trkpt lat="45.48643" lon="-0.55189">
        <ele>29.9</ele>
        <time>2021-11-10T08:51:59Z</time>
      </trkpt>
      <trkpt lat="45.48667" lon="-0.5525">
        <ele>31.3</ele>
        <time>2021-11-10T08:51:52Z</time>
      </trkpt>
      <trkpt lat="45.48748" lon="-0.55387">
        <ele>27.1</ele>
        <time>2021-11-10T08:51:33Z</time>
      </trkpt>
      <trkpt lat="45.4876" lon="-0.55406">
        <ele>27.1</ele>
        <time>2021-11-10T08:51:29Z</time>
      </trkpt>
      <trkpt lat="45.48784" lon="-0.55437">
        <ele>25.1</ele>
        <time>2021-11-10T08:51:22Z</time>
      </trkpt>
      <trkpt lat="45.48835" lon="-0.55544">
        <ele>26.6</ele>
        <time>2021-11-10T08:51:03Z</time>
      </trkpt>
      <trkpt lat="45.48849" lon="-0.55581">
        <ele>25.9</ele>
        <time>2021-11-10T08:50:59Z</time>
      </trkpt>
      <trkpt lat="45.48898" lon="-0.55691">
        <ele>24.1</ele>
        <time>2021-11-10T08:50:40Z</time>
      </trkpt>
      <trkpt lat="45.48925" lon="-0.55754">
        <ele>27</ele>
        <time>2021-11-10T08:50:33Z</time>
      </trkpt>
      <trkpt lat="45.48946" lon="-0.55782">
        <ele>26</ele>
        <time>2021-11-10T08:50:29Z</time>
      </trkpt>
      <trkpt lat="45.49029" lon="-0.55946">
        <ele>82.1</ele>
        <time>2021-11-10T08:50:07Z</time>
      </trkpt>
      <trkpt lat="45.49036" lon="-0.55981">
        <ele>82.2</ele>
        <time>2021-11-10T08:50:03Z</time>
      </trkpt>
      <trkpt lat="45.49052" lon="-0.56069">
        <ele>82.1</ele>
        <time>2021-11-10T08:49:53Z</time>
      </trkpt>
      <trkpt lat="45.48977" lon="-0.56334">
        <ele>82.3</ele>
        <time>2021-11-10T08:49:31Z</time>
      </trkpt>
      <trkpt lat="45.48962" lon="-0.56541">
        <ele>82.3</ele>
        <time>2021-11-10T08:49:17Z</time>
      </trkpt>
      <trkpt lat="45.48964" lon="-0.5661">
        <ele>31.3</ele>
        <time>2021-11-10T08:49:03Z</time>
      </trkpt>
      <trkpt lat="45.48964" lon="-0.56614">
        <ele>31.5</ele>
        <time>2021-11-10T08:48:59Z</time>
      </trkpt>
      <trkpt lat="45.49011" lon="-0.56707">
        <ele>28.2</ele>
        <time>2021-11-10T08:48:47Z</time>
      </trkpt>
      <trkpt lat="45.49029" lon="-0.56755">
        <ele>28.5</ele>
        <time>2021-11-10T08:48:44Z</time>
      </trkpt>
      <trkpt lat="45.49052" lon="-0.57025">
        <ele>32.4</ele>
        <time>2021-11-10T08:48:30Z</time>
      </trkpt>
      <trkpt lat="45.49058" lon="-0.5713">
        <ele>34.6</ele>
        <time>2021-11-10T08:48:23Z</time>
      </trkpt>
      <trkpt lat="45.49148" lon="-0.57122">
        <ele>31.5</ele>
        <time>2021-11-10T08:48:11Z</time>
      </trkpt>
      <trkpt lat="45.49206" lon="-0.57123">
        <ele>32</ele>
        <time>2021-11-10T08:48:07Z</time>
      </trkpt>
      <trkpt lat="45.49423" lon="-0.57099">
        <ele>30.3</ele>
        <time>2021-11-10T08:47:50Z</time>
      </trkpt>
      <trkpt lat="45.49461" lon="-0.57107">
        <ele>29.6</ele>
        <time>2021-11-10T08:47:47Z</time>
      </trkpt>
      <trkpt lat="45.49577" lon="-0.572">
        <ele>30.4</ele>
        <time>2021-11-10T08:47:32Z</time>
      </trkpt>
      <trkpt lat="45.49637" lon="-0.57346">
        <ele>34.2</ele>
        <time>2021-11-10T08:47:21Z</time>
      </trkpt>
      <trkpt lat="45.49631" lon="-0.57393">
        <ele>33.9</ele>
        <time>2021-11-10T08:47:17Z</time>
      </trkpt>
      <trkpt lat="45.4975" lon="-0.57402">
        <ele>31.5</ele>
        <time>2021-11-10T08:47:06Z</time>
      </trkpt>
      <trkpt lat="45.49797" lon="-0.57402">
        <ele>30.2</ele>
        <time>2021-11-10T08:47:03Z</time>
      </trkpt>
      <trkpt lat="45.49844" lon="-0.57395">
        <ele>30.1</ele>
        <time>2021-11-10T08:46:59Z</time>
      </trkpt>
      <trkpt lat="45.50036" lon="-0.57355">
        <ele>26.8</ele>
        <time>2021-11-10T08:46:47Z</time>
      </trkpt>
      <trkpt lat="45.50102" lon="-0.57327">
        <ele>29.9</ele>
        <time>2021-11-10T08:46:43Z</time>
      </trkpt>
      <trkpt lat="45.5016" lon="-0.57274">
        <ele>33.7</ele>
        <time>2021-11-10T08:46:36Z</time>
      </trkpt>
      <trkpt lat="45.50153" lon="-0.57259">
        <ele>33</ele>
        <time>2021-11-10T08:46:33Z</time>
      </trkpt>
      <trkpt lat="45.50064" lon="-0.57061">
        <ele>33.4</ele>
        <time>2021-11-10T08:46:19Z</time>
      </trkpt>
      <trkpt lat="45.50052" lon="-0.57045">
        <ele>32.4</ele>
        <time>2021-11-10T08:46:16Z</time>
      </trkpt>
      <trkpt lat="45.50131" lon="-0.56952">
        <ele>33.7</ele>
        <time>2021-11-10T08:46:01Z</time>
      </trkpt>
      <trkpt lat="45.50164" lon="-0.56917">
        <ele>33.8</ele>
        <time>2021-11-10T08:45:57Z</time>
      </trkpt>
      <trkpt lat="45.50285" lon="-0.5679">
        <ele>31.6</ele>
        <time>2021-11-10T08:45:42Z</time>
      </trkpt>
      <trkpt lat="45.50329" lon="-0.56741">
        <ele>31.1</ele>
        <time>2021-11-10T08:45:35Z</time>
      </trkpt>
      <trkpt lat="45.5039" lon="-0.56716">
        <ele>31.8</ele>
        <time>2021-11-10T08:45:20Z</time>
      </trkpt>
      <trkpt lat="45.5058" lon="-0.56643">
        <ele>30.6</ele>
        <time>2021-11-10T08:45:06Z</time>
      </trkpt>
      <trkpt lat="45.50624" lon="-0.56627">
        <ele>24.9</ele>
        <time>2021-11-10T08:45:02Z</time>
      </trkpt>
      <trkpt lat="45.50683" lon="-0.56605">
        <ele>23.5</ele>
        <time>2021-11-10T08:44:55Z</time>
      </trkpt>
      <trkpt lat="45.50818" lon="-0.56622">
        <ele>27.7</ele>
        <time>2021-11-10T08:44:40Z</time>
      </trkpt>
      <trkpt lat="45.509" lon="-0.56628">
        <ele>32.8</ele>
        <time>2021-11-10T08:44:33Z</time>
      </trkpt>
      <trkpt lat="45.50979" lon="-0.56604">
        <ele>34.5</ele>
        <time>2021-11-10T08:44:25Z</time>
      </trkpt>
      <trkpt lat="45.51065" lon="-0.56566">
        <ele>30.4</ele>
        <time>2021-11-10T08:44:18Z</time>
      </trkpt>
      <trkpt lat="45.51195" lon="-0.56529">
        <ele>26.2</ele>
        <time>2021-11-10T08:44:11Z</time>
      </trkpt>
      <trkpt lat="45.51266" lon="-0.56498">
        <ele>26</ele>
        <time>2021-11-10T08:44:07Z</time>
      </trkpt>
      <trkpt lat="45.51401" lon="-0.56473">
        <ele>31.6</ele>
        <time>2021-11-10T08:44:00Z</time>
      </trkpt>
      <trkpt lat="45.51543" lon="-0.56448">
        <ele>33.6</ele>
        <time>2021-11-10T08:43:46Z</time>
      </trkpt>
      <trkpt lat="45.5164" lon="-0.567">
        <ele>37</ele>
        <time>2021-11-10T08:43:29Z</time>
      </trkpt>
      <trkpt lat="45.51766" lon="-0.56888">
        <ele>37</ele>
        <time>2021-11-10T08:43:18Z</time>
      </trkpt>
      <trkpt lat="45.5187" lon="-0.56935">
        <ele>38.6</ele>
        <time>2021-11-10T08:43:07Z</time>
      </trkpt>
      <trkpt lat="45.51893" lon="-0.56963">
        <ele>38.8</ele>
        <time>2021-11-10T08:43:03Z</time>
      </trkpt>
      <trkpt lat="45.51922" lon="-0.57132">
        <ele>34.8</ele>
        <time>2021-11-10T08:42:52Z</time>
      </trkpt>
      <trkpt lat="45.51941" lon="-0.57193">
        <ele>35.3</ele>
        <time>2021-11-10T08:42:48Z</time>
      </trkpt>
      <trkpt lat="45.51953" lon="-0.57225">
        <ele>38.7</ele>
        <time>2021-11-10T08:42:41Z</time>
      </trkpt>
      <trkpt lat="45.52102" lon="-0.57167">
        <ele>41</ele>
        <time>2021-11-10T08:42:26Z</time>
      </trkpt>
      <trkpt lat="45.52112" lon="-0.57162">
        <ele>42.4</ele>
        <time>2021-11-10T08:42:19Z</time>
      </trkpt>
      <trkpt lat="45.52184" lon="-0.57169">
        <ele>38.9</ele>
        <time>2021-11-10T08:42:12Z</time>
      </trkpt>
      <trkpt lat="45.52248" lon="-0.57175">
        <ele>34.4</ele>
        <time>2021-11-10T08:42:08Z</time>
      </trkpt>
      <trkpt lat="45.52316" lon="-0.57187">
        <ele>31.1</ele>
        <time>2021-11-10T08:42:04Z</time>
      </trkpt>
      <trkpt lat="45.52457" lon="-0.57265">
        <ele>25.9</ele>
        <time>2021-11-10T08:41:53Z</time>
      </trkpt>
      <trkpt lat="45.52503" lon="-0.57351">
        <ele>24.2</ele>
        <time>2021-11-10T08:41:42Z</time>
      </trkpt>
      <trkpt lat="45.5252" lon="-0.5742">
        <ele>20.6</ele>
        <time>2021-11-10T08:41:35Z</time>
      </trkpt>
      <trkpt lat="45.52552" lon="-0.57498">
        <ele>19.2</ele>
        <time>2021-11-10T08:41:28Z</time>
      </trkpt>
      <trkpt lat="45.52593" lon="-0.57622">
        <ele>15.7</ele>
        <time>2021-11-10T08:41:17Z</time>
      </trkpt>
      <trkpt lat="45.52627" lon="-0.57688">
        <ele>14.8</ele>
        <time>2021-11-10T08:41:10Z</time>
      </trkpt>
      <trkpt lat="45.52667" lon="-0.57717">
        <ele>19.2</ele>
        <time>2021-11-10T08:41:03Z</time>
      </trkpt>
      <trkpt lat="45.52685" lon="-0.57727">
        <ele>22.8</ele>
        <time>2021-11-10T08:41:00Z</time>
      </trkpt>
      <trkpt lat="45.52711" lon="-0.57737">
        <ele>28.2</ele>
        <time>2021-11-10T08:40:56Z</time>
      </trkpt>
      <trkpt lat="45.52728" lon="-0.57746">
        <ele>28.5</ele>
        <time>2021-11-10T08:40:53Z</time>
      </trkpt>
      <trkpt lat="45.52749" lon="-0.57767">
        <ele>32</ele>
        <time>2021-11-10T08:40:49Z</time>
      </trkpt>
      <trkpt lat="45.52782" lon="-0.57803">
        <ele>32.8</ele>
        <time>2021-11-10T08:40:42Z</time>
      </trkpt>
      <trkpt lat="45.52793" lon="-0.57843">
        <ele>27.1</ele>
        <time>2021-11-10T08:40:35Z</time>
      </trkpt>
      <trkpt lat="45.52792" lon="-0.57871">
        <ele>22.4</ele>
        <time>2021-11-10T08:40:32Z</time>
      </trkpt>
      <trkpt lat="45.52786" lon="-0.57943">
        <ele>19.6</ele>
        <time>2021-11-10T08:40:25Z</time>
      </trkpt>
      <trkpt lat="45.5279" lon="-0.57976">
        <ele>23.4</ele>
        <time>2021-11-10T08:40:21Z</time>
      </trkpt>
      <trkpt lat="45.52802" lon="-0.58042">
        <ele>27.2</ele>
        <time>2021-11-10T08:40:14Z</time>
      </trkpt>
      <trkpt lat="45.52803" lon="-0.58075">
        <ele>27.1</ele>
        <time>2021-11-10T08:40:11Z</time>
      </trkpt>
      <trkpt lat="45.52841" lon="-0.58178">
        <ele>29.1</ele>
        <time>2021-11-10T08:39:59Z</time>
      </trkpt>
      <trkpt lat="45.52871" lon="-0.58291">
        <ele>33.7</ele>
        <time>2021-11-10T08:39:48Z</time>
      </trkpt>
      <trkpt lat="45.5289" lon="-0.58373">
        <ele>37.3</ele>
        <time>2021-11-10T08:39:41Z</time>
      </trkpt>
      <trkpt lat="45.52919" lon="-0.58506">
        <ele>40.5</ele>
        <time>2021-11-10T08:39:31Z</time>
      </trkpt>
      <trkpt lat="45.52939" lon="-0.58598">
        <ele>41.2</ele>
        <time>2021-11-10T08:39:24Z</time>
      </trkpt>
      <trkpt lat="45.52955" lon="-0.58678">
        <ele>41.4</ele>
        <time>2021-11-10T08:39:17Z</time>
      </trkpt>
      <trkpt lat="45.53049" lon="-0.58623">
        <ele>42.1</ele>
        <time>2021-11-10T08:39:03Z</time>
      </trkpt>
      <trkpt lat="45.53071" lon="-0.58609">
        <ele>42.5</ele>
        <time>2021-11-10T08:38:59Z</time>
      </trkpt>
      <trkpt lat="45.53101" lon="-0.58722">
        <ele>40.7</ele>
        <time>2021-11-10T08:38:47Z</time>
      </trkpt>
      <trkpt lat="45.53206" lon="-0.59173">
        <ele>41</ele>
        <time>2021-11-10T08:38:19Z</time>
      </trkpt>
      <trkpt lat="45.53274" lon="-0.59224">
        <ele>41.1</ele>
        <time>2021-11-10T08:38:05Z</time>
      </trkpt>
      <trkpt lat="45.53292" lon="-0.59285">
        <ele>39.8</ele>
        <time>2021-11-10T08:38:01Z</time>
      </trkpt>
      <trkpt lat="45.53297" lon="-0.59319">
        <ele>39.8</ele>
        <time>2021-11-10T08:37:57Z</time>
      </trkpt>
      <trkpt lat="45.53304" lon="-0.59412">
        <ele>35.6</ele>
        <time>2021-11-10T08:37:46Z</time>
      </trkpt>
      <trkpt lat="45.53294" lon="-0.59445">
        <ele>38.8</ele>
        <time>2021-11-10T08:37:39Z</time>
      </trkpt>
      <trkpt lat="45.53266" lon="-0.59526">
        <ele>38.8</ele>
        <time>2021-11-10T08:37:22Z</time>
      </trkpt>
      <trkpt lat="45.53251" lon="-0.59536">
        <ele>38.9</ele>
        <time>2021-11-10T08:37:18Z</time>
      </trkpt>
      <trkpt lat="45.533" lon="-0.59685">
        <ele>38.1</ele>
        <time>2021-11-10T08:37:07Z</time>
      </trkpt>
      <trkpt lat="45.53322" lon="-0.59738">
        <ele>34</ele>
        <time>2021-11-10T08:37:04Z</time>
      </trkpt>
      <trkpt lat="45.53381" lon="-0.59862">
        <ele>33.1</ele>
        <time>2021-11-10T08:36:57Z</time>
      </trkpt>
      <trkpt lat="45.53391" lon="-0.59883">
        <ele>32.8</ele>
        <time>2021-11-10T08:36:54Z</time>
      </trkpt>
      <trkpt lat="45.5352" lon="-0.60141">
        <ele>35.6</ele>
        <time>2021-11-10T08:36:40Z</time>
      </trkpt>
      <trkpt lat="45.53644" lon="-0.60348">
        <ele>37.1</ele>
        <time>2021-11-10T08:36:29Z</time>
      </trkpt>
      <trkpt lat="45.53682" lon="-0.60578">
        <ele>41.5</ele>
        <time>2021-11-10T08:36:21Z</time>
      </trkpt>
      <trkpt lat="45.53699" lon="-0.60731">
        <ele>43.7</ele>
        <time>2021-11-10T08:36:15Z</time>
      </trkpt>
      <trkpt lat="45.53705" lon="-0.60788">
        <ele>42</ele>
        <time>2021-11-10T08:36:11Z</time>
      </trkpt>
      <trkpt lat="45.53773" lon="-0.60775">
        <ele>39.7</ele>
        <time>2021-11-10T08:36:01Z</time>
      </trkpt>
      <trkpt lat="45.5385" lon="-0.60816">
        <ele>38.5</ele>
        <time>2021-11-10T08:35:53Z</time>
      </trkpt>
      <trkpt lat="45.53893" lon="-0.6094">
        <ele>35.3</ele>
        <time>2021-11-10T08:35:46Z</time>
      </trkpt>
      <trkpt lat="45.54" lon="-0.61132">
        <ele>38.5</ele>
        <time>2021-11-10T08:35:31Z</time>
      </trkpt>
      <trkpt lat="45.54012" lon="-0.61126">
        <ele>38.8</ele>
        <time>2021-11-10T08:35:28Z</time>
      </trkpt>
      <trkpt lat="45.54148" lon="-0.61003">
        <ele>42</ele>
        <time>2021-11-10T08:35:13Z</time>
      </trkpt>
      <trkpt lat="45.54283" lon="-0.60932">
        <ele>42.7</ele>
        <time>2021-11-10T08:34:59Z</time>
      </trkpt>
      <trkpt lat="45.54425" lon="-0.60944">
        <ele>42.5</ele>
        <time>2021-11-10T08:34:47Z</time>
      </trkpt>
      <trkpt lat="45.54428" lon="-0.6102">
        <ele>39.2</ele>
        <time>2021-11-10T08:34:33Z</time>
      </trkpt>
      <trkpt lat="45.54548" lon="-0.61153">
        <ele>37.5</ele>
        <time>2021-11-10T08:34:19Z</time>
      </trkpt>
      <trkpt lat="45.54818" lon="-0.61453">
        <ele>38.6</ele>
        <time>2021-11-10T08:34:01Z</time>
      </trkpt>
      <trkpt lat="45.55011" lon="-0.61539">
        <ele>37.7</ele>
        <time>2021-11-10T08:33:44Z</time>
      </trkpt>
      <trkpt lat="45.54999" lon="-0.6163">
        <ele>38.8</ele>
        <time>2021-11-10T08:33:34Z</time>
      </trkpt>
      <trkpt lat="45.54991" lon="-0.61734">
        <ele>39.5</ele>
        <time>2021-11-10T08:33:26Z</time>
      </trkpt>
      <trkpt lat="45.54963" lon="-0.61877">
        <ele>39.4</ele>
        <time>2021-11-10T08:33:15Z</time>
      </trkpt>
      <trkpt lat="45.54993" lon="-0.62133">
        <ele>40</ele>
        <time>2021-11-10T08:32:55Z</time>
      </trkpt>
      <trkpt lat="45.55062" lon="-0.6237">
        <ele>42.4</ele>
        <time>2021-11-10T08:32:37Z</time>
      </trkpt>
      <trkpt lat="45.55117" lon="-0.62314">
        <ele>39.9</ele>
        <time>2021-11-10T08:32:26Z</time>
      </trkpt>
      <trkpt lat="45.55148" lon="-0.62379">
        <ele>38.3</ele>
        <time>2021-11-10T08:32:16Z</time>
      </trkpt>
      <trkpt lat="45.55265" lon="-0.62529">
        <ele>37.9</ele>
        <time>2021-11-10T08:31:57Z</time>
      </trkpt>
      <trkpt lat="45.55309" lon="-0.6254">
        <ele>39.6</ele>
        <time>2021-11-10T08:31:53Z</time>
      </trkpt>
      <trkpt lat="45.55426" lon="-0.62485">
        <ele>40.1</ele>
        <time>2021-11-10T08:31:38Z</time>
      </trkpt>
      <trkpt lat="45.55448" lon="-0.62473">
        <ele>43.2</ele>
        <time>2021-11-10T08:31:35Z</time>
      </trkpt>
      <trkpt lat="45.5547" lon="-0.62459">
        <ele>42.4</ele>
        <time>2021-11-10T08:31:32Z</time>
      </trkpt>
      <trkpt lat="45.55514" lon="-0.62432">
        <ele>41</ele>
        <time>2021-11-10T08:31:25Z</time>
      </trkpt>
      <trkpt lat="45.55557" lon="-0.62401">
        <ele>41</ele>
        <time>2021-11-10T08:31:18Z</time>
      </trkpt>
      <trkpt lat="45.55632" lon="-0.62427">
        <ele>39.4</ele>
        <time>2021-11-10T08:31:00Z</time>
      </trkpt>
      <trkpt lat="45.55663" lon="-0.62424">
        <ele>39.1</ele>
        <time>2021-11-10T08:30:56Z</time>
      </trkpt>
      <trkpt lat="45.55718" lon="-0.62415">
        <ele>39.1</ele>
        <time>2021-11-10T08:30:49Z</time>
      </trkpt>
      <trkpt lat="45.55821" lon="-0.62402">
        <ele>40.5</ele>
        <time>2021-11-10T08:30:34Z</time>
      </trkpt>
      <trkpt lat="45.5583" lon="-0.62412">
        <ele>40</ele>
        <time>2021-11-10T08:30:30Z</time>
      </trkpt>
      <trkpt lat="45.55833" lon="-0.62496">
        <ele>37.5</ele>
        <time>2021-11-10T08:30:19Z</time>
      </trkpt>
      <trkpt lat="45.55833" lon="-0.62516">
        <ele>37</ele>
        <time>2021-11-10T08:30:16Z</time>
      </trkpt>
      <trkpt lat="45.55872" lon="-0.62609">
        <ele>38.4</ele>
        <time>2021-11-10T08:29:59Z</time>
      </trkpt>
      <trkpt lat="45.5589" lon="-0.62683">
        <ele>40.7</ele>
        <time>2021-11-10T08:29:51Z</time>
      </trkpt>
      <trkpt lat="45.55895" lon="-0.62725">
        <ele>44.4</ele>
        <time>2021-11-10T08:29:47Z</time>
      </trkpt>
      <trkpt lat="45.55901" lon="-0.62768">
        <ele>45.2</ele>
        <time>2021-11-10T08:29:43Z</time>
      </trkpt>
      <trkpt lat="45.55908" lon="-0.62805">
        <ele>45.3</ele>
        <time>2021-11-10T08:29:39Z</time>
      </trkpt>
      <trkpt lat="45.55933" lon="-0.6285">
        <ele>47.8</ele>
        <time>2021-11-10T08:29:32Z</time>
      </trkpt>
      <trkpt lat="45.55947" lon="-0.62919">
        <ele>44.6</ele>
        <time>2021-11-10T08:29:21Z</time>
      </trkpt>
      <trkpt lat="45.55933" lon="-0.62925">
        <ele>41.4</ele>
        <time>2021-11-10T08:29:17Z</time>
      </trkpt>
      <trkpt lat="45.55905" lon="-0.62944">
        <ele>43.6</ele>
        <time>2021-11-10T08:29:13Z</time>
      </trkpt>
      <trkpt lat="45.55871" lon="-0.62971">
        <ele>40.6</ele>
        <time>2021-11-10T08:29:03Z</time>
      </trkpt>
      <trkpt lat="45.55881" lon="-0.63001">
        <ele>40.4</ele>
        <time>2021-11-10T08:28:59Z</time>
      </trkpt>
      <trkpt lat="45.55941" lon="-0.63177">
        <ele>44.2</ele>
        <time>2021-11-10T08:28:48Z</time>
      </trkpt>
      <trkpt lat="45.56036" lon="-0.63446">
        <ele>45.1</ele>
        <time>2021-11-10T08:28:35Z</time>
      </trkpt>
      <trkpt lat="45.5614" lon="-0.6372">
        <ele>44.3</ele>
        <time>2021-11-10T08:28:16Z</time>
      </trkpt>
      <trkpt lat="45.56197" lon="-0.63725">
        <ele>45</ele>
        <time>2021-11-10T08:28:06Z</time>
      </trkpt>
      <trkpt lat="45.56289" lon="-0.63649">
        <ele>45</ele>
        <time>2021-11-10T08:27:52Z</time>
      </trkpt>
      <trkpt lat="45.56306" lon="-0.63729">
        <ele>42</ele>
        <time>2021-11-10T08:27:37Z</time>
      </trkpt>
      <trkpt lat="45.56322" lon="-0.63773">
        <ele>41.3</ele>
        <time>2021-11-10T08:27:30Z</time>
      </trkpt>
      <trkpt lat="45.56361" lon="-0.6387">
        <ele>42.8</ele>
        <time>2021-11-10T08:27:23Z</time>
      </trkpt>
      <trkpt lat="45.5638" lon="-0.64102">
        <ele>42.5</ele>
        <time>2021-11-10T08:27:00Z</time>
      </trkpt>
      <trkpt lat="45.5636" lon="-0.64451">
        <ele>42.9</ele>
        <time>2021-11-10T08:26:29Z</time>
      </trkpt>
      <trkpt lat="45.56382" lon="-0.6453">
        <ele>40.9</ele>
        <time>2021-11-10T08:26:18Z</time>
      </trkpt>
      <trkpt lat="45.56399" lon="-0.64594">
        <ele>43</ele>
        <time>2021-11-10T08:26:10Z</time>
      </trkpt>
      <trkpt lat="45.56402" lon="-0.64623">
        <ele>42.6</ele>
        <time>2021-11-10T08:26:06Z</time>
      </trkpt>
      <trkpt lat="45.56503" lon="-0.6466">
        <ele>43.3</ele>
        <time>2021-11-10T08:25:46Z</time>
      </trkpt>
      <trkpt lat="45.5656" lon="-0.6468">
        <ele>42.8</ele>
        <time>2021-11-10T08:25:38Z</time>
      </trkpt>
      <trkpt lat="45.56616" lon="-0.64799">
        <ele>43.1</ele>
        <time>2021-11-10T08:25:20Z</time>
      </trkpt>
      <trkpt lat="45.56748" lon="-0.64818">
        <ele>42.5</ele>
        <time>2021-11-10T08:25:06Z</time>
      </trkpt>
      <trkpt lat="45.57055" lon="-0.64771">
        <ele>45.3</ele>
        <time>2021-11-10T08:24:45Z</time>
      </trkpt>
      <trkpt lat="45.5708" lon="-0.6477">
        <ele>45.5</ele>
        <time>2021-11-10T08:24:42Z</time>
      </trkpt>
      <trkpt lat="45.57083" lon="-0.64846">
        <ele>42</ele>
        <time>2021-11-12T08:07:36Z</time>
      </trkpt>
      <trkpt lat="45.57091" lon="-0.64845">
        <ele>41.8</ele>
        <time>2021-11-12T08:07:36Z</time>
      </trkpt>
      <trkpt lat="45.57171" lon="-0.64843">
        <ele>43.4</ele>
        <time>2021-11-12T08:07:36Z</time>
      </trkpt>
      <trkpt lat="45.57281" lon="-0.64813">
        <ele>43.1</ele>
        <time>2021-11-12T08:07:46Z</time>
      </trkpt>
      <trkpt lat="45.57597" lon="-0.64703">
        <ele>44.4</ele>
        <time>2021-11-12T08:08:08Z</time>
      </trkpt>
      <trkpt lat="45.57687" lon="-0.6469">
        <ele>46.2</ele>
        <time>2021-11-12T08:08:19Z</time>
      </trkpt>
      <trkpt lat="45.57756" lon="-0.64652">
        <ele>48.3</ele>
        <time>2021-11-12T08:08:27Z</time>
      </trkpt>
      <trkpt lat="45.57781" lon="-0.64636">
        <ele>46.6</ele>
        <time>2021-11-12T08:08:30Z</time>
      </trkpt>
      <trkpt lat="45.57839" lon="-0.64587">
        <ele>42.5</ele>
        <time>2021-11-12T08:08:37Z</time>
      </trkpt>
      <trkpt lat="45.57866" lon="-0.64575">
        <ele>43.4</ele>
        <time>2021-11-12T08:08:40Z</time>
      </trkpt>
      <trkpt lat="45.57926" lon="-0.64581">
        <ele>45.1</ele>
        <time>2021-11-12T08:08:47Z</time>
      </trkpt>
      <trkpt lat="45.57959" lon="-0.64595">
        <ele>46.1</ele>
        <time>2021-11-12T08:08:51Z</time>
      </trkpt>
      <trkpt lat="45.58017" lon="-0.64599">
        <ele>44.8</ele>
        <time>2021-11-12T08:08:58Z</time>
      </trkpt>
      <trkpt lat="45.58183" lon="-0.64616">
        <ele>46.6</ele>
        <time>2021-11-12T08:09:19Z</time>
      </trkpt>
      <trkpt lat="45.58217" lon="-0.64561">
        <ele>46.3</ele>
        <time>2021-11-12T08:09:27Z</time>
      </trkpt>
      <trkpt lat="45.58233" lon="-0.64536">
        <ele>46.1</ele>
        <time>2021-11-12T08:09:30Z</time>
      </trkpt>
      <trkpt lat="45.58256" lon="-0.64461">
        <ele>41.6</ele>
        <time>2021-11-12T08:09:38Z</time>
      </trkpt>
      <trkpt lat="45.58266" lon="-0.64441">
        <ele>42</ele>
        <time>2021-11-12T08:09:41Z</time>
      </trkpt>
      <trkpt lat="45.58298" lon="-0.64381">
        <ele>45.5</ele>
        <time>2021-11-12T08:09:48Z</time>
      </trkpt>
      <trkpt lat="45.58317" lon="-0.64343">
        <ele>45.4</ele>
        <time>2021-11-12T08:09:52Z</time>
      </trkpt>
      <trkpt lat="45.58344" lon="-0.64288">
        <ele>45.6</ele>
        <time>2021-11-12T08:09:58Z</time>
      </trkpt>
      <trkpt lat="45.58327" lon="-0.64114">
        <ele>47.1</ele>
        <time>2021-11-12T08:10:17Z</time>
      </trkpt>
      <trkpt lat="45.58312" lon="-0.64077">
        <ele>46.9</ele>
        <time>2021-11-12T08:10:24Z</time>
      </trkpt>
      <trkpt lat="45.58369" lon="-0.64064">
        <ele>45.7</ele>
        <time>2021-11-12T08:10:39Z</time>
      </trkpt>
      <trkpt lat="45.5839" lon="-0.64067">
        <ele>45.8</ele>
        <time>2021-11-12T08:10:42Z</time>
      </trkpt>
      <trkpt lat="45.5857" lon="-0.63937">
        <ele>46.3</ele>
        <time>2021-11-12T08:11:02Z</time>
      </trkpt>
      <trkpt lat="45.58609" lon="-0.63914">
        <ele>46.5</ele>
        <time>2021-11-12T08:11:06Z</time>
      </trkpt>
      <trkpt lat="45.58635" lon="-0.63899">
        <ele>44.7</ele>
        <time>2021-11-12T08:11:13Z</time>
      </trkpt>
      <trkpt lat="45.58641" lon="-0.63902">
        <ele>44.8</ele>
        <time>2021-11-12T08:11:17Z</time>
      </trkpt>
      <trkpt lat="45.58643" lon="-0.63909">
        <ele>45.9</ele>
        <time>2021-11-12T08:11:46Z</time>
      </trkpt>
      <trkpt lat="45.58643" lon="-0.6399">
        <ele>47.7</ele>
        <time>2021-11-12T08:11:56Z</time>
      </trkpt>
      <trkpt lat="45.58649" lon="-0.64081">
        <ele>44.7</ele>
        <time>2021-11-12T08:12:06Z</time>
      </trkpt>
      <trkpt lat="45.5865" lon="-0.64185">
        <ele>47.2</ele>
        <time>2021-11-12T08:12:17Z</time>
      </trkpt>
      <trkpt lat="45.5865" lon="-0.64221">
        <ele>45.2</ele>
        <time>2021-11-12T08:12:21Z</time>
      </trkpt>
      <trkpt lat="45.58657" lon="-0.64276">
        <ele>43.5</ele>
        <time>2021-11-12T08:12:28Z</time>
      </trkpt>
      <trkpt lat="45.5867" lon="-0.64331">
        <ele>42.2</ele>
        <time>2021-11-12T08:12:35Z</time>
      </trkpt>
      <trkpt lat="45.58685" lon="-0.64386">
        <ele>41.1</ele>
        <time>2021-11-12T08:12:42Z</time>
      </trkpt>
      <trkpt lat="45.5871" lon="-0.64513">
        <ele>43.3</ele>
        <time>2021-11-12T08:12:57Z</time>
      </trkpt>
      <trkpt lat="45.58714" lon="-0.64536">
        <ele>43.6</ele>
        <time>2021-11-12T08:13:00Z</time>
      </trkpt>
      <trkpt lat="45.58719" lon="-0.64582">
        <ele>41.5</ele>
        <time>2021-11-12T08:13:08Z</time>
      </trkpt>
      <trkpt lat="45.58781" lon="-0.64596">
        <ele>42.9</ele>
        <time>2021-11-12T08:13:27Z</time>
      </trkpt>
      <trkpt lat="45.58781" lon="-0.64596">
        <ele>42.8</ele>
        <time>2021-11-12T08:13:30Z</time>
      </trkpt>
      <trkpt lat="45.58804" lon="-0.646">
        <ele>45.2</ele>
        <time>2021-11-12T08:14:46Z</time>
      </trkpt>
      <trkpt lat="45.58812" lon="-0.64603">
        <ele>44.6</ele>
        <time>2021-11-12T08:14:49Z</time>
      </trkpt>
      <trkpt lat="45.58837" lon="-0.64432">
        <ele>45.4</ele>
        <time>2021-11-12T08:15:04Z</time>
      </trkpt>
      <trkpt lat="45.58852" lon="-0.64377">
        <ele>46</ele>
        <time>2021-11-12T08:15:07Z</time>
      </trkpt>
      <trkpt lat="45.58899" lon="-0.64232">
        <ele>43.8</ele>
        <time>2021-11-12T08:15:14Z</time>
      </trkpt>
      <trkpt lat="45.58942" lon="-0.64174">
        <ele>44.5</ele>
        <time>2021-11-12T08:15:18Z</time>
      </trkpt>
      <trkpt lat="45.5898" lon="-0.64121">
        <ele>44.5</ele>
        <time>2021-11-12T08:15:22Z</time>
      </trkpt>
      <trkpt lat="45.5907" lon="-0.64152">
        <ele>43.6</ele>
        <time>2021-11-12T08:15:39Z</time>
      </trkpt>
      <trkpt lat="45.59127" lon="-0.64346">
        <ele>40.6</ele>
        <time>2021-11-12T08:15:50Z</time>
      </trkpt>
      <trkpt lat="45.59233" lon="-0.64576">
        <ele>42</ele>
        <time>2021-11-12T08:16:04Z</time>
      </trkpt>
      <trkpt lat="45.59311" lon="-0.64839">
        <ele>39.4</ele>
        <time>2021-11-12T08:16:20Z</time>
      </trkpt>
      <trkpt lat="45.59359" lon="-0.65179">
        <ele>39</ele>
        <time>2021-11-12T08:16:34Z</time>
      </trkpt>
      <trkpt lat="45.59334" lon="-0.65402">
        <ele>38.4</ele>
        <time>2021-11-12T08:16:44Z</time>
      </trkpt>
      <trkpt lat="45.59323" lon="-0.65476">
        <ele>39.1</ele>
        <time>2021-11-12T08:16:48Z</time>
      </trkpt>
      <trkpt lat="45.59372" lon="-0.65806">
        <ele>38.6</ele>
        <time>2021-11-12T08:17:06Z</time>
      </trkpt>
      <trkpt lat="45.59374" lon="-0.6581">
        <ele>38.4</ele>
        <time>2021-11-12T08:17:10Z</time>
      </trkpt>
      <trkpt lat="45.59373" lon="-0.65808">
        <ele>39.6</ele>
        <time>2021-11-12T08:17:46Z</time>
      </trkpt>
      <trkpt lat="45.59407" lon="-0.65784">
        <ele>40.4</ele>
        <time>2021-11-12T08:17:53Z</time>
      </trkpt>
      <trkpt lat="45.5949" lon="-0.65748">
        <ele>37.9</ele>
        <time>2021-11-12T08:18:04Z</time>
      </trkpt>
      <trkpt lat="45.59587" lon="-0.657">
        <ele>40</ele>
        <time>2021-11-12T08:18:18Z</time>
      </trkpt>
      <trkpt lat="45.59606" lon="-0.6568">
        <ele>39.9</ele>
        <time>2021-11-12T08:18:22Z</time>
      </trkpt>
      <trkpt lat="45.59643" lon="-0.65641">
        <ele>40.2</ele>
        <time>2021-11-12T08:18:28Z</time>
      </trkpt>
      <trkpt lat="45.5971" lon="-0.65586">
        <ele>41.3</ele>
        <time>2021-11-12T08:18:39Z</time>
      </trkpt>
      <trkpt lat="45.5984" lon="-0.65469">
        <ele>42.9</ele>
        <time>2021-11-12T08:18:58Z</time>
      </trkpt>
      <trkpt lat="45.59838" lon="-0.65455">
        <ele>42.5</ele>
        <time>2021-11-12T08:19:02Z</time>
      </trkpt>
      <trkpt lat="45.59835" lon="-0.6544">
        <ele>41.8</ele>
        <time>2021-11-12T08:19:06Z</time>
      </trkpt>
      <trkpt lat="45.59866" lon="-0.65411">
        <ele>41.9</ele>
        <time>2021-11-12T08:19:14Z</time>
      </trkpt>
      <trkpt lat="45.59883" lon="-0.65395">
        <ele>41.9</ele>
        <time>2021-11-12T08:19:17Z</time>
      </trkpt>
      <trkpt lat="45.60125" lon="-0.65203">
        <ele>42.1</ele>
        <time>2021-11-12T08:19:54Z</time>
      </trkpt>
      <trkpt lat="45.60143" lon="-0.6519">
        <ele>41.4</ele>
        <time>2021-11-12T08:19:58Z</time>
      </trkpt>
      <trkpt lat="45.60197" lon="-0.65252">
        <ele>40.5</ele>
        <time>2021-11-12T08:20:12Z</time>
      </trkpt>
      <trkpt lat="45.60238" lon="-0.65222">
        <ele>42.5</ele>
        <time>2021-11-12T08:20:16Z</time>
      </trkpt>
      <trkpt lat="45.60366" lon="-0.65135">
        <ele>44.8</ele>
        <time>2021-11-12T08:20:28Z</time>
      </trkpt>
      <trkpt lat="45.60404" lon="-0.6506">
        <ele>44.7</ele>
        <time>2021-11-12T08:20:42Z</time>
      </trkpt>
      <trkpt lat="45.60447" lon="-0.65057">
        <ele>46.4</ele>
        <time>2021-11-12T08:20:46Z</time>
      </trkpt>
      <trkpt lat="45.60491" lon="-0.65054">
        <ele>48.3</ele>
        <time>2021-11-12T08:20:50Z</time>
      </trkpt>
      <trkpt lat="45.60547" lon="-0.65059">
        <ele>48.1</ele>
        <time>2021-11-12T08:20:54Z</time>
      </trkpt>
      <trkpt lat="45.60607" lon="-0.65067">
        <ele>48.1</ele>
        <time>2021-11-12T08:20:58Z</time>
      </trkpt>
      <trkpt lat="45.60718" lon="-0.65027">
        <ele>45.7</ele>
        <time>2021-11-12T08:21:06Z</time>
      </trkpt>
      <trkpt lat="45.60769" lon="-0.64998">
        <ele>45.1</ele>
        <time>2021-11-12T08:21:10Z</time>
      </trkpt>
      <trkpt lat="45.60806" lon="-0.64967">
        <ele>44.8</ele>
        <time>2021-11-12T08:21:14Z</time>
      </trkpt>
      <trkpt lat="45.60828" lon="-0.64954">
        <ele>46.6</ele>
        <time>2021-11-12T08:21:22Z</time>
      </trkpt>
      <trkpt lat="45.60913" lon="-0.65087">
        <ele>47</ele>
        <time>2021-11-12T08:21:33Z</time>
      </trkpt>
      <trkpt lat="45.60947" lon="-0.6511">
        <ele>47.1</ele>
        <time>2021-11-12T08:21:36Z</time>
      </trkpt>
      <trkpt lat="45.60975" lon="-0.6513">
        <ele>44.5</ele>
        <time>2021-11-12T08:21:40Z</time>
      </trkpt>
      <trkpt lat="45.61007" lon="-0.65175">
        <ele>44.7</ele>
        <time>2021-11-12T08:21:44Z</time>
      </trkpt>
      <trkpt lat="45.61096" lon="-0.65264">
        <ele>45.3</ele>
        <time>2021-11-12T08:21:59Z</time>
      </trkpt>
      <trkpt lat="45.61261" lon="-0.65177">
        <ele>42.1</ele>
        <time>2021-11-12T08:22:17Z</time>
      </trkpt>
      <trkpt lat="45.613" lon="-0.65157">
        <ele>42</ele>
        <time>2021-11-12T08:22:21Z</time>
      </trkpt>
      <trkpt lat="45.61451" lon="-0.65079">
        <ele>44.2</ele>
        <time>2021-11-12T08:22:35Z</time>
      </trkpt>
      <trkpt lat="45.61473" lon="-0.65145">
        <ele>44.4</ele>
        <time>2021-11-12T08:22:46Z</time>
      </trkpt>
      <trkpt lat="45.61487" lon="-0.65422">
        <ele>43.9</ele>
        <time>2021-11-12T08:23:06Z</time>
      </trkpt>
      <trkpt lat="45.61513" lon="-0.65502">
        <ele>43.8</ele>
        <time>2021-11-12T08:23:13Z</time>
      </trkpt>
      <trkpt lat="45.61531" lon="-0.65551">
        <ele>43.8</ele>
        <time>2021-11-12T08:23:17Z</time>
      </trkpt>
      <trkpt lat="45.61552" lon="-0.65641">
        <ele>43.4</ele>
        <time>2021-11-12T08:23:24Z</time>
      </trkpt>
      <trkpt lat="45.6156" lon="-0.6568">
        <ele>42.4</ele>
        <time>2021-11-12T08:23:28Z</time>
      </trkpt>
      <trkpt lat="45.61584" lon="-0.65742">
        <ele>43.6</ele>
        <time>2021-11-12T08:23:35Z</time>
      </trkpt>
      <trkpt lat="45.61683" lon="-0.65985">
        <ele>45</ele>
        <time>2021-11-12T08:23:56Z</time>
      </trkpt>
      <trkpt lat="45.6171" lon="-0.66095">
        <ele>44</ele>
        <time>2021-11-12T08:24:04Z</time>
      </trkpt>
      <trkpt lat="45.61732" lon="-0.66182">
        <ele>47.2</ele>
        <time>2021-11-12T08:24:22Z</time>
      </trkpt>
      <trkpt lat="45.61738" lon="-0.6621">
        <ele>46.2</ele>
        <time>2021-11-12T08:24:25Z</time>
      </trkpt>
      <trkpt lat="45.61752" lon="-0.66263">
        <ele>45.2</ele>
        <time>2021-11-12T08:24:32Z</time>
      </trkpt>
      <trkpt lat="45.61791" lon="-0.66347">
        <ele>44</ele>
        <time>2021-11-12T08:24:40Z</time>
      </trkpt>
      <trkpt lat="45.61807" lon="-0.66381">
        <ele>44.7</ele>
        <time>2021-11-12T08:24:43Z</time>
      </trkpt>
      <trkpt lat="45.61824" lon="-0.66495">
        <ele>44.6</ele>
        <time>2021-11-12T08:24:51Z</time>
      </trkpt>
      <trkpt lat="45.61845" lon="-0.66699">
        <ele>44.1</ele>
        <time>2021-11-12T08:25:05Z</time>
      </trkpt>
      <trkpt lat="45.61869" lon="-0.66799">
        <ele>43</ele>
        <time>2021-11-12T08:25:12Z</time>
      </trkpt>
      <trkpt lat="45.61883" lon="-0.66854">
        <ele>42.7</ele>
        <time>2021-11-12T08:25:16Z</time>
      </trkpt>
      <trkpt lat="45.61919" lon="-0.67018">
        <ele>42.2</ele>
        <time>2021-11-12T08:25:27Z</time>
      </trkpt>
      <trkpt lat="45.61948" lon="-0.67188">
        <ele>42.8</ele>
        <time>2021-11-12T08:25:42Z</time>
      </trkpt>
      <trkpt lat="45.62017" lon="-0.67363">
        <ele>40.8</ele>
        <time>2021-11-12T08:25:53Z</time>
      </trkpt>
      <trkpt lat="45.62057" lon="-0.67454">
        <ele>43</ele>
        <time>2021-11-12T08:26:00Z</time>
      </trkpt>
      <trkpt lat="45.62163" lon="-0.67793">
        <ele>42.2</ele>
        <time>2021-11-12T08:26:24Z</time>
      </trkpt>
      <trkpt lat="45.6219" lon="-0.67871">
        <ele>43.3</ele>
        <time>2021-11-12T08:26:32Z</time>
      </trkpt>
      <trkpt lat="45.62201" lon="-0.67891">
        <ele>42.5</ele>
        <time>2021-11-12T08:26:36Z</time>
      </trkpt>
      <trkpt lat="45.62224" lon="-0.67934">
        <ele>41.8</ele>
        <time>2021-11-12T08:26:46Z</time>
      </trkpt>
      <trkpt lat="45.62235" lon="-0.67949">
        <ele>41.9</ele>
        <time>2021-11-12T08:26:49Z</time>
      </trkpt>
      <trkpt lat="45.62381" lon="-0.68147">
        <ele>40.6</ele>
        <time>2021-11-12T08:27:16Z</time>
      </trkpt>
      <trkpt lat="45.6243" lon="-0.68226">
        <ele>38</ele>
        <time>2021-11-12T08:27:24Z</time>
      </trkpt>
      <trkpt lat="45.62449" lon="-0.68265">
        <ele>37.4</ele>
        <time>2021-11-12T08:27:28Z</time>
      </trkpt>
      <trkpt lat="45.625" lon="-0.68354">
        <ele>38.9</ele>
        <time>2021-11-12T08:27:35Z</time>
      </trkpt>
      <trkpt lat="45.62539" lon="-0.6847">
        <ele>41.6</ele>
        <time>2021-11-12T08:27:42Z</time>
      </trkpt>
      <trkpt lat="45.62554" lon="-0.68524">
        <ele>40.5</ele>
        <time>2021-11-12T08:27:45Z</time>
      </trkpt>
      <trkpt lat="45.62566" lon="-0.68637">
        <ele>43</ele>
        <time>2021-11-12T08:27:52Z</time>
      </trkpt>
      <trkpt lat="45.62565" lon="-0.68842">
        <ele>41.6</ele>
        <time>2021-11-12T08:28:14Z</time>
      </trkpt>
      <trkpt lat="45.6255" lon="-0.69009">
        <ele>42.7</ele>
        <time>2021-11-12T08:28:28Z</time>
      </trkpt>
      <trkpt lat="45.6258" lon="-0.69109">
        <ele>40.1</ele>
        <time>2021-11-12T08:28:39Z</time>
      </trkpt>
      <trkpt lat="45.62597" lon="-0.69179">
        <ele>40.8</ele>
        <time>2021-11-12T08:28:46Z</time>
      </trkpt>
      <trkpt lat="45.62633" lon="-0.69258">
        <ele>38.2</ele>
        <time>2021-11-12T08:28:54Z</time>
      </trkpt>
      <trkpt lat="45.62653" lon="-0.69297">
        <ele>38.7</ele>
        <time>2021-11-12T08:28:58Z</time>
      </trkpt>
      <trkpt lat="45.6268" lon="-0.69359">
        <ele>40.2</ele>
        <time>2021-11-12T08:29:05Z</time>
      </trkpt>
      <trkpt lat="45.62701" lon="-0.69409">
        <ele>41.4</ele>
        <time>2021-11-12T08:29:12Z</time>
      </trkpt>
      <trkpt lat="45.62718" lon="-0.69439">
        <ele>40.5</ele>
        <time>2021-11-12T08:29:16Z</time>
      </trkpt>
      <trkpt lat="45.62736" lon="-0.69464">
        <ele>37.5</ele>
        <time>2021-11-12T08:29:20Z</time>
      </trkpt>
      <trkpt lat="45.62783" lon="-0.69523">
        <ele>36.6</ele>
        <time>2021-11-12T08:29:28Z</time>
      </trkpt>
      <trkpt lat="45.62806" lon="-0.69547">
        <ele>32.9</ele>
        <time>2021-11-12T08:29:35Z</time>
      </trkpt>
      <trkpt lat="45.62822" lon="-0.69555">
        <ele>32.7</ele>
        <time>2021-11-12T08:29:39Z</time>
      </trkpt>
      <trkpt lat="45.62881" lon="-0.69545">
        <ele>32.5</ele>
        <time>2021-11-12T08:29:49Z</time>
      </trkpt>
      <trkpt lat="45.62919" lon="-0.69531">
        <ele>37.9</ele>
        <time>2021-11-12T08:29:55Z</time>
      </trkpt>
      <trkpt lat="45.62966" lon="-0.6954">
        <ele>42.3</ele>
        <time>2021-11-12T08:30:03Z</time>
      </trkpt>
      <trkpt lat="45.62986" lon="-0.69555">
        <ele>42.5</ele>
        <time>2021-11-12T08:30:06Z</time>
      </trkpt>
      <trkpt lat="45.63006" lon="-0.69612">
        <ele>41.2</ele>
        <time>2021-11-12T08:30:17Z</time>
      </trkpt>
      <trkpt lat="45.6296" lon="-0.69843">
        <ele>38.9</ele>
        <time>2021-11-12T08:30:45Z</time>
      </trkpt>
      <trkpt lat="45.6298" lon="-0.69928">
        <ele>38.7</ele>
        <time>2021-11-12T08:30:52Z</time>
      </trkpt>
      <trkpt lat="45.63034" lon="-0.70054">
        <ele>39.3</ele>
        <time>2021-11-12T08:31:04Z</time>
      </trkpt>
      <trkpt lat="45.63103" lon="-0.70169">
        <ele>36.6</ele>
        <time>2021-11-12T08:31:18Z</time>
      </trkpt>
      <trkpt lat="45.63179" lon="-0.70363">
        <ele>37.3</ele>
        <time>2021-11-12T08:31:40Z</time>
      </trkpt>
      <trkpt lat="45.63305" lon="-0.70691">
        <ele>39.2</ele>
        <time>2021-11-12T08:32:05Z</time>
      </trkpt>
      <trkpt lat="45.63331" lon="-0.70762">
        <ele>38.5</ele>
        <time>2021-11-12T08:32:09Z</time>
      </trkpt>
      <trkpt lat="45.63353" lon="-0.7088">
        <ele>38</ele>
        <time>2021-11-12T08:32:15Z</time>
      </trkpt>
      <trkpt lat="45.63402" lon="-0.71153">
        <ele>38.6</ele>
        <time>2021-11-12T08:32:32Z</time>
      </trkpt>
      <trkpt lat="45.63409" lon="-0.71163">
        <ele>38.9</ele>
        <time>2021-11-12T08:32:36Z</time>
      </trkpt>
      <trkpt lat="45.63445" lon="-0.71133">
        <ele>35.3</ele>
        <time>2021-11-12T08:32:44Z</time>
      </trkpt>
      <trkpt lat="45.63467" lon="-0.71112">
        <ele>35.1</ele>
        <time>2021-11-12T08:32:47Z</time>
      </trkpt>
      <trkpt lat="45.63546" lon="-0.71103">
        <ele>31.2</ele>
        <time>2021-11-12T08:32:58Z</time>
      </trkpt>
      <trkpt lat="45.63556" lon="-0.7113">
        <ele>28.2</ele>
        <time>2021-11-12T08:33:01Z</time>
      </trkpt>
      <trkpt lat="45.63598" lon="-0.71135">
        <ele>28.1</ele>
        <time>2021-11-12T08:33:08Z</time>
      </trkpt>
      <trkpt lat="45.63603" lon="-0.71132">
        <ele>31.1</ele>
        <time>2021-11-12T08:33:12Z</time>
      </trkpt>
      <trkpt lat="45.63603" lon="-0.71132">
        <ele>29.9</ele>
        <time>2021-11-12T08:33:16Z</time>
      </trkpt>
      <trkpt lat="45.63603" lon="-0.71133">
        <ele>90.8</ele>
        <time>2021-11-12T08:33:20Z</time>
      </trkpt>
      <trkpt lat="45.63604" lon="-0.71151">
        <ele>90.8</ele>
        <time>2021-11-12T08:33:23Z</time>
      </trkpt>
      <trkpt lat="45.63646" lon="-0.71229">
        <ele>90.8</ele>
        <time>2021-11-12T08:33:42Z</time>
      </trkpt>
      <trkpt lat="45.63677" lon="-0.71219">
        <ele>90.8</ele>
        <time>2021-11-12T08:33:46Z</time>
      </trkpt>
      <trkpt lat="45.63713" lon="-0.7121">
        <ele>90.8</ele>
        <time>2021-11-12T08:33:50Z</time>
      </trkpt>
      <trkpt lat="45.63755" lon="-0.71193">
        <ele>90.9</ele>
        <time>2021-11-12T08:33:54Z</time>
      </trkpt>
      <trkpt lat="45.63882" lon="-0.71141">
        <ele>90.9</ele>
        <time>2021-11-12T08:34:06Z</time>
      </trkpt>
      <trkpt lat="45.63978" lon="-0.7119">
        <ele>90.9</ele>
        <time>2021-11-12T08:34:17Z</time>
      </trkpt>
      <trkpt lat="45.64024" lon="-0.71232">
        <ele>37.7</ele>
        <time>2021-11-12T08:34:21Z</time>
      </trkpt>
      <trkpt lat="45.64316" lon="-0.71349">
        <ele>40.6</ele>
        <time>2021-11-12T08:34:38Z</time>
      </trkpt>
      <trkpt lat="45.64447" lon="-0.71488">
        <ele>42.9</ele>
        <time>2021-11-12T08:34:48Z</time>
      </trkpt>
      <trkpt lat="45.64579" lon="-0.71515">
        <ele>42.9</ele>
        <time>2021-11-12T08:35:00Z</time>
      </trkpt>
      <trkpt lat="45.64623" lon="-0.71587">
        <ele>42.1</ele>
        <time>2021-11-12T08:35:08Z</time>
      </trkpt>
      <trkpt lat="45.64698" lon="-0.71769">
        <ele>41.4</ele>
        <time>2021-11-12T08:35:22Z</time>
      </trkpt>
      <trkpt lat="45.64782" lon="-0.72047">
        <ele>43</ele>
        <time>2021-11-12T08:35:44Z</time>
      </trkpt>
      <trkpt lat="45.64828" lon="-0.72247">
        <ele>42.6</ele>
        <time>2021-11-12T08:36:00Z</time>
      </trkpt>
      <trkpt lat="45.64862" lon="-0.7233">
        <ele>39.8</ele>
        <time>2021-11-12T08:36:07Z</time>
      </trkpt>
      <trkpt lat="45.64921" lon="-0.72443">
        <ele>36.4</ele>
        <time>2021-11-12T08:36:18Z</time>
      </trkpt>
      <trkpt lat="45.64953" lon="-0.72477">
        <ele>35.9</ele>
        <time>2021-11-12T08:36:22Z</time>
      </trkpt>
      <trkpt lat="45.65027" lon="-0.7256">
        <ele>37.4</ele>
        <time>2021-11-12T08:36:32Z</time>
      </trkpt>
      <trkpt lat="45.65071" lon="-0.72736">
        <ele>34.1</ele>
        <time>2021-11-12T08:36:50Z</time>
      </trkpt>
      <trkpt lat="45.65167" lon="-0.72752">
        <ele>35</ele>
        <time>2021-11-12T08:37:05Z</time>
      </trkpt>
      <trkpt lat="45.6522" lon="-0.72739">
        <ele>35.9</ele>
        <time>2021-11-12T08:37:09Z</time>
      </trkpt>
      <trkpt lat="45.65257" lon="-0.7272">
        <ele>35.3</ele>
        <time>2021-11-12T08:37:12Z</time>
      </trkpt>
      <trkpt lat="45.65282" lon="-0.72708">
        <ele>36.8</ele>
        <time>2021-11-12T08:37:16Z</time>
      </trkpt>
      <trkpt lat="45.65274" lon="-0.72757">
        <ele>34</ele>
        <time>2021-11-12T08:37:26Z</time>
      </trkpt>
      <trkpt lat="45.6527" lon="-0.72774">
        <ele>34.6</ele>
        <time>2021-11-12T08:37:29Z</time>
      </trkpt>
      <trkpt lat="45.65265" lon="-0.72803">
        <ele>35.4</ele>
        <time>2021-11-12T08:37:37Z</time>
      </trkpt>
      <trkpt lat="45.65266" lon="-0.72915">
        <ele>31.4</ele>
        <time>2021-11-12T08:37:47Z</time>
      </trkpt>
      <trkpt lat="45.65262" lon="-0.72948">
        <ele>31.2</ele>
        <time>2021-11-12T08:37:50Z</time>
      </trkpt>
      <trkpt lat="45.65241" lon="-0.73041">
        <ele>34.9</ele>
        <time>2021-11-12T08:37:57Z</time>
      </trkpt>
      <trkpt lat="45.65232" lon="-0.73078">
        <ele>38</ele>
        <time>2021-11-12T08:38:00Z</time>
      </trkpt>
      <trkpt lat="45.65222" lon="-0.73121">
        <ele>38</ele>
        <time>2021-11-12T08:38:04Z</time>
      </trkpt>
      <trkpt lat="45.65222" lon="-0.73235">
        <ele>39.5</ele>
        <time>2021-11-12T08:38:14Z</time>
      </trkpt>
      <trkpt lat="45.65211" lon="-0.73291">
        <ele>38.9</ele>
        <time>2021-11-12T08:38:18Z</time>
      </trkpt>
      <trkpt lat="45.65185" lon="-0.73406">
        <ele>40.7</ele>
        <time>2021-11-12T08:38:26Z</time>
      </trkpt>
      <trkpt lat="45.65166" lon="-0.73457">
        <ele>40.8</ele>
        <time>2021-11-12T08:38:30Z</time>
      </trkpt>
      <trkpt lat="45.65151" lon="-0.73545">
        <ele>37.2</ele>
        <time>2021-11-12T08:38:48Z</time>
      </trkpt>
      <trkpt lat="45.65149" lon="-0.73575">
        <ele>35.4</ele>
        <time>2021-11-12T08:38:57Z</time>
      </trkpt>
      <trkpt lat="45.6515" lon="-0.73586">
        <ele>37.1</ele>
        <time>2021-11-12T08:39:04Z</time>
      </trkpt>
      <trkpt lat="45.65146" lon="-0.73643">
        <ele>40.6</ele>
        <time>2021-11-12T08:39:11Z</time>
      </trkpt>
      <trkpt lat="45.65176" lon="-0.73697">
        <ele>36</ele>
        <time>2021-11-12T08:39:18Z</time>
      </trkpt>
      <trkpt lat="45.65194" lon="-0.73737">
        <ele>35.9</ele>
        <time>2021-11-12T08:39:22Z</time>
      </trkpt>
      <trkpt lat="45.65228" lon="-0.73807">
        <ele>34.2</ele>
        <time>2021-11-12T08:39:29Z</time>
      </trkpt>
      <trkpt lat="45.65314" lon="-0.74033">
        <ele>33.8</ele>
        <time>2021-11-12T08:39:50Z</time>
      </trkpt>
      <trkpt lat="45.65391" lon="-0.73991">
        <ele>35.4</ele>
        <time>2021-11-12T08:40:06Z</time>
      </trkpt>
      <trkpt lat="45.65465" lon="-0.7391">
        <ele>38.8</ele>
        <time>2021-11-12T08:40:20Z</time>
      </trkpt>
      <trkpt lat="45.65478" lon="-0.73886">
        <ele>38.5</ele>
        <time>2021-11-12T08:40:23Z</time>
      </trkpt>
      <trkpt lat="45.65515" lon="-0.7383">
        <ele>39.7</ele>
        <time>2021-11-12T08:40:30Z</time>
      </trkpt>
      <trkpt lat="45.65535" lon="-0.7376">
        <ele>38.9</ele>
        <time>2021-11-12T08:40:38Z</time>
      </trkpt>
      <trkpt lat="45.65549" lon="-0.73683">
        <ele>41.6</ele>
        <time>2021-11-12T08:40:46Z</time>
      </trkpt>
      <trkpt lat="45.65555" lon="-0.73668">
        <ele>37.7</ele>
        <time>2021-11-12T08:40:49Z</time>
      </trkpt>
      <trkpt lat="45.65587" lon="-0.73663">
        <ele>35.5</ele>
        <time>2021-11-12T08:40:55Z</time>
      </trkpt>
      <trkpt lat="45.65637" lon="-0.73742">
        <ele>33.8</ele>
        <time>2021-11-12T08:41:13Z</time>
      </trkpt>
      <trkpt lat="45.65636" lon="-0.73773">
        <ele>30.4</ele>
        <time>2021-11-12T08:41:16Z</time>
      </trkpt>
      <trkpt lat="45.65635" lon="-0.73815">
        <ele>27.2</ele>
        <time>2021-11-12T08:41:20Z</time>
      </trkpt>
      <trkpt lat="45.65635" lon="-0.73843">
        <ele>24</ele>
        <time>2021-11-12T08:41:23Z</time>
      </trkpt>
      <trkpt lat="45.65643" lon="-0.73883">
        <ele>20.5</ele>
        <time>2021-11-12T08:41:27Z</time>
      </trkpt>
      <trkpt lat="45.65647" lon="-0.73912">
        <ele>17.3</ele>
        <time>2021-11-12T08:41:30Z</time>
      </trkpt>
      <trkpt lat="45.65632" lon="-0.73973">
        <ele>13.1</ele>
        <time>2021-11-12T08:41:37Z</time>
      </trkpt>
      <trkpt lat="45.65612" lon="-0.74015">
        <ele>9.7</ele>
        <time>2021-11-12T08:41:44Z</time>
      </trkpt>
      <trkpt lat="45.65599" lon="-0.7405">
        <ele>5.6</ele>
        <time>2021-11-12T08:41:48Z</time>
      </trkpt>
      <trkpt lat="45.65586" lon="-0.74093">
        <ele>8.6</ele>
        <time>2021-11-12T08:41:52Z</time>
      </trkpt>
      <trkpt lat="45.65586" lon="-0.74146">
        <ele>12.7</ele>
        <time>2021-11-12T08:42:00Z</time>
      </trkpt>
      <trkpt lat="45.65595" lon="-0.74145">
        <ele>18.6</ele>
        <time>2021-11-12T08:42:04Z</time>
      </trkpt>
      <trkpt lat="45.65602" lon="-0.7414">
        <ele>24.3</ele>
        <time>2021-11-12T08:42:08Z</time>
      </trkpt>
      <trkpt lat="45.65603" lon="-0.7414">
        <ele>23.7</ele>
        <time>2021-11-12T08:42:11Z</time>
      </trkpt>
      <trkpt lat="45.65616" lon="-0.74133">
        <ele>29</ele>
        <time>2021-11-12T08:42:18Z</time>
      </trkpt>
      <trkpt lat="45.65628" lon="-0.74122">
        <ele>34.5</ele>
        <time>2021-11-12T08:42:22Z</time>
      </trkpt>
      <trkpt lat="45.65638" lon="-0.741">
        <ele>40.7</ele>
        <time>2021-11-12T08:42:26Z</time>
      </trkpt>
      <trkpt lat="45.65649" lon="-0.74076">
        <ele>43.5</ele>
        <time>2021-11-12T08:42:30Z</time>
      </trkpt>
      <trkpt lat="45.6566" lon="-0.7406">
        <ele>47.2</ele>
        <time>2021-11-12T08:42:34Z</time>
      </trkpt>
      <trkpt lat="45.65668" lon="-0.74046">
        <ele>46.5</ele>
        <time>2021-11-12T08:42:37Z</time>
      </trkpt>
      <trkpt lat="45.65699" lon="-0.74007">
        <ele>45.1</ele>
        <time>2021-11-12T08:42:48Z</time>
      </trkpt>
      <trkpt lat="45.65721" lon="-0.73985">
        <ele>46.1</ele>
        <time>2021-11-12T08:42:55Z</time>
      </trkpt>
      <trkpt lat="45.65773" lon="-0.73939">
        <ele>50.5</ele>
        <time>2021-11-12T08:43:09Z</time>
      </trkpt>
      <trkpt lat="45.65805" lon="-0.73938">
        <ele>51.6</ele>
        <time>2021-11-12T08:43:15Z</time>
      </trkpt>
      <trkpt lat="45.65822" lon="-0.73936">
        <ele>52</ele>
        <time>2021-11-12T08:43:18Z</time>
      </trkpt>
      <trkpt lat="45.65863" lon="-0.73934">
        <ele>49</ele>
        <time>2021-11-12T08:43:25Z</time>
      </trkpt>
      <trkpt lat="45.65876" lon="-0.73934">
        <ele>46.5</ele>
        <time>2021-11-12T08:43:28Z</time>
      </trkpt>
      <trkpt lat="45.65911" lon="-0.73959">
        <ele>45.2</ele>
        <time>2021-11-12T08:43:35Z</time>
      </trkpt>
      <trkpt lat="45.6597" lon="-0.73962">
        <ele>49.5</ele>
        <time>2021-11-12T08:43:48Z</time>
      </trkpt>
      <trkpt lat="45.66014" lon="-0.73925">
        <ele>53.1</ele>
        <time>2021-11-12T08:43:55Z</time>
      </trkpt>
      <trkpt lat="45.66058" lon="-0.73887">
        <ele>54.7</ele>
        <time>2021-11-12T08:44:02Z</time>
      </trkpt>
      <trkpt lat="45.66098" lon="-0.73863">
        <ele>53.6</ele>
        <time>2021-11-12T08:44:08Z</time>
      </trkpt>
      <trkpt lat="45.66125" lon="-0.73851">
        <ele>52.6</ele>
        <time>2021-11-12T08:44:12Z</time>
      </trkpt>
      <trkpt lat="45.6615" lon="-0.73835">
        <ele>48</ele>
        <time>2021-11-12T08:44:16Z</time>
      </trkpt>
      <trkpt lat="45.66203" lon="-0.73797">
        <ele>47.6</ele>
        <time>2021-11-12T08:44:23Z</time>
      </trkpt>
      <trkpt lat="45.66244" lon="-0.73759">
        <ele>43.6</ele>
        <time>2021-11-12T08:44:30Z</time>
      </trkpt>
      <trkpt lat="45.66274" lon="-0.73768">
        <ele>39.6</ele>
        <time>2021-11-12T08:44:37Z</time>
      </trkpt>
      <trkpt lat="45.6629" lon="-0.73784">
        <ele>39.5</ele>
        <time>2021-11-12T08:44:40Z</time>
      </trkpt>
      <trkpt lat="45.66301" lon="-0.73792">
        <ele>38.3</ele>
        <time>2021-11-12T08:44:44Z</time>
      </trkpt>
      <trkpt lat="45.66382" lon="-0.73797">
        <ele>41.1</ele>
        <time>2021-11-12T08:44:57Z</time>
      </trkpt>
      <trkpt lat="45.66441" lon="-0.73806">
        <ele>41.9</ele>
        <time>2021-11-12T08:45:07Z</time>
      </trkpt>
      <trkpt lat="45.66469" lon="-0.73787">
        <ele>42.2</ele>
        <time>2021-11-12T08:45:11Z</time>
      </trkpt>
      <trkpt lat="45.66516" lon="-0.73749">
        <ele>44.8</ele>
        <time>2021-11-12T08:45:18Z</time>
      </trkpt>
      <trkpt lat="45.66544" lon="-0.73736">
        <ele>48</ele>
        <time>2021-11-12T08:45:22Z</time>
      </trkpt>
      <trkpt lat="45.66544" lon="-0.73734">
        <ele>45</ele>
        <time>2021-11-12T08:45:22Z</time>
      </trkpt>
      <trkpt lat="45.66635" lon="-0.73744">
        <ele>45.1</ele>
        <time>2021-11-12T08:45:33Z</time>
      </trkpt>
      <trkpt lat="45.66714" lon="-0.737">
        <ele>45.4</ele>
        <time>2021-11-12T08:45:43Z</time>
      </trkpt>
      <trkpt lat="45.66793" lon="-0.73637">
        <ele>62</ele>
        <time>2021-11-12T08:45:54Z</time>
      </trkpt>
      <trkpt lat="45.6682" lon="-0.73627">
        <ele>60.8</ele>
        <time>2021-11-12T08:45:57Z</time>
      </trkpt>
      <trkpt lat="45.66849" lon="-0.73621">
        <ele>54.7</ele>
        <time>2021-11-12T08:46:00Z</time>
      </trkpt>
      <trkpt lat="45.66886" lon="-0.73615">
        <ele>49.9</ele>
        <time>2021-11-12T08:46:04Z</time>
      </trkpt>
      <trkpt lat="45.66912" lon="-0.73616">
        <ele>46</ele>
        <time>2021-11-12T08:46:08Z</time>
      </trkpt>
      <trkpt lat="45.66933" lon="-0.73618">
        <ele>45.8</ele>
        <time>2021-11-12T08:46:11Z</time>
      </trkpt>
      <trkpt lat="45.66955" lon="-0.73609">
        <ele>42.7</ele>
        <time>2021-11-12T08:46:14Z</time>
      </trkpt>
      <trkpt lat="45.66971" lon="-0.73596">
        <ele>43</ele>
        <time>2021-11-12T08:46:17Z</time>
      </trkpt>
      <trkpt lat="45.67127" lon="-0.73505">
        <ele>40.4</ele>
        <time>2021-11-12T08:46:38Z</time>
      </trkpt>
      <trkpt lat="45.67208" lon="-0.73453">
        <ele>40.6</ele>
        <time>2021-11-12T08:46:45Z</time>
      </trkpt>
      <trkpt lat="45.67288" lon="-0.73422">
        <ele>39.6</ele>
        <time>2021-11-12T08:46:52Z</time>
      </trkpt>
      <trkpt lat="45.67442" lon="-0.73363">
        <ele>35.7</ele>
        <time>2021-11-12T08:47:03Z</time>
      </trkpt>
      <trkpt lat="45.67468" lon="-0.7335">
        <ele>35.1</ele>
        <time>2021-11-12T08:47:07Z</time>
      </trkpt>
      <trkpt lat="45.67508" lon="-0.73298">
        <ele>35.6</ele>
        <time>2021-11-12T08:47:14Z</time>
      </trkpt>
      <trkpt lat="45.67537" lon="-0.73259">
        <ele>34.2</ele>
        <time>2021-11-12T08:47:18Z</time>
      </trkpt>
      <trkpt lat="45.67544" lon="-0.73289">
        <ele>35.9</ele>
        <time>2021-11-12T08:47:26Z</time>
      </trkpt>
      <trkpt lat="45.67538" lon="-0.73333">
        <ele>36.2</ele>
        <time>2021-11-12T08:47:30Z</time>
      </trkpt>
      <trkpt lat="45.67534" lon="-0.73371">
        <ele>36.4</ele>
        <time>2021-11-12T08:47:33Z</time>
      </trkpt>
      <trkpt lat="45.67531" lon="-0.73458">
        <ele>35.2</ele>
        <time>2021-11-12T08:47:40Z</time>
      </trkpt>
      <trkpt lat="45.67533" lon="-0.73601">
        <ele>36.7</ele>
        <time>2021-11-12T08:47:51Z</time>
      </trkpt>
      <trkpt lat="45.67531" lon="-0.73681">
        <ele>37.8</ele>
        <time>2021-11-12T08:47:57Z</time>
      </trkpt>
      <trkpt lat="45.67514" lon="-0.73769">
        <ele>39.6</ele>
        <time>2021-11-12T08:48:04Z</time>
      </trkpt>
      <trkpt lat="45.67513" lon="-0.73908">
        <ele>39.5</ele>
        <time>2021-11-12T08:48:14Z</time>
      </trkpt>
      <trkpt lat="45.67516" lon="-0.73949">
        <ele>40.9</ele>
        <time>2021-11-12T08:48:18Z</time>
      </trkpt>
      <trkpt lat="45.67522" lon="-0.73971">
        <ele>41.2</ele>
        <time>2021-11-12T08:48:21Z</time>
      </trkpt>
      <trkpt lat="45.67611" lon="-0.74166">
        <ele>42.1</ele>
        <time>2021-11-12T08:48:36Z</time>
      </trkpt>
      <trkpt lat="45.67675" lon="-0.74386">
        <ele>44.2</ele>
        <time>2021-11-12T08:48:51Z</time>
      </trkpt>
      <trkpt lat="45.67676" lon="-0.74411">
        <ele>43.8</ele>
        <time>2021-11-12T08:48:55Z</time>
      </trkpt>
      <trkpt lat="45.67677" lon="-0.74433">
        <ele>43.9</ele>
        <time>2021-11-12T08:48:58Z</time>
      </trkpt>
      <trkpt lat="45.67696" lon="-0.74444">
        <ele>43.2</ele>
        <time>2021-11-12T08:49:02Z</time>
      </trkpt>
      <trkpt lat="45.67736" lon="-0.74464">
        <ele>42.4</ele>
        <time>2021-11-12T08:49:06Z</time>
      </trkpt>
      <trkpt lat="45.6777" lon="-0.74529">
        <ele>43.2</ele>
        <time>2021-11-12T08:49:10Z</time>
      </trkpt>
      <trkpt lat="45.67803" lon="-0.74599">
        <ele>42.3</ele>
        <time>2021-11-12T08:49:14Z</time>
      </trkpt>
      <trkpt lat="45.67896" lon="-0.74659">
        <ele>41</ele>
        <time>2021-11-12T08:49:24Z</time>
      </trkpt>
      <trkpt lat="45.67937" lon="-0.74807">
        <ele>41.2</ele>
        <time>2021-11-12T08:49:39Z</time>
      </trkpt>
      <trkpt lat="45.67947" lon="-0.74849">
        <ele>41.6</ele>
        <time>2021-11-12T08:49:43Z</time>
      </trkpt>
      <trkpt lat="45.67954" lon="-0.74879">
        <ele>41.6</ele>
        <time>2021-11-12T08:49:46Z</time>
      </trkpt>
      <trkpt lat="45.67947" lon="-0.74956">
        <ele>40.2</ele>
        <time>2021-11-12T08:49:53Z</time>
      </trkpt>
      <trkpt lat="45.67948" lon="-0.75019">
        <ele>37.2</ele>
        <time>2021-11-12T08:50:00Z</time>
      </trkpt>
      <trkpt lat="45.67961" lon="-0.7505">
        <ele>37.5</ele>
        <time>2021-11-12T08:50:03Z</time>
      </trkpt>
      <trkpt lat="45.67997" lon="-0.75128">
        <ele>36.4</ele>
        <time>2021-11-12T08:50:10Z</time>
      </trkpt>
      <trkpt lat="45.68033" lon="-0.7521">
        <ele>37.2</ele>
        <time>2021-11-12T08:50:18Z</time>
      </trkpt>
      <trkpt lat="45.68031" lon="-0.7524">
        <ele>43</ele>
        <time>2021-11-12T08:50:23Z</time>
      </trkpt>
      <trkpt lat="45.67958" lon="-0.75381">
        <ele>45.4</ele>
        <time>2021-11-12T08:51:03Z</time>
      </trkpt>
      <trkpt lat="45.67939" lon="-0.75429">
        <ele>45.2</ele>
        <time>2021-11-12T08:51:15Z</time>
      </trkpt>
      <trkpt lat="45.67798" lon="-0.75602">
        <ele>45.5</ele>
        <time>2021-11-12T08:52:16Z</time>
      </trkpt>
      <trkpt lat="45.67939" lon="-0.75709">
        <ele>45</ele>
        <time>2021-11-12T08:53:08Z</time>
      </trkpt>
      <trkpt lat="45.67963" lon="-0.75742">
        <ele>37.2</ele>
        <time>2021-11-12T08:53:21Z</time>
      </trkpt>
      <trkpt lat="45.67963" lon="-0.75742">
        <ele>38.1</ele>
        <time>2021-11-12T08:53:25Z</time>
      </trkpt>
      <trkpt lat="45.67964" lon="-0.75742">
        <ele>42</ele>
        <time>2021-11-12T09:04:27Z</time>
      </trkpt>
      <trkpt lat="45.68007" lon="-0.75767">
        <ele>37.6</ele>
        <time>2021-11-12T09:04:35Z</time>
      </trkpt>
      <trkpt lat="45.68071" lon="-0.75823">
        <ele>33.1</ele>
        <time>2021-11-12T09:04:43Z</time>
      </trkpt>
      <trkpt lat="45.68088" lon="-0.7584">
        <ele>33.4</ele>
        <time>2021-11-12T09:04:46Z</time>
      </trkpt>
      <trkpt lat="45.68116" lon="-0.75859">
        <ele>29.3</ele>
        <time>2021-11-12T09:04:53Z</time>
      </trkpt>
      <trkpt lat="45.68139" lon="-0.75878">
        <ele>25.3</ele>
        <time>2021-11-12T09:04:59Z</time>
      </trkpt>
      <trkpt lat="45.68187" lon="-0.75899">
        <ele>27.9</ele>
        <time>2021-11-12T09:05:07Z</time>
      </trkpt>
      <trkpt lat="45.68197" lon="-0.75903">
        <ele>27.6</ele>
        <time>2021-11-12T09:05:10Z</time>
      </trkpt>
      <trkpt lat="45.68222" lon="-0.75926">
        <ele>24.3</ele>
        <time>2021-11-12T09:05:17Z</time>
      </trkpt>
      <trkpt lat="45.68277" lon="-0.75971">
        <ele>22.7</ele>
        <time>2021-11-12T09:05:39Z</time>
      </trkpt>
      <trkpt lat="45.68277" lon="-0.75971">
        <ele>23.2</ele>
        <time>2021-11-12T09:05:43Z</time>
      </trkpt>
      <trkpt lat="45.6828" lon="-0.75964">
        <ele>46.8</ele>
        <time>2021-11-12T09:05:44Z</time>
      </trkpt>
      <trkpt lat="45.68297" lon="-0.75978">
        <ele>46.4</ele>
        <time>2021-11-12T09:05:49Z</time>
      </trkpt>
      <trkpt lat="45.68333" lon="-0.76086">
        <ele>46.3</ele>
        <time>2021-11-12T09:06:12Z</time>
      </trkpt>
      <trkpt lat="45.68286" lon="-0.76157">
        <ele>46.3</ele>
        <time>2021-11-12T09:06:31Z</time>
      </trkpt>
      <trkpt lat="45.68248" lon="-0.76203">
        <ele>46.3</ele>
        <time>2021-11-12T09:06:47Z</time>
      </trkpt>
      <trkpt lat="45.681" lon="-0.76152">
        <ele>45.2</ele>
        <time>2021-11-12T09:07:39Z</time>
      </trkpt>
      <trkpt lat="45.68004" lon="-0.76118">
        <ele>45.6</ele>
        <time>2021-11-12T09:08:11Z</time>
      </trkpt>
      <trkpt lat="45.67986" lon="-0.76119">
        <ele>46.3</ele>
        <time>2021-11-12T09:08:17Z</time>
      </trkpt>
      <trkpt lat="45.67991" lon="-0.76324">
        <ele>46.4</ele>
        <time>2021-11-12T09:09:03Z</time>
      </trkpt>
      <trkpt lat="45.68003" lon="-0.765">
        <ele>47.1</ele>
        <time>2021-11-12T09:09:42Z</time>
      </trkpt>
      <trkpt lat="45.6805" lon="-0.76494">
        <ele>45.5</ele>
        <time>2021-11-12T09:09:57Z</time>
      </trkpt>
      <trkpt lat="45.68127" lon="-0.76501">
        <ele>45.3</ele>
        <time>2021-11-12T09:10:22Z</time>
      </trkpt>
      <trkpt lat="45.68147" lon="-0.76503">
        <ele>45.1</ele>
        <time>2021-11-12T09:10:28Z</time>
      </trkpt>
      <trkpt lat="45.68269" lon="-0.76618">
        <ele>44.3</ele>
        <time>2021-11-12T09:11:13Z</time>
      </trkpt>
      <trkpt lat="45.68235" lon="-0.76716">
        <ele>45.2</ele>
        <time>2021-11-12T09:11:36Z</time>
      </trkpt>
      <trkpt lat="45.68228" lon="-0.7675">
        <ele>41.8</ele>
        <time>2021-11-12T09:11:46Z</time>
      </trkpt>
      <trkpt lat="45.68226" lon="-0.76776">
        <ele>45.2</ele>
        <time>2021-11-12T09:11:52Z</time>
      </trkpt>
      <trkpt lat="45.68223" lon="-0.76793">
        <ele>46</ele>
        <time>2021-11-12T09:11:55Z</time>
      </trkpt>
      <trkpt lat="45.68222" lon="-0.7684">
        <ele>46.3</ele>
        <time>2021-11-12T09:12:03Z</time>
      </trkpt>
      <trkpt lat="45.6824" lon="-0.77063">
        <ele>46.9</ele>
        <time>2021-11-12T09:12:44Z</time>
      </trkpt>
      <trkpt lat="45.68248" lon="-0.77152">
        <ele>46.6</ele>
        <time>2021-11-12T09:13:00Z</time>
      </trkpt>
      <trkpt lat="45.68246" lon="-0.77165">
        <ele>46.5</ele>
        <time>2021-11-12T09:13:02Z</time>
      </trkpt>
      <trkpt lat="45.68222" lon="-0.77407">
        <ele>46.1</ele>
        <time>2021-11-12T09:13:44Z</time>
      </trkpt>
      <trkpt lat="45.68135" lon="-0.77623">
        <ele>45.8</ele>
        <time>2021-11-12T09:14:27Z</time>
      </trkpt>
      <trkpt lat="45.68117" lon="-0.7769">
        <ele>42.8</ele>
        <time>2021-11-12T09:14:41Z</time>
      </trkpt>
      <trkpt lat="45.68141" lon="-0.77702">
        <ele>41.2</ele>
        <time>2021-11-12T09:14:49Z</time>
      </trkpt>
      <trkpt lat="45.6816" lon="-0.77706">
        <ele>41.1</ele>
        <time>2021-11-12T09:14:52Z</time>
      </trkpt>
      <trkpt lat="45.68209" lon="-0.77717">
        <ele>44.2</ele>
        <time>2021-11-12T09:14:59Z</time>
      </trkpt>
      <trkpt lat="45.68239" lon="-0.77725">
        <ele>44.5</ele>
        <time>2021-11-12T09:15:03Z</time>
      </trkpt>
      <trkpt lat="45.683" lon="-0.77741">
        <ele>45.3</ele>
        <time>2021-11-12T09:15:10Z</time>
      </trkpt>
      <trkpt lat="45.68353" lon="-0.77787">
        <ele>41.2</ele>
        <time>2021-11-12T09:15:20Z</time>
      </trkpt>
      <trkpt lat="45.68423" lon="-0.77713">
        <ele>37.8</ele>
        <time>2021-11-12T09:15:38Z</time>
      </trkpt>
      <trkpt lat="45.68462" lon="-0.77716">
        <ele>84.2</ele>
        <time>2021-11-12T09:15:48Z</time>
      </trkpt>
      <trkpt lat="45.68479" lon="-0.77726">
        <ele>84.2</ele>
        <time>2021-11-12T09:15:51Z</time>
      </trkpt>
      <trkpt lat="45.6853" lon="-0.77756">
        <ele>84.2</ele>
        <time>2021-11-12T09:16:13Z</time>
      </trkpt>
      <trkpt lat="45.68531" lon="-0.77757">
        <ele>84.2</ele>
        <time>2021-11-12T09:16:23Z</time>
      </trkpt>
      <trkpt lat="45.68591" lon="-0.77801">
        <ele>84.3</ele>
        <time>2021-11-12T09:16:33Z</time>
      </trkpt>
      <trkpt lat="45.68679" lon="-0.77851">
        <ele>84.1</ele>
        <time>2021-11-12T09:16:47Z</time>
      </trkpt>
      <trkpt lat="45.68695" lon="-0.77999">
        <ele>84.1</ele>
        <time>2021-11-12T09:17:05Z</time>
      </trkpt>
      <trkpt lat="45.68727" lon="-0.78077">
        <ele>84.1</ele>
        <time>2021-11-12T09:17:15Z</time>
      </trkpt>
      <trkpt lat="45.68756" lon="-0.78125">
        <ele>35.2</ele>
        <time>2021-11-12T09:17:22Z</time>
      </trkpt>
      <trkpt lat="45.68779" lon="-0.78168">
        <ele>34.9</ele>
        <time>2021-11-12T09:17:30Z</time>
      </trkpt>
      <trkpt lat="45.68839" lon="-0.78176">
        <ele>36.1</ele>
        <time>2021-11-12T09:17:44Z</time>
      </trkpt>
      <trkpt lat="45.68883" lon="-0.78135">
        <ele>36.3</ele>
        <time>2021-11-12T09:17:51Z</time>
      </trkpt>
      <trkpt lat="45.68914" lon="-0.78105">
        <ele>33</ele>
        <time>2021-11-12T09:18:02Z</time>
      </trkpt>
      <trkpt lat="45.68977" lon="-0.78093">
        <ele>28.7</ele>
        <time>2021-11-12T09:18:17Z</time>
      </trkpt>
      <trkpt lat="45.68999" lon="-0.78074">
        <ele>25.3</ele>
        <time>2021-11-12T09:18:21Z</time>
      </trkpt>
      <trkpt lat="45.69043" lon="-0.78064">
        <ele>27.3</ele>
        <time>2021-11-12T09:18:28Z</time>
      </trkpt>
      <trkpt lat="45.69066" lon="-0.78062">
        <ele>27.4</ele>
        <time>2021-11-12T09:18:32Z</time>
      </trkpt>
      <trkpt lat="45.69164" lon="-0.78026">
        <ele>22</ele>
        <time>2021-11-12T09:18:46Z</time>
      </trkpt>
      <trkpt lat="45.69189" lon="-0.78013">
        <ele>21.4</ele>
        <time>2021-11-12T09:18:50Z</time>
      </trkpt>
      <trkpt lat="45.69203" lon="-0.78002">
        <ele>21.3</ele>
        <time>2021-11-12T09:18:53Z</time>
      </trkpt>
      <trkpt lat="45.69224" lon="-0.7799">
        <ele>22.1</ele>
        <time>2021-11-12T09:18:57Z</time>
      </trkpt>
      <trkpt lat="45.69245" lon="-0.77978">
        <ele>22.9</ele>
        <time>2021-11-12T09:19:01Z</time>
      </trkpt>
      <trkpt lat="45.69268" lon="-0.77997">
        <ele>26.4</ele>
        <time>2021-11-12T09:19:09Z</time>
      </trkpt>
      <trkpt lat="45.6931" lon="-0.78012">
        <ele>28.4</ele>
        <time>2021-11-12T09:19:21Z</time>
      </trkpt>
      <trkpt lat="45.69329" lon="-0.78011">
        <ele>23.9</ele>
        <time>2021-11-12T09:19:25Z</time>
      </trkpt>
      <trkpt lat="45.69344" lon="-0.7801">
        <ele>23.4</ele>
        <time>2021-11-12T09:19:28Z</time>
      </trkpt>
      <trkpt lat="45.69402" lon="-0.78021">
        <ele>27.7</ele>
        <time>2021-11-12T09:19:38Z</time>
      </trkpt>
      <trkpt lat="45.69437" lon="-0.77936">
        <ele>31.6</ele>
        <time>2021-11-12T09:19:49Z</time>
      </trkpt>
      <trkpt lat="45.69449" lon="-0.77876">
        <ele>31.4</ele>
        <time>2021-11-12T09:19:55Z</time>
      </trkpt>
      <trkpt lat="45.69492" lon="-0.77908">
        <ele>32.2</ele>
        <time>2021-11-12T09:20:05Z</time>
      </trkpt>
      <trkpt lat="45.69509" lon="-0.77925">
        <ele>29.2</ele>
        <time>2021-11-12T09:20:08Z</time>
      </trkpt>
      <trkpt lat="45.69549" lon="-0.77965">
        <ele>29.4</ele>
        <time>2021-11-12T09:20:15Z</time>
      </trkpt>
      <trkpt lat="45.6958" lon="-0.7799">
        <ele>33.4</ele>
        <time>2021-11-12T09:20:22Z</time>
      </trkpt>
      <trkpt lat="45.69577" lon="-0.77994">
        <ele>33.5</ele>
        <time>2021-11-12T09:20:23Z</time>
      </trkpt>
      <trkpt lat="45.69577" lon="-0.78025">
        <ele>33.7</ele>
        <time>2021-11-12T09:20:28Z</time>
      </trkpt>
      <trkpt lat="45.69577" lon="-0.78049">
        <ele>34</ele>
        <time>2021-11-12T09:20:32Z</time>
      </trkpt>
      <trkpt lat="45.6963" lon="-0.78277">
        <ele>30.9</ele>
        <time>2021-11-12T09:21:10Z</time>
      </trkpt>
      <trkpt lat="45.6966" lon="-0.78301">
        <ele>30.8</ele>
        <time>2021-11-12T09:21:14Z</time>
      </trkpt>
      <trkpt lat="45.69723" lon="-0.78338">
        <ele>30.9</ele>
        <time>2021-11-12T09:21:21Z</time>
      </trkpt>
      <trkpt lat="45.69758" lon="-0.78363">
        <ele>30.8</ele>
        <time>2021-11-12T09:21:28Z</time>
      </trkpt>
      <trkpt lat="45.69722" lon="-0.78557">
        <ele>30.9</ele>
        <time>2021-11-12T09:21:44Z</time>
      </trkpt>
      <trkpt lat="45.69703" lon="-0.78605">
        <ele>30.9</ele>
        <time>2021-11-12T09:21:47Z</time>
      </trkpt>
      <trkpt lat="45.69629" lon="-0.78771">
        <ele>32.5</ele>
        <time>2021-11-12T09:21:58Z</time>
      </trkpt>
      <trkpt lat="45.69559" lon="-0.78803">
        <ele>36.6</ele>
        <time>2021-11-12T09:22:05Z</time>
      </trkpt>
      <trkpt lat="45.69522" lon="-0.7881">
        <ele>35.4</ele>
        <time>2021-11-12T09:22:09Z</time>
      </trkpt>
      <trkpt lat="45.69501" lon="-0.7894">
        <ele>33.3</ele>
        <time>2021-11-12T09:22:23Z</time>
      </trkpt>
      <trkpt lat="45.69492" lon="-0.78987">
        <ele>30.9</ele>
        <time>2021-11-12T09:22:27Z</time>
      </trkpt>
      <trkpt lat="45.69484" lon="-0.79023">
        <ele>31.6</ele>
        <time>2021-11-12T09:22:30Z</time>
      </trkpt>
      <trkpt lat="45.69475" lon="-0.79063">
        <ele>30.3</ele>
        <time>2021-11-12T09:22:34Z</time>
      </trkpt>
      <trkpt lat="45.69403" lon="-0.79152">
        <ele>32.8</ele>
        <time>2021-11-12T09:22:46Z</time>
      </trkpt>
      <trkpt lat="45.69377" lon="-0.7917">
        <ele>33.9</ele>
        <time>2021-11-12T09:22:49Z</time>
      </trkpt>
      <trkpt lat="45.69281" lon="-0.79281">
        <ele>37.4</ele>
        <time>2021-11-12T09:23:04Z</time>
      </trkpt>
      <trkpt lat="45.69247" lon="-0.79368">
        <ele>34.1</ele>
        <time>2021-11-12T09:23:12Z</time>
      </trkpt>
      <trkpt lat="45.69233" lon="-0.79417">
        <ele>34.1</ele>
        <time>2021-11-12T09:23:16Z</time>
      </trkpt>
      <trkpt lat="45.69223" lon="-0.79497">
        <ele>35.5</ele>
        <time>2021-11-12T09:23:22Z</time>
      </trkpt>
      <trkpt lat="45.69199" lon="-0.79785">
        <ele>37</ele>
        <time>2021-11-12T09:23:38Z</time>
      </trkpt>
      <trkpt lat="45.69196" lon="-0.79866">
        <ele>37</ele>
        <time>2021-11-12T09:23:42Z</time>
      </trkpt>
      <trkpt lat="45.69108" lon="-0.80032">
        <ele>38.4</ele>
        <time>2021-11-12T09:23:53Z</time>
      </trkpt>
      <trkpt lat="45.68982" lon="-0.80255">
        <ele>40.4</ele>
        <time>2021-11-12T09:24:04Z</time>
      </trkpt>
      <trkpt lat="45.68929" lon="-0.80346">
        <ele>41</ele>
        <time>2021-11-12T09:24:14Z</time>
      </trkpt>
      <trkpt lat="45.68913" lon="-0.80408">
        <ele>40.8</ele>
        <time>2021-11-12T09:24:18Z</time>
      </trkpt>
      <trkpt lat="45.6887" lon="-0.80525">
        <ele>41.7</ele>
        <time>2021-11-12T09:24:30Z</time>
      </trkpt>
      <trkpt lat="45.68867" lon="-0.80571">
        <ele>42</ele>
        <time>2021-11-12T09:24:34Z</time>
      </trkpt>
      <trkpt lat="45.68842" lon="-0.80642">
        <ele>40.7</ele>
        <time>2021-11-12T09:24:40Z</time>
      </trkpt>
      <trkpt lat="45.68826" lon="-0.80725">
        <ele>39</ele>
        <time>2021-11-12T09:24:47Z</time>
      </trkpt>
      <trkpt lat="45.68817" lon="-0.80806">
        <ele>39.3</ele>
        <time>2021-11-12T09:24:54Z</time>
      </trkpt>
      <trkpt lat="45.68799" lon="-0.80891">
        <ele>38</ele>
        <time>2021-11-12T09:25:01Z</time>
      </trkpt>
      <trkpt lat="45.68768" lon="-0.80975">
        <ele>37.5</ele>
        <time>2021-11-12T09:25:08Z</time>
      </trkpt>
      <trkpt lat="45.68701" lon="-0.81141">
        <ele>35.7</ele>
        <time>2021-11-12T09:25:22Z</time>
      </trkpt>
      <trkpt lat="45.68671" lon="-0.81234">
        <ele>36.6</ele>
        <time>2021-11-12T09:25:32Z</time>
      </trkpt>
      <trkpt lat="45.68665" lon="-0.81275">
        <ele>34.9</ele>
        <time>2021-11-12T09:25:36Z</time>
      </trkpt>
      <trkpt lat="45.68656" lon="-0.81334">
        <ele>35.2</ele>
        <time>2021-11-12T09:25:40Z</time>
      </trkpt>
      <trkpt lat="45.68583" lon="-0.81436">
        <ele>34.8</ele>
        <time>2021-11-12T09:25:53Z</time>
      </trkpt>
      <trkpt lat="45.68501" lon="-0.8152">
        <ele>35</ele>
        <time>2021-11-12T09:26:04Z</time>
      </trkpt>
      <trkpt lat="45.68437" lon="-0.81556">
        <ele>35</ele>
        <time>2021-11-12T09:26:11Z</time>
      </trkpt>
      <trkpt lat="45.68365" lon="-0.81591">
        <ele>34</ele>
        <time>2021-11-12T09:26:22Z</time>
      </trkpt>
      <trkpt lat="45.68343" lon="-0.81721">
        <ele>32.8</ele>
        <time>2021-11-12T09:26:36Z</time>
      </trkpt>
      <trkpt lat="45.6829" lon="-0.81821">
        <ele>31.1</ele>
        <time>2021-11-12T09:26:44Z</time>
      </trkpt>
      <trkpt lat="45.68276" lon="-0.81854">
        <ele>32</ele>
        <time>2021-11-12T09:26:47Z</time>
      </trkpt>
      <trkpt lat="45.68256" lon="-0.81943">
        <ele>35</ele>
        <time>2021-11-12T09:26:54Z</time>
      </trkpt>
      <trkpt lat="45.68253" lon="-0.8208">
        <ele>35</ele>
        <time>2021-11-12T09:27:09Z</time>
      </trkpt>
      <trkpt lat="45.68218" lon="-0.82172">
        <ele>33.4</ele>
        <time>2021-11-12T09:27:20Z</time>
      </trkpt>
      <trkpt lat="45.68188" lon="-0.8221">
        <ele>33.9</ele>
        <time>2021-11-12T09:27:30Z</time>
      </trkpt>
      <trkpt lat="45.68096" lon="-0.82379">
        <ele>30.7</ele>
        <time>2021-11-12T09:27:52Z</time>
      </trkpt>
      <trkpt lat="45.68102" lon="-0.82434">
        <ele>28.7</ele>
        <time>2021-11-12T09:28:00Z</time>
      </trkpt>
      <trkpt lat="45.68108" lon="-0.82466">
        <ele>28.6</ele>
        <time>2021-11-12T09:28:04Z</time>
      </trkpt>
      <trkpt lat="45.68131" lon="-0.82565">
        <ele>29.3</ele>
        <time>2021-11-12T09:28:15Z</time>
      </trkpt>
      <trkpt lat="45.68109" lon="-0.82699">
        <ele>29.2</ele>
        <time>2021-11-12T09:28:33Z</time>
      </trkpt>
      <trkpt lat="45.68107" lon="-0.82735">
        <ele>27.6</ele>
        <time>2021-11-12T09:28:36Z</time>
      </trkpt>
      <trkpt lat="45.68093" lon="-0.82887">
        <ele>28.6</ele>
        <time>2021-11-12T09:28:48Z</time>
      </trkpt>
      <trkpt lat="45.68104" lon="-0.82965">
        <ele>30.3</ele>
        <time>2021-11-12T09:28:55Z</time>
      </trkpt>
      <trkpt lat="45.68123" lon="-0.83048">
        <ele>30.9</ele>
        <time>2021-11-12T09:29:02Z</time>
      </trkpt>
      <trkpt lat="45.68135" lon="-0.83209">
        <ele>29.5</ele>
        <time>2021-11-12T09:29:18Z</time>
      </trkpt>
      <trkpt lat="45.68141" lon="-0.83292">
        <ele>25</ele>
        <time>2021-11-12T09:29:26Z</time>
      </trkpt>
      <trkpt lat="45.6815" lon="-0.83368">
        <ele>23.4</ele>
        <time>2021-11-12T09:29:36Z</time>
      </trkpt>
      <trkpt lat="45.68127" lon="-0.83396">
        <ele>25.7</ele>
        <time>2021-11-12T09:29:43Z</time>
      </trkpt>
      <trkpt lat="45.68052" lon="-0.8343">
        <ele>23.2</ele>
        <time>2021-11-12T09:29:53Z</time>
      </trkpt>
      <trkpt lat="45.6801" lon="-0.83457">
        <ele>21.9</ele>
        <time>2021-11-12T09:30:00Z</time>
      </trkpt>
      <trkpt lat="45.67937" lon="-0.83505">
        <ele>18.3</ele>
        <time>2021-11-12T09:30:14Z</time>
      </trkpt>
      <trkpt lat="45.67913" lon="-0.83516">
        <ele>17.3</ele>
        <time>2021-11-12T09:30:18Z</time>
      </trkpt>
      <trkpt lat="45.67866" lon="-0.8353">
        <ele>19.5</ele>
        <time>2021-11-12T09:30:25Z</time>
      </trkpt>
      <trkpt lat="45.67843" lon="-0.83535">
        <ele>20</ele>
        <time>2021-11-12T09:30:29Z</time>
      </trkpt>
      <trkpt lat="45.67787" lon="-0.83538">
        <ele>21.8</ele>
        <time>2021-11-12T09:30:40Z</time>
      </trkpt>
      <trkpt lat="45.67752" lon="-0.83514">
        <ele>20.4</ele>
        <time>2021-11-12T09:30:44Z</time>
      </trkpt>
      <trkpt lat="45.67736" lon="-0.83503">
        <ele>22.4</ele>
        <time>2021-11-12T09:30:47Z</time>
      </trkpt>
      <trkpt lat="45.67722" lon="-0.83579">
        <ele>26.6</ele>
        <time>2021-11-12T09:30:58Z</time>
      </trkpt>
      <trkpt lat="45.67713" lon="-0.83609">
        <ele>26.5</ele>
        <time>2021-11-12T09:31:02Z</time>
      </trkpt>
      <trkpt lat="45.67703" lon="-0.83634">
        <ele>28.6</ele>
        <time>2021-11-12T09:31:05Z</time>
      </trkpt>
      <trkpt lat="45.67676" lon="-0.83687">
        <ele>29.5</ele>
        <time>2021-11-12T09:31:12Z</time>
      </trkpt>
      <trkpt lat="45.67659" lon="-0.83716">
        <ele>28.8</ele>
        <time>2021-11-12T09:31:16Z</time>
      </trkpt>
      <trkpt lat="45.6764" lon="-0.83818">
        <ele>22.4</ele>
        <time>2021-11-12T09:31:30Z</time>
      </trkpt>
      <trkpt lat="45.67638" lon="-0.8386">
        <ele>26.2</ele>
        <time>2021-11-12T09:31:34Z</time>
      </trkpt>
      <trkpt lat="45.67637" lon="-0.83933">
        <ele>24.3</ele>
        <time>2021-11-12T09:31:40Z</time>
      </trkpt>
      <trkpt lat="45.6764" lon="-0.83979">
        <ele>20.2</ele>
        <time>2021-11-12T09:31:44Z</time>
      </trkpt>
      <trkpt lat="45.67639" lon="-0.84009">
        <ele>20</ele>
        <time>2021-11-12T09:31:47Z</time>
      </trkpt>
      <trkpt lat="45.67621" lon="-0.84071">
        <ele>18.1</ele>
        <time>2021-11-12T09:31:54Z</time>
      </trkpt>
      <trkpt lat="45.67589" lon="-0.84194">
        <ele>19.1</ele>
        <time>2021-11-12T09:32:09Z</time>
      </trkpt>
      <trkpt lat="45.67589" lon="-0.84217">
        <ele>18.9</ele>
        <time>2021-11-12T09:32:12Z</time>
      </trkpt>
      <trkpt lat="45.6759" lon="-0.84246">
        <ele>18.5</ele>
        <time>2021-11-12T09:32:16Z</time>
      </trkpt>
      <trkpt lat="45.67576" lon="-0.84292">
        <ele>18.7</ele>
        <time>2021-11-12T09:32:22Z</time>
      </trkpt>
      <trkpt lat="45.67563" lon="-0.84325">
        <ele>20.5</ele>
        <time>2021-11-12T09:32:26Z</time>
      </trkpt>
      <trkpt lat="45.67534" lon="-0.84379">
        <ele>23.8</ele>
        <time>2021-11-12T09:32:34Z</time>
      </trkpt>
      <trkpt lat="45.67516" lon="-0.84407">
        <ele>22.9</ele>
        <time>2021-11-12T09:32:38Z</time>
      </trkpt>
      <trkpt lat="45.67498" lon="-0.8444">
        <ele>21.6</ele>
        <time>2021-11-12T09:32:42Z</time>
      </trkpt>
      <trkpt lat="45.67493" lon="-0.84482">
        <ele>18.2</ele>
        <time>2021-11-12T09:32:53Z</time>
      </trkpt>
      <trkpt lat="45.67545" lon="-0.84516">
        <ele>19.4</ele>
        <time>2021-11-12T09:33:06Z</time>
      </trkpt>
      <trkpt lat="45.67566" lon="-0.84518">
        <ele>19.6</ele>
        <time>2021-11-12T09:33:10Z</time>
      </trkpt>
      <trkpt lat="45.67584" lon="-0.84522">
        <ele>20.6</ele>
        <time>2021-11-12T09:33:13Z</time>
      </trkpt>
      <trkpt lat="45.67604" lon="-0.84527">
        <ele>20.7</ele>
        <time>2021-11-12T09:33:16Z</time>
      </trkpt>
      <trkpt lat="45.67626" lon="-0.84532">
        <ele>20.6</ele>
        <time>2021-11-12T09:33:20Z</time>
      </trkpt>
      <trkpt lat="45.67684" lon="-0.84589">
        <ele>24.2</ele>
        <time>2021-11-12T09:33:32Z</time>
      </trkpt>
      <trkpt lat="45.67706" lon="-0.84599">
        <ele>28.5</ele>
        <time>2021-11-12T09:33:36Z</time>
      </trkpt>
      <trkpt lat="45.67764" lon="-0.8466">
        <ele>30.4</ele>
        <time>2021-11-12T09:33:44Z</time>
      </trkpt>
      <trkpt lat="45.67812" lon="-0.84688">
        <ele>25.4</ele>
        <time>2021-11-12T09:33:50Z</time>
      </trkpt>
      <trkpt lat="45.67899" lon="-0.84726">
        <ele>25.3</ele>
        <time>2021-11-12T09:33:58Z</time>
      </trkpt>
      <trkpt lat="45.6794" lon="-0.84762">
        <ele>23.2</ele>
        <time>2021-11-12T09:34:02Z</time>
      </trkpt>
      <trkpt lat="45.67986" lon="-0.84893">
        <ele>27.3</ele>
        <time>2021-11-12T09:34:10Z</time>
      </trkpt>
      <trkpt lat="45.68047" lon="-0.84952">
        <ele>31.1</ele>
        <time>2021-11-12T09:34:17Z</time>
      </trkpt>
      <trkpt lat="45.6808" lon="-0.84984">
        <ele>32</ele>
        <time>2021-11-12T09:34:24Z</time>
      </trkpt>
      <trkpt lat="45.68117" lon="-0.84998">
        <ele>28.8</ele>
        <time>2021-11-12T09:34:28Z</time>
      </trkpt>
      <trkpt lat="45.68281" lon="-0.84882">
        <ele>28.2</ele>
        <time>2021-11-12T09:34:41Z</time>
      </trkpt>
      <trkpt lat="45.68387" lon="-0.84863">
        <ele>25.4</ele>
        <time>2021-11-12T09:34:48Z</time>
      </trkpt>
      <trkpt lat="45.68537" lon="-0.84848">
        <ele>23</ele>
        <time>2021-11-12T09:35:06Z</time>
      </trkpt>
      <trkpt lat="45.68538" lon="-0.84848">
        <ele>23.3</ele>
        <time>2021-11-12T09:35:13Z</time>
      </trkpt>
      <trkpt lat="45.68563" lon="-0.84853">
        <ele>23.5</ele>
        <time>2021-11-12T09:35:16Z</time>
      </trkpt>
      <trkpt lat="45.68648" lon="-0.84871">
        <ele>28.2</ele>
        <time>2021-11-12T09:35:24Z</time>
      </trkpt>
      <trkpt lat="45.68704" lon="-0.84883">
        <ele>27.8</ele>
        <time>2021-11-12T09:35:28Z</time>
      </trkpt>
      <trkpt lat="45.68766" lon="-0.84892">
        <ele>23</ele>
        <time>2021-11-12T09:35:32Z</time>
      </trkpt>
      <trkpt lat="45.6887" lon="-0.84824">
        <ele>20.8</ele>
        <time>2021-11-12T09:35:40Z</time>
      </trkpt>
      <trkpt lat="45.68991" lon="-0.84741">
        <ele>24.5</ele>
        <time>2021-11-12T09:35:50Z</time>
      </trkpt>
      <trkpt lat="45.69099" lon="-0.84657">
        <ele>23.6</ele>
        <time>2021-11-12T09:36:05Z</time>
      </trkpt>
      <trkpt lat="45.69164" lon="-0.84839">
        <ele>23.2</ele>
        <time>2021-11-12T09:36:19Z</time>
      </trkpt>
      <trkpt lat="45.69184" lon="-0.84873">
        <ele>23.7</ele>
        <time>2021-11-12T09:36:22Z</time>
      </trkpt>
      <trkpt lat="45.69261" lon="-0.84888">
        <ele>21.2</ele>
        <time>2021-11-12T09:36:32Z</time>
      </trkpt>
      <trkpt lat="45.69295" lon="-0.84865">
        <ele>18.7</ele>
        <time>2021-11-12T09:36:40Z</time>
      </trkpt>
      <trkpt lat="45.69328" lon="-0.84839">
        <ele>17.6</ele>
        <time>2021-11-12T09:36:44Z</time>
      </trkpt>
      <trkpt lat="45.69357" lon="-0.84797">
        <ele>17.3</ele>
        <time>2021-11-12T09:36:48Z</time>
      </trkpt>
      <trkpt lat="45.69412" lon="-0.84811">
        <ele>18.7</ele>
        <time>2021-11-12T09:36:56Z</time>
      </trkpt>
      <trkpt lat="45.69445" lon="-0.84843">
        <ele>19.2</ele>
        <time>2021-11-12T09:37:00Z</time>
      </trkpt>
      <trkpt lat="45.69604" lon="-0.85028">
        <ele>22</ele>
        <time>2021-11-12T09:37:16Z</time>
      </trkpt>
      <trkpt lat="45.69665" lon="-0.85072">
        <ele>18.9</ele>
        <time>2021-11-12T09:37:23Z</time>
      </trkpt>
      <trkpt lat="45.69717" lon="-0.85098">
        <ele>17.9</ele>
        <time>2021-11-12T09:37:30Z</time>
      </trkpt>
      <trkpt lat="45.69744" lon="-0.85114">
        <ele>17.9</ele>
        <time>2021-11-12T09:37:34Z</time>
      </trkpt>
      <trkpt lat="45.69792" lon="-0.8511">
        <ele>16.8</ele>
        <time>2021-11-12T09:37:41Z</time>
      </trkpt>
      <trkpt lat="45.69845" lon="-0.85221">
        <ele>17.2</ele>
        <time>2021-11-12T09:37:56Z</time>
      </trkpt>
      <trkpt lat="45.69905" lon="-0.85283">
        <ele>16.8</ele>
        <time>2021-11-12T09:38:07Z</time>
      </trkpt>
      <trkpt lat="45.69929" lon="-0.85302">
        <ele>18.9</ele>
        <time>2021-11-12T09:38:11Z</time>
      </trkpt>
      <trkpt lat="45.6995" lon="-0.8531">
        <ele>18.7</ele>
        <time>2021-11-12T09:38:14Z</time>
      </trkpt>
      <trkpt lat="45.70009" lon="-0.85319">
        <ele>19.1</ele>
        <time>2021-11-12T09:38:22Z</time>
      </trkpt>
      <trkpt lat="45.70058" lon="-0.85319">
        <ele>20.7</ele>
        <time>2021-11-12T09:38:28Z</time>
      </trkpt>
      <trkpt lat="45.70081" lon="-0.85331">
        <ele>20.6</ele>
        <time>2021-11-12T09:38:32Z</time>
      </trkpt>
      <trkpt lat="45.70074" lon="-0.85368">
        <ele>21.5</ele>
        <time>2021-11-12T09:38:40Z</time>
      </trkpt>
      <trkpt lat="45.7003" lon="-0.85437">
        <ele>21.9</ele>
        <time>2021-11-12T09:38:46Z</time>
      </trkpt>
      <trkpt lat="45.70005" lon="-0.85552">
        <ele>23.5</ele>
        <time>2021-11-12T09:38:53Z</time>
      </trkpt>
      <trkpt lat="45.70006" lon="-0.85625">
        <ele>24.8</ele>
        <time>2021-11-12T09:38:57Z</time>
      </trkpt>
      <trkpt lat="45.69994" lon="-0.85667">
        <ele>26.8</ele>
        <time>2021-11-12T09:39:00Z</time>
      </trkpt>
      <trkpt lat="45.69986" lon="-0.85694">
        <ele>26.5</ele>
        <time>2021-11-12T09:39:04Z</time>
      </trkpt>
      <trkpt lat="45.70075" lon="-0.85798">
        <ele>27.6</ele>
        <time>2021-11-12T09:39:15Z</time>
      </trkpt>
      <trkpt lat="45.70273" lon="-0.85945">
        <ele>29.1</ele>
        <time>2021-11-12T09:39:34Z</time>
      </trkpt>
      <trkpt lat="45.70314" lon="-0.85971">
        <ele>29.1</ele>
        <time>2021-11-12T09:39:38Z</time>
      </trkpt>
      <trkpt lat="45.70342" lon="-0.85988">
        <ele>28</ele>
        <time>2021-11-12T09:39:41Z</time>
      </trkpt>
      <trkpt lat="45.70399" lon="-0.86038">
        <ele>27.3</ele>
        <time>2021-11-12T09:39:48Z</time>
      </trkpt>
      <trkpt lat="45.70561" lon="-0.86166">
        <ele>25.5</ele>
        <time>2021-11-12T09:40:09Z</time>
      </trkpt>
      <trkpt lat="45.70628" lon="-0.86259">
        <ele>22</ele>
        <time>2021-11-12T09:40:20Z</time>
      </trkpt>
      <trkpt lat="45.70665" lon="-0.86328">
        <ele>18.7</ele>
        <time>2021-11-12T09:40:27Z</time>
      </trkpt>
      <trkpt lat="45.70696" lon="-0.86396">
        <ele>14.6</ele>
        <time>2021-11-12T09:40:34Z</time>
      </trkpt>
      <trkpt lat="45.70731" lon="-0.86459">
        <ele>11.2</ele>
        <time>2021-11-12T09:40:40Z</time>
      </trkpt>
      <trkpt lat="45.70776" lon="-0.8651">
        <ele>15.4</ele>
        <time>2021-11-12T09:40:47Z</time>
      </trkpt>
      <trkpt lat="45.70805" lon="-0.86544">
        <ele>18.7</ele>
        <time>2021-11-12T09:40:51Z</time>
      </trkpt>
      <trkpt lat="45.7085" lon="-0.86621">
        <ele>26</ele>
        <time>2021-11-12T09:40:58Z</time>
      </trkpt>
      <trkpt lat="45.70879" lon="-0.86648">
        <ele>29.1</ele>
        <time>2021-11-12T09:41:02Z</time>
      </trkpt>
      <trkpt lat="45.70906" lon="-0.86655">
        <ele>28.6</ele>
        <time>2021-11-12T09:41:05Z</time>
      </trkpt>
      <trkpt lat="45.71027" lon="-0.8673">
        <ele>24.5</ele>
        <time>2021-11-12T09:41:18Z</time>
      </trkpt>
      <trkpt lat="45.71065" lon="-0.86786">
        <ele>19.4</ele>
        <time>2021-11-12T09:41:24Z</time>
      </trkpt>
      <trkpt lat="45.71125" lon="-0.86848">
        <ele>14.6</ele>
        <time>2021-11-12T09:41:32Z</time>
      </trkpt>
      <trkpt lat="45.71169" lon="-0.86932">
        <ele>11.9</ele>
        <time>2021-11-12T09:41:40Z</time>
      </trkpt>
      <trkpt lat="45.71194" lon="-0.86968">
        <ele>12.7</ele>
        <time>2021-11-12T09:41:47Z</time>
      </trkpt>
      <trkpt lat="45.71196" lon="-0.86903">
        <ele>14.5</ele>
        <time>2021-11-12T09:41:54Z</time>
      </trkpt>
      <trkpt lat="45.71185" lon="-0.86736">
        <ele>14.2</ele>
        <time>2021-11-12T09:42:06Z</time>
      </trkpt>
      <trkpt lat="45.71151" lon="-0.8654">
        <ele>17.8</ele>
        <time>2021-11-12T09:42:26Z</time>
      </trkpt>
      <trkpt lat="45.71131" lon="-0.86507">
        <ele>18.6</ele>
        <time>2021-11-12T09:42:29Z</time>
      </trkpt>
      <trkpt lat="45.71113" lon="-0.86323">
        <ele>14.3</ele>
        <time>2021-11-12T09:42:44Z</time>
      </trkpt>
      <trkpt lat="45.71121" lon="-0.86294">
        <ele>14.7</ele>
        <time>2021-11-12T09:42:48Z</time>
      </trkpt>
      <trkpt lat="45.71154" lon="-0.86286">
        <ele>17.7</ele>
        <time>2021-11-12T09:42:56Z</time>
      </trkpt>
      <trkpt lat="45.71215" lon="-0.86295">
        <ele>19.1</ele>
        <time>2021-11-12T09:43:06Z</time>
      </trkpt>
      <trkpt lat="45.71244" lon="-0.86317">
        <ele>21.3</ele>
        <time>2021-11-12T09:43:10Z</time>
      </trkpt>
      <trkpt lat="45.71268" lon="-0.86335">
        <ele>20.9</ele>
        <time>2021-11-12T09:43:13Z</time>
      </trkpt>
      <trkpt lat="45.71304" lon="-0.86362">
        <ele>24.7</ele>
        <time>2021-11-12T09:43:19Z</time>
      </trkpt>
      <trkpt lat="45.71332" lon="-0.8638">
        <ele>27.1</ele>
        <time>2021-11-12T09:43:23Z</time>
      </trkpt>
      <trkpt lat="45.71372" lon="-0.86412">
        <ele>30.2</ele>
        <time>2021-11-12T09:43:30Z</time>
      </trkpt>
      <trkpt lat="45.71399" lon="-0.86422">
        <ele>32.4</ele>
        <time>2021-11-12T09:43:34Z</time>
      </trkpt>
      <trkpt lat="45.71455" lon="-0.86442">
        <ele>33.8</ele>
        <time>2021-11-12T09:43:41Z</time>
      </trkpt>
      <trkpt lat="45.71575" lon="-0.86478">
        <ele>30.6</ele>
        <time>2021-11-12T09:43:58Z</time>
      </trkpt>
      <trkpt lat="45.71705" lon="-0.86637">
        <ele>25</ele>
        <time>2021-11-12T09:44:09Z</time>
      </trkpt>
      <trkpt lat="45.71762" lon="-0.8675">
        <ele>23.9</ele>
        <time>2021-11-12T09:44:16Z</time>
      </trkpt>
      <trkpt lat="45.7178" lon="-0.86835">
        <ele>76.3</ele>
        <time>2021-11-12T09:44:30Z</time>
      </trkpt>
      <trkpt lat="45.71787" lon="-0.86866">
        <ele>76.3</ele>
        <time>2021-11-12T09:44:34Z</time>
      </trkpt>
      <trkpt lat="45.71794" lon="-0.86894">
        <ele>76.3</ele>
        <time>2021-11-12T09:44:37Z</time>
      </trkpt>
      <trkpt lat="45.71804" lon="-0.86957">
        <ele>76.3</ele>
        <time>2021-11-12T09:44:43Z</time>
      </trkpt>
      <trkpt lat="45.7179" lon="-0.87057">
        <ele>76.3</ele>
        <time>2021-11-12T09:44:51Z</time>
      </trkpt>
      <trkpt lat="45.7177" lon="-0.87144">
        <ele>76.4</ele>
        <time>2021-11-12T09:44:58Z</time>
      </trkpt>
      <trkpt lat="45.7177" lon="-0.87313">
        <ele>76.4</ele>
        <time>2021-11-12T09:45:13Z</time>
      </trkpt>
      <trkpt lat="45.71791" lon="-0.87499">
        <ele>25.6</ele>
        <time>2021-11-12T09:45:32Z</time>
      </trkpt>
      <trkpt lat="45.718" lon="-0.87526">
        <ele>26.3</ele>
        <time>2021-11-12T09:45:35Z</time>
      </trkpt>
      <trkpt lat="45.71932" lon="-0.87711">
        <ele>24.7</ele>
        <time>2021-11-12T09:46:00Z</time>
      </trkpt>
      <trkpt lat="45.71941" lon="-0.87745">
        <ele>21.4</ele>
        <time>2021-11-12T09:46:04Z</time>
      </trkpt>
      <trkpt lat="45.71948" lon="-0.87773">
        <ele>17.7</ele>
        <time>2021-11-12T09:46:07Z</time>
      </trkpt>
      <trkpt lat="45.71951" lon="-0.87809">
        <ele>14.1</ele>
        <time>2021-11-12T09:46:11Z</time>
      </trkpt>
      <trkpt lat="45.71966" lon="-0.87948">
        <ele>19.3</ele>
        <time>2021-11-12T09:46:24Z</time>
      </trkpt>
      <trkpt lat="45.71972" lon="-0.88034">
        <ele>22.8</ele>
        <time>2021-11-12T09:46:31Z</time>
      </trkpt>
      <trkpt lat="45.71976" lon="-0.88106">
        <ele>26</ele>
        <time>2021-11-12T09:46:39Z</time>
      </trkpt>
      <trkpt lat="45.71973" lon="-0.88116">
        <ele>25.9</ele>
        <time>2021-11-12T09:46:42Z</time>
      </trkpt>
      <trkpt lat="45.71913" lon="-0.88113">
        <ele>24.1</ele>
        <time>2021-11-12T09:46:49Z</time>
      </trkpt>
      <trkpt lat="45.71876" lon="-0.8811">
        <ele>20.7</ele>
        <time>2021-11-12T09:46:52Z</time>
      </trkpt>
      <trkpt lat="45.71824" lon="-0.88105">
        <ele>19.7</ele>
        <time>2021-11-12T09:46:56Z</time>
      </trkpt>
      <trkpt lat="45.71769" lon="-0.88078">
        <ele>18.3</ele>
        <time>2021-11-12T09:47:00Z</time>
      </trkpt>
      <trkpt lat="45.71683" lon="-0.88034">
        <ele>19.2</ele>
        <time>2021-11-12T09:47:08Z</time>
      </trkpt>
      <trkpt lat="45.71674" lon="-0.88032">
        <ele>20.4</ele>
        <time>2021-11-12T09:47:11Z</time>
      </trkpt>
      <trkpt lat="45.71669" lon="-0.88042">
        <ele>21.5</ele>
        <time>2021-11-12T09:47:14Z</time>
      </trkpt>
      <trkpt lat="45.71612" lon="-0.88161">
        <ele>22.6</ele>
        <time>2021-11-12T09:47:42Z</time>
      </trkpt>
      <trkpt lat="45.71641" lon="-0.88385">
        <ele>25.4</ele>
        <time>2021-11-12T09:47:58Z</time>
      </trkpt>
      <trkpt lat="45.71643" lon="-0.88402">
        <ele>25.5</ele>
        <time>2021-11-12T09:47:59Z</time>
      </trkpt>
      <trkpt lat="45.71634" lon="-0.8842">
        <ele>25.9</ele>
        <time>2021-11-12T09:48:01Z</time>
      </trkpt>
      <trkpt lat="45.71565" lon="-0.88527">
        <ele>26.3</ele>
        <time>2021-11-12T09:48:10Z</time>
      </trkpt>
      <trkpt lat="45.71556" lon="-0.88694">
        <ele>26.6</ele>
        <time>2021-11-12T09:48:19Z</time>
      </trkpt>
      <trkpt lat="45.71553" lon="-0.88846">
        <ele>28.1</ele>
        <time>2021-11-12T09:48:26Z</time>
      </trkpt>
      <trkpt lat="45.71555" lon="-0.88897">
        <ele>26.5</ele>
        <time>2021-11-12T09:48:33Z</time>
      </trkpt>
      <trkpt lat="45.71555" lon="-0.89204">
        <ele>23.4</ele>
        <time>2021-11-12T09:48:45Z</time>
      </trkpt>
      <trkpt lat="45.71556" lon="-0.8927">
        <ele>22.5</ele>
        <time>2021-11-12T09:48:49Z</time>
      </trkpt>
      <trkpt lat="45.71661" lon="-0.8942">
        <ele>20.2</ele>
        <time>2021-11-12T09:49:03Z</time>
      </trkpt>
      <trkpt lat="45.71702" lon="-0.89573">
        <ele>21.5</ele>
        <time>2021-11-12T09:49:10Z</time>
      </trkpt>
      <trkpt lat="45.71721" lon="-0.89679">
        <ele>24.5</ele>
        <time>2021-11-12T09:49:14Z</time>
      </trkpt>
      <trkpt lat="45.71743" lon="-0.89785">
        <ele>23.8</ele>
        <time>2021-11-12T09:49:18Z</time>
      </trkpt>
      <trkpt lat="45.7184" lon="-0.9018">
        <ele>22.1</ele>
        <time>2021-11-12T09:49:33Z</time>
      </trkpt>
      <trkpt lat="45.719" lon="-0.90458">
        <ele>20.8</ele>
        <time>2021-11-12T09:49:48Z</time>
      </trkpt>
      <trkpt lat="45.71899" lon="-0.90483">
        <ele>20.9</ele>
        <time>2021-11-12T09:49:51Z</time>
      </trkpt>
      <trkpt lat="45.71852" lon="-0.905">
        <ele>19.1</ele>
        <time>2021-11-12T09:50:05Z</time>
      </trkpt>
      <trkpt lat="45.71853" lon="-0.90501">
        <ele>19.3</ele>
        <time>2021-11-12T09:50:09Z</time>
      </trkpt>
      <trkpt lat="45.71853" lon="-0.90501">
        <ele>18.6</ele>
        <time>2021-11-12T09:54:18Z</time>
      </trkpt>
      <trkpt lat="45.71784" lon="-0.90537">
        <ele>20.3</ele>
        <time>2021-11-12T10:21:51Z</time>
      </trkpt>
      <trkpt lat="45.71651" lon="-0.90625">
        <ele>20.2</ele>
        <time>2021-11-12T10:22:05Z</time>
      </trkpt>
      <trkpt lat="45.71583" lon="-0.90703">
        <ele>16.6</ele>
        <time>2021-11-12T10:22:13Z</time>
      </trkpt>
      <trkpt lat="45.71492" lon="-0.90749">
        <ele>12.8</ele>
        <time>2021-11-12T10:22:20Z</time>
      </trkpt>
      <trkpt lat="45.71414" lon="-0.90784">
        <ele>8.1</ele>
        <time>2021-11-12T10:22:27Z</time>
      </trkpt>
      <trkpt lat="45.71333" lon="-0.90816">
        <ele>3.6</ele>
        <time>2021-11-12T10:22:34Z</time>
      </trkpt>
      <trkpt lat="45.71301" lon="-0.90828">
        <ele>2</ele>
        <time>2021-11-12T10:22:37Z</time>
      </trkpt>
      <trkpt lat="45.71268" lon="-0.90851">
        <ele>5.5</ele>
        <time>2021-11-12T10:22:40Z</time>
      </trkpt>
      <trkpt lat="45.71229" lon="-0.90883">
        <ele>6.9</ele>
        <time>2021-11-12T10:22:44Z</time>
      </trkpt>
      <trkpt lat="45.71168" lon="-0.90929">
        <ele>7.6</ele>
        <time>2021-11-12T10:22:50Z</time>
      </trkpt>
      <trkpt lat="45.71136" lon="-0.90943">
        <ele>8.9</ele>
        <time>2021-11-12T10:22:53Z</time>
      </trkpt>
      <trkpt lat="45.71047" lon="-0.90983">
        <ele>11.9</ele>
        <time>2021-11-12T10:23:05Z</time>
      </trkpt>
      <trkpt lat="45.70977" lon="-0.91033">
        <ele>13.4</ele>
        <time>2021-11-12T10:23:13Z</time>
      </trkpt>
      <trkpt lat="45.70898" lon="-0.91098">
        <ele>12.3</ele>
        <time>2021-11-12T10:23:30Z</time>
      </trkpt>
      <trkpt lat="45.70898" lon="-0.91099">
        <ele>14.1</ele>
        <time>2021-11-12T10:23:33Z</time>
      </trkpt>
      <trkpt lat="45.7094" lon="-0.91183">
        <ele>12</ele>
        <time>2021-11-12T10:23:41Z</time>
      </trkpt>
      <trkpt lat="45.71134" lon="-0.9152">
        <ele>10.4</ele>
        <time>2021-11-12T10:23:55Z</time>
      </trkpt>
      <trkpt lat="45.71556" lon="-0.92266">
        <ele>7.5</ele>
        <time>2021-11-12T10:24:26Z</time>
      </trkpt>
      <trkpt lat="45.71828" lon="-0.92683">
        <ele>8.8</ele>
        <time>2021-11-12T10:24:47Z</time>
      </trkpt>
      <trkpt lat="45.71858" lon="-0.92726">
        <ele>8</ele>
        <time>2021-11-12T10:24:50Z</time>
      </trkpt>
      <trkpt lat="45.71896" lon="-0.92783">
        <ele>7.3</ele>
        <time>2021-11-12T10:24:54Z</time>
      </trkpt>
      <trkpt lat="45.71945" lon="-0.92881">
        <ele>6.3</ele>
        <time>2021-11-12T10:25:01Z</time>
      </trkpt>
      <trkpt lat="45.7196" lon="-0.92912">
        <ele>6</ele>
        <time>2021-11-12T10:25:04Z</time>
      </trkpt>
      <trkpt lat="45.71978" lon="-0.92949">
        <ele>4.1</ele>
        <time>2021-11-12T10:25:11Z</time>
      </trkpt>
      <trkpt lat="45.72" lon="-0.92929">
        <ele>6.4</ele>
        <time>2021-11-12T10:25:18Z</time>
      </trkpt>
      <trkpt lat="45.72019" lon="-0.92908">
        <ele>6.4</ele>
        <time>2021-11-12T10:25:21Z</time>
      </trkpt>
      <trkpt lat="45.72212" lon="-0.92676">
        <ele>6.7</ele>
        <time>2021-11-12T10:25:49Z</time>
      </trkpt>
      <trkpt lat="45.72283" lon="-0.92615">
        <ele>6.7</ele>
        <time>2021-11-12T10:26:00Z</time>
      </trkpt>
      <trkpt lat="45.72449" lon="-0.92468">
        <ele>7.8</ele>
        <time>2021-11-12T10:26:19Z</time>
      </trkpt>
      <trkpt lat="45.72486" lon="-0.9243">
        <ele>11.7</ele>
        <time>2021-11-12T10:26:26Z</time>
      </trkpt>
      <trkpt lat="45.72589" lon="-0.92315">
        <ele>14.1</ele>
        <time>2021-11-12T10:26:40Z</time>
      </trkpt>
      <trkpt lat="45.72665" lon="-0.92421">
        <ele>13.6</ele>
        <time>2021-11-12T10:26:54Z</time>
      </trkpt>
      <trkpt lat="45.72733" lon="-0.92573">
        <ele>9.5</ele>
        <time>2021-11-12T10:27:04Z</time>
      </trkpt>
      <trkpt lat="45.72759" lon="-0.92632">
        <ele>10.2</ele>
        <time>2021-11-12T10:27:08Z</time>
      </trkpt>
      <trkpt lat="45.72837" lon="-0.92809">
        <ele>6.2</ele>
        <time>2021-11-12T10:27:19Z</time>
      </trkpt>
      <trkpt lat="45.72854" lon="-0.92841">
        <ele>7.3</ele>
        <time>2021-11-12T10:27:23Z</time>
      </trkpt>
      <trkpt lat="45.7295" lon="-0.92775">
        <ele>6.3</ele>
        <time>2021-11-12T10:27:36Z</time>
      </trkpt>
      <trkpt lat="45.72969" lon="-0.92747">
        <ele>4.5</ele>
        <time>2021-11-12T10:27:39Z</time>
      </trkpt>
      <trkpt lat="45.72985" lon="-0.9273">
        <ele>4.5</ele>
        <time>2021-11-12T10:27:43Z</time>
      </trkpt>
      <trkpt lat="45.73005" lon="-0.9271">
        <ele>6.8</ele>
        <time>2021-11-12T10:27:49Z</time>
      </trkpt>
      <trkpt lat="45.73024" lon="-0.92721">
        <ele>6.9</ele>
        <time>2021-11-12T10:27:53Z</time>
      </trkpt>
      <trkpt lat="45.73125" lon="-0.92933">
        <ele>7.1</ele>
        <time>2021-11-12T10:28:07Z</time>
      </trkpt>
      <trkpt lat="45.73153" lon="-0.93017">
        <ele>8.7</ele>
        <time>2021-11-12T10:28:11Z</time>
      </trkpt>
      <trkpt lat="45.73183" lon="-0.93109">
        <ele>11.8</ele>
        <time>2021-11-12T10:28:15Z</time>
      </trkpt>
      <trkpt lat="45.7321" lon="-0.93207">
        <ele>11.4</ele>
        <time>2021-11-12T10:28:19Z</time>
      </trkpt>
      <trkpt lat="45.73234" lon="-0.93292">
        <ele>12.3</ele>
        <time>2021-11-12T10:28:23Z</time>
      </trkpt>
      <trkpt lat="45.73308" lon="-0.93511">
        <ele>12.7</ele>
        <time>2021-11-12T10:28:34Z</time>
      </trkpt>
      <trkpt lat="45.73315" lon="-0.93538">
        <ele>12.7</ele>
        <time>2021-11-12T10:28:37Z</time>
      </trkpt>
      <trkpt lat="45.73355" lon="-0.93509">
        <ele>14</ele>
        <time>2021-11-12T10:28:44Z</time>
      </trkpt>
      <trkpt lat="45.73441" lon="-0.93258">
        <ele>12.4</ele>
        <time>2021-11-12T10:28:55Z</time>
      </trkpt>
      <trkpt lat="45.73472" lon="-0.93093">
        <ele>11.6</ele>
        <time>2021-11-12T10:29:02Z</time>
      </trkpt>
      <trkpt lat="45.7352" lon="-0.93029">
        <ele>10.5</ele>
        <time>2021-11-12T10:29:15Z</time>
      </trkpt>
      <trkpt lat="45.73547" lon="-0.93053">
        <ele>12.1</ele>
        <time>2021-11-12T10:29:19Z</time>
      </trkpt>
      <trkpt lat="45.7358" lon="-0.93081">
        <ele>14</ele>
        <time>2021-11-12T10:29:23Z</time>
      </trkpt>
      <trkpt lat="45.73609" lon="-0.93099">
        <ele>14.3</ele>
        <time>2021-11-12T10:29:26Z</time>
      </trkpt>
      <trkpt lat="45.73717" lon="-0.93153">
        <ele>15.9</ele>
        <time>2021-11-12T10:29:37Z</time>
      </trkpt>
      <trkpt lat="45.73744" lon="-0.93166">
        <ele>15.7</ele>
        <time>2021-11-12T10:29:40Z</time>
      </trkpt>
      <trkpt lat="45.73888" lon="-0.93301">
        <ele>13.8</ele>
        <time>2021-11-12T10:30:01Z</time>
      </trkpt>
      <trkpt lat="45.73951" lon="-0.93363">
        <ele>62</ele>
        <time>2021-11-12T10:30:22Z</time>
      </trkpt>
      <trkpt lat="45.7396" lon="-0.93363">
        <ele>62.1</ele>
        <time>2021-11-12T10:30:26Z</time>
      </trkpt>
      <trkpt lat="45.73981" lon="-0.93353">
        <ele>62.2</ele>
        <time>2021-11-12T10:30:32Z</time>
      </trkpt>
      <trkpt lat="45.74102" lon="-0.93296">
        <ele>62.2</ele>
        <time>2021-11-12T10:30:53Z</time>
      </trkpt>
      <trkpt lat="45.74147" lon="-0.93262">
        <ele>62.2</ele>
        <time>2021-11-12T10:31:01Z</time>
      </trkpt>
      <trkpt lat="45.7417" lon="-0.93241">
        <ele>62.2</ele>
        <time>2021-11-12T10:31:05Z</time>
      </trkpt>
      <trkpt lat="45.74269" lon="-0.93261">
        <ele>9.3</ele>
        <time>2021-11-12T10:31:22Z</time>
      </trkpt>
      <trkpt lat="45.74321" lon="-0.93275">
        <ele>10.9</ele>
        <time>2021-11-12T10:31:30Z</time>
      </trkpt>
      <trkpt lat="45.7434" lon="-0.93281">
        <ele>10.2</ele>
        <time>2021-11-12T10:31:33Z</time>
      </trkpt>
      <trkpt lat="45.74468" lon="-0.93343">
        <ele>12.2</ele>
        <time>2021-11-12T10:31:57Z</time>
      </trkpt>
      <trkpt lat="45.74473" lon="-0.93345">
        <ele>12.3</ele>
        <time>2021-11-12T10:32:01Z</time>
      </trkpt>
      <trkpt lat="45.74495" lon="-0.93368">
        <ele>12.3</ele>
        <time>2021-11-12T10:32:07Z</time>
      </trkpt>
      <trkpt lat="45.74734" lon="-0.93599">
        <ele>12.2</ele>
        <time>2021-11-12T10:32:33Z</time>
      </trkpt>
      <trkpt lat="45.7477" lon="-0.93633">
        <ele>12.2</ele>
        <time>2021-11-12T10:32:37Z</time>
      </trkpt>
      <trkpt lat="45.74758" lon="-0.93729">
        <ele>12.3</ele>
        <time>2021-11-12T10:32:49Z</time>
      </trkpt>
      <trkpt lat="45.74724" lon="-0.93822">
        <ele>13.7</ele>
        <time>2021-11-12T10:33:00Z</time>
      </trkpt>
      <trkpt lat="45.74717" lon="-0.93862">
        <ele>11.5</ele>
        <time>2021-11-12T10:33:03Z</time>
      </trkpt>
      <trkpt lat="45.74708" lon="-0.93916">
        <ele>11.5</ele>
        <time>2021-11-12T10:33:07Z</time>
      </trkpt>
      <trkpt lat="45.747" lon="-0.93979">
        <ele>11.7</ele>
        <time>2021-11-12T10:33:13Z</time>
      </trkpt>
      <trkpt lat="45.74657" lon="-0.94145">
        <ele>13.1</ele>
        <time>2021-11-12T10:33:27Z</time>
      </trkpt>
      <trkpt lat="45.74629" lon="-0.94245">
        <ele>13.7</ele>
        <time>2021-11-12T10:33:38Z</time>
      </trkpt>
      <trkpt lat="45.74608" lon="-0.94354">
        <ele>16.4</ele>
        <time>2021-11-12T10:33:45Z</time>
      </trkpt>
      <trkpt lat="45.74583" lon="-0.94443">
        <ele>14.2</ele>
        <time>2021-11-12T10:33:53Z</time>
      </trkpt>
      <trkpt lat="45.7453" lon="-0.94572">
        <ele>12.8</ele>
        <time>2021-11-12T10:34:03Z</time>
      </trkpt>
      <trkpt lat="45.74466" lon="-0.94661">
        <ele>14.5</ele>
        <time>2021-11-12T10:34:10Z</time>
      </trkpt>
      <trkpt lat="45.7439" lon="-0.94766">
        <ele>15.6</ele>
        <time>2021-11-12T10:34:18Z</time>
      </trkpt>
      <trkpt lat="45.74376" lon="-0.94802">
        <ele>15.5</ele>
        <time>2021-11-12T10:34:21Z</time>
      </trkpt>
      <trkpt lat="45.74356" lon="-0.94845">
        <ele>14.8</ele>
        <time>2021-11-12T10:34:25Z</time>
      </trkpt>
      <trkpt lat="45.7431" lon="-0.94892">
        <ele>14.1</ele>
        <time>2021-11-12T10:34:30Z</time>
      </trkpt>
      <trkpt lat="45.74281" lon="-0.94901">
        <ele>13.5</ele>
        <time>2021-11-12T10:34:33Z</time>
      </trkpt>
      <trkpt lat="45.73925" lon="-0.95031">
        <ele>11.7</ele>
        <time>2021-11-12T10:35:04Z</time>
      </trkpt>
      <trkpt lat="45.73949" lon="-0.95064">
        <ele>14.8</ele>
        <time>2021-11-12T10:35:07Z</time>
      </trkpt>
      <trkpt lat="45.73978" lon="-0.95129">
        <ele>13.5</ele>
        <time>2021-11-12T10:35:11Z</time>
      </trkpt>
      <trkpt lat="45.74086" lon="-0.95365">
        <ele>9.8</ele>
        <time>2021-11-12T10:35:22Z</time>
      </trkpt>
      <trkpt lat="45.74116" lon="-0.95432">
        <ele>9.7</ele>
        <time>2021-11-12T10:35:25Z</time>
      </trkpt>
      <trkpt lat="45.74163" lon="-0.95528">
        <ele>9.9</ele>
        <time>2021-11-12T10:35:29Z</time>
      </trkpt>
      <trkpt lat="45.74243" lon="-0.95653">
        <ele>10.2</ele>
        <time>2021-11-12T10:35:35Z</time>
      </trkpt>
      <trkpt lat="45.7439" lon="-0.95871">
        <ele>10.8</ele>
        <time>2021-11-12T10:35:45Z</time>
      </trkpt>
      <trkpt lat="45.74528" lon="-0.96028">
        <ele>11.2</ele>
        <time>2021-11-12T10:35:57Z</time>
      </trkpt>
      <trkpt lat="45.74554" lon="-0.96063">
        <ele>10.6</ele>
        <time>2021-11-12T10:36:00Z</time>
      </trkpt>
      <trkpt lat="45.74615" lon="-0.96128">
        <ele>10.3</ele>
        <time>2021-11-12T10:36:04Z</time>
      </trkpt>
      <trkpt lat="45.7467" lon="-0.9617">
        <ele>10.5</ele>
        <time>2021-11-12T10:36:07Z</time>
      </trkpt>
      <trkpt lat="45.7474" lon="-0.96222">
        <ele>8.8</ele>
        <time>2021-11-12T10:36:14Z</time>
      </trkpt>
      <trkpt lat="45.7476" lon="-0.96247">
        <ele>8.7</ele>
        <time>2021-11-12T10:36:18Z</time>
      </trkpt>
      <trkpt lat="45.74682" lon="-0.96391">
        <ele>9.5</ele>
        <time>2021-11-12T10:36:29Z</time>
      </trkpt>
      <trkpt lat="45.74578" lon="-0.96513">
        <ele>9.3</ele>
        <time>2021-11-12T10:36:36Z</time>
      </trkpt>
      <trkpt lat="45.7449" lon="-0.96622">
        <ele>7.8</ele>
        <time>2021-11-12T10:36:43Z</time>
      </trkpt>
      <trkpt lat="45.74312" lon="-0.96666">
        <ele>5.3</ele>
        <time>2021-11-12T10:36:57Z</time>
      </trkpt>
      <trkpt lat="45.74204" lon="-0.9678">
        <ele>3.6</ele>
        <time>2021-11-12T10:37:07Z</time>
      </trkpt>
      <trkpt lat="45.74212" lon="-0.96794">
        <ele>3.9</ele>
        <time>2021-11-12T10:37:11Z</time>
      </trkpt>
      <trkpt lat="45.7424" lon="-0.96838">
        <ele>4</ele>
        <time>2021-11-12T10:37:17Z</time>
      </trkpt>
      <trkpt lat="45.74283" lon="-0.96918">
        <ele>7.1</ele>
        <time>2021-11-12T10:37:27Z</time>
      </trkpt>
      <trkpt lat="45.74366" lon="-0.97077">
        <ele>5.7</ele>
        <time>2021-11-12T10:37:43Z</time>
      </trkpt>
      <trkpt lat="45.74412" lon="-0.97171">
        <ele>3.7</ele>
        <time>2021-11-12T10:37:53Z</time>
      </trkpt>
      <trkpt lat="45.74432" lon="-0.97203">
        <ele>4.2</ele>
        <time>2021-11-12T10:37:57Z</time>
      </trkpt>
      <trkpt lat="45.74479" lon="-0.97286">
        <ele>5.9</ele>
        <time>2021-11-12T10:38:09Z</time>
      </trkpt>
      <trkpt lat="45.74518" lon="-0.97314">
        <ele>4.2</ele>
        <time>2021-11-12T10:38:19Z</time>
      </trkpt>
      <trkpt lat="45.74538" lon="-0.97351">
        <ele>2</ele>
        <time>2021-11-12T10:38:23Z</time>
      </trkpt>
      <trkpt lat="45.74558" lon="-0.97384">
        <ele>1.8</ele>
        <time>2021-11-12T10:38:27Z</time>
      </trkpt>
      <trkpt lat="45.74536" lon="-0.97465">
        <ele>3.2</ele>
        <time>2021-11-12T10:38:56Z</time>
      </trkpt>
      <trkpt lat="45.74558" lon="-0.97557">
        <ele>3.5</ele>
        <time>2021-11-12T10:39:30Z</time>
      </trkpt>
      <trkpt lat="45.74309" lon="-0.97527">
        <ele>2.3</ele>
        <time>2021-11-12T10:41:27Z</time>
      </trkpt>
      <trkpt lat="45.74266" lon="-0.97511">
        <ele>-0.8</ele>
        <time>2021-11-12T10:41:48Z</time>
      </trkpt>
      <trkpt lat="45.74203" lon="-0.97467">
        <ele>1</ele>
        <time>2021-11-12T10:41:52Z</time>
      </trkpt>
      <trkpt lat="45.74112" lon="-0.97448">
        <ele>2.4</ele>
        <time>2021-11-12T10:42:03Z</time>
      </trkpt>
      <trkpt lat="45.74013" lon="-0.9754">
        <ele>4.1</ele>
        <time>2021-11-12T10:42:13Z</time>
      </trkpt>
      <trkpt lat="45.73961" lon="-0.97582">
        <ele>2.6</ele>
        <time>2021-11-12T10:42:23Z</time>
      </trkpt>
      <trkpt lat="45.73957" lon="-0.97583">
        <ele>4.1</ele>
        <time>2021-11-12T10:42:29Z</time>
      </trkpt>
      <trkpt lat="45.73892" lon="-0.97593">
        <ele>1.9</ele>
        <time>2021-11-12T10:43:04Z</time>
      </trkpt>
      <trkpt lat="45.73734" lon="-0.97735">
        <ele>1.6</ele>
        <time>2021-11-12T10:43:18Z</time>
      </trkpt>
      <trkpt lat="45.73689" lon="-0.97789">
        <ele>2.2</ele>
        <time>2021-11-12T10:43:33Z</time>
      </trkpt>
      <trkpt lat="45.73709" lon="-0.97833">
        <ele>2.3</ele>
        <time>2021-11-12T10:43:37Z</time>
      </trkpt>
      <trkpt lat="45.73759" lon="-0.97946">
        <ele>2.3</ele>
        <time>2021-11-12T10:43:44Z</time>
      </trkpt>
      <trkpt lat="45.73908" lon="-0.98157">
        <ele>2.4</ele>
        <time>2021-11-12T10:43:57Z</time>
      </trkpt>
      <trkpt lat="45.74123" lon="-0.98427">
        <ele>2.4</ele>
        <time>2021-11-12T10:44:12Z</time>
      </trkpt>
      <trkpt lat="45.74175" lon="-0.98488">
        <ele>2.4</ele>
        <time>2021-11-12T10:44:24Z</time>
      </trkpt>
      <trkpt lat="45.74176" lon="-0.98489">
        <ele>-0.6</ele>
        <time>2021-11-12T10:44:31Z</time>
      </trkpt>
      <trkpt lat="45.74189" lon="-0.98513">
        <ele>3</ele>
        <time>2021-11-12T10:44:34Z</time>
      </trkpt>
      <trkpt lat="45.74334" lon="-0.98783">
        <ele>0.7</ele>
        <time>2021-11-12T10:44:49Z</time>
      </trkpt>
      <trkpt lat="45.7455" lon="-0.99177">
        <ele>3.8</ele>
        <time>2021-11-12T10:45:07Z</time>
      </trkpt>
      <trkpt lat="45.74588" lon="-0.9925">
        <ele>6.8</ele>
        <time>2021-11-12T10:45:18Z</time>
      </trkpt>
      <trkpt lat="45.74593" lon="-0.99407">
        <ele>6.4</ele>
        <time>2021-11-12T10:45:30Z</time>
      </trkpt>
      <trkpt lat="45.7462" lon="-0.99471">
        <ele>5.5</ele>
        <time>2021-11-12T10:45:34Z</time>
      </trkpt>
      <trkpt lat="45.74667" lon="-0.99593">
        <ele>3</ele>
        <time>2021-11-12T10:45:45Z</time>
      </trkpt>
      <trkpt lat="45.74676" lon="-0.99604">
        <ele>2.6</ele>
        <time>2021-11-12T10:45:49Z</time>
      </trkpt>
      <trkpt lat="45.74712" lon="-0.99681">
        <ele>1</ele>
        <time>2021-11-12T10:45:56Z</time>
      </trkpt>
      <trkpt lat="45.74667" lon="-0.99864">
        <ele>3.3</ele>
        <time>2021-11-12T10:46:10Z</time>
      </trkpt>
      <trkpt lat="45.74588" lon="-0.99942">
        <ele>2.3</ele>
        <time>2021-11-12T10:46:20Z</time>
      </trkpt>
      <trkpt lat="45.74602" lon="-1">
        <ele>3.3</ele>
        <time>2021-11-12T10:46:27Z</time>
      </trkpt>
      <trkpt lat="45.74629" lon="-1.00077">
        <ele>1.7</ele>
        <time>2021-11-12T10:46:34Z</time>
      </trkpt>
      <trkpt lat="45.74658" lon="-1.00126">
        <ele>2.9</ele>
        <time>2021-11-12T10:46:41Z</time>
      </trkpt>
      <trkpt lat="45.74665" lon="-1.00137">
        <ele>3.9</ele>
        <time>2021-11-12T10:46:45Z</time>
      </trkpt>
      <trkpt lat="45.74634" lon="-1.00194">
        <ele>1.5</ele>
        <time>2021-11-12T10:46:52Z</time>
      </trkpt>
      <trkpt lat="45.74603" lon="-1.00321">
        <ele>-0.2</ele>
        <time>2021-11-12T10:47:08Z</time>
      </trkpt>
      <trkpt lat="45.74686" lon="-1.00514">
        <ele>0.2</ele>
        <time>2021-11-12T10:47:22Z</time>
      </trkpt>
      <trkpt lat="45.74683" lon="-1.00688">
        <ele>0.1</ele>
        <time>2021-11-12T10:47:38Z</time>
      </trkpt>
      <trkpt lat="45.74727" lon="-1.00797">
        <ele>-0.6</ele>
        <time>2021-11-12T10:47:45Z</time>
      </trkpt>
      <trkpt lat="45.74836" lon="-1.01016">
        <ele>0.4</ele>
        <time>2021-11-12T10:47:58Z</time>
      </trkpt>
      <trkpt lat="45.74889" lon="-1.01029">
        <ele>-1.3</ele>
        <time>2021-11-12T10:48:05Z</time>
      </trkpt>
      <trkpt lat="45.7497" lon="-1.01051">
        <ele>-1.6</ele>
        <time>2021-11-12T10:48:13Z</time>
      </trkpt>
      <trkpt lat="45.75063" lon="-1.01059">
        <ele>-0.8</ele>
        <time>2021-11-12T10:48:20Z</time>
      </trkpt>
      <trkpt lat="45.75107" lon="-1.0097">
        <ele>-0.1</ele>
        <time>2021-11-12T10:48:32Z</time>
      </trkpt>
      <trkpt lat="45.75131" lon="-1.00946">
        <ele>0.1</ele>
        <time>2021-11-12T10:48:36Z</time>
      </trkpt>
      <trkpt lat="45.75165" lon="-1.00959">
        <ele>-1.3</ele>
        <time>2021-11-12T10:48:46Z</time>
      </trkpt>
      <trkpt lat="45.75285" lon="-1.01026">
        <ele>0.3</ele>
        <time>2021-11-12T10:49:00Z</time>
      </trkpt>
      <trkpt lat="45.75364" lon="-1.01127">
        <ele>0.2</ele>
        <time>2021-11-12T10:49:12Z</time>
      </trkpt>
      <trkpt lat="45.75377" lon="-1.01147">
        <ele>-0.4</ele>
        <time>2021-11-12T10:49:16Z</time>
      </trkpt>
      <trkpt lat="45.75416" lon="-1.01113">
        <ele>-1.6</ele>
        <time>2021-11-12T10:49:24Z</time>
      </trkpt>
      <trkpt lat="45.75449" lon="-1.01059">
        <ele>-0.3</ele>
        <time>2021-11-12T10:49:30Z</time>
      </trkpt>
      <trkpt lat="45.75482" lon="-1.01018">
        <ele>1.4</ele>
        <time>2021-11-12T10:49:34Z</time>
      </trkpt>
      <trkpt lat="45.75515" lon="-1.00978">
        <ele>-0.6</ele>
        <time>2021-11-12T10:49:38Z</time>
      </trkpt>
      <trkpt lat="45.75559" lon="-1.0083">
        <ele>-0.3</ele>
        <time>2021-11-12T10:49:52Z</time>
      </trkpt>
      <trkpt lat="45.75565" lon="-1.00793">
        <ele>0.1</ele>
        <time>2021-11-12T10:49:56Z</time>
      </trkpt>
      <trkpt lat="45.75652" lon="-1.00691">
        <ele>-0.7</ele>
        <time>2021-11-12T10:50:14Z</time>
      </trkpt>
      <trkpt lat="45.75675" lon="-1.00736">
        <ele>-1.3</ele>
        <time>2021-11-12T10:50:18Z</time>
      </trkpt>
      <trkpt lat="45.75692" lon="-1.00772">
        <ele>-0.1</ele>
        <time>2021-11-12T10:50:22Z</time>
      </trkpt>
      <trkpt lat="45.75822" lon="-1.00664">
        <ele>0.6</ele>
        <time>2021-11-12T10:50:34Z</time>
      </trkpt>
      <trkpt lat="45.76079" lon="-1.00629">
        <ele>-0.3</ele>
        <time>2021-11-12T10:50:50Z</time>
      </trkpt>
      <trkpt lat="45.76183" lon="-1.00686">
        <ele>-2</ele>
        <time>2021-11-12T10:50:57Z</time>
      </trkpt>
      <trkpt lat="45.76283" lon="-1.00674">
        <ele>-1.7</ele>
        <time>2021-11-12T10:51:04Z</time>
      </trkpt>
      <trkpt lat="45.76565" lon="-1.00532">
        <ele>-2.8</ele>
        <time>2021-11-12T10:51:26Z</time>
      </trkpt>
      <trkpt lat="45.76701" lon="-1.00466">
        <ele>-1.7</ele>
        <time>2021-11-12T10:51:37Z</time>
      </trkpt>
      <trkpt lat="45.76751" lon="-1.00375">
        <ele>-1.4</ele>
        <time>2021-11-12T10:51:44Z</time>
      </trkpt>
      <trkpt lat="45.76799" lon="-1.00264">
        <ele>-1</ele>
        <time>2021-11-12T10:51:51Z</time>
      </trkpt>
      <trkpt lat="45.76931" lon="-1.00186">
        <ele>1.8</ele>
        <time>2021-11-12T10:52:05Z</time>
      </trkpt>
      <trkpt lat="45.77009" lon="-1.00292">
        <ele>2.6</ele>
        <time>2021-11-12T10:52:16Z</time>
      </trkpt>
      <trkpt lat="45.77045" lon="-1.00356">
        <ele>2.4</ele>
        <time>2021-11-12T10:52:20Z</time>
      </trkpt>
      <trkpt lat="45.77161" lon="-1.00573">
        <ele>-0.1</ele>
        <time>2021-11-12T10:52:32Z</time>
      </trkpt>
      <trkpt lat="45.77212" lon="-1.00679">
        <ele>-1.3</ele>
        <time>2021-11-12T10:52:38Z</time>
      </trkpt>
      <trkpt lat="45.77267" lon="-1.00772">
        <ele>-3.9</ele>
        <time>2021-11-12T10:52:46Z</time>
      </trkpt>
      <trkpt lat="45.77326" lon="-1.00834">
        <ele>-4.5</ele>
        <time>2021-11-12T10:52:54Z</time>
      </trkpt>
      <trkpt lat="45.77356" lon="-1.00861">
        <ele>-3.4</ele>
        <time>2021-11-12T10:52:57Z</time>
      </trkpt>
      <trkpt lat="45.7746" lon="-1.01029">
        <ele>-2.6</ele>
        <time>2021-11-12T10:53:11Z</time>
      </trkpt>
      <trkpt lat="45.77557" lon="-1.01268">
        <ele>1.5</ele>
        <time>2021-11-12T10:53:24Z</time>
      </trkpt>
      <trkpt lat="45.77585" lon="-1.01332">
        <ele>0.8</ele>
        <time>2021-11-12T10:53:28Z</time>
      </trkpt>
      <trkpt lat="45.77603" lon="-1.01373">
        <ele>5</ele>
        <time>2021-11-12T10:53:32Z</time>
      </trkpt>
      <trkpt lat="45.77609" lon="-1.01386">
        <ele>5.1</ele>
        <time>2021-11-12T10:53:34Z</time>
      </trkpt>
      <trkpt lat="45.77643" lon="-1.01444">
        <ele>4.6</ele>
        <time>2021-11-12T10:53:42Z</time>
      </trkpt>
      <trkpt lat="45.77735" lon="-1.01591">
        <ele>3.7</ele>
        <time>2021-11-12T10:54:06Z</time>
      </trkpt>
      <trkpt lat="45.77748" lon="-1.01618">
        <ele>3.7</ele>
        <time>2021-11-12T10:54:10Z</time>
      </trkpt>
      <trkpt lat="45.77768" lon="-1.01659">
        <ele>1.9</ele>
        <time>2021-11-12T10:54:17Z</time>
      </trkpt>
      <trkpt lat="45.77786" lon="-1.01709">
        <ele>0.3</ele>
        <time>2021-11-12T10:54:20Z</time>
      </trkpt>
      <trkpt lat="45.77843" lon="-1.01864">
        <ele>-1.4</ele>
        <time>2021-11-12T10:54:27Z</time>
      </trkpt>
      <trkpt lat="45.77872" lon="-1.01953">
        <ele>-2</ele>
        <time>2021-11-12T10:54:31Z</time>
      </trkpt>
      <trkpt lat="45.77947" lon="-1.02068">
        <ele>-1.1</ele>
        <time>2021-11-12T10:54:37Z</time>
      </trkpt>
      <trkpt lat="45.77995" lon="-1.02144">
        <ele>0.6</ele>
        <time>2021-11-12T10:54:41Z</time>
      </trkpt>
      <trkpt lat="45.78051" lon="-1.02265">
        <ele>1</ele>
        <time>2021-11-12T10:54:47Z</time>
      </trkpt>
      <trkpt lat="45.78081" lon="-1.02333">
        <ele>0.2</ele>
        <time>2021-11-12T10:54:51Z</time>
      </trkpt>
      <trkpt lat="45.78077" lon="-1.02408">
        <ele>1.2</ele>
        <time>2021-11-12T10:55:03Z</time>
      </trkpt>
      <trkpt lat="45.78041" lon="-1.02442">
        <ele>0.3</ele>
        <time>2021-11-12T10:55:07Z</time>
      </trkpt>
      <trkpt lat="45.77969" lon="-1.02516">
        <ele>2.1</ele>
        <time>2021-11-12T10:55:17Z</time>
      </trkpt>
      <trkpt lat="45.77974" lon="-1.02567">
        <ele>1.3</ele>
        <time>2021-11-12T10:55:25Z</time>
      </trkpt>
      <trkpt lat="45.78014" lon="-1.02701">
        <ele>-2.4</ele>
        <time>2021-11-12T10:55:35Z</time>
      </trkpt>
      <trkpt lat="45.78025" lon="-1.02759">
        <ele>-1.4</ele>
        <time>2021-11-12T10:55:39Z</time>
      </trkpt>
      <trkpt lat="45.7805" lon="-1.02814">
        <ele>2.7</ele>
        <time>2021-11-12T10:55:46Z</time>
      </trkpt>
      <trkpt lat="45.78183" lon="-1.02831">
        <ele>1.2</ele>
        <time>2021-11-12T10:56:00Z</time>
      </trkpt>
      <trkpt lat="45.78212" lon="-1.02812">
        <ele>1.4</ele>
        <time>2021-11-12T10:56:03Z</time>
      </trkpt>
      <trkpt lat="45.7825" lon="-1.02767">
        <ele>1.1</ele>
        <time>2021-11-12T10:56:07Z</time>
      </trkpt>
      <trkpt lat="45.78303" lon="-1.027">
        <ele>2.8</ele>
        <time>2021-11-12T10:56:14Z</time>
      </trkpt>
      <trkpt lat="45.78321" lon="-1.02678">
        <ele>2.9</ele>
        <time>2021-11-12T10:56:18Z</time>
      </trkpt>
      <trkpt lat="45.78355" lon="-1.02711">
        <ele>0.9</ele>
        <time>2021-11-12T10:56:25Z</time>
      </trkpt>
      <trkpt lat="45.78451" lon="-1.02851">
        <ele>5</ele>
        <time>2021-11-12T10:56:33Z</time>
      </trkpt>
      <trkpt lat="45.78496" lon="-1.02885">
        <ele>3.8</ele>
        <time>2021-11-12T10:56:37Z</time>
      </trkpt>
      <trkpt lat="45.78536" lon="-1.02905">
        <ele>5.6</ele>
        <time>2021-11-12T10:56:40Z</time>
      </trkpt>
      <trkpt lat="45.78636" lon="-1.02965">
        <ele>4.1</ele>
        <time>2021-11-12T10:56:47Z</time>
      </trkpt>
      <trkpt lat="45.78698" lon="-1.03167">
        <ele>3</ele>
        <time>2021-11-12T10:56:58Z</time>
      </trkpt>
      <trkpt lat="45.78697" lon="-1.03272">
        <ele>2.8</ele>
        <time>2021-11-12T10:57:02Z</time>
      </trkpt>
      <trkpt lat="45.78727" lon="-1.03442">
        <ele>-1.2</ele>
        <time>2021-11-12T10:57:09Z</time>
      </trkpt>
      <trkpt lat="45.78745" lon="-1.03532">
        <ele>-1.3</ele>
        <time>2021-11-12T10:57:13Z</time>
      </trkpt>
      <trkpt lat="45.78766" lon="-1.03625">
        <ele>-2.1</ele>
        <time>2021-11-12T10:57:17Z</time>
      </trkpt>
      <trkpt lat="45.78787" lon="-1.03689">
        <ele>-2.1</ele>
        <time>2021-11-12T10:57:20Z</time>
      </trkpt>
      <trkpt lat="45.78835" lon="-1.03825">
        <ele>-3.3</ele>
        <time>2021-11-12T10:57:27Z</time>
      </trkpt>
      <trkpt lat="45.78879" lon="-1.04083">
        <ele>-0.3</ele>
        <time>2021-11-12T10:57:38Z</time>
      </trkpt>
      <trkpt lat="45.78907" lon="-1.04196">
        <ele>-0.8</ele>
        <time>2021-11-12T10:57:45Z</time>
      </trkpt>
      <trkpt lat="45.78904" lon="-1.04198">
        <ele>3.4</ele>
        <time>2021-11-12T10:57:46Z</time>
      </trkpt>
      <trkpt lat="45.78955" lon="-1.04321">
        <ele>1.7</ele>
        <time>2021-11-12T10:58:07Z</time>
      </trkpt>
      <trkpt lat="45.79" lon="-1.04404">
        <ele>-0.1</ele>
        <time>2021-11-12T10:58:11Z</time>
      </trkpt>
      <trkpt lat="45.791" lon="-1.04608">
        <ele>3.4</ele>
        <time>2021-11-12T10:58:21Z</time>
      </trkpt>
      <trkpt lat="45.79142" lon="-1.04687">
        <ele>3.7</ele>
        <time>2021-11-12T10:58:25Z</time>
      </trkpt>
      <trkpt lat="45.7918" lon="-1.04749">
        <ele>4.6</ele>
        <time>2021-11-12T10:58:28Z</time>
      </trkpt>
      <trkpt lat="45.79381" lon="-1.05026">
        <ele>8.1</ele>
        <time>2021-11-12T10:58:46Z</time>
      </trkpt>
      <trkpt lat="45.7942" lon="-1.0508">
        <ele>8.2</ele>
        <time>2021-11-12T10:58:50Z</time>
      </trkpt>
      <trkpt lat="45.79478" lon="-1.0516">
        <ele>6.3</ele>
        <time>2021-11-12T10:58:58Z</time>
      </trkpt>
      <trkpt lat="45.79504" lon="-1.05207">
        <ele>6.7</ele>
        <time>2021-11-12T10:59:02Z</time>
      </trkpt>
      <trkpt lat="45.79641" lon="-1.05279">
        <ele>9</ele>
        <time>2021-11-12T10:59:18Z</time>
      </trkpt>
      <trkpt lat="45.79655" lon="-1.05297">
        <ele>7.6</ele>
        <time>2021-11-12T10:59:21Z</time>
      </trkpt>
      <trkpt lat="45.79715" lon="-1.05221">
        <ele>6.9</ele>
        <time>2021-11-12T10:59:29Z</time>
      </trkpt>
      <trkpt lat="45.79798" lon="-1.05105">
        <ele>7.7</ele>
        <time>2021-11-12T10:59:39Z</time>
      </trkpt>
      <trkpt lat="45.79824" lon="-1.05041">
        <ele>7.8</ele>
        <time>2021-11-12T10:59:43Z</time>
      </trkpt>
      <trkpt lat="45.79878" lon="-1.04745">
        <ele>9.8</ele>
        <time>2021-11-12T11:00:02Z</time>
      </trkpt>
      <trkpt lat="45.79923" lon="-1.04663">
        <ele>11.5</ele>
        <time>2021-11-12T11:00:10Z</time>
      </trkpt>
      <trkpt lat="45.80006" lon="-1.0448">
        <ele>14.6</ele>
        <time>2021-11-12T11:00:21Z</time>
      </trkpt>
      <trkpt lat="45.80033" lon="-1.0442">
        <ele>14.8</ele>
        <time>2021-11-12T11:00:25Z</time>
      </trkpt>
      <trkpt lat="45.80182" lon="-1.04097">
        <ele>12.7</ele>
        <time>2021-11-12T11:00:49Z</time>
      </trkpt>
      <trkpt lat="45.80211" lon="-1.04026">
        <ele>12.3</ele>
        <time>2021-11-12T11:00:56Z</time>
      </trkpt>
      <trkpt lat="45.8025" lon="-1.04112">
        <ele>10</ele>
        <time>2021-11-12T11:01:07Z</time>
      </trkpt>
      <trkpt lat="45.80269" lon="-1.04161">
        <ele>10.5</ele>
        <time>2021-11-12T11:01:10Z</time>
      </trkpt>
      <trkpt lat="45.80293" lon="-1.04206">
        <ele>10.1</ele>
        <time>2021-11-12T11:01:13Z</time>
      </trkpt>
      <trkpt lat="45.80323" lon="-1.04268">
        <ele>10</ele>
        <time>2021-11-12T11:01:17Z</time>
      </trkpt>
      <trkpt lat="45.80467" lon="-1.04433">
        <ele>9</ele>
        <time>2021-11-12T11:01:31Z</time>
      </trkpt>
      <trkpt lat="45.80617" lon="-1.04653">
        <ele>10.8</ele>
        <time>2021-11-12T11:01:45Z</time>
      </trkpt>
      <trkpt lat="45.8066" lon="-1.0472">
        <ele>10</ele>
        <time>2021-11-12T11:01:49Z</time>
      </trkpt>
      <trkpt lat="45.80696" lon="-1.04757">
        <ele>9.9</ele>
        <time>2021-11-12T11:01:53Z</time>
      </trkpt>
      <trkpt lat="45.80729" lon="-1.04786">
        <ele>10.5</ele>
        <time>2021-11-12T11:01:56Z</time>
      </trkpt>
      <trkpt lat="45.80794" lon="-1.04944">
        <ele>5.9</ele>
        <time>2021-11-12T11:02:04Z</time>
      </trkpt>
      <trkpt lat="45.80901" lon="-1.05159">
        <ele>6.6</ele>
        <time>2021-11-12T11:02:15Z</time>
      </trkpt>
      <trkpt lat="45.8098" lon="-1.05286">
        <ele>5.4</ele>
        <time>2021-11-12T11:02:22Z</time>
      </trkpt>
      <trkpt lat="45.81096" lon="-1.0568">
        <ele>0.3</ele>
        <time>2021-11-12T11:02:41Z</time>
      </trkpt>
      <trkpt lat="45.8112" lon="-1.05734">
        <ele>0.2</ele>
        <time>2021-11-12T11:02:44Z</time>
      </trkpt>
      <trkpt lat="45.81215" lon="-1.05831">
        <ele>0.8</ele>
        <time>2021-11-12T11:02:55Z</time>
      </trkpt>
      <trkpt lat="45.81326" lon="-1.05849">
        <ele>4.6</ele>
        <time>2021-11-12T11:03:01Z</time>
      </trkpt>
      <trkpt lat="45.8137" lon="-1.05874">
        <ele>4.9</ele>
        <time>2021-11-12T11:03:04Z</time>
      </trkpt>
      <trkpt lat="45.81505" lon="-1.06029">
        <ele>8.6</ele>
        <time>2021-11-12T11:03:16Z</time>
      </trkpt>
      <trkpt lat="45.81598" lon="-1.06163">
        <ele>9.7</ele>
        <time>2021-11-12T11:03:24Z</time>
      </trkpt>
      <trkpt lat="45.81761" lon="-1.0638">
        <ele>5.9</ele>
        <time>2021-11-12T11:03:38Z</time>
      </trkpt>
      <trkpt lat="45.81813" lon="-1.06451">
        <ele>4.2</ele>
        <time>2021-11-12T11:03:42Z</time>
      </trkpt>
      <trkpt lat="45.81841" lon="-1.06508">
        <ele>5.2</ele>
        <time>2021-11-12T11:03:45Z</time>
      </trkpt>
      <trkpt lat="45.81849" lon="-1.06567">
        <ele>4.6</ele>
        <time>2021-11-12T11:03:48Z</time>
      </trkpt>
      <trkpt lat="45.8186" lon="-1.06648">
        <ele>5.5</ele>
        <time>2021-11-12T11:03:52Z</time>
      </trkpt>
      <trkpt lat="45.81926" lon="-1.06782">
        <ele>7.2</ele>
        <time>2021-11-12T11:03:59Z</time>
      </trkpt>
      <trkpt lat="45.82085" lon="-1.07023">
        <ele>5.4</ele>
        <time>2021-11-12T11:04:14Z</time>
      </trkpt>
      <trkpt lat="45.82133" lon="-1.07086">
        <ele>3.6</ele>
        <time>2021-11-12T11:04:18Z</time>
      </trkpt>
      <trkpt lat="45.82228" lon="-1.07175">
        <ele>6.6</ele>
        <time>2021-11-12T11:04:28Z</time>
      </trkpt>
      <trkpt lat="45.82256" lon="-1.07189">
        <ele>7.2</ele>
        <time>2021-11-12T11:04:38Z</time>
      </trkpt>
      <trkpt lat="45.82296" lon="-1.07228">
        <ele>7.2</ele>
        <time>2021-11-12T11:04:42Z</time>
      </trkpt>
      <trkpt lat="45.82408" lon="-1.07375">
        <ele>7.1</ele>
        <time>2021-11-12T11:04:53Z</time>
      </trkpt>
      <trkpt lat="45.82428" lon="-1.07429">
        <ele>7.1</ele>
        <time>2021-11-12T11:04:56Z</time>
      </trkpt>
      <trkpt lat="45.82532" lon="-1.07394">
        <ele>7.1</ele>
        <time>2021-11-12T11:05:07Z</time>
      </trkpt>
      <trkpt lat="45.8257" lon="-1.07339">
        <ele>7.1</ele>
        <time>2021-11-12T11:05:10Z</time>
      </trkpt>
      <trkpt lat="45.82608" lon="-1.07291">
        <ele>7</ele>
        <time>2021-11-12T11:05:14Z</time>
      </trkpt>
      <trkpt lat="45.82713" lon="-1.07386">
        <ele>7.3</ele>
        <time>2021-11-12T11:05:24Z</time>
      </trkpt>
      <trkpt lat="45.82753" lon="-1.07445">
        <ele>7.2</ele>
        <time>2021-11-12T11:05:31Z</time>
      </trkpt>
      <trkpt lat="45.82734" lon="-1.07477">
        <ele>3.5</ele>
        <time>2021-11-12T11:05:37Z</time>
      </trkpt>
      <trkpt lat="45.82689" lon="-1.07519">
        <ele>4.7</ele>
        <time>2021-11-12T11:05:41Z</time>
      </trkpt>
      <trkpt lat="45.82599" lon="-1.07609">
        <ele>6.1</ele>
        <time>2021-11-12T11:05:48Z</time>
      </trkpt>
      <trkpt lat="45.826" lon="-1.07771">
        <ele>7.2</ele>
        <time>2021-11-12T11:06:02Z</time>
      </trkpt>
      <trkpt lat="45.82643" lon="-1.07878">
        <ele>6.6</ele>
        <time>2021-11-12T11:06:06Z</time>
      </trkpt>
      <trkpt lat="45.82747" lon="-1.08132">
        <ele>3.3</ele>
        <time>2021-11-12T11:06:16Z</time>
      </trkpt>
      <trkpt lat="45.82795" lon="-1.08244">
        <ele>0.1</ele>
        <time>2021-11-12T11:06:24Z</time>
      </trkpt>
      <trkpt lat="45.8287" lon="-1.08353">
        <ele>1.5</ele>
        <time>2021-11-12T11:06:32Z</time>
      </trkpt>
      <trkpt lat="45.82911" lon="-1.08408">
        <ele>1.8</ele>
        <time>2021-11-12T11:06:36Z</time>
      </trkpt>
      <trkpt lat="45.82933" lon="-1.08439">
        <ele>1</ele>
        <time>2021-11-12T11:06:39Z</time>
      </trkpt>
      <trkpt lat="45.82947" lon="-1.08471">
        <ele>4.2</ele>
        <time>2021-11-12T11:06:42Z</time>
      </trkpt>
      <trkpt lat="45.82957" lon="-1.08493">
        <ele>3.2</ele>
        <time>2021-11-12T11:06:45Z</time>
      </trkpt>
      <trkpt lat="45.82999" lon="-1.08378">
        <ele>3.8</ele>
        <time>2021-11-12T11:06:56Z</time>
      </trkpt>
      <trkpt lat="45.83129" lon="-1.08034">
        <ele>6.3</ele>
        <time>2021-11-12T11:07:14Z</time>
      </trkpt>
      <trkpt lat="45.8316" lon="-1.07953">
        <ele>4.8</ele>
        <time>2021-11-12T11:07:21Z</time>
      </trkpt>
      <trkpt lat="45.83188" lon="-1.07953">
        <ele>1.8</ele>
        <time>2021-11-12T11:07:28Z</time>
      </trkpt>
      <trkpt lat="45.83252" lon="-1.0798">
        <ele>-2.9</ele>
        <time>2021-11-12T11:07:36Z</time>
      </trkpt>
      <trkpt lat="45.83356" lon="-1.08144">
        <ele>-0.2</ele>
        <time>2021-11-12T11:07:52Z</time>
      </trkpt>
      <trkpt lat="45.83484" lon="-1.08229">
        <ele>1.9</ele>
        <time>2021-11-12T11:08:04Z</time>
      </trkpt>
      <trkpt lat="45.83611" lon="-1.08321">
        <ele>2.3</ele>
        <time>2021-11-12T11:08:15Z</time>
      </trkpt>
      <trkpt lat="45.83749" lon="-1.0852">
        <ele>0.7</ele>
        <time>2021-11-12T11:08:37Z</time>
      </trkpt>
      <trkpt lat="45.83707" lon="-1.08573">
        <ele>4.1</ele>
        <time>2021-11-12T11:08:43Z</time>
      </trkpt>
      <trkpt lat="45.83689" lon="-1.08593">
        <ele>5.5</ele>
        <time>2021-11-12T11:08:46Z</time>
      </trkpt>
      <trkpt lat="45.83693" lon="-1.08661">
        <ele>9.1</ele>
        <time>2021-11-12T11:08:54Z</time>
      </trkpt>
      <trkpt lat="45.83698" lon="-1.08739">
        <ele>11</ele>
        <time>2021-11-12T11:09:00Z</time>
      </trkpt>
      <trkpt lat="45.83655" lon="-1.0882">
        <ele>11.6</ele>
        <time>2021-11-12T11:09:08Z</time>
      </trkpt>
      <trkpt lat="45.83639" lon="-1.08847">
        <ele>11.7</ele>
        <time>2021-11-12T11:09:12Z</time>
      </trkpt>
      <trkpt lat="45.8366" lon="-1.08905">
        <ele>14.9</ele>
        <time>2021-11-12T11:09:26Z</time>
      </trkpt>
      <trkpt lat="45.83787" lon="-1.08896">
        <ele>11.7</ele>
        <time>2021-11-12T11:09:37Z</time>
      </trkpt>
      <trkpt lat="45.83841" lon="-1.08976">
        <ele>10.8</ele>
        <time>2021-11-12T11:09:41Z</time>
      </trkpt>
      <trkpt lat="45.83884" lon="-1.09035">
        <ele>8</ele>
        <time>2021-11-12T11:09:44Z</time>
      </trkpt>
      <trkpt lat="45.83993" lon="-1.09047">
        <ele>3.9</ele>
        <time>2021-11-12T11:09:51Z</time>
      </trkpt>
      <trkpt lat="45.84039" lon="-1.08989">
        <ele>2.8</ele>
        <time>2021-11-12T11:09:55Z</time>
      </trkpt>
      <trkpt lat="45.84047" lon="-1.08928">
        <ele>-0.1</ele>
        <time>2021-11-12T11:09:58Z</time>
      </trkpt>
      <trkpt lat="45.8405" lon="-1.08732">
        <ele>-1.1</ele>
        <time>2021-11-12T11:10:08Z</time>
      </trkpt>
      <trkpt lat="45.84117" lon="-1.08665">
        <ele>-1.9</ele>
        <time>2021-11-12T11:10:12Z</time>
      </trkpt>
      <trkpt lat="45.84357" lon="-1.08417">
        <ele>0.1</ele>
        <time>2021-11-12T11:10:26Z</time>
      </trkpt>
      <trkpt lat="45.84495" lon="-1.08331">
        <ele>1.6</ele>
        <time>2021-11-12T11:10:34Z</time>
      </trkpt>
      <trkpt lat="45.84564" lon="-1.08291">
        <ele>0.9</ele>
        <time>2021-11-12T11:10:38Z</time>
      </trkpt>
      <trkpt lat="45.84729" lon="-1.08046">
        <ele>-0.2</ele>
        <time>2021-11-12T11:10:50Z</time>
      </trkpt>
      <trkpt lat="45.84833" lon="-1.07781">
        <ele>3.2</ele>
        <time>2021-11-12T11:11:05Z</time>
      </trkpt>
      <trkpt lat="45.8485" lon="-1.0774">
        <ele>3.7</ele>
        <time>2021-11-12T11:11:08Z</time>
      </trkpt>
      <trkpt lat="45.84916" lon="-1.07747">
        <ele>7.7</ele>
        <time>2021-11-12T11:11:15Z</time>
      </trkpt>
      <trkpt lat="45.84953" lon="-1.07766">
        <ele>7.2</ele>
        <time>2021-11-12T11:11:18Z</time>
      </trkpt>
      <trkpt lat="45.8506" lon="-1.07817">
        <ele>12.2</ele>
        <time>2021-11-12T11:11:28Z</time>
      </trkpt>
      <trkpt lat="45.85168" lon="-1.07866">
        <ele>8.7</ele>
        <time>2021-11-12T11:11:36Z</time>
      </trkpt>
      <trkpt lat="45.85271" lon="-1.07763">
        <ele>5.6</ele>
        <time>2021-11-12T11:11:47Z</time>
      </trkpt>
      <trkpt lat="45.85437" lon="-1.07807">
        <ele>4.1</ele>
        <time>2021-11-12T11:11:58Z</time>
      </trkpt>
      <trkpt lat="45.85665" lon="-1.07996">
        <ele>3.6</ele>
        <time>2021-11-12T11:12:13Z</time>
      </trkpt>
      <trkpt lat="45.85746" lon="-1.08018">
        <ele>2.4</ele>
        <time>2021-11-12T11:12:20Z</time>
      </trkpt>
      <trkpt lat="45.85822" lon="-1.07854">
        <ele>1.1</ele>
        <time>2021-11-12T11:12:28Z</time>
      </trkpt>
      <trkpt lat="45.86078" lon="-1.07715">
        <ele>0.2</ele>
        <time>2021-11-12T11:12:42Z</time>
      </trkpt>
      <trkpt lat="45.86299" lon="-1.07691">
        <ele>2.8</ele>
        <time>2021-11-12T11:12:54Z</time>
      </trkpt>
      <trkpt lat="45.86364" lon="-1.07638">
        <ele>2.8</ele>
        <time>2021-11-12T11:12:58Z</time>
      </trkpt>
      <trkpt lat="45.86417" lon="-1.07557">
        <ele>3.2</ele>
        <time>2021-11-12T11:13:02Z</time>
      </trkpt>
      <trkpt lat="45.8647" lon="-1.07475">
        <ele>3.6</ele>
        <time>2021-11-12T11:13:06Z</time>
      </trkpt>
      <trkpt lat="45.86515" lon="-1.07185">
        <ele>1.7</ele>
        <time>2021-11-12T11:13:20Z</time>
      </trkpt>
      <trkpt lat="45.86529" lon="-1.07099">
        <ele>1.2</ele>
        <time>2021-11-12T11:13:31Z</time>
      </trkpt>
      <trkpt lat="45.86566" lon="-1.07081">
        <ele>1.2</ele>
        <time>2021-11-12T11:13:35Z</time>
      </trkpt>
      <trkpt lat="45.86751" lon="-1.06988">
        <ele>2.3</ele>
        <time>2021-11-12T11:14:00Z</time>
      </trkpt>
      <trkpt lat="45.86802" lon="-1.06961">
        <ele>5.1</ele>
        <time>2021-11-12T11:14:08Z</time>
      </trkpt>
      <trkpt lat="45.86811" lon="-1.06943">
        <ele>4.8</ele>
        <time>2021-11-12T11:14:12Z</time>
      </trkpt>
      <trkpt lat="45.86821" lon="-1.06924">
        <ele>2.4</ele>
        <time>2021-11-12T11:14:15Z</time>
      </trkpt>
      <trkpt lat="45.86796" lon="-1.06797">
        <ele>-2.5</ele>
        <time>2021-11-12T11:14:26Z</time>
      </trkpt>
      <trkpt lat="45.86784" lon="-1.06742">
        <ele>0.9</ele>
        <time>2021-11-12T11:14:30Z</time>
      </trkpt>
      <trkpt lat="45.86903" lon="-1.06672">
        <ele>1</ele>
        <time>2021-11-12T11:14:40Z</time>
      </trkpt>
      <trkpt lat="45.86959" lon="-1.06664">
        <ele>2.6</ele>
        <time>2021-11-12T11:14:44Z</time>
      </trkpt>
      <trkpt lat="45.87014" lon="-1.0666">
        <ele>2</ele>
        <time>2021-11-12T11:14:48Z</time>
      </trkpt>
      <trkpt lat="45.87228" lon="-1.06649">
        <ele>3.4</ele>
        <time>2021-11-12T11:15:02Z</time>
      </trkpt>
      <trkpt lat="45.87265" lon="-1.06657">
        <ele>2.7</ele>
        <time>2021-11-12T11:15:16Z</time>
      </trkpt>
      <trkpt lat="45.87271" lon="-1.06675">
        <ele>2.7</ele>
        <time>2021-11-12T11:15:24Z</time>
      </trkpt>
      <trkpt lat="45.87278" lon="-1.06701">
        <ele>0.1</ele>
        <time>2021-11-12T11:16:11Z</time>
      </trkpt>
      <trkpt lat="45.87278" lon="-1.06701">
        <ele>1.4</ele>
        <time>2021-11-12T11:16:21Z</time>
      </trkpt>
      <trkpt lat="45.873" lon="-1.06764">
        <ele>2.8</ele>
        <time>2021-11-12T11:16:28Z</time>
      </trkpt>
      <trkpt lat="45.87333" lon="-1.06852">
        <ele>1.6</ele>
        <time>2021-11-12T11:16:35Z</time>
      </trkpt>
      <trkpt lat="45.8735" lon="-1.06888">
        <ele>1.5</ele>
        <time>2021-11-12T11:16:38Z</time>
      </trkpt>
      <trkpt lat="45.87382" lon="-1.06934">
        <ele>1.5</ele>
        <time>2021-11-12T11:16:42Z</time>
      </trkpt>
      <trkpt lat="45.8764" lon="-1.07305">
        <ele>3.4</ele>
        <time>2021-11-12T11:17:13Z</time>
      </trkpt>
      <trkpt lat="45.877" lon="-1.07387">
        <ele>5.8</ele>
        <time>2021-11-12T11:17:24Z</time>
      </trkpt>
      <trkpt lat="45.87705" lon="-1.07408">
        <ele>5</ele>
        <time>2021-11-12T11:17:27Z</time>
      </trkpt>
      <trkpt lat="45.8771" lon="-1.07427">
        <ele>5</ele>
        <time>2021-11-12T11:17:31Z</time>
      </trkpt>
      <trkpt lat="45.87785" lon="-1.07509">
        <ele>3.2</ele>
        <time>2021-11-12T11:17:46Z</time>
      </trkpt>
      <trkpt lat="45.87817" lon="-1.075">
        <ele>4.4</ele>
        <time>2021-11-12T11:17:50Z</time>
      </trkpt>
      <trkpt lat="45.87851" lon="-1.07488">
        <ele>4.6</ele>
        <time>2021-11-12T11:17:54Z</time>
      </trkpt>
      <trkpt lat="45.8788" lon="-1.07481">
        <ele>4</ele>
        <time>2021-11-12T11:17:58Z</time>
      </trkpt>
      <trkpt lat="45.87902" lon="-1.07473">
        <ele>4.5</ele>
        <time>2021-11-12T11:18:01Z</time>
      </trkpt>
      <trkpt lat="45.87962" lon="-1.07454">
        <ele>3.3</ele>
        <time>2021-11-12T11:18:08Z</time>
      </trkpt>
      <trkpt lat="45.87997" lon="-1.07401">
        <ele>2.9</ele>
        <time>2021-11-12T11:18:15Z</time>
      </trkpt>
      <trkpt lat="45.88018" lon="-1.07321">
        <ele>2.7</ele>
        <time>2021-11-12T11:18:23Z</time>
      </trkpt>
      <trkpt lat="45.88023" lon="-1.07286">
        <ele>4</ele>
        <time>2021-11-12T11:18:26Z</time>
      </trkpt>
      <trkpt lat="45.88111" lon="-1.07176">
        <ele>2.5</ele>
        <time>2021-11-12T11:18:43Z</time>
      </trkpt>
      <trkpt lat="45.88133" lon="-1.07136">
        <ele>2.4</ele>
        <time>2021-11-12T11:18:47Z</time>
      </trkpt>
      <trkpt lat="45.88125" lon="-1.06972">
        <ele>-0.1</ele>
        <time>2021-11-12T11:19:01Z</time>
      </trkpt>
      <trkpt lat="45.88122" lon="-1.06939">
        <ele>2.7</ele>
        <time>2021-11-12T11:19:05Z</time>
      </trkpt>
      <trkpt lat="45.88211" lon="-1.06874">
        <ele>2</ele>
        <time>2021-11-12T11:19:20Z</time>
      </trkpt>
      <trkpt lat="45.88271" lon="-1.06875">
        <ele>5.1</ele>
        <time>2021-11-12T11:19:27Z</time>
      </trkpt>
      <trkpt lat="45.88338" lon="-1.06779">
        <ele>4.3</ele>
        <time>2021-11-12T11:19:41Z</time>
      </trkpt>
      <trkpt lat="45.88468" lon="-1.06729">
        <ele>3.5</ele>
        <time>2021-11-12T11:19:58Z</time>
      </trkpt>
      <trkpt lat="45.88548" lon="-1.0674">
        <ele>3.3</ele>
        <time>2021-11-12T11:20:06Z</time>
      </trkpt>
      <trkpt lat="45.88576" lon="-1.06751">
        <ele>2.5</ele>
        <time>2021-11-12T11:20:09Z</time>
      </trkpt>
      <trkpt lat="45.88646" lon="-1.06751">
        <ele>4.1</ele>
        <time>2021-11-12T11:20:16Z</time>
      </trkpt>
      <trkpt lat="45.88671" lon="-1.06751">
        <ele>2.9</ele>
        <time>2021-11-12T11:20:20Z</time>
      </trkpt>
      <trkpt lat="45.88684" lon="-1.06783">
        <ele>4.2</ele>
        <time>2021-11-12T11:20:36Z</time>
      </trkpt>
      <trkpt lat="45.88684" lon="-1.06788">
        <ele>4.8</ele>
        <time>2021-11-12T11:21:36Z</time>
      </trkpt>
      <trkpt lat="45.88681" lon="-1.06937">
        <ele>3.3</ele>
        <time>2021-11-12T11:21:47Z</time>
      </trkpt>
      <trkpt lat="45.88664" lon="-1.07373">
        <ele>3</ele>
        <time>2021-11-12T11:22:10Z</time>
      </trkpt>
      <trkpt lat="45.88653" lon="-1.07751">
        <ele>2.4</ele>
        <time>2021-11-12T11:22:32Z</time>
      </trkpt>
      <trkpt lat="45.88651" lon="-1.07816">
        <ele>4.2</ele>
        <time>2021-11-12T11:22:40Z</time>
      </trkpt>
      <trkpt lat="45.88652" lon="-1.07819">
        <ele>3.5</ele>
        <time>2021-11-12T11:22:47Z</time>
      </trkpt>
      <trkpt lat="45.88692" lon="-1.07802">
        <ele>4.1</ele>
        <time>2021-11-12T11:22:53Z</time>
      </trkpt>
      <trkpt lat="45.88827" lon="-1.07741">
        <ele>2.4</ele>
        <time>2021-11-12T11:23:04Z</time>
      </trkpt>
      <trkpt lat="45.88852" lon="-1.07728">
        <ele>1</ele>
        <time>2021-11-12T11:23:07Z</time>
      </trkpt>
      <trkpt lat="45.88928" lon="-1.07606">
        <ele>4.7</ele>
        <time>2021-11-12T11:23:18Z</time>
      </trkpt>
      <trkpt lat="45.89056" lon="-1.07511">
        <ele>2.9</ele>
        <time>2021-11-12T11:23:28Z</time>
      </trkpt>
      <trkpt lat="45.89106" lon="-1.07526">
        <ele>2.2</ele>
        <time>2021-11-12T11:23:32Z</time>
      </trkpt>
      <trkpt lat="45.89162" lon="-1.07545">
        <ele>2.5</ele>
        <time>2021-11-12T11:23:36Z</time>
      </trkpt>
      <trkpt lat="45.89261" lon="-1.07485">
        <ele>2.7</ele>
        <time>2021-11-12T11:23:43Z</time>
      </trkpt>
      <trkpt lat="45.89358" lon="-1.07424">
        <ele>2.4</ele>
        <time>2021-11-12T11:23:50Z</time>
      </trkpt>
      <trkpt lat="45.89396" lon="-1.07384">
        <ele>3.5</ele>
        <time>2021-11-12T11:23:54Z</time>
      </trkpt>
      <trkpt lat="45.89438" lon="-1.07339">
        <ele>3.5</ele>
        <time>2021-11-12T11:23:58Z</time>
      </trkpt>
      <trkpt lat="45.89489" lon="-1.07302">
        <ele>2.9</ele>
        <time>2021-11-12T11:24:01Z</time>
      </trkpt>
      <trkpt lat="45.89835" lon="-1.07072">
        <ele>1.8</ele>
        <time>2021-11-12T11:24:22Z</time>
      </trkpt>
      <trkpt lat="45.89881" lon="-1.07038">
        <ele>-1.9</ele>
        <time>2021-11-12T11:24:33Z</time>
      </trkpt>
      <trkpt lat="45.89919" lon="-1.07075">
        <ele>-0.3</ele>
        <time>2021-11-12T11:24:41Z</time>
      </trkpt>
      <trkpt lat="45.90051" lon="-1.07217">
        <ele>2.7</ele>
        <time>2021-11-12T11:24:52Z</time>
      </trkpt>
      <trkpt lat="45.90088" lon="-1.07251">
        <ele>2.4</ele>
        <time>2021-11-12T11:24:56Z</time>
      </trkpt>
      <trkpt lat="45.90214" lon="-1.07254">
        <ele>4.2</ele>
        <time>2021-11-12T11:25:04Z</time>
      </trkpt>
      <trkpt lat="45.90395" lon="-1.0727">
        <ele>4.3</ele>
        <time>2021-11-12T11:25:12Z</time>
      </trkpt>
      <trkpt lat="45.90697" lon="-1.07357">
        <ele>4.2</ele>
        <time>2021-11-12T11:25:30Z</time>
      </trkpt>
      <trkpt lat="45.90914" lon="-1.074">
        <ele>0.4</ele>
        <time>2021-11-12T11:25:44Z</time>
      </trkpt>
      <trkpt lat="45.90932" lon="-1.07395">
        <ele>0.4</ele>
        <time>2021-11-12T11:25:47Z</time>
      </trkpt>
      <trkpt lat="45.90999" lon="-1.07282">
        <ele>1.4</ele>
        <time>2021-11-12T11:26:05Z</time>
      </trkpt>
      <trkpt lat="45.91242" lon="-1.07108">
        <ele>3.7</ele>
        <time>2021-11-12T11:26:52Z</time>
      </trkpt>
      <trkpt lat="45.91337" lon="-1.07098">
        <ele>3.5</ele>
        <time>2021-11-12T11:27:06Z</time>
      </trkpt>
      <trkpt lat="45.91443" lon="-1.07088">
        <ele>2.9</ele>
        <time>2021-11-12T11:27:20Z</time>
      </trkpt>
      <trkpt lat="45.91493" lon="-1.07072">
        <ele>3.6</ele>
        <time>2021-11-12T11:27:27Z</time>
      </trkpt>
      <trkpt lat="45.9152" lon="-1.07062">
        <ele>3.4</ele>
        <time>2021-11-12T11:27:31Z</time>
      </trkpt>
      <trkpt lat="45.91633" lon="-1.07121">
        <ele>2.6</ele>
        <time>2021-11-12T11:27:50Z</time>
      </trkpt>
      <trkpt lat="45.91656" lon="-1.07123">
        <ele>4.9</ele>
        <time>2021-11-12T11:27:53Z</time>
      </trkpt>
      <trkpt lat="45.9171" lon="-1.07131">
        <ele>5.8</ele>
        <time>2021-11-12T11:28:01Z</time>
      </trkpt>
      <trkpt lat="45.91739" lon="-1.07147">
        <ele>5.2</ele>
        <time>2021-11-12T11:28:05Z</time>
      </trkpt>
      <trkpt lat="45.91768" lon="-1.07165">
        <ele>5.2</ele>
        <time>2021-11-12T11:28:09Z</time>
      </trkpt>
      <trkpt lat="45.91816" lon="-1.07141">
        <ele>2.1</ele>
        <time>2021-11-12T11:28:17Z</time>
      </trkpt>
      <trkpt lat="45.9186" lon="-1.07097">
        <ele>0.9</ele>
        <time>2021-11-12T11:28:25Z</time>
      </trkpt>
      <trkpt lat="45.91961" lon="-1.07173">
        <ele>1.5</ele>
        <time>2021-11-12T11:28:40Z</time>
      </trkpt>
      <trkpt lat="45.91988" lon="-1.07224">
        <ele>1.5</ele>
        <time>2021-11-12T11:28:43Z</time>
      </trkpt>
      <trkpt lat="45.92098" lon="-1.0732">
        <ele>4.4</ele>
        <time>2021-11-12T11:28:53Z</time>
      </trkpt>
      <trkpt lat="45.92149" lon="-1.0738">
        <ele>4</ele>
        <time>2021-11-12T11:29:09Z</time>
      </trkpt>
      <trkpt lat="45.9215" lon="-1.07382">
        <ele>3.8</ele>
        <time>2021-11-12T11:30:17Z</time>
      </trkpt>
      <trkpt lat="45.92152" lon="-1.07383">
        <ele>7.2</ele>
        <time>2021-11-12T11:36:41Z</time>
      </trkpt>
      <trkpt lat="45.92157" lon="-1.07378">
        <ele>5.7</ele>
        <time>2021-11-12T11:36:45Z</time>
      </trkpt>
      <trkpt lat="45.92167" lon="-1.07303">
        <ele>4.5</ele>
        <time>2021-11-12T11:36:52Z</time>
      </trkpt>
      <trkpt lat="45.9218" lon="-1.07191">
        <ele>3.1</ele>
        <time>2021-11-12T11:36:59Z</time>
      </trkpt>
      <trkpt lat="45.92188" lon="-1.07155">
        <ele>3.1</ele>
        <time>2021-11-12T11:37:03Z</time>
      </trkpt>
      <trkpt lat="45.92282" lon="-1.07125">
        <ele>5.4</ele>
        <time>2021-11-12T11:37:14Z</time>
      </trkpt>
      <trkpt lat="45.92315" lon="-1.07125">
        <ele>4.8</ele>
        <time>2021-11-12T11:37:17Z</time>
      </trkpt>
      <trkpt lat="45.92494" lon="-1.07125">
        <ele>6.8</ele>
        <time>2021-11-12T11:37:35Z</time>
      </trkpt>
      <trkpt lat="45.92574" lon="-1.07127">
        <ele>5.4</ele>
        <time>2021-11-12T11:37:43Z</time>
      </trkpt>
      <trkpt lat="45.92752" lon="-1.07174">
        <ele>4.2</ele>
        <time>2021-11-12T11:38:00Z</time>
      </trkpt>
      <trkpt lat="45.92866" lon="-1.07204">
        <ele>6.5</ele>
        <time>2021-11-12T11:38:11Z</time>
      </trkpt>
      <trkpt lat="45.93256" lon="-1.07306">
        <ele>4.9</ele>
        <time>2021-11-12T11:38:47Z</time>
      </trkpt>
      <trkpt lat="45.93299" lon="-1.07321">
        <ele>4.7</ele>
        <time>2021-11-12T11:38:51Z</time>
      </trkpt>
      <trkpt lat="45.93363" lon="-1.07414">
        <ele>4.3</ele>
        <time>2021-11-12T11:38:58Z</time>
      </trkpt>
      <trkpt lat="45.93394" lon="-1.07484">
        <ele>3.9</ele>
        <time>2021-11-12T11:39:02Z</time>
      </trkpt>
      <trkpt lat="45.93466" lon="-1.0762">
        <ele>4.7</ele>
        <time>2021-11-12T11:39:16Z</time>
      </trkpt>
      <trkpt lat="45.93736" lon="-1.07699">
        <ele>4.2</ele>
        <time>2021-11-12T11:39:34Z</time>
      </trkpt>
      <trkpt lat="45.93843" lon="-1.07664">
        <ele>3.2</ele>
        <time>2021-11-12T11:39:45Z</time>
      </trkpt>
      <trkpt lat="45.93889" lon="-1.07863">
        <ele>8.5</ele>
        <time>2021-11-12T11:40:00Z</time>
      </trkpt>
      <trkpt lat="45.93907" lon="-1.07949">
        <ele>7.5</ele>
        <time>2021-11-12T11:40:04Z</time>
      </trkpt>
      <trkpt lat="45.93932" lon="-1.08074">
        <ele>6.4</ele>
        <time>2021-11-12T11:40:10Z</time>
      </trkpt>
      <trkpt lat="45.93946" lon="-1.08165">
        <ele>6.5</ele>
        <time>2021-11-12T11:40:14Z</time>
      </trkpt>
      <trkpt lat="45.93949" lon="-1.08306">
        <ele>9.3</ele>
        <time>2021-11-12T11:40:21Z</time>
      </trkpt>
      <trkpt lat="45.93948" lon="-1.08373">
        <ele>8.3</ele>
        <time>2021-11-12T11:40:25Z</time>
      </trkpt>
      <trkpt lat="45.93959" lon="-1.08436">
        <ele>7.9</ele>
        <time>2021-11-12T11:40:29Z</time>
      </trkpt>
      <trkpt lat="45.93967" lon="-1.0847">
        <ele>10</ele>
        <time>2021-11-12T11:40:37Z</time>
      </trkpt>
      <trkpt lat="45.93978" lon="-1.08528">
        <ele>10.1</ele>
        <time>2021-11-12T11:40:41Z</time>
      </trkpt>
      <trkpt lat="45.94054" lon="-1.0882">
        <ele>11.6</ele>
        <time>2021-11-12T11:40:58Z</time>
      </trkpt>
      <trkpt lat="45.9407" lon="-1.08872">
        <ele>9.2</ele>
        <time>2021-11-12T11:41:01Z</time>
      </trkpt>
      <trkpt lat="45.94098" lon="-1.08946">
        <ele>8.3</ele>
        <time>2021-11-12T11:41:05Z</time>
      </trkpt>
      <trkpt lat="45.94122" lon="-1.09011">
        <ele>8.1</ele>
        <time>2021-11-12T11:41:09Z</time>
      </trkpt>
      <trkpt lat="45.94195" lon="-1.09264">
        <ele>8.5</ele>
        <time>2021-11-12T11:41:23Z</time>
      </trkpt>
      <trkpt lat="45.9424" lon="-1.09484">
        <ele>13.4</ele>
        <time>2021-11-12T11:41:35Z</time>
      </trkpt>
      <trkpt lat="45.9426" lon="-1.09552">
        <ele>15.9</ele>
        <time>2021-11-12T11:41:39Z</time>
      </trkpt>
      <trkpt lat="45.94269" lon="-1.09605">
        <ele>17.1</ele>
        <time>2021-11-12T11:41:42Z</time>
      </trkpt>
      <trkpt lat="45.94282" lon="-1.09672">
        <ele>13.9</ele>
        <time>2021-11-12T11:41:46Z</time>
      </trkpt>
      <trkpt lat="45.94302" lon="-1.09718">
        <ele>10.9</ele>
        <time>2021-11-12T11:41:49Z</time>
      </trkpt>
      <trkpt lat="45.94367" lon="-1.09764">
        <ele>6.8</ele>
        <time>2021-11-12T11:41:57Z</time>
      </trkpt>
      <trkpt lat="45.94428" lon="-1.09734">
        <ele>5.1</ele>
        <time>2021-11-12T11:42:01Z</time>
      </trkpt>
      <trkpt lat="45.94467" lon="-1.09716">
        <ele>5.1</ele>
        <time>2021-11-12T11:42:04Z</time>
      </trkpt>
      <trkpt lat="45.94516" lon="-1.09693">
        <ele>2.7</ele>
        <time>2021-11-12T11:42:08Z</time>
      </trkpt>
      <trkpt lat="45.94545" lon="-1.0966">
        <ele>2.9</ele>
        <time>2021-11-12T11:42:11Z</time>
      </trkpt>
      <trkpt lat="45.94636" lon="-1.09588">
        <ele>2.1</ele>
        <time>2021-11-12T11:42:26Z</time>
      </trkpt>
      <trkpt lat="45.94731" lon="-1.09621">
        <ele>1.5</ele>
        <time>2021-11-12T11:42:33Z</time>
      </trkpt>
      <trkpt lat="45.94777" lon="-1.0965">
        <ele>1.8</ele>
        <time>2021-11-12T11:42:37Z</time>
      </trkpt>
      <trkpt lat="45.94855" lon="-1.09564">
        <ele>3.1</ele>
        <time>2021-11-12T11:42:47Z</time>
      </trkpt>
      <trkpt lat="45.94859" lon="-1.09475">
        <ele>3.5</ele>
        <time>2021-11-12T11:42:55Z</time>
      </trkpt>
      <trkpt lat="45.94879" lon="-1.09081">
        <ele>4</ele>
        <time>2021-11-12T11:43:19Z</time>
      </trkpt>
      <trkpt lat="45.94888" lon="-1.08905">
        <ele>8.6</ele>
        <time>2021-11-12T11:43:29Z</time>
      </trkpt>
      <trkpt lat="45.94888" lon="-1.08837">
        <ele>8.6</ele>
        <time>2021-11-12T11:43:33Z</time>
      </trkpt>
      <trkpt lat="45.94887" lon="-1.08704">
        <ele>10.3</ele>
        <time>2021-11-12T11:43:41Z</time>
      </trkpt>
      <trkpt lat="45.94901" lon="-1.0864">
        <ele>8.4</ele>
        <time>2021-11-12T11:43:45Z</time>
      </trkpt>
      <trkpt lat="45.94915" lon="-1.08575">
        <ele>7.3</ele>
        <time>2021-11-12T11:43:49Z</time>
      </trkpt>
      <trkpt lat="45.94912" lon="-1.08451">
        <ele>5.4</ele>
        <time>2021-11-12T11:43:57Z</time>
      </trkpt>
      <trkpt lat="45.94909" lon="-1.08403">
        <ele>5.8</ele>
        <time>2021-11-12T11:44:01Z</time>
      </trkpt>
      <trkpt lat="45.949" lon="-1.083">
        <ele>5.2</ele>
        <time>2021-11-12T11:44:08Z</time>
      </trkpt>
      <trkpt lat="45.94906" lon="-1.08193">
        <ele>3.4</ele>
        <time>2021-11-12T11:44:15Z</time>
      </trkpt>
      <trkpt lat="45.94917" lon="-1.08094">
        <ele>2.4</ele>
        <time>2021-11-12T11:44:22Z</time>
      </trkpt>
      <trkpt lat="45.94917" lon="-1.0799">
        <ele>-0.2</ele>
        <time>2021-11-12T11:44:29Z</time>
      </trkpt>
      <trkpt lat="45.94911" lon="-1.07894">
        <ele>-1.1</ele>
        <time>2021-11-12T11:44:37Z</time>
      </trkpt>
      <trkpt lat="45.94893" lon="-1.07771">
        <ele>-0.4</ele>
        <time>2021-11-12T11:44:47Z</time>
      </trkpt>
      <trkpt lat="45.9488" lon="-1.07669">
        <ele>4.5</ele>
        <time>2021-11-12T11:44:55Z</time>
      </trkpt>
      <trkpt lat="45.94856" lon="-1.07464">
        <ele>6.5</ele>
        <time>2021-11-12T11:45:09Z</time>
      </trkpt>
      <trkpt lat="45.94812" lon="-1.07218">
        <ele>5.5</ele>
        <time>2021-11-12T11:45:26Z</time>
      </trkpt>
      <trkpt lat="45.94632" lon="-1.06999">
        <ele>4.9</ele>
        <time>2021-11-12T11:45:47Z</time>
      </trkpt>
      <trkpt lat="45.94575" lon="-1.06923">
        <ele>3.5</ele>
        <time>2021-11-12T11:46:01Z</time>
      </trkpt>
      <trkpt lat="45.94605" lon="-1.0682">
        <ele>2.7</ele>
        <time>2021-11-12T11:46:08Z</time>
      </trkpt>
      <trkpt lat="45.94656" lon="-1.0666">
        <ele>2</ele>
        <time>2021-11-12T11:46:19Z</time>
      </trkpt>
      <trkpt lat="45.94647" lon="-1.06538">
        <ele>4.5</ele>
        <time>2021-11-12T11:46:27Z</time>
      </trkpt>
      <trkpt lat="45.94627" lon="-1.06438">
        <ele>8</ele>
        <time>2021-11-12T11:46:34Z</time>
      </trkpt>
      <trkpt lat="45.9461" lon="-1.06324">
        <ele>8.5</ele>
        <time>2021-11-12T11:46:41Z</time>
      </trkpt>
      <trkpt lat="45.94534" lon="-1.06164">
        <ele>7.7</ele>
        <time>2021-11-12T11:46:52Z</time>
      </trkpt>
      <trkpt lat="45.94508" lon="-1.06124">
        <ele>7.1</ele>
        <time>2021-11-12T11:46:55Z</time>
      </trkpt>
      <trkpt lat="45.94483" lon="-1.06079">
        <ele>7</ele>
        <time>2021-11-12T11:46:59Z</time>
      </trkpt>
      <trkpt lat="45.94512" lon="-1.06028">
        <ele>5.8</ele>
        <time>2021-11-12T11:47:06Z</time>
      </trkpt>
      <trkpt lat="45.94578" lon="-1.05979">
        <ele>4.7</ele>
        <time>2021-11-12T11:47:13Z</time>
      </trkpt>
      <trkpt lat="45.94563" lon="-1.05883">
        <ele>2.6</ele>
        <time>2021-11-12T11:47:27Z</time>
      </trkpt>
      <trkpt lat="45.94607" lon="-1.05785">
        <ele>2.3</ele>
        <time>2021-11-12T11:47:39Z</time>
      </trkpt>
      <trkpt lat="45.94823" lon="-1.05531">
        <ele>0.5</ele>
        <time>2021-11-12T11:48:00Z</time>
      </trkpt>
      <trkpt lat="45.9496" lon="-1.05355">
        <ele>2.7</ele>
        <time>2021-11-12T11:48:21Z</time>
      </trkpt>
      <trkpt lat="45.94896" lon="-1.05296">
        <ele>1.9</ele>
        <time>2021-11-12T11:48:35Z</time>
      </trkpt>
      <trkpt lat="45.94887" lon="-1.05163">
        <ele>3.8</ele>
        <time>2021-11-12T11:48:46Z</time>
      </trkpt>
      <trkpt lat="45.94912" lon="-1.05131">
        <ele>6.2</ele>
        <time>2021-11-12T11:48:50Z</time>
      </trkpt>
      <trkpt lat="45.95041" lon="-1.04924">
        <ele>3.2</ele>
        <time>2021-11-12T11:49:10Z</time>
      </trkpt>
      <trkpt lat="45.95051" lon="-1.04747">
        <ele>1.5</ele>
        <time>2021-11-12T11:49:28Z</time>
      </trkpt>
      <trkpt lat="45.95085" lon="-1.04639">
        <ele>1.7</ele>
        <time>2021-11-12T11:49:46Z</time>
      </trkpt>
      <trkpt lat="45.95095" lon="-1.046">
        <ele>1</ele>
        <time>2021-11-12T11:49:50Z</time>
      </trkpt>
      <trkpt lat="45.95098" lon="-1.0453">
        <ele>2.3</ele>
        <time>2021-11-12T11:49:57Z</time>
      </trkpt>
      <trkpt lat="45.95098" lon="-1.04494">
        <ele>2.2</ele>
        <time>2021-11-12T11:50:00Z</time>
      </trkpt>
      <trkpt lat="45.95069" lon="-1.04391">
        <ele>3.2</ele>
        <time>2021-11-12T11:50:11Z</time>
      </trkpt>
      <trkpt lat="45.95015" lon="-1.04304">
        <ele>1.3</ele>
        <time>2021-11-12T11:50:21Z</time>
      </trkpt>
      <trkpt lat="45.95003" lon="-1.04285">
        <ele>2.1</ele>
        <time>2021-11-12T11:50:24Z</time>
      </trkpt>
      <trkpt lat="45.94995" lon="-1.04254">
        <ele>2.1</ele>
        <time>2021-11-12T11:50:28Z</time>
      </trkpt>
      <trkpt lat="45.95036" lon="-1.04142">
        <ele>4.9</ele>
        <time>2021-11-12T11:50:46Z</time>
      </trkpt>
      <trkpt lat="45.95235" lon="-1.04074">
        <ele>4.4</ele>
        <time>2021-11-12T11:51:01Z</time>
      </trkpt>
      <trkpt lat="45.95282" lon="-1.03893">
        <ele>3.8</ele>
        <time>2021-11-12T11:51:12Z</time>
      </trkpt>
      <trkpt lat="45.9533" lon="-1.0372">
        <ele>4.1</ele>
        <time>2021-11-12T11:51:20Z</time>
      </trkpt>
      <trkpt lat="45.95355" lon="-1.0367">
        <ele>3.5</ele>
        <time>2021-11-12T11:51:23Z</time>
      </trkpt>
      <trkpt lat="45.95364" lon="-1.03592">
        <ele>2.3</ele>
        <time>2021-11-12T11:51:30Z</time>
      </trkpt>
      <trkpt lat="45.95472" lon="-1.03477">
        <ele>1.8</ele>
        <time>2021-11-12T11:51:45Z</time>
      </trkpt>
      <trkpt lat="45.95487" lon="-1.0344">
        <ele>3.3</ele>
        <time>2021-11-12T11:51:48Z</time>
      </trkpt>
      <trkpt lat="45.95555" lon="-1.03386">
        <ele>5.2</ele>
        <time>2021-11-12T11:51:55Z</time>
      </trkpt>
      <trkpt lat="45.95587" lon="-1.03364">
        <ele>4.8</ele>
        <time>2021-11-12T11:51:58Z</time>
      </trkpt>
      <trkpt lat="45.95625" lon="-1.03334">
        <ele>5.3</ele>
        <time>2021-11-12T11:52:02Z</time>
      </trkpt>
      <trkpt lat="45.95657" lon="-1.0315">
        <ele>4.8</ele>
        <time>2021-11-12T11:52:17Z</time>
      </trkpt>
      <trkpt lat="45.95702" lon="-1.03096">
        <ele>4.8</ele>
        <time>2021-11-12T11:52:24Z</time>
      </trkpt>
      <trkpt lat="45.9573" lon="-1.03057">
        <ele>2.9</ele>
        <time>2021-11-12T11:52:28Z</time>
      </trkpt>
      <trkpt lat="45.95794" lon="-1.02996">
        <ele>1.3</ele>
        <time>2021-11-12T11:52:38Z</time>
      </trkpt>
      <trkpt lat="45.95843" lon="-1.02836">
        <ele>4.5</ele>
        <time>2021-11-12T11:52:49Z</time>
      </trkpt>
      <trkpt lat="45.95826" lon="-1.02701">
        <ele>2.7</ele>
        <time>2021-11-12T11:53:00Z</time>
      </trkpt>
      <trkpt lat="45.9579" lon="-1.02653">
        <ele>2.4</ele>
        <time>2021-11-12T11:53:04Z</time>
      </trkpt>
      <trkpt lat="45.95768" lon="-1.02627">
        <ele>3.3</ele>
        <time>2021-11-12T11:53:07Z</time>
      </trkpt>
      <trkpt lat="45.95718" lon="-1.02475">
        <ele>4.9</ele>
        <time>2021-11-12T11:53:15Z</time>
      </trkpt>
      <trkpt lat="45.957" lon="-1.02395">
        <ele>5.2</ele>
        <time>2021-11-12T11:53:19Z</time>
      </trkpt>
      <trkpt lat="45.95685" lon="-1.02342">
        <ele>3.7</ele>
        <time>2021-11-12T11:53:22Z</time>
      </trkpt>
      <trkpt lat="45.95677" lon="-1.023">
        <ele>3.6</ele>
        <time>2021-11-12T11:53:25Z</time>
      </trkpt>
      <trkpt lat="45.95691" lon="-1.02166">
        <ele>2.5</ele>
        <time>2021-11-12T11:53:33Z</time>
      </trkpt>
      <trkpt lat="45.95697" lon="-1.0202">
        <ele>2.3</ele>
        <time>2021-11-12T11:53:40Z</time>
      </trkpt>
      <trkpt lat="45.95615" lon="-1.01747">
        <ele>1.4</ele>
        <time>2021-11-12T11:53:55Z</time>
      </trkpt>
      <trkpt lat="45.9553" lon="-1.01653">
        <ele>2.8</ele>
        <time>2021-11-12T11:54:10Z</time>
      </trkpt>
      <trkpt lat="45.95531" lon="-1.01588">
        <ele>7.2</ele>
        <time>2021-11-12T11:54:14Z</time>
      </trkpt>
      <trkpt lat="45.95529" lon="-1.01525">
        <ele>6.2</ele>
        <time>2021-11-12T11:54:17Z</time>
      </trkpt>
      <trkpt lat="45.95495" lon="-1.01344">
        <ele>5.2</ele>
        <time>2021-11-12T11:54:25Z</time>
      </trkpt>
      <trkpt lat="45.95447" lon="-1.01175">
        <ele>3.6</ele>
        <time>2021-11-12T11:54:33Z</time>
      </trkpt>
      <trkpt lat="45.9543" lon="-1.01134">
        <ele>3.9</ele>
        <time>2021-11-12T11:54:36Z</time>
      </trkpt>
      <trkpt lat="45.95288" lon="-1.01065">
        <ele>3.1</ele>
        <time>2021-11-12T11:54:47Z</time>
      </trkpt>
      <trkpt lat="45.95119" lon="-1.01029">
        <ele>3.2</ele>
        <time>2021-11-12T11:54:59Z</time>
      </trkpt>
      <trkpt lat="45.95005" lon="-1.01081">
        <ele>1.6</ele>
        <time>2021-11-12T11:55:09Z</time>
      </trkpt>
      <trkpt lat="45.94901" lon="-1.01158">
        <ele>3.8</ele>
        <time>2021-11-12T11:55:17Z</time>
      </trkpt>
      <trkpt lat="45.94837" lon="-1.01206">
        <ele>3.6</ele>
        <time>2021-11-12T11:55:21Z</time>
      </trkpt>
      <trkpt lat="45.94793" lon="-1.01252">
        <ele>2.8</ele>
        <time>2021-11-12T11:55:24Z</time>
      </trkpt>
      <trkpt lat="45.947" lon="-1.01353">
        <ele>2.2</ele>
        <time>2021-11-12T11:55:31Z</time>
      </trkpt>
      <trkpt lat="45.94609" lon="-1.01517">
        <ele>1.5</ele>
        <time>2021-11-12T11:55:39Z</time>
      </trkpt>
      <trkpt lat="45.94573" lon="-1.01587">
        <ele>2.8</ele>
        <time>2021-11-12T11:55:43Z</time>
      </trkpt>
      <trkpt lat="45.94474" lon="-1.01706">
        <ele>3.9</ele>
        <time>2021-11-12T11:55:50Z</time>
      </trkpt>
      <trkpt lat="45.94299" lon="-1.01878">
        <ele>2.5</ele>
        <time>2021-11-12T11:56:04Z</time>
      </trkpt>
      <trkpt lat="45.94134" lon="-1.02042">
        <ele>3.7</ele>
        <time>2021-11-12T11:56:18Z</time>
      </trkpt>
      <trkpt lat="45.94048" lon="-1.02129">
        <ele>2.4</ele>
        <time>2021-11-12T11:56:25Z</time>
      </trkpt>
      <trkpt lat="45.93974" lon="-1.02063">
        <ele>3.3</ele>
        <time>2021-11-12T11:56:36Z</time>
      </trkpt>
      <trkpt lat="45.93891" lon="-1.02065">
        <ele>1.7</ele>
        <time>2021-11-12T11:56:44Z</time>
      </trkpt>
      <trkpt lat="45.93662" lon="-1.02253">
        <ele>0.7</ele>
        <time>2021-11-12T11:56:58Z</time>
      </trkpt>
      <trkpt lat="45.93521" lon="-1.02385">
        <ele>1.3</ele>
        <time>2021-11-12T11:57:09Z</time>
      </trkpt>
      <trkpt lat="45.93402" lon="-1.02458">
        <ele>2.1</ele>
        <time>2021-11-12T11:57:23Z</time>
      </trkpt>
      <trkpt lat="45.93363" lon="-1.02363">
        <ele>8.4</ele>
        <time>2021-11-12T11:57:37Z</time>
      </trkpt>
      <trkpt lat="45.9331" lon="-1.02249">
        <ele>12.1</ele>
        <time>2021-11-12T11:57:45Z</time>
      </trkpt>
      <trkpt lat="45.93215" lon="-1.0217">
        <ele>9.7</ele>
        <time>2021-11-12T11:57:55Z</time>
      </trkpt>
      <trkpt lat="45.9312" lon="-1.02137">
        <ele>11.8</ele>
        <time>2021-11-12T11:58:02Z</time>
      </trkpt>
      <trkpt lat="45.93039" lon="-1.02109">
        <ele>14.3</ele>
        <time>2021-11-12T11:58:09Z</time>
      </trkpt>
      <trkpt lat="45.92986" lon="-1.02058">
        <ele>17.3</ele>
        <time>2021-11-12T11:58:16Z</time>
      </trkpt>
      <trkpt lat="45.92953" lon="-1.02009">
        <ele>17.9</ele>
        <time>2021-11-12T11:58:20Z</time>
      </trkpt>
      <trkpt lat="45.92887" lon="-1.0195">
        <ele>19.3</ele>
        <time>2021-11-12T11:58:27Z</time>
      </trkpt>
      <trkpt lat="45.92822" lon="-1.01906">
        <ele>17.6</ele>
        <time>2021-11-12T11:58:35Z</time>
      </trkpt>
      <trkpt lat="45.92801" lon="-1.019">
        <ele>17.5</ele>
        <time>2021-11-12T11:58:39Z</time>
      </trkpt>
      <trkpt lat="45.92838" lon="-1.01861">
        <ele>18.3</ele>
        <time>2021-11-12T11:58:49Z</time>
      </trkpt>
      <trkpt lat="45.93035" lon="-1.01703">
        <ele>18.3</ele>
        <time>2021-11-12T11:59:06Z</time>
      </trkpt>
      <trkpt lat="45.93074" lon="-1.01656">
        <ele>17.2</ele>
        <time>2021-11-12T11:59:10Z</time>
      </trkpt>
      <trkpt lat="45.93107" lon="-1.0162">
        <ele>15.3</ele>
        <time>2021-11-12T11:59:14Z</time>
      </trkpt>
      <trkpt lat="45.93134" lon="-1.016">
        <ele>15</ele>
        <time>2021-11-12T11:59:17Z</time>
      </trkpt>
      <trkpt lat="45.93187" lon="-1.01561">
        <ele>10.8</ele>
        <time>2021-11-12T11:59:24Z</time>
      </trkpt>
      <trkpt lat="45.9323" lon="-1.01528">
        <ele>7</ele>
        <time>2021-11-12T11:59:30Z</time>
      </trkpt>
      <trkpt lat="45.93262" lon="-1.01502">
        <ele>3.6</ele>
        <time>2021-11-12T11:59:34Z</time>
      </trkpt>
      <trkpt lat="45.93263" lon="-1.0136">
        <ele>5.8</ele>
        <time>2021-11-12T11:59:49Z</time>
      </trkpt>
      <trkpt lat="45.93228" lon="-1.01287">
        <ele>5.4</ele>
        <time>2021-11-12T11:59:53Z</time>
      </trkpt>
      <trkpt lat="45.932" lon="-1.01229">
        <ele>6.5</ele>
        <time>2021-11-12T11:59:57Z</time>
      </trkpt>
      <trkpt lat="45.93051" lon="-1.01059">
        <ele>6.6</ele>
        <time>2021-11-12T12:00:10Z</time>
      </trkpt>
      <trkpt lat="45.92982" lon="-1.00957">
        <ele>4.7</ele>
        <time>2021-11-12T12:00:17Z</time>
      </trkpt>
      <trkpt lat="45.92956" lon="-1.0092">
        <ele>3.8</ele>
        <time>2021-11-12T12:00:21Z</time>
      </trkpt>
      <trkpt lat="45.92926" lon="-1.00902">
        <ele>3.3</ele>
        <time>2021-11-12T12:00:24Z</time>
      </trkpt>
      <trkpt lat="45.92886" lon="-1.00876">
        <ele>3.4</ele>
        <time>2021-11-12T12:00:28Z</time>
      </trkpt>
      <trkpt lat="45.92837" lon="-1.00797">
        <ele>3.4</ele>
        <time>2021-11-12T12:00:35Z</time>
      </trkpt>
      <trkpt lat="45.92811" lon="-1.00788">
        <ele>5</ele>
        <time>2021-11-12T12:00:42Z</time>
      </trkpt>
      <trkpt lat="45.92777" lon="-1.00781">
        <ele>7.3</ele>
        <time>2021-11-12T12:00:46Z</time>
      </trkpt>
      <trkpt lat="45.92747" lon="-1.00778">
        <ele>9.2</ele>
        <time>2021-11-12T12:00:49Z</time>
      </trkpt>
      <trkpt lat="45.92705" lon="-1.00823">
        <ele>12.8</ele>
        <time>2021-11-12T12:00:56Z</time>
      </trkpt>
      <trkpt lat="45.92684" lon="-1.0089">
        <ele>19</ele>
        <time>2021-11-12T12:01:03Z</time>
      </trkpt>
      <trkpt lat="45.92677" lon="-1.00925">
        <ele>22.3</ele>
        <time>2021-11-12T12:01:06Z</time>
      </trkpt>
      <trkpt lat="45.92669" lon="-1.00981">
        <ele>23.3</ele>
        <time>2021-11-12T12:01:10Z</time>
      </trkpt>
      <trkpt lat="45.92658" lon="-1.01047">
        <ele>63.7</ele>
        <time>2021-11-12T12:01:24Z</time>
      </trkpt>
      <trkpt lat="45.92654" lon="-1.01042">
        <ele>63.5</ele>
        <time>2021-11-12T12:01:28Z</time>
      </trkpt>
      <trkpt lat="45.92607" lon="-1.00915">
        <ele>63.6</ele>
        <time>2021-11-12T12:01:38Z</time>
      </trkpt>
      <trkpt lat="45.92582" lon="-1.00842">
        <ele>63.6</ele>
        <time>2021-11-12T12:01:45Z</time>
      </trkpt>
      <trkpt lat="45.92524" lon="-1.0079">
        <ele>63.6</ele>
        <time>2021-11-12T12:01:53Z</time>
      </trkpt>
      <trkpt lat="45.92473" lon="-1.00772">
        <ele>63.5</ele>
        <time>2021-11-12T12:02:01Z</time>
      </trkpt>
      <trkpt lat="45.92433" lon="-1.00676">
        <ele>63.6</ele>
        <time>2021-11-12T12:02:09Z</time>
      </trkpt>
      <trkpt lat="45.92406" lon="-1.00585">
        <ele>63.6</ele>
        <time>2021-11-12T12:02:16Z</time>
      </trkpt>
      <trkpt lat="45.9236" lon="-1.00501">
        <ele>63.7</ele>
        <time>2021-11-12T12:02:23Z</time>
      </trkpt>
      <trkpt lat="45.92309" lon="-1.00432">
        <ele>17.4</ele>
        <time>2021-11-12T12:02:29Z</time>
      </trkpt>
      <trkpt lat="45.92274" lon="-1.00389">
        <ele>17.1</ele>
        <time>2021-11-12T12:02:33Z</time>
      </trkpt>
      <trkpt lat="45.9212" lon="-1.003">
        <ele>16.4</ele>
        <time>2021-11-12T12:02:51Z</time>
      </trkpt>
      <trkpt lat="45.92063" lon="-1.00273">
        <ele>12.9</ele>
        <time>2021-11-12T12:02:55Z</time>
      </trkpt>
      <trkpt lat="45.91941" lon="-1.00212">
        <ele>10.2</ele>
        <time>2021-11-12T12:03:03Z</time>
      </trkpt>
      <trkpt lat="45.9186" lon="-1.00092">
        <ele>14.2</ele>
        <time>2021-11-12T12:03:10Z</time>
      </trkpt>
      <trkpt lat="45.91742" lon="-0.99865">
        <ele>16.6</ele>
        <time>2021-11-12T12:03:21Z</time>
      </trkpt>
      <trkpt lat="45.91712" lon="-0.99791">
        <ele>15.2</ele>
        <time>2021-11-12T12:03:24Z</time>
      </trkpt>
      <trkpt lat="45.91676" lon="-0.99692">
        <ele>12</ele>
        <time>2021-11-12T12:03:28Z</time>
      </trkpt>
      <trkpt lat="45.91648" lon="-0.99616">
        <ele>8.5</ele>
        <time>2021-11-12T12:03:31Z</time>
      </trkpt>
      <trkpt lat="45.91579" lon="-0.99427">
        <ele>7.6</ele>
        <time>2021-11-12T12:03:39Z</time>
      </trkpt>
      <trkpt lat="45.91512" lon="-0.99243">
        <ele>12.3</ele>
        <time>2021-11-12T12:03:47Z</time>
      </trkpt>
      <trkpt lat="45.91478" lon="-0.9915">
        <ele>12.5</ele>
        <time>2021-11-12T12:03:51Z</time>
      </trkpt>
      <trkpt lat="45.91275" lon="-0.98596">
        <ele>13.5</ele>
        <time>2021-11-12T12:04:14Z</time>
      </trkpt>
      <trkpt lat="45.91216" lon="-0.98435">
        <ele>10.7</ele>
        <time>2021-11-12T12:04:21Z</time>
      </trkpt>
      <trkpt lat="45.91177" lon="-0.98163">
        <ele>7.4</ele>
        <time>2021-11-12T12:04:32Z</time>
      </trkpt>
      <trkpt lat="45.91173" lon="-0.98031">
        <ele>10.4</ele>
        <time>2021-11-12T12:04:39Z</time>
      </trkpt>
      <trkpt lat="45.91061" lon="-0.97795">
        <ele>13.6</ele>
        <time>2021-11-12T12:04:55Z</time>
      </trkpt>
      <trkpt lat="45.90853" lon="-0.97441">
        <ele>16.6</ele>
        <time>2021-11-12T12:05:13Z</time>
      </trkpt>
      <trkpt lat="45.90756" lon="-0.9719">
        <ele>12.9</ele>
        <time>2021-11-12T12:05:27Z</time>
      </trkpt>
      <trkpt lat="45.90736" lon="-0.97136">
        <ele>14</ele>
        <time>2021-11-12T12:05:30Z</time>
      </trkpt>
      <trkpt lat="45.90646" lon="-0.96888">
        <ele>14.7</ele>
        <time>2021-11-12T12:05:47Z</time>
      </trkpt>
      <trkpt lat="45.90617" lon="-0.96785">
        <ele>14.6</ele>
        <time>2021-11-12T12:06:07Z</time>
      </trkpt>
      <trkpt lat="45.90613" lon="-0.96774">
        <ele>15.7</ele>
        <time>2021-11-12T12:06:15Z</time>
      </trkpt>
      <trkpt lat="45.90609" lon="-0.96762">
        <ele>17.6</ele>
        <time>2021-11-12T12:06:33Z</time>
      </trkpt>
    </trkseg>
  </trk>
</gpx>